<?xml version="1.0" encoding="UTF-8" standalone="no" ?>
<gpx xmlns="http://www.topografix.com/GPX/1/1" xmlns:xsi="http://www.w3.org/2001/XMLSchema-instance" xsi:schemaLocation="http://www.topografix.com/GPX/1/1 http://www.topografix.com/GPX/1/1/gpx.xsd" version="1.1" creator="VisuGPX - https://www.visugpx.com">
  <metadata>
    <name>Orvault rando free 04-12-11</name>
    <desc><![CDATA[Orvault rando free 04-12-11]]></desc>
  </metadata>
  <trk>
    <name><![CDATA[001-2011/12/04-10:21:18]]></name>
    <trkseg>
      <trkpt lat="47.26985" lon="-1.62407">
        <ele>43</ele>
        <time>2011-12-04T10:21:18Z</time>
      </trkpt>
      <trkpt lat="47.27013" lon="-1.62388">
        <ele>40</ele>
        <time>2011-12-04T10:21:56.1Z</time>
      </trkpt>
      <trkpt lat="47.27015" lon="-1.62385">
        <ele>40</ele>
        <time>2011-12-04T10:21:56.3Z</time>
      </trkpt>
      <trkpt lat="47.27018" lon="-1.62384">
        <ele>40</ele>
        <time>2011-12-04T10:21:57.3Z</time>
      </trkpt>
      <trkpt lat="47.27021" lon="-1.62384">
        <ele>40</ele>
        <time>2011-12-04T10:21:58.3Z</time>
      </trkpt>
      <trkpt lat="47.27026" lon="-1.62382">
        <ele>40</ele>
        <time>2011-12-04T10:22:02.4Z</time>
      </trkpt>
      <trkpt lat="47.27028" lon="-1.62373">
        <ele>40</ele>
        <time>2011-12-04T10:22:03.3Z</time>
      </trkpt>
      <trkpt lat="47.27028" lon="-1.62369">
        <ele>40</ele>
        <time>2011-12-04T10:22:04.3Z</time>
      </trkpt>
      <trkpt lat="47.27026" lon="-1.6235">
        <ele>40</ele>
        <time>2011-12-04T10:22:08.4Z</time>
      </trkpt>
      <trkpt lat="47.27026" lon="-1.62345">
        <ele>40</ele>
        <time>2011-12-04T10:22:09.3Z</time>
      </trkpt>
      <trkpt lat="47.27028" lon="-1.62341">
        <ele>40</ele>
        <time>2011-12-04T10:22:12Z</time>
      </trkpt>
      <trkpt lat="47.2703" lon="-1.62342">
        <ele>40</ele>
        <time>2011-12-04T10:22:13.3Z</time>
      </trkpt>
      <trkpt lat="47.2703" lon="-1.62345">
        <ele>40</ele>
        <time>2011-12-04T10:22:14.5Z</time>
      </trkpt>
      <trkpt lat="47.2703" lon="-1.62348">
        <ele>40</ele>
        <time>2011-12-04T10:22:15.5Z</time>
      </trkpt>
      <trkpt lat="47.27018" lon="-1.62358">
        <ele>40</ele>
        <time>2011-12-04T10:22:19.3Z</time>
      </trkpt>
      <trkpt lat="47.27014" lon="-1.6236">
        <ele>40</ele>
        <time>2011-12-04T10:22:20.3Z</time>
      </trkpt>
      <trkpt lat="47.2701" lon="-1.62363">
        <ele>39</ele>
        <time>2011-12-04T10:22:21.5Z</time>
      </trkpt>
      <trkpt lat="47.27001" lon="-1.62368">
        <ele>39</ele>
        <time>2011-12-04T10:22:24.4Z</time>
      </trkpt>
      <trkpt lat="47.26991" lon="-1.62375">
        <ele>39</ele>
        <time>2011-12-04T10:22:25.3Z</time>
      </trkpt>
      <trkpt lat="47.26986" lon="-1.62378">
        <ele>39</ele>
        <time>2011-12-04T10:22:26.3Z</time>
      </trkpt>
      <trkpt lat="47.2697" lon="-1.62389">
        <ele>38</ele>
        <time>2011-12-04T10:22:29.3Z</time>
      </trkpt>
      <trkpt lat="47.26964" lon="-1.62393">
        <ele>38</ele>
        <time>2011-12-04T10:22:30.3Z</time>
      </trkpt>
      <trkpt lat="47.26953" lon="-1.624">
        <ele>38</ele>
        <time>2011-12-04T10:22:34Z</time>
      </trkpt>
      <trkpt lat="47.26944" lon="-1.62407">
        <ele>37</ele>
        <time>2011-12-04T10:22:34.3Z</time>
      </trkpt>
      <trkpt lat="47.26939" lon="-1.62411">
        <ele>37</ele>
        <time>2011-12-04T10:22:35.3Z</time>
      </trkpt>
      <trkpt lat="47.26932" lon="-1.62419">
        <ele>36</ele>
        <time>2011-12-04T10:22:38.8Z</time>
      </trkpt>
      <trkpt lat="47.2693" lon="-1.62427">
        <ele>35</ele>
        <time>2011-12-04T10:22:39.3Z</time>
      </trkpt>
      <trkpt lat="47.26928" lon="-1.62431">
        <ele>34</ele>
        <time>2011-12-04T10:22:40.3Z</time>
      </trkpt>
      <trkpt lat="47.26927" lon="-1.62435">
        <ele>34</ele>
        <time>2011-12-04T10:22:41.3Z</time>
      </trkpt>
      <trkpt lat="47.26928" lon="-1.62439">
        <ele>33</ele>
        <time>2011-12-04T10:22:42.5Z</time>
      </trkpt>
      <trkpt lat="47.26929" lon="-1.62443">
        <ele>33</ele>
        <time>2011-12-04T10:22:43.7Z</time>
      </trkpt>
      <trkpt lat="47.26931" lon="-1.6245">
        <ele>33</ele>
        <time>2011-12-04T10:22:47.7Z</time>
      </trkpt>
      <trkpt lat="47.26937" lon="-1.62458">
        <ele>33</ele>
        <time>2011-12-04T10:22:48.5Z</time>
      </trkpt>
      <trkpt lat="47.26939" lon="-1.6246">
        <ele>33</ele>
        <time>2011-12-04T10:22:49.3Z</time>
      </trkpt>
      <trkpt lat="47.26942" lon="-1.62466">
        <ele>33</ele>
        <time>2011-12-04T10:22:52.6Z</time>
      </trkpt>
      <trkpt lat="47.26946" lon="-1.62473">
        <ele>33</ele>
        <time>2011-12-04T10:22:53.3Z</time>
      </trkpt>
      <trkpt lat="47.26948" lon="-1.62478">
        <ele>33</ele>
        <time>2011-12-04T10:22:54.3Z</time>
      </trkpt>
      <trkpt lat="47.2695" lon="-1.62482">
        <ele>33</ele>
        <time>2011-12-04T10:22:55.5Z</time>
      </trkpt>
      <trkpt lat="47.26953" lon="-1.62492">
        <ele>33</ele>
        <time>2011-12-04T10:22:58.9Z</time>
      </trkpt>
      <trkpt lat="47.26956" lon="-1.62501">
        <ele>33</ele>
        <time>2011-12-04T10:22:59.3Z</time>
      </trkpt>
      <trkpt lat="47.26957" lon="-1.62504">
        <ele>33</ele>
        <time>2011-12-04T10:23:00.3Z</time>
      </trkpt>
      <trkpt lat="47.26959" lon="-1.62521">
        <ele>33</ele>
        <time>2011-12-04T10:23:04.3Z</time>
      </trkpt>
      <trkpt lat="47.26959" lon="-1.62526">
        <ele>33</ele>
        <time>2011-12-04T10:23:05.3Z</time>
      </trkpt>
      <trkpt lat="47.2696" lon="-1.62531">
        <ele>33</ele>
        <time>2011-12-04T10:23:06.3Z</time>
      </trkpt>
      <trkpt lat="47.26961" lon="-1.62539">
        <ele>33</ele>
        <time>2011-12-04T10:23:09.9Z</time>
      </trkpt>
      <trkpt lat="47.26962" lon="-1.62546">
        <ele>33</ele>
        <time>2011-12-04T10:23:11.1Z</time>
      </trkpt>
      <trkpt lat="47.26962" lon="-1.6255">
        <ele>34</ele>
        <time>2011-12-04T10:23:11.3Z</time>
      </trkpt>
      <trkpt lat="47.26962" lon="-1.62554">
        <ele>35</ele>
        <time>2011-12-04T10:23:12.3Z</time>
      </trkpt>
      <trkpt lat="47.26963" lon="-1.62559">
        <ele>36</ele>
        <time>2011-12-04T10:23:16Z</time>
      </trkpt>
      <trkpt lat="47.26964" lon="-1.62563">
        <ele>37</ele>
        <time>2011-12-04T10:23:16.3Z</time>
      </trkpt>
      <trkpt lat="47.26963" lon="-1.62561">
        <ele>40</ele>
        <time>2011-12-04T10:23:19.8Z</time>
      </trkpt>
      <trkpt lat="47.26962" lon="-1.62556">
        <ele>40</ele>
        <time>2011-12-04T10:23:24.4Z</time>
      </trkpt>
      <trkpt lat="47.26966" lon="-1.62542">
        <ele>40</ele>
        <time>2011-12-04T10:23:25.6Z</time>
      </trkpt>
      <trkpt lat="47.26967" lon="-1.62539">
        <ele>41</ele>
        <time>2011-12-04T10:23:26.6Z</time>
      </trkpt>
      <trkpt lat="47.26968" lon="-1.62533">
        <ele>42</ele>
        <time>2011-12-04T10:23:31.4Z</time>
      </trkpt>
      <trkpt lat="47.26971" lon="-1.62522">
        <ele>43</ele>
        <time>2011-12-04T10:23:32.3Z</time>
      </trkpt>
      <trkpt lat="47.26972" lon="-1.62519">
        <ele>44</ele>
        <time>2011-12-04T10:23:33.5Z</time>
      </trkpt>
      <trkpt lat="47.26972" lon="-1.62516">
        <ele>45</ele>
        <time>2011-12-04T10:23:34.7Z</time>
      </trkpt>
      <trkpt lat="47.26977" lon="-1.6251">
        <ele>46</ele>
        <time>2011-12-04T10:23:39.4Z</time>
      </trkpt>
      <trkpt lat="47.26987" lon="-1.62497">
        <ele>47</ele>
        <time>2011-12-04T10:23:40.3Z</time>
      </trkpt>
      <trkpt lat="47.26989" lon="-1.62494">
        <ele>48</ele>
        <time>2011-12-04T10:23:41.3Z</time>
      </trkpt>
      <trkpt lat="47.26992" lon="-1.62491">
        <ele>49</ele>
        <time>2011-12-04T10:23:42.3Z</time>
      </trkpt>
      <trkpt lat="47.27003" lon="-1.6248">
        <ele>50</ele>
        <time>2011-12-04T10:23:46.4Z</time>
      </trkpt>
      <trkpt lat="47.27006" lon="-1.62478">
        <ele>50</ele>
        <time>2011-12-04T10:23:47.3Z</time>
      </trkpt>
      <trkpt lat="47.27008" lon="-1.62476">
        <ele>50</ele>
        <time>2011-12-04T10:23:48.3Z</time>
      </trkpt>
      <trkpt lat="47.27014" lon="-1.62472">
        <ele>50</ele>
        <time>2011-12-04T10:23:52.4Z</time>
      </trkpt>
      <trkpt lat="47.27022" lon="-1.62468">
        <ele>49</ele>
        <time>2011-12-04T10:23:53.3Z</time>
      </trkpt>
      <trkpt lat="47.27025" lon="-1.62468">
        <ele>48</ele>
        <time>2011-12-04T10:23:54.3Z</time>
      </trkpt>
      <trkpt lat="47.27027" lon="-1.62469">
        <ele>48</ele>
        <time>2011-12-04T10:23:59.5Z</time>
      </trkpt>
      <trkpt lat="47.27026" lon="-1.62476">
        <ele>48</ele>
        <time>2011-12-04T10:24:00.9Z</time>
      </trkpt>
      <trkpt lat="47.27025" lon="-1.62478">
        <ele>48</ele>
        <time>2011-12-04T10:24:01.6Z</time>
      </trkpt>
      <trkpt lat="47.27022" lon="-1.62481">
        <ele>48</ele>
        <time>2011-12-04T10:24:07.1Z</time>
      </trkpt>
      <trkpt lat="47.27017" lon="-1.62489">
        <ele>48</ele>
        <time>2011-12-04T10:24:07.3Z</time>
      </trkpt>
      <trkpt lat="47.27017" lon="-1.62491">
        <ele>48</ele>
        <time>2011-12-04T10:24:08.7Z</time>
      </trkpt>
      <trkpt lat="47.27015" lon="-1.62494">
        <ele>48</ele>
        <time>2011-12-04T10:24:09.7Z</time>
      </trkpt>
      <trkpt lat="47.27013" lon="-1.625">
        <ele>48</ele>
        <time>2011-12-04T10:24:14Z</time>
      </trkpt>
      <trkpt lat="47.2701" lon="-1.62509">
        <ele>48</ele>
        <time>2011-12-04T10:24:14.3Z</time>
      </trkpt>
      <trkpt lat="47.27009" lon="-1.62513">
        <ele>48</ele>
        <time>2011-12-04T10:24:15.3Z</time>
      </trkpt>
      <trkpt lat="47.27009" lon="-1.62516">
        <ele>48</ele>
        <time>2011-12-04T10:24:16.9Z</time>
      </trkpt>
      <trkpt lat="47.27008" lon="-1.62524">
        <ele>49</ele>
        <time>2011-12-04T10:24:21.4Z</time>
      </trkpt>
      <trkpt lat="47.27009" lon="-1.62538">
        <ele>49</ele>
        <time>2011-12-04T10:24:22.3Z</time>
      </trkpt>
      <trkpt lat="47.2701" lon="-1.62542">
        <ele>49</ele>
        <time>2011-12-04T10:24:23.5Z</time>
      </trkpt>
      <trkpt lat="47.27011" lon="-1.6255">
        <ele>50</ele>
        <time>2011-12-04T10:24:29Z</time>
      </trkpt>
      <trkpt lat="47.27015" lon="-1.62564">
        <ele>50</ele>
        <time>2011-12-04T10:24:29.3Z</time>
      </trkpt>
      <trkpt lat="47.27016" lon="-1.62568">
        <ele>50</ele>
        <time>2011-12-04T10:24:30.3Z</time>
      </trkpt>
      <trkpt lat="47.27017" lon="-1.62574">
        <ele>51</ele>
        <time>2011-12-04T10:24:34.9Z</time>
      </trkpt>
      <trkpt lat="47.27021" lon="-1.62588">
        <ele>51</ele>
        <time>2011-12-04T10:24:35.3Z</time>
      </trkpt>
      <trkpt lat="47.27022" lon="-1.62592">
        <ele>52</ele>
        <time>2011-12-04T10:24:36.3Z</time>
      </trkpt>
      <trkpt lat="47.27022" lon="-1.62604">
        <ele>52</ele>
        <time>2011-12-04T10:24:41.5Z</time>
      </trkpt>
      <trkpt lat="47.2702" lon="-1.62625">
        <ele>53</ele>
        <time>2011-12-04T10:24:42.6Z</time>
      </trkpt>
      <trkpt lat="47.2702" lon="-1.6263">
        <ele>53</ele>
        <time>2011-12-04T10:24:44Z</time>
      </trkpt>
      <trkpt lat="47.27018" lon="-1.62639">
        <ele>54</ele>
        <time>2011-12-04T10:24:48.9Z</time>
      </trkpt>
      <trkpt lat="47.27018" lon="-1.62662">
        <ele>55</ele>
        <time>2011-12-04T10:24:49.3Z</time>
      </trkpt>
      <trkpt lat="47.27019" lon="-1.62668">
        <ele>55</ele>
        <time>2011-12-04T10:24:50.3Z</time>
      </trkpt>
      <trkpt lat="47.27021" lon="-1.62674">
        <ele>55</ele>
        <time>2011-12-04T10:24:51.6Z</time>
      </trkpt>
      <trkpt lat="47.27023" lon="-1.62686">
        <ele>55</ele>
        <time>2011-12-04T10:24:56.6Z</time>
      </trkpt>
      <trkpt lat="47.27027" lon="-1.62708">
        <ele>55</ele>
        <time>2011-12-04T10:24:57.3Z</time>
      </trkpt>
      <trkpt lat="47.27027" lon="-1.62714">
        <ele>55</ele>
        <time>2011-12-04T10:24:58.3Z</time>
      </trkpt>
      <trkpt lat="47.27029" lon="-1.62726">
        <ele>55</ele>
        <time>2011-12-04T10:25:03.4Z</time>
      </trkpt>
      <trkpt lat="47.27032" lon="-1.62748">
        <ele>55</ele>
        <time>2011-12-04T10:25:04.3Z</time>
      </trkpt>
      <trkpt lat="47.27033" lon="-1.62753">
        <ele>55</ele>
        <time>2011-12-04T10:25:05.3Z</time>
      </trkpt>
      <trkpt lat="47.27035" lon="-1.62763">
        <ele>55</ele>
        <time>2011-12-04T10:25:10.4Z</time>
      </trkpt>
      <trkpt lat="47.27041" lon="-1.62782">
        <ele>55</ele>
        <time>2011-12-04T10:25:11.3Z</time>
      </trkpt>
      <trkpt lat="47.27042" lon="-1.62787">
        <ele>55</ele>
        <time>2011-12-04T10:25:12.3Z</time>
      </trkpt>
      <trkpt lat="47.27044" lon="-1.62798">
        <ele>55</ele>
        <time>2011-12-04T10:25:17.5Z</time>
      </trkpt>
      <trkpt lat="47.27047" lon="-1.62818">
        <ele>55</ele>
        <time>2011-12-04T10:25:18.3Z</time>
      </trkpt>
      <trkpt lat="47.27049" lon="-1.62824">
        <ele>55</ele>
        <time>2011-12-04T10:25:19.3Z</time>
      </trkpt>
      <trkpt lat="47.27053" lon="-1.62834">
        <ele>54</ele>
        <time>2011-12-04T10:25:24.9Z</time>
      </trkpt>
      <trkpt lat="47.27056" lon="-1.62857">
        <ele>53</ele>
        <time>2011-12-04T10:25:25.3Z</time>
      </trkpt>
      <trkpt lat="47.27056" lon="-1.62862">
        <ele>52</ele>
        <time>2011-12-04T10:25:26.3Z</time>
      </trkpt>
      <trkpt lat="47.27059" lon="-1.62885">
        <ele>51</ele>
        <time>2011-12-04T10:25:30.4Z</time>
      </trkpt>
      <trkpt lat="47.2706" lon="-1.62891">
        <ele>51</ele>
        <time>2011-12-04T10:25:31.3Z</time>
      </trkpt>
      <trkpt lat="47.27063" lon="-1.62896">
        <ele>50</ele>
        <time>2011-12-04T10:25:32.3Z</time>
      </trkpt>
      <trkpt lat="47.27066" lon="-1.62908">
        <ele>50</ele>
        <time>2011-12-04T10:25:36.4Z</time>
      </trkpt>
      <trkpt lat="47.2707" lon="-1.62923">
        <ele>50</ele>
        <time>2011-12-04T10:25:37.3Z</time>
      </trkpt>
      <trkpt lat="47.27071" lon="-1.62928">
        <ele>50</ele>
        <time>2011-12-04T10:25:38.3Z</time>
      </trkpt>
      <trkpt lat="47.27075" lon="-1.62939">
        <ele>50</ele>
        <time>2011-12-04T10:25:42.5Z</time>
      </trkpt>
      <trkpt lat="47.2708" lon="-1.62957">
        <ele>50</ele>
        <time>2011-12-04T10:25:43.3Z</time>
      </trkpt>
      <trkpt lat="47.27082" lon="-1.62964">
        <ele>50</ele>
        <time>2011-12-04T10:25:44.3Z</time>
      </trkpt>
      <trkpt lat="47.27086" lon="-1.62976">
        <ele>50</ele>
        <time>2011-12-04T10:25:48.5Z</time>
      </trkpt>
      <trkpt lat="47.27086" lon="-1.62992">
        <ele>50</ele>
        <time>2011-12-04T10:25:49.3Z</time>
      </trkpt>
      <trkpt lat="47.27086" lon="-1.62997">
        <ele>50</ele>
        <time>2011-12-04T10:25:50.3Z</time>
      </trkpt>
      <trkpt lat="47.27086" lon="-1.63001">
        <ele>51</ele>
        <time>2011-12-04T10:25:51.5Z</time>
      </trkpt>
      <trkpt lat="47.27085" lon="-1.63008">
        <ele>52</ele>
        <time>2011-12-04T10:25:56.4Z</time>
      </trkpt>
      <trkpt lat="47.27084" lon="-1.63033">
        <ele>52</ele>
        <time>2011-12-04T10:25:57.3Z</time>
      </trkpt>
      <trkpt lat="47.27083" lon="-1.63047">
        <ele>52</ele>
        <time>2011-12-04T10:26:01.9Z</time>
      </trkpt>
      <trkpt lat="47.27079" lon="-1.63067">
        <ele>52</ele>
        <time>2011-12-04T10:26:02.3Z</time>
      </trkpt>
      <trkpt lat="47.27077" lon="-1.63074">
        <ele>52</ele>
        <time>2011-12-04T10:26:03.3Z</time>
      </trkpt>
      <trkpt lat="47.2707" lon="-1.63096">
        <ele>51</ele>
        <time>2011-12-04T10:26:08.1Z</time>
      </trkpt>
      <trkpt lat="47.27063" lon="-1.63136">
        <ele>50</ele>
        <time>2011-12-04T10:26:08.3Z</time>
      </trkpt>
      <trkpt lat="47.27061" lon="-1.63148">
        <ele>50</ele>
        <time>2011-12-04T10:26:09.3Z</time>
      </trkpt>
      <trkpt lat="47.27051" lon="-1.632">
        <ele>50</ele>
        <time>2011-12-04T10:26:14.3Z</time>
      </trkpt>
      <trkpt lat="47.27049" lon="-1.63209">
        <ele>50</ele>
        <time>2011-12-04T10:26:15.3Z</time>
      </trkpt>
      <trkpt lat="47.27046" lon="-1.63218">
        <ele>50</ele>
        <time>2011-12-04T10:26:16.3Z</time>
      </trkpt>
      <trkpt lat="47.27041" lon="-1.63237">
        <ele>50</ele>
        <time>2011-12-04T10:26:20.9Z</time>
      </trkpt>
      <trkpt lat="47.27034" lon="-1.63263">
        <ele>50</ele>
        <time>2011-12-04T10:26:21.3Z</time>
      </trkpt>
      <trkpt lat="47.27033" lon="-1.63271">
        <ele>50</ele>
        <time>2011-12-04T10:26:22.3Z</time>
      </trkpt>
      <trkpt lat="47.27033" lon="-1.6328">
        <ele>49</ele>
        <time>2011-12-04T10:26:23.3Z</time>
      </trkpt>
      <trkpt lat="47.27034" lon="-1.63291">
        <ele>49</ele>
        <time>2011-12-04T10:26:28Z</time>
      </trkpt>
      <trkpt lat="47.27045" lon="-1.63292">
        <ele>49</ele>
        <time>2011-12-04T10:26:28.3Z</time>
      </trkpt>
      <trkpt lat="47.2705" lon="-1.63293">
        <ele>49</ele>
        <time>2011-12-04T10:26:29.6Z</time>
      </trkpt>
      <trkpt lat="47.27054" lon="-1.63293">
        <ele>49</ele>
        <time>2011-12-04T10:26:30.4Z</time>
      </trkpt>
      <trkpt lat="47.27076" lon="-1.63299">
        <ele>49</ele>
        <time>2011-12-04T10:26:35.3Z</time>
      </trkpt>
      <trkpt lat="47.2708" lon="-1.63301">
        <ele>49</ele>
        <time>2011-12-04T10:26:36.3Z</time>
      </trkpt>
      <trkpt lat="47.27086" lon="-1.63304">
        <ele>49</ele>
        <time>2011-12-04T10:26:41.8Z</time>
      </trkpt>
      <trkpt lat="47.27093" lon="-1.63309">
        <ele>49</ele>
        <time>2011-12-04T10:26:42.3Z</time>
      </trkpt>
      <trkpt lat="47.27092" lon="-1.63306">
        <ele>49</ele>
        <time>2011-12-04T10:26:44.4Z</time>
      </trkpt>
      <trkpt lat="47.27087" lon="-1.63302">
        <ele>49</ele>
        <time>2011-12-04T10:26:49.4Z</time>
      </trkpt>
      <trkpt lat="47.27069" lon="-1.63294">
        <ele>48</ele>
        <time>2011-12-04T10:26:50.5Z</time>
      </trkpt>
      <trkpt lat="47.27065" lon="-1.63292">
        <ele>47</ele>
        <time>2011-12-04T10:26:51.5Z</time>
      </trkpt>
      <trkpt lat="47.2706" lon="-1.63291">
        <ele>47</ele>
        <time>2011-12-04T10:26:52.4Z</time>
      </trkpt>
      <trkpt lat="47.27052" lon="-1.63289">
        <ele>46</ele>
        <time>2011-12-04T10:26:57.4Z</time>
      </trkpt>
      <trkpt lat="47.27044" lon="-1.63296">
        <ele>45</ele>
        <time>2011-12-04T10:26:58.2Z</time>
      </trkpt>
      <trkpt lat="47.27043" lon="-1.633">
        <ele>45</ele>
        <time>2011-12-04T10:26:59.3Z</time>
      </trkpt>
      <trkpt lat="47.27041" lon="-1.63308">
        <ele>44</ele>
        <time>2011-12-04T10:27:05.5Z</time>
      </trkpt>
      <trkpt lat="47.27039" lon="-1.6333">
        <ele>44</ele>
        <time>2011-12-04T10:27:06.2Z</time>
      </trkpt>
      <trkpt lat="47.27039" lon="-1.63333">
        <ele>44</ele>
        <time>2011-12-04T10:27:11.8Z</time>
      </trkpt>
      <trkpt lat="47.27039" lon="-1.63335">
        <ele>43</ele>
        <time>2011-12-04T10:27:12.2Z</time>
      </trkpt>
      <trkpt lat="47.27039" lon="-1.63337">
        <ele>41</ele>
        <time>2011-12-04T10:27:20.7Z</time>
      </trkpt>
      <trkpt lat="47.27039" lon="-1.63339">
        <ele>39</ele>
        <time>2011-12-04T10:27:27.4Z</time>
      </trkpt>
      <trkpt lat="47.27044" lon="-1.6334">
        <ele>38</ele>
        <time>2011-12-04T10:27:28.4Z</time>
      </trkpt>
      <trkpt lat="47.27046" lon="-1.6334">
        <ele>36</ele>
        <time>2011-12-04T10:27:33Z</time>
      </trkpt>
      <trkpt lat="47.27044" lon="-1.6334">
        <ele>36</ele>
        <time>2011-12-04T10:27:38.8Z</time>
      </trkpt>
      <trkpt lat="47.2704" lon="-1.63338">
        <ele>36</ele>
        <time>2011-12-04T10:27:39.8Z</time>
      </trkpt>
      <trkpt lat="47.27039" lon="-1.63336">
        <ele>37</ele>
        <time>2011-12-04T10:27:48.3Z</time>
      </trkpt>
      <trkpt lat="47.27041" lon="-1.63337">
        <ele>39</ele>
        <time>2011-12-04T10:28:00.6Z</time>
      </trkpt>
      <trkpt lat="47.27043" lon="-1.63338">
        <ele>39</ele>
        <time>2011-12-04T10:28:13.8Z</time>
      </trkpt>
      <trkpt lat="47.27041" lon="-1.63337">
        <ele>39</ele>
        <time>2011-12-04T10:28:16.8Z</time>
      </trkpt>
      <trkpt lat="47.2704" lon="-1.63338">
        <ele>39</ele>
        <time>2011-12-04T10:28:20.1Z</time>
      </trkpt>
      <trkpt lat="47.2704" lon="-1.63336">
        <ele>39</ele>
        <time>2011-12-04T10:28:26.4Z</time>
      </trkpt>
      <trkpt lat="47.27041" lon="-1.63333">
        <ele>39</ele>
        <time>2011-12-04T10:28:31Z</time>
      </trkpt>
      <trkpt lat="47.27041" lon="-1.63342">
        <ele>39</ele>
        <time>2011-12-04T10:28:38.3Z</time>
      </trkpt>
      <trkpt lat="47.2704" lon="-1.63345">
        <ele>39</ele>
        <time>2011-12-04T10:28:39.5Z</time>
      </trkpt>
      <trkpt lat="47.2704" lon="-1.63353">
        <ele>39</ele>
        <time>2011-12-04T10:28:43.9Z</time>
      </trkpt>
      <trkpt lat="47.2704" lon="-1.63366">
        <ele>39</ele>
        <time>2011-12-04T10:28:44.4Z</time>
      </trkpt>
      <trkpt lat="47.2704" lon="-1.6337">
        <ele>39</ele>
        <time>2011-12-04T10:28:45.2Z</time>
      </trkpt>
      <trkpt lat="47.27041" lon="-1.63375">
        <ele>39</ele>
        <time>2011-12-04T10:28:46.4Z</time>
      </trkpt>
      <trkpt lat="47.27041" lon="-1.63382">
        <ele>39</ele>
        <time>2011-12-04T10:28:50.4Z</time>
      </trkpt>
      <trkpt lat="47.27041" lon="-1.63401">
        <ele>39</ele>
        <time>2011-12-04T10:28:54.4Z</time>
      </trkpt>
      <trkpt lat="47.27044" lon="-1.63413">
        <ele>39</ele>
        <time>2011-12-04T10:28:55.2Z</time>
      </trkpt>
      <trkpt lat="47.27048" lon="-1.63417">
        <ele>39</ele>
        <time>2011-12-04T10:28:56.6Z</time>
      </trkpt>
      <trkpt lat="47.27051" lon="-1.6342">
        <ele>39</ele>
        <time>2011-12-04T10:28:57.6Z</time>
      </trkpt>
      <trkpt lat="47.27058" lon="-1.63423">
        <ele>39</ele>
        <time>2011-12-04T10:29:02.1Z</time>
      </trkpt>
      <trkpt lat="47.2707" lon="-1.63428">
        <ele>39</ele>
        <time>2011-12-04T10:29:02.3Z</time>
      </trkpt>
      <trkpt lat="47.27073" lon="-1.6343">
        <ele>39</ele>
        <time>2011-12-04T10:29:03.2Z</time>
      </trkpt>
      <trkpt lat="47.27076" lon="-1.63433">
        <ele>39</ele>
        <time>2011-12-04T10:29:04.6Z</time>
      </trkpt>
      <trkpt lat="47.2708" lon="-1.63441">
        <ele>39</ele>
        <time>2011-12-04T10:29:09.5Z</time>
      </trkpt>
      <trkpt lat="47.27083" lon="-1.63463">
        <ele>39</ele>
        <time>2011-12-04T10:29:10.3Z</time>
      </trkpt>
      <trkpt lat="47.27083" lon="-1.63468">
        <ele>39</ele>
        <time>2011-12-04T10:29:11.7Z</time>
      </trkpt>
      <trkpt lat="47.27085" lon="-1.63477">
        <ele>40</ele>
        <time>2011-12-04T10:29:16.4Z</time>
      </trkpt>
      <trkpt lat="47.27089" lon="-1.63496">
        <ele>40</ele>
        <time>2011-12-04T10:29:17.2Z</time>
      </trkpt>
      <trkpt lat="47.2709" lon="-1.635">
        <ele>41</ele>
        <time>2011-12-04T10:29:18.3Z</time>
      </trkpt>
      <trkpt lat="47.27091" lon="-1.63505">
        <ele>42</ele>
        <time>2011-12-04T10:29:19.3Z</time>
      </trkpt>
      <trkpt lat="47.27092" lon="-1.63515">
        <ele>43</ele>
        <time>2011-12-04T10:29:23.9Z</time>
      </trkpt>
      <trkpt lat="47.27093" lon="-1.6353">
        <ele>44</ele>
        <time>2011-12-04T10:29:24.2Z</time>
      </trkpt>
      <trkpt lat="47.27093" lon="-1.63535">
        <ele>45</ele>
        <time>2011-12-04T10:29:25.2Z</time>
      </trkpt>
      <trkpt lat="47.27094" lon="-1.63544">
        <ele>46</ele>
        <time>2011-12-04T10:29:29.5Z</time>
      </trkpt>
      <trkpt lat="47.27093" lon="-1.63556">
        <ele>47</ele>
        <time>2011-12-04T10:29:30.2Z</time>
      </trkpt>
      <trkpt lat="47.27092" lon="-1.63561">
        <ele>48</ele>
        <time>2011-12-04T10:29:31.6Z</time>
      </trkpt>
      <trkpt lat="47.27091" lon="-1.63566">
        <ele>49</ele>
        <time>2011-12-04T10:29:32.2Z</time>
      </trkpt>
      <trkpt lat="47.27089" lon="-1.63577">
        <ele>50</ele>
        <time>2011-12-04T10:29:36.6Z</time>
      </trkpt>
      <trkpt lat="47.27085" lon="-1.63593">
        <ele>51</ele>
        <time>2011-12-04T10:29:37.2Z</time>
      </trkpt>
      <trkpt lat="47.27084" lon="-1.63599">
        <ele>51</ele>
        <time>2011-12-04T10:29:38.2Z</time>
      </trkpt>
      <trkpt lat="47.27081" lon="-1.63611">
        <ele>51</ele>
        <time>2011-12-04T10:29:42.7Z</time>
      </trkpt>
      <trkpt lat="47.27077" lon="-1.6363">
        <ele>51</ele>
        <time>2011-12-04T10:29:43.2Z</time>
      </trkpt>
      <trkpt lat="47.27076" lon="-1.63636">
        <ele>51</ele>
        <time>2011-12-04T10:29:44.2Z</time>
      </trkpt>
      <trkpt lat="47.27074" lon="-1.63651">
        <ele>51</ele>
        <time>2011-12-04T10:29:48.9Z</time>
      </trkpt>
      <trkpt lat="47.27069" lon="-1.63673">
        <ele>51</ele>
        <time>2011-12-04T10:29:49.2Z</time>
      </trkpt>
      <trkpt lat="47.27068" lon="-1.63681">
        <ele>51</ele>
        <time>2011-12-04T10:29:50.2Z</time>
      </trkpt>
      <trkpt lat="47.27065" lon="-1.63697">
        <ele>51</ele>
        <time>2011-12-04T10:29:55.1Z</time>
      </trkpt>
      <trkpt lat="47.27062" lon="-1.63721">
        <ele>51</ele>
        <time>2011-12-04T10:29:55.3Z</time>
      </trkpt>
      <trkpt lat="47.27061" lon="-1.6373">
        <ele>51</ele>
        <time>2011-12-04T10:29:56.2Z</time>
      </trkpt>
      <trkpt lat="47.27059" lon="-1.63747">
        <ele>51</ele>
        <time>2011-12-04T10:30:01.4Z</time>
      </trkpt>
      <trkpt lat="47.27057" lon="-1.6378">
        <ele>51</ele>
        <time>2011-12-04T10:30:02.2Z</time>
      </trkpt>
      <trkpt lat="47.27057" lon="-1.63789">
        <ele>51</ele>
        <time>2011-12-04T10:30:03.2Z</time>
      </trkpt>
      <trkpt lat="47.27057" lon="-1.63805">
        <ele>51</ele>
        <time>2011-12-04T10:30:07.8Z</time>
      </trkpt>
      <trkpt lat="47.27058" lon="-1.6383">
        <ele>51</ele>
        <time>2011-12-04T10:30:08.2Z</time>
      </trkpt>
      <trkpt lat="47.27059" lon="-1.63837">
        <ele>51</ele>
        <time>2011-12-04T10:30:09.2Z</time>
      </trkpt>
      <trkpt lat="47.27064" lon="-1.63871">
        <ele>51</ele>
        <time>2011-12-04T10:30:14.3Z</time>
      </trkpt>
      <trkpt lat="47.27064" lon="-1.63877">
        <ele>51</ele>
        <time>2011-12-04T10:30:15.3Z</time>
      </trkpt>
      <trkpt lat="47.27066" lon="-1.63889">
        <ele>51</ele>
        <time>2011-12-04T10:30:20.6Z</time>
      </trkpt>
      <trkpt lat="47.27078" lon="-1.63907">
        <ele>51</ele>
        <time>2011-12-04T10:30:21.2Z</time>
      </trkpt>
      <trkpt lat="47.27081" lon="-1.63912">
        <ele>51</ele>
        <time>2011-12-04T10:30:22.3Z</time>
      </trkpt>
      <trkpt lat="47.27084" lon="-1.63917">
        <ele>51</ele>
        <time>2011-12-04T10:30:23.4Z</time>
      </trkpt>
      <trkpt lat="47.27089" lon="-1.63929">
        <ele>51</ele>
        <time>2011-12-04T10:30:29.4Z</time>
      </trkpt>
      <trkpt lat="47.27104" lon="-1.63961">
        <ele>51</ele>
        <time>2011-12-04T10:30:30.7Z</time>
      </trkpt>
      <trkpt lat="47.2711" lon="-1.63973">
        <ele>51</ele>
        <time>2011-12-04T10:30:35.5Z</time>
      </trkpt>
      <trkpt lat="47.27125" lon="-1.63995">
        <ele>51</ele>
        <time>2011-12-04T10:30:36.2Z</time>
      </trkpt>
      <trkpt lat="47.27129" lon="-1.64001">
        <ele>51</ele>
        <time>2011-12-04T10:30:37.2Z</time>
      </trkpt>
      <trkpt lat="47.27136" lon="-1.64012">
        <ele>51</ele>
        <time>2011-12-04T10:30:42.1Z</time>
      </trkpt>
      <trkpt lat="47.27146" lon="-1.64031">
        <ele>51</ele>
        <time>2011-12-04T10:30:42.3Z</time>
      </trkpt>
      <trkpt lat="47.27148" lon="-1.64037">
        <ele>51</ele>
        <time>2011-12-04T10:30:43.2Z</time>
      </trkpt>
      <trkpt lat="47.27154" lon="-1.64049">
        <ele>51</ele>
        <time>2011-12-04T10:30:48.7Z</time>
      </trkpt>
      <trkpt lat="47.27164" lon="-1.64072">
        <ele>51</ele>
        <time>2011-12-04T10:30:49.2Z</time>
      </trkpt>
      <trkpt lat="47.27167" lon="-1.64078">
        <ele>51</ele>
        <time>2011-12-04T10:30:50.2Z</time>
      </trkpt>
      <trkpt lat="47.27173" lon="-1.64091">
        <ele>51</ele>
        <time>2011-12-04T10:30:55.5Z</time>
      </trkpt>
      <trkpt lat="47.27186" lon="-1.64116">
        <ele>51</ele>
        <time>2011-12-04T10:30:56.2Z</time>
      </trkpt>
      <trkpt lat="47.27188" lon="-1.64124">
        <ele>51</ele>
        <time>2011-12-04T10:30:57.2Z</time>
      </trkpt>
      <trkpt lat="47.27202" lon="-1.64161">
        <ele>51</ele>
        <time>2011-12-04T10:31:02.3Z</time>
      </trkpt>
      <trkpt lat="47.27205" lon="-1.64169">
        <ele>51</ele>
        <time>2011-12-04T10:31:03.2Z</time>
      </trkpt>
      <trkpt lat="47.2721" lon="-1.64184">
        <ele>51</ele>
        <time>2011-12-04T10:31:09Z</time>
      </trkpt>
      <trkpt lat="47.27222" lon="-1.64214">
        <ele>50</ele>
        <time>2011-12-04T10:31:09.3Z</time>
      </trkpt>
      <trkpt lat="47.27226" lon="-1.64222">
        <ele>49</ele>
        <time>2011-12-04T10:31:10.2Z</time>
      </trkpt>
      <trkpt lat="47.27233" lon="-1.64234">
        <ele>48</ele>
        <time>2011-12-04T10:31:15.9Z</time>
      </trkpt>
      <trkpt lat="47.27245" lon="-1.64252">
        <ele>48</ele>
        <time>2011-12-04T10:31:16.2Z</time>
      </trkpt>
      <trkpt lat="47.27249" lon="-1.64257">
        <ele>47</ele>
        <time>2011-12-04T10:31:17.2Z</time>
      </trkpt>
      <trkpt lat="47.27254" lon="-1.64267">
        <ele>47</ele>
        <time>2011-12-04T10:31:22.8Z</time>
      </trkpt>
      <trkpt lat="47.27264" lon="-1.64286">
        <ele>47</ele>
        <time>2011-12-04T10:31:23.2Z</time>
      </trkpt>
      <trkpt lat="47.27267" lon="-1.64291">
        <ele>47</ele>
        <time>2011-12-04T10:31:24.2Z</time>
      </trkpt>
      <trkpt lat="47.27272" lon="-1.64299">
        <ele>47</ele>
        <time>2011-12-04T10:31:29.7Z</time>
      </trkpt>
      <trkpt lat="47.27284" lon="-1.64319">
        <ele>47</ele>
        <time>2011-12-04T10:31:30.2Z</time>
      </trkpt>
      <trkpt lat="47.27287" lon="-1.64323">
        <ele>46</ele>
        <time>2011-12-04T10:31:31.2Z</time>
      </trkpt>
      <trkpt lat="47.27292" lon="-1.64332">
        <ele>45</ele>
        <time>2011-12-04T10:31:36.8Z</time>
      </trkpt>
      <trkpt lat="47.27302" lon="-1.6435">
        <ele>44</ele>
        <time>2011-12-04T10:31:37.2Z</time>
      </trkpt>
      <trkpt lat="47.27305" lon="-1.64353">
        <ele>43</ele>
        <time>2011-12-04T10:31:38.2Z</time>
      </trkpt>
      <trkpt lat="47.27308" lon="-1.64356">
        <ele>42</ele>
        <time>2011-12-04T10:31:39.9Z</time>
      </trkpt>
      <trkpt lat="47.27314" lon="-1.64364">
        <ele>41</ele>
        <time>2011-12-04T10:31:43.9Z</time>
      </trkpt>
      <trkpt lat="47.27323" lon="-1.64374">
        <ele>40</ele>
        <time>2011-12-04T10:31:44.2Z</time>
      </trkpt>
      <trkpt lat="47.27327" lon="-1.64378">
        <ele>39</ele>
        <time>2011-12-04T10:31:45.2Z</time>
      </trkpt>
      <trkpt lat="47.27333" lon="-1.64386">
        <ele>38</ele>
        <time>2011-12-04T10:31:49.7Z</time>
      </trkpt>
      <trkpt lat="47.27341" lon="-1.64398">
        <ele>38</ele>
        <time>2011-12-04T10:31:50.2Z</time>
      </trkpt>
      <trkpt lat="47.27344" lon="-1.64402">
        <ele>38</ele>
        <time>2011-12-04T10:31:51.2Z</time>
      </trkpt>
      <trkpt lat="47.27351" lon="-1.6441">
        <ele>38</ele>
        <time>2011-12-04T10:31:55.6Z</time>
      </trkpt>
      <trkpt lat="47.27358" lon="-1.64423">
        <ele>38</ele>
        <time>2011-12-04T10:31:56.2Z</time>
      </trkpt>
      <trkpt lat="47.2736" lon="-1.64426">
        <ele>38</ele>
        <time>2011-12-04T10:31:57.2Z</time>
      </trkpt>
      <trkpt lat="47.27362" lon="-1.64429">
        <ele>38</ele>
        <time>2011-12-04T10:31:58.4Z</time>
      </trkpt>
      <trkpt lat="47.27366" lon="-1.64434">
        <ele>38</ele>
        <time>2011-12-04T10:32:02.5Z</time>
      </trkpt>
      <trkpt lat="47.2737" lon="-1.64439">
        <ele>38</ele>
        <time>2011-12-04T10:32:03.3Z</time>
      </trkpt>
      <trkpt lat="47.27373" lon="-1.64442">
        <ele>38</ele>
        <time>2011-12-04T10:32:04.2Z</time>
      </trkpt>
      <trkpt lat="47.27378" lon="-1.64448">
        <ele>38</ele>
        <time>2011-12-04T10:32:08.4Z</time>
      </trkpt>
      <trkpt lat="47.27384" lon="-1.64458">
        <ele>39</ele>
        <time>2011-12-04T10:32:09.2Z</time>
      </trkpt>
      <trkpt lat="47.27387" lon="-1.64461">
        <ele>39</ele>
        <time>2011-12-04T10:32:10.2Z</time>
      </trkpt>
      <trkpt lat="47.27391" lon="-1.64468">
        <ele>39</ele>
        <time>2011-12-04T10:32:14.6Z</time>
      </trkpt>
      <trkpt lat="47.27397" lon="-1.64475">
        <ele>40</ele>
        <time>2011-12-04T10:32:15.2Z</time>
      </trkpt>
      <trkpt lat="47.274" lon="-1.64478">
        <ele>41</ele>
        <time>2011-12-04T10:32:16.4Z</time>
      </trkpt>
      <trkpt lat="47.27404" lon="-1.64482">
        <ele>42</ele>
        <time>2011-12-04T10:32:20.8Z</time>
      </trkpt>
      <trkpt lat="47.2741" lon="-1.64488">
        <ele>43</ele>
        <time>2011-12-04T10:32:21.2Z</time>
      </trkpt>
      <trkpt lat="47.27412" lon="-1.64489">
        <ele>44</ele>
        <time>2011-12-04T10:32:22.2Z</time>
      </trkpt>
      <trkpt lat="47.27417" lon="-1.6449">
        <ele>45</ele>
        <time>2011-12-04T10:32:26.8Z</time>
      </trkpt>
      <trkpt lat="47.27426" lon="-1.64491">
        <ele>46</ele>
        <time>2011-12-04T10:32:27.2Z</time>
      </trkpt>
      <trkpt lat="47.2743" lon="-1.64492">
        <ele>47</ele>
        <time>2011-12-04T10:32:28.2Z</time>
      </trkpt>
      <trkpt lat="47.27437" lon="-1.64492">
        <ele>47</ele>
        <time>2011-12-04T10:32:32.8Z</time>
      </trkpt>
      <trkpt lat="47.27449" lon="-1.64492">
        <ele>47</ele>
        <time>2011-12-04T10:32:33.2Z</time>
      </trkpt>
      <trkpt lat="47.27453" lon="-1.64491">
        <ele>47</ele>
        <time>2011-12-04T10:32:34.2Z</time>
      </trkpt>
      <trkpt lat="47.2746" lon="-1.6449">
        <ele>48</ele>
        <time>2011-12-04T10:32:38.8Z</time>
      </trkpt>
      <trkpt lat="47.27472" lon="-1.64488">
        <ele>48</ele>
        <time>2011-12-04T10:32:39.2Z</time>
      </trkpt>
      <trkpt lat="47.27475" lon="-1.64487">
        <ele>48</ele>
        <time>2011-12-04T10:32:40.2Z</time>
      </trkpt>
      <trkpt lat="47.27484" lon="-1.64485">
        <ele>48</ele>
        <time>2011-12-04T10:32:44.8Z</time>
      </trkpt>
      <trkpt lat="47.27496" lon="-1.64479">
        <ele>48</ele>
        <time>2011-12-04T10:32:45.2Z</time>
      </trkpt>
      <trkpt lat="47.275" lon="-1.64476">
        <ele>49</ele>
        <time>2011-12-04T10:32:46.3Z</time>
      </trkpt>
      <trkpt lat="47.27503" lon="-1.64473">
        <ele>49</ele>
        <time>2011-12-04T10:32:47.3Z</time>
      </trkpt>
      <trkpt lat="47.27511" lon="-1.64467">
        <ele>49</ele>
        <time>2011-12-04T10:32:51.6Z</time>
      </trkpt>
      <trkpt lat="47.27522" lon="-1.64461">
        <ele>49</ele>
        <time>2011-12-04T10:32:52.2Z</time>
      </trkpt>
      <trkpt lat="47.27526" lon="-1.64459">
        <ele>50</ele>
        <time>2011-12-04T10:32:53.2Z</time>
      </trkpt>
      <trkpt lat="47.27534" lon="-1.64455">
        <ele>50</ele>
        <time>2011-12-04T10:32:57.7Z</time>
      </trkpt>
      <trkpt lat="47.27543" lon="-1.64452">
        <ele>51</ele>
        <time>2011-12-04T10:32:58.2Z</time>
      </trkpt>
      <trkpt lat="47.27545" lon="-1.6445">
        <ele>51</ele>
        <time>2011-12-04T10:32:59.2Z</time>
      </trkpt>
      <trkpt lat="47.27548" lon="-1.6445">
        <ele>52</ele>
        <time>2011-12-04T10:33:03.8Z</time>
      </trkpt>
      <trkpt lat="47.27551" lon="-1.64453">
        <ele>52</ele>
        <time>2011-12-04T10:33:04.2Z</time>
      </trkpt>
      <trkpt lat="47.27552" lon="-1.64456">
        <ele>53</ele>
        <time>2011-12-04T10:33:05.3Z</time>
      </trkpt>
      <trkpt lat="47.27553" lon="-1.64459">
        <ele>53</ele>
        <time>2011-12-04T10:33:06.4Z</time>
      </trkpt>
      <trkpt lat="47.27552" lon="-1.64462">
        <ele>53</ele>
        <time>2011-12-04T10:33:07.2Z</time>
      </trkpt>
      <trkpt lat="47.27552" lon="-1.64471">
        <ele>53</ele>
        <time>2011-12-04T10:33:10.3Z</time>
      </trkpt>
      <trkpt lat="47.27553" lon="-1.6448">
        <ele>53</ele>
        <time>2011-12-04T10:33:14.7Z</time>
      </trkpt>
      <trkpt lat="47.27556" lon="-1.64499">
        <ele>53</ele>
        <time>2011-12-04T10:33:15.2Z</time>
      </trkpt>
      <trkpt lat="47.27557" lon="-1.64506">
        <ele>53</ele>
        <time>2011-12-04T10:33:16.2Z</time>
      </trkpt>
      <trkpt lat="47.27558" lon="-1.64521">
        <ele>53</ele>
        <time>2011-12-04T10:33:20.9Z</time>
      </trkpt>
      <trkpt lat="47.27559" lon="-1.64546">
        <ele>53</ele>
        <time>2011-12-04T10:33:21.2Z</time>
      </trkpt>
      <trkpt lat="47.27558" lon="-1.64555">
        <ele>53</ele>
        <time>2011-12-04T10:33:22.2Z</time>
      </trkpt>
      <trkpt lat="47.27557" lon="-1.64573">
        <ele>53</ele>
        <time>2011-12-04T10:33:27.1Z</time>
      </trkpt>
      <trkpt lat="47.27554" lon="-1.64599">
        <ele>53</ele>
        <time>2011-12-04T10:33:27.3Z</time>
      </trkpt>
      <trkpt lat="47.27552" lon="-1.64607">
        <ele>53</ele>
        <time>2011-12-04T10:33:28.2Z</time>
      </trkpt>
      <trkpt lat="47.27549" lon="-1.64622">
        <ele>53</ele>
        <time>2011-12-04T10:33:33.3Z</time>
      </trkpt>
      <trkpt lat="47.27546" lon="-1.64649">
        <ele>53</ele>
        <time>2011-12-04T10:33:34.2Z</time>
      </trkpt>
      <trkpt lat="47.27545" lon="-1.64655">
        <ele>53</ele>
        <time>2011-12-04T10:33:35.2Z</time>
      </trkpt>
      <trkpt lat="47.27543" lon="-1.64668">
        <ele>53</ele>
        <time>2011-12-04T10:33:39.7Z</time>
      </trkpt>
      <trkpt lat="47.27541" lon="-1.64687">
        <ele>53</ele>
        <time>2011-12-04T10:33:40.2Z</time>
      </trkpt>
      <trkpt lat="47.27541" lon="-1.64693">
        <ele>54</ele>
        <time>2011-12-04T10:33:41.2Z</time>
      </trkpt>
      <trkpt lat="47.2754" lon="-1.64706">
        <ele>54</ele>
        <time>2011-12-04T10:33:46Z</time>
      </trkpt>
      <trkpt lat="47.27539" lon="-1.64724">
        <ele>55</ele>
        <time>2011-12-04T10:33:46.2Z</time>
      </trkpt>
      <trkpt lat="47.27539" lon="-1.6473">
        <ele>56</ele>
        <time>2011-12-04T10:33:47.2Z</time>
      </trkpt>
      <trkpt lat="47.27537" lon="-1.64742">
        <ele>57</ele>
        <time>2011-12-04T10:33:52.3Z</time>
      </trkpt>
      <trkpt lat="47.27532" lon="-1.64765">
        <ele>58</ele>
        <time>2011-12-04T10:33:53.2Z</time>
      </trkpt>
      <trkpt lat="47.27531" lon="-1.64771">
        <ele>59</ele>
        <time>2011-12-04T10:33:54.2Z</time>
      </trkpt>
      <trkpt lat="47.27529" lon="-1.64782">
        <ele>60</ele>
        <time>2011-12-04T10:33:58.8Z</time>
      </trkpt>
      <trkpt lat="47.27525" lon="-1.64798">
        <ele>61</ele>
        <time>2011-12-04T10:33:59.2Z</time>
      </trkpt>
      <trkpt lat="47.27524" lon="-1.64804">
        <ele>62</ele>
        <time>2011-12-04T10:34:00.2Z</time>
      </trkpt>
      <trkpt lat="47.27517" lon="-1.64835">
        <ele>62</ele>
        <time>2011-12-04T10:34:05.3Z</time>
      </trkpt>
      <trkpt lat="47.27517" lon="-1.64841">
        <ele>63</ele>
        <time>2011-12-04T10:34:06.9Z</time>
      </trkpt>
      <trkpt lat="47.27517" lon="-1.64848">
        <ele>63</ele>
        <time>2011-12-04T10:34:07.6Z</time>
      </trkpt>
      <trkpt lat="47.27518" lon="-1.64861">
        <ele>64</ele>
        <time>2011-12-04T10:34:12.5Z</time>
      </trkpt>
      <trkpt lat="47.27521" lon="-1.64887">
        <ele>64</ele>
        <time>2011-12-04T10:34:13.2Z</time>
      </trkpt>
      <trkpt lat="47.27522" lon="-1.64894">
        <ele>64</ele>
        <time>2011-12-04T10:34:14.2Z</time>
      </trkpt>
      <trkpt lat="47.27523" lon="-1.64906">
        <ele>64</ele>
        <time>2011-12-04T10:34:18.9Z</time>
      </trkpt>
      <trkpt lat="47.27523" lon="-1.64925">
        <ele>64</ele>
        <time>2011-12-04T10:34:19.2Z</time>
      </trkpt>
      <trkpt lat="47.27523" lon="-1.64932">
        <ele>64</ele>
        <time>2011-12-04T10:34:20.2Z</time>
      </trkpt>
      <trkpt lat="47.27522" lon="-1.64945">
        <ele>64</ele>
        <time>2011-12-04T10:34:25.4Z</time>
      </trkpt>
      <trkpt lat="47.27522" lon="-1.64974">
        <ele>65</ele>
        <time>2011-12-04T10:34:26.2Z</time>
      </trkpt>
      <trkpt lat="47.27523" lon="-1.64981">
        <ele>65</ele>
        <time>2011-12-04T10:34:27.2Z</time>
      </trkpt>
      <trkpt lat="47.27525" lon="-1.64995">
        <ele>65</ele>
        <time>2011-12-04T10:34:31.9Z</time>
      </trkpt>
      <trkpt lat="47.27529" lon="-1.65014">
        <ele>65</ele>
        <time>2011-12-04T10:34:32.2Z</time>
      </trkpt>
      <trkpt lat="47.2753" lon="-1.65021">
        <ele>65</ele>
        <time>2011-12-04T10:34:33.2Z</time>
      </trkpt>
      <trkpt lat="47.27533" lon="-1.65035">
        <ele>65</ele>
        <time>2011-12-04T10:34:38.4Z</time>
      </trkpt>
      <trkpt lat="47.27539" lon="-1.65064">
        <ele>65</ele>
        <time>2011-12-04T10:34:39.2Z</time>
      </trkpt>
      <trkpt lat="47.2754" lon="-1.65071">
        <ele>65</ele>
        <time>2011-12-04T10:34:40.2Z</time>
      </trkpt>
      <trkpt lat="47.27543" lon="-1.65088">
        <ele>65</ele>
        <time>2011-12-04T10:34:45Z</time>
      </trkpt>
      <trkpt lat="47.27551" lon="-1.65112">
        <ele>65</ele>
        <time>2011-12-04T10:34:45.2Z</time>
      </trkpt>
      <trkpt lat="47.27554" lon="-1.65119">
        <ele>65</ele>
        <time>2011-12-04T10:34:46.4Z</time>
      </trkpt>
      <trkpt lat="47.27557" lon="-1.65126">
        <ele>65</ele>
        <time>2011-12-04T10:34:47.6Z</time>
      </trkpt>
      <trkpt lat="47.27563" lon="-1.65139">
        <ele>65</ele>
        <time>2011-12-04T10:34:52.4Z</time>
      </trkpt>
      <trkpt lat="47.27575" lon="-1.65169">
        <ele>65</ele>
        <time>2011-12-04T10:34:53.2Z</time>
      </trkpt>
      <trkpt lat="47.27578" lon="-1.65175">
        <ele>64</ele>
        <time>2011-12-04T10:34:54.2Z</time>
      </trkpt>
      <trkpt lat="47.27585" lon="-1.6519">
        <ele>63</ele>
        <time>2011-12-04T10:34:59.1Z</time>
      </trkpt>
      <trkpt lat="47.27594" lon="-1.65207">
        <ele>62</ele>
        <time>2011-12-04T10:34:59.3Z</time>
      </trkpt>
      <trkpt lat="47.27598" lon="-1.65214">
        <ele>61</ele>
        <time>2011-12-04T10:35:00.2Z</time>
      </trkpt>
      <trkpt lat="47.27605" lon="-1.65226">
        <ele>60</ele>
        <time>2011-12-04T10:35:05.7Z</time>
      </trkpt>
      <trkpt lat="47.27618" lon="-1.65246">
        <ele>59</ele>
        <time>2011-12-04T10:35:06.2Z</time>
      </trkpt>
      <trkpt lat="47.27622" lon="-1.6525">
        <ele>58</ele>
        <time>2011-12-04T10:35:07.2Z</time>
      </trkpt>
      <trkpt lat="47.27626" lon="-1.65261">
        <ele>57</ele>
        <time>2011-12-04T10:35:12.4Z</time>
      </trkpt>
      <trkpt lat="47.27634" lon="-1.65294">
        <ele>56</ele>
        <time>2011-12-04T10:35:14Z</time>
      </trkpt>
      <trkpt lat="47.27635" lon="-1.65301">
        <ele>55</ele>
        <time>2011-12-04T10:35:14.7Z</time>
      </trkpt>
      <trkpt lat="47.27636" lon="-1.65309">
        <ele>54</ele>
        <time>2011-12-04T10:35:15.3Z</time>
      </trkpt>
      <trkpt lat="47.2765" lon="-1.65336">
        <ele>53</ele>
        <time>2011-12-04T10:35:20.3Z</time>
      </trkpt>
      <trkpt lat="47.27652" lon="-1.65338">
        <ele>53</ele>
        <time>2011-12-04T10:35:21.9Z</time>
      </trkpt>
      <trkpt lat="47.27655" lon="-1.65341">
        <ele>52</ele>
        <time>2011-12-04T10:35:22.9Z</time>
      </trkpt>
      <trkpt lat="47.27662" lon="-1.65345">
        <ele>52</ele>
        <time>2011-12-04T10:35:27.9Z</time>
      </trkpt>
      <trkpt lat="47.27673" lon="-1.65345">
        <ele>52</ele>
        <time>2011-12-04T10:35:28.2Z</time>
      </trkpt>
      <trkpt lat="47.27677" lon="-1.65346">
        <ele>52</ele>
        <time>2011-12-04T10:35:29.4Z</time>
      </trkpt>
      <trkpt lat="47.2768" lon="-1.65349">
        <ele>51</ele>
        <time>2011-12-04T10:35:30.4Z</time>
      </trkpt>
      <trkpt lat="47.27683" lon="-1.65352">
        <ele>51</ele>
        <time>2011-12-04T10:35:31.4Z</time>
      </trkpt>
      <trkpt lat="47.27687" lon="-1.65358">
        <ele>51</ele>
        <time>2011-12-04T10:35:36.4Z</time>
      </trkpt>
      <trkpt lat="47.2769" lon="-1.65375">
        <ele>51</ele>
        <time>2011-12-04T10:35:37.2Z</time>
      </trkpt>
      <trkpt lat="47.27691" lon="-1.65379">
        <ele>51</ele>
        <time>2011-12-04T10:35:38.6Z</time>
      </trkpt>
      <trkpt lat="47.27694" lon="-1.65388">
        <ele>51</ele>
        <time>2011-12-04T10:35:43.6Z</time>
      </trkpt>
      <trkpt lat="47.27698" lon="-1.65407">
        <ele>51</ele>
        <time>2011-12-04T10:35:44.2Z</time>
      </trkpt>
      <trkpt lat="47.27699" lon="-1.65412">
        <ele>51</ele>
        <time>2011-12-04T10:35:45.2Z</time>
      </trkpt>
      <trkpt lat="47.27701" lon="-1.65419">
        <ele>51</ele>
        <time>2011-12-04T10:35:50.5Z</time>
      </trkpt>
      <trkpt lat="47.2771" lon="-1.6543">
        <ele>51</ele>
        <time>2011-12-04T10:35:51.2Z</time>
      </trkpt>
      <trkpt lat="47.27713" lon="-1.65432">
        <ele>51</ele>
        <time>2011-12-04T10:35:52.6Z</time>
      </trkpt>
      <trkpt lat="47.27715" lon="-1.65435">
        <ele>52</ele>
        <time>2011-12-04T10:35:53.4Z</time>
      </trkpt>
      <trkpt lat="47.27721" lon="-1.6544">
        <ele>53</ele>
        <time>2011-12-04T10:35:58.5Z</time>
      </trkpt>
      <trkpt lat="47.27735" lon="-1.65442">
        <ele>53</ele>
        <time>2011-12-04T10:35:59.2Z</time>
      </trkpt>
      <trkpt lat="47.27739" lon="-1.65442">
        <ele>53</ele>
        <time>2011-12-04T10:36:00.2Z</time>
      </trkpt>
      <trkpt lat="47.27743" lon="-1.65441">
        <ele>54</ele>
        <time>2011-12-04T10:36:01.2Z</time>
      </trkpt>
      <trkpt lat="47.2775" lon="-1.65441">
        <ele>54</ele>
        <time>2011-12-04T10:36:06.4Z</time>
      </trkpt>
      <trkpt lat="47.27764" lon="-1.65445">
        <ele>54</ele>
        <time>2011-12-04T10:36:07.2Z</time>
      </trkpt>
      <trkpt lat="47.27767" lon="-1.65447">
        <ele>54</ele>
        <time>2011-12-04T10:36:08.8Z</time>
      </trkpt>
      <trkpt lat="47.27771" lon="-1.65448">
        <ele>54</ele>
        <time>2011-12-04T10:36:09.6Z</time>
      </trkpt>
      <trkpt lat="47.27779" lon="-1.6545">
        <ele>54</ele>
        <time>2011-12-04T10:36:14.7Z</time>
      </trkpt>
      <trkpt lat="47.27797" lon="-1.65454">
        <ele>54</ele>
        <time>2011-12-04T10:36:15.2Z</time>
      </trkpt>
      <trkpt lat="47.27802" lon="-1.65455">
        <ele>54</ele>
        <time>2011-12-04T10:36:16.2Z</time>
      </trkpt>
      <trkpt lat="47.2781" lon="-1.65457">
        <ele>54</ele>
        <time>2011-12-04T10:36:21.7Z</time>
      </trkpt>
      <trkpt lat="47.27828" lon="-1.65462">
        <ele>54</ele>
        <time>2011-12-04T10:36:22.2Z</time>
      </trkpt>
      <trkpt lat="47.27832" lon="-1.65462">
        <ele>54</ele>
        <time>2011-12-04T10:36:23.2Z</time>
      </trkpt>
      <trkpt lat="47.27841" lon="-1.65463">
        <ele>54</ele>
        <time>2011-12-04T10:36:28.6Z</time>
      </trkpt>
      <trkpt lat="47.27859" lon="-1.65468">
        <ele>54</ele>
        <time>2011-12-04T10:36:29.2Z</time>
      </trkpt>
      <trkpt lat="47.27863" lon="-1.6547">
        <ele>54</ele>
        <time>2011-12-04T10:36:30.2Z</time>
      </trkpt>
      <trkpt lat="47.27867" lon="-1.65471">
        <ele>54</ele>
        <time>2011-12-04T10:36:31.2Z</time>
      </trkpt>
      <trkpt lat="47.27875" lon="-1.65476">
        <ele>54</ele>
        <time>2011-12-04T10:36:36.5Z</time>
      </trkpt>
      <trkpt lat="47.27888" lon="-1.65493">
        <ele>54</ele>
        <time>2011-12-04T10:36:37.2Z</time>
      </trkpt>
      <trkpt lat="47.2789" lon="-1.65497">
        <ele>54</ele>
        <time>2011-12-04T10:36:38.2Z</time>
      </trkpt>
      <trkpt lat="47.27893" lon="-1.655">
        <ele>54</ele>
        <time>2011-12-04T10:36:39.2Z</time>
      </trkpt>
      <trkpt lat="47.27896" lon="-1.65511">
        <ele>54</ele>
        <time>2011-12-04T10:36:44.5Z</time>
      </trkpt>
      <trkpt lat="47.279" lon="-1.65534">
        <ele>54</ele>
        <time>2011-12-04T10:36:45.2Z</time>
      </trkpt>
      <trkpt lat="47.279" lon="-1.6554">
        <ele>54</ele>
        <time>2011-12-04T10:36:46.8Z</time>
      </trkpt>
      <trkpt lat="47.279" lon="-1.65545">
        <ele>54</ele>
        <time>2011-12-04T10:36:47.6Z</time>
      </trkpt>
      <trkpt lat="47.27902" lon="-1.65556">
        <ele>54</ele>
        <time>2011-12-04T10:36:52.9Z</time>
      </trkpt>
      <trkpt lat="47.27905" lon="-1.65579">
        <ele>54</ele>
        <time>2011-12-04T10:36:53.5Z</time>
      </trkpt>
      <trkpt lat="47.27906" lon="-1.65584">
        <ele>54</ele>
        <time>2011-12-04T10:36:54.2Z</time>
      </trkpt>
      <trkpt lat="47.27908" lon="-1.65595">
        <ele>54</ele>
        <time>2011-12-04T10:37:00Z</time>
      </trkpt>
      <trkpt lat="47.27911" lon="-1.65616">
        <ele>54</ele>
        <time>2011-12-04T10:37:00.2Z</time>
      </trkpt>
      <trkpt lat="47.27912" lon="-1.65622">
        <ele>54</ele>
        <time>2011-12-04T10:37:01.5Z</time>
      </trkpt>
      <trkpt lat="47.27914" lon="-1.65635">
        <ele>54</ele>
        <time>2011-12-04T10:37:05.7Z</time>
      </trkpt>
      <trkpt lat="47.27915" lon="-1.65652">
        <ele>54</ele>
        <time>2011-12-04T10:37:06.2Z</time>
      </trkpt>
      <trkpt lat="47.27915" lon="-1.65658">
        <ele>54</ele>
        <time>2011-12-04T10:37:07.2Z</time>
      </trkpt>
      <trkpt lat="47.27914" lon="-1.65664">
        <ele>54</ele>
        <time>2011-12-04T10:37:08.4Z</time>
      </trkpt>
      <trkpt lat="47.27913" lon="-1.65678">
        <ele>54</ele>
        <time>2011-12-04T10:37:12.4Z</time>
      </trkpt>
      <trkpt lat="47.27911" lon="-1.65698">
        <ele>54</ele>
        <time>2011-12-04T10:37:13.2Z</time>
      </trkpt>
      <trkpt lat="47.2791" lon="-1.65704">
        <ele>54</ele>
        <time>2011-12-04T10:37:14.2Z</time>
      </trkpt>
      <trkpt lat="47.27909" lon="-1.65731">
        <ele>55</ele>
        <time>2011-12-04T10:37:18.3Z</time>
      </trkpt>
      <trkpt lat="47.27909" lon="-1.65737">
        <ele>56</ele>
        <time>2011-12-04T10:37:19.2Z</time>
      </trkpt>
      <trkpt lat="47.27909" lon="-1.65744">
        <ele>57</ele>
        <time>2011-12-04T10:37:20.2Z</time>
      </trkpt>
      <trkpt lat="47.2791" lon="-1.65769">
        <ele>58</ele>
        <time>2011-12-04T10:37:24.3Z</time>
      </trkpt>
      <trkpt lat="47.2791" lon="-1.65775">
        <ele>59</ele>
        <time>2011-12-04T10:37:25.2Z</time>
      </trkpt>
      <trkpt lat="47.2791" lon="-1.65781">
        <ele>60</ele>
        <time>2011-12-04T10:37:26.2Z</time>
      </trkpt>
      <trkpt lat="47.27912" lon="-1.65807">
        <ele>61</ele>
        <time>2011-12-04T10:37:30.3Z</time>
      </trkpt>
      <trkpt lat="47.27912" lon="-1.65813">
        <ele>61</ele>
        <time>2011-12-04T10:37:31.2Z</time>
      </trkpt>
      <trkpt lat="47.27912" lon="-1.65818">
        <ele>62</ele>
        <time>2011-12-04T10:37:32.2Z</time>
      </trkpt>
      <trkpt lat="47.27913" lon="-1.6583">
        <ele>63</ele>
        <time>2011-12-04T10:37:36.3Z</time>
      </trkpt>
      <trkpt lat="47.2791" lon="-1.65848">
        <ele>63</ele>
        <time>2011-12-04T10:37:37.2Z</time>
      </trkpt>
      <trkpt lat="47.2791" lon="-1.65854">
        <ele>63</ele>
        <time>2011-12-04T10:37:38.2Z</time>
      </trkpt>
      <trkpt lat="47.2791" lon="-1.65865">
        <ele>63</ele>
        <time>2011-12-04T10:37:42.3Z</time>
      </trkpt>
      <trkpt lat="47.27913" lon="-1.65883">
        <ele>63</ele>
        <time>2011-12-04T10:37:43.2Z</time>
      </trkpt>
      <trkpt lat="47.27913" lon="-1.65889">
        <ele>63</ele>
        <time>2011-12-04T10:37:44.2Z</time>
      </trkpt>
      <trkpt lat="47.27916" lon="-1.65902">
        <ele>63</ele>
        <time>2011-12-04T10:37:48.4Z</time>
      </trkpt>
      <trkpt lat="47.27919" lon="-1.6592">
        <ele>63</ele>
        <time>2011-12-04T10:37:49.2Z</time>
      </trkpt>
      <trkpt lat="47.27919" lon="-1.65926">
        <ele>63</ele>
        <time>2011-12-04T10:37:50.2Z</time>
      </trkpt>
      <trkpt lat="47.27921" lon="-1.65939">
        <ele>63</ele>
        <time>2011-12-04T10:37:54.3Z</time>
      </trkpt>
      <trkpt lat="47.27923" lon="-1.65955">
        <ele>63</ele>
        <time>2011-12-04T10:37:55.2Z</time>
      </trkpt>
      <trkpt lat="47.27924" lon="-1.65961">
        <ele>63</ele>
        <time>2011-12-04T10:37:56.2Z</time>
      </trkpt>
      <trkpt lat="47.27924" lon="-1.65973">
        <ele>63</ele>
        <time>2011-12-04T10:38:00.4Z</time>
      </trkpt>
      <trkpt lat="47.27922" lon="-1.65993">
        <ele>63</ele>
        <time>2011-12-04T10:38:01.8Z</time>
      </trkpt>
      <trkpt lat="47.27922" lon="-1.66">
        <ele>63</ele>
        <time>2011-12-04T10:38:02.2Z</time>
      </trkpt>
      <trkpt lat="47.27926" lon="-1.66011">
        <ele>63</ele>
        <time>2011-12-04T10:38:06.9Z</time>
      </trkpt>
      <trkpt lat="47.27934" lon="-1.66029">
        <ele>63</ele>
        <time>2011-12-04T10:38:07.7Z</time>
      </trkpt>
      <trkpt lat="47.27935" lon="-1.66036">
        <ele>63</ele>
        <time>2011-12-04T10:38:08.7Z</time>
      </trkpt>
      <trkpt lat="47.27937" lon="-1.66043">
        <ele>63</ele>
        <time>2011-12-04T10:38:09.2Z</time>
      </trkpt>
      <trkpt lat="47.27938" lon="-1.66056">
        <ele>63</ele>
        <time>2011-12-04T10:38:13.8Z</time>
      </trkpt>
      <trkpt lat="47.27945" lon="-1.66072">
        <ele>63</ele>
        <time>2011-12-04T10:38:14.2Z</time>
      </trkpt>
      <trkpt lat="47.27948" lon="-1.66077">
        <ele>63</ele>
        <time>2011-12-04T10:38:15.6Z</time>
      </trkpt>
      <trkpt lat="47.27951" lon="-1.6608">
        <ele>63</ele>
        <time>2011-12-04T10:38:16.6Z</time>
      </trkpt>
      <trkpt lat="47.27956" lon="-1.66083">
        <ele>63</ele>
        <time>2011-12-04T10:38:17.3Z</time>
      </trkpt>
      <trkpt lat="47.27964" lon="-1.66086">
        <ele>62</ele>
        <time>2011-12-04T10:38:22.3Z</time>
      </trkpt>
      <trkpt lat="47.27984" lon="-1.66086">
        <ele>61</ele>
        <time>2011-12-04T10:38:23.3Z</time>
      </trkpt>
      <trkpt lat="47.2799" lon="-1.66085">
        <ele>61</ele>
        <time>2011-12-04T10:38:24.3Z</time>
      </trkpt>
      <trkpt lat="47.28" lon="-1.66085">
        <ele>61</ele>
        <time>2011-12-04T10:38:28.5Z</time>
      </trkpt>
      <trkpt lat="47.28016" lon="-1.66085">
        <ele>61</ele>
        <time>2011-12-04T10:38:29.2Z</time>
      </trkpt>
      <trkpt lat="47.28022" lon="-1.66085">
        <ele>61</ele>
        <time>2011-12-04T10:38:30.2Z</time>
      </trkpt>
      <trkpt lat="47.28033" lon="-1.66086">
        <ele>61</ele>
        <time>2011-12-04T10:38:34.5Z</time>
      </trkpt>
      <trkpt lat="47.28049" lon="-1.66086">
        <ele>61</ele>
        <time>2011-12-04T10:38:35.2Z</time>
      </trkpt>
      <trkpt lat="47.28055" lon="-1.66087">
        <ele>61</ele>
        <time>2011-12-04T10:38:36.2Z</time>
      </trkpt>
      <trkpt lat="47.28066" lon="-1.66087">
        <ele>61</ele>
        <time>2011-12-04T10:38:40.5Z</time>
      </trkpt>
      <trkpt lat="47.28082" lon="-1.66086">
        <ele>61</ele>
        <time>2011-12-04T10:38:41.2Z</time>
      </trkpt>
      <trkpt lat="47.28087" lon="-1.66086">
        <ele>61</ele>
        <time>2011-12-04T10:38:42.2Z</time>
      </trkpt>
      <trkpt lat="47.28098" lon="-1.66087">
        <ele>61</ele>
        <time>2011-12-04T10:38:46.6Z</time>
      </trkpt>
      <trkpt lat="47.28111" lon="-1.66087">
        <ele>61</ele>
        <time>2011-12-04T10:38:47.2Z</time>
      </trkpt>
      <trkpt lat="47.28115" lon="-1.66089">
        <ele>61</ele>
        <time>2011-12-04T10:38:48.2Z</time>
      </trkpt>
      <trkpt lat="47.28118" lon="-1.66091">
        <ele>61</ele>
        <time>2011-12-04T10:38:49.4Z</time>
      </trkpt>
      <trkpt lat="47.28124" lon="-1.6612">
        <ele>61</ele>
        <time>2011-12-04T10:38:54.3Z</time>
      </trkpt>
      <trkpt lat="47.28125" lon="-1.66128">
        <ele>61</ele>
        <time>2011-12-04T10:38:55.3Z</time>
      </trkpt>
      <trkpt lat="47.28127" lon="-1.66135">
        <ele>61</ele>
        <time>2011-12-04T10:38:56.7Z</time>
      </trkpt>
      <trkpt lat="47.2813" lon="-1.66149">
        <ele>61</ele>
        <time>2011-12-04T10:39:01Z</time>
      </trkpt>
      <trkpt lat="47.28135" lon="-1.66167">
        <ele>61</ele>
        <time>2011-12-04T10:39:01.2Z</time>
      </trkpt>
      <trkpt lat="47.28136" lon="-1.66173">
        <ele>61</ele>
        <time>2011-12-04T10:39:02.2Z</time>
      </trkpt>
      <trkpt lat="47.28142" lon="-1.66206">
        <ele>61</ele>
        <time>2011-12-04T10:39:07.2Z</time>
      </trkpt>
      <trkpt lat="47.28143" lon="-1.66212">
        <ele>61</ele>
        <time>2011-12-04T10:39:08.2Z</time>
      </trkpt>
      <trkpt lat="47.2815" lon="-1.66249">
        <ele>61</ele>
        <time>2011-12-04T10:39:13.3Z</time>
      </trkpt>
      <trkpt lat="47.28152" lon="-1.66257">
        <ele>61</ele>
        <time>2011-12-04T10:39:14.2Z</time>
      </trkpt>
      <trkpt lat="47.28153" lon="-1.66264">
        <ele>61</ele>
        <time>2011-12-04T10:39:15.2Z</time>
      </trkpt>
      <trkpt lat="47.28157" lon="-1.66281">
        <ele>61</ele>
        <time>2011-12-04T10:39:19.6Z</time>
      </trkpt>
      <trkpt lat="47.28161" lon="-1.66302">
        <ele>61</ele>
        <time>2011-12-04T10:39:20.2Z</time>
      </trkpt>
      <trkpt lat="47.28163" lon="-1.6631">
        <ele>61</ele>
        <time>2011-12-04T10:39:21.2Z</time>
      </trkpt>
      <trkpt lat="47.28166" lon="-1.66324">
        <ele>61</ele>
        <time>2011-12-04T10:39:25.8Z</time>
      </trkpt>
      <trkpt lat="47.2817" lon="-1.66342">
        <ele>61</ele>
        <time>2011-12-04T10:39:26.2Z</time>
      </trkpt>
      <trkpt lat="47.28171" lon="-1.66347">
        <ele>61</ele>
        <time>2011-12-04T10:39:27.2Z</time>
      </trkpt>
      <trkpt lat="47.28173" lon="-1.66354">
        <ele>61</ele>
        <time>2011-12-04T10:39:31.9Z</time>
      </trkpt>
      <trkpt lat="47.28175" lon="-1.66359">
        <ele>61</ele>
        <time>2011-12-04T10:39:32.2Z</time>
      </trkpt>
      <trkpt lat="47.28176" lon="-1.66362">
        <ele>61</ele>
        <time>2011-12-04T10:39:33.2Z</time>
      </trkpt>
      <trkpt lat="47.28175" lon="-1.66365">
        <ele>61</ele>
        <time>2011-12-04T10:39:34.4Z</time>
      </trkpt>
      <trkpt lat="47.28171" lon="-1.66372">
        <ele>61</ele>
        <time>2011-12-04T10:39:39.6Z</time>
      </trkpt>
      <trkpt lat="47.28159" lon="-1.66384">
        <ele>61</ele>
        <time>2011-12-04T10:39:40.3Z</time>
      </trkpt>
      <trkpt lat="47.28156" lon="-1.66387">
        <ele>61</ele>
        <time>2011-12-04T10:39:41.7Z</time>
      </trkpt>
      <trkpt lat="47.28138" lon="-1.66403">
        <ele>61</ele>
        <time>2011-12-04T10:39:46.3Z</time>
      </trkpt>
      <trkpt lat="47.28135" lon="-1.66406">
        <ele>61</ele>
        <time>2011-12-04T10:39:47.2Z</time>
      </trkpt>
      <trkpt lat="47.28127" lon="-1.66414">
        <ele>61</ele>
        <time>2011-12-04T10:39:52.4Z</time>
      </trkpt>
      <trkpt lat="47.2811" lon="-1.66429">
        <ele>61</ele>
        <time>2011-12-04T10:39:53.2Z</time>
      </trkpt>
      <trkpt lat="47.28105" lon="-1.66433">
        <ele>61</ele>
        <time>2011-12-04T10:39:54.2Z</time>
      </trkpt>
      <trkpt lat="47.28096" lon="-1.6644">
        <ele>61</ele>
        <time>2011-12-04T10:39:58.7Z</time>
      </trkpt>
      <trkpt lat="47.28067" lon="-1.66463">
        <ele>61</ele>
        <time>2011-12-04T10:40:03.3Z</time>
      </trkpt>
      <trkpt lat="47.28062" lon="-1.66466">
        <ele>61</ele>
        <time>2011-12-04T10:40:04.2Z</time>
      </trkpt>
      <trkpt lat="47.28053" lon="-1.6647">
        <ele>61</ele>
        <time>2011-12-04T10:40:09.5Z</time>
      </trkpt>
      <trkpt lat="47.28034" lon="-1.66479">
        <ele>61</ele>
        <time>2011-12-04T10:40:10.2Z</time>
      </trkpt>
      <trkpt lat="47.2803" lon="-1.66481">
        <ele>60</ele>
        <time>2011-12-04T10:40:11.2Z</time>
      </trkpt>
      <trkpt lat="47.2802" lon="-1.66486">
        <ele>60</ele>
        <time>2011-12-04T10:40:15.7Z</time>
      </trkpt>
      <trkpt lat="47.28008" lon="-1.66492">
        <ele>60</ele>
        <time>2011-12-04T10:40:16.2Z</time>
      </trkpt>
      <trkpt lat="47.28004" lon="-1.66493">
        <ele>60</ele>
        <time>2011-12-04T10:40:17.2Z</time>
      </trkpt>
      <trkpt lat="47.27997" lon="-1.66497">
        <ele>60</ele>
        <time>2011-12-04T10:40:22Z</time>
      </trkpt>
      <trkpt lat="47.27992" lon="-1.66508">
        <ele>60</ele>
        <time>2011-12-04T10:40:22.2Z</time>
      </trkpt>
      <trkpt lat="47.27995" lon="-1.66513">
        <ele>60</ele>
        <time>2011-12-04T10:40:23.4Z</time>
      </trkpt>
      <trkpt lat="47.27997" lon="-1.66517">
        <ele>60</ele>
        <time>2011-12-04T10:40:24.3Z</time>
      </trkpt>
      <trkpt lat="47.28004" lon="-1.66524">
        <ele>60</ele>
        <time>2011-12-04T10:40:27.8Z</time>
      </trkpt>
      <trkpt lat="47.28013" lon="-1.66535">
        <ele>60</ele>
        <time>2011-12-04T10:40:32.4Z</time>
      </trkpt>
      <trkpt lat="47.28029" lon="-1.66556">
        <ele>60</ele>
        <time>2011-12-04T10:40:33.2Z</time>
      </trkpt>
      <trkpt lat="47.28033" lon="-1.66562">
        <ele>60</ele>
        <time>2011-12-04T10:40:34.2Z</time>
      </trkpt>
      <trkpt lat="47.28041" lon="-1.66572">
        <ele>60</ele>
        <time>2011-12-04T10:40:38.8Z</time>
      </trkpt>
      <trkpt lat="47.28052" lon="-1.66586">
        <ele>60</ele>
        <time>2011-12-04T10:40:39.2Z</time>
      </trkpt>
      <trkpt lat="47.28055" lon="-1.66591">
        <ele>60</ele>
        <time>2011-12-04T10:40:40.2Z</time>
      </trkpt>
      <trkpt lat="47.28074" lon="-1.66616">
        <ele>60</ele>
        <time>2011-12-04T10:40:45.3Z</time>
      </trkpt>
      <trkpt lat="47.28077" lon="-1.66621">
        <ele>60</ele>
        <time>2011-12-04T10:40:46.2Z</time>
      </trkpt>
      <trkpt lat="47.28083" lon="-1.6663">
        <ele>60</ele>
        <time>2011-12-04T10:40:51.6Z</time>
      </trkpt>
      <trkpt lat="47.28084" lon="-1.66656">
        <ele>60</ele>
        <time>2011-12-04T10:40:52.2Z</time>
      </trkpt>
      <trkpt lat="47.28083" lon="-1.66664">
        <ele>60</ele>
        <time>2011-12-04T10:40:53.6Z</time>
      </trkpt>
      <trkpt lat="47.28082" lon="-1.66671">
        <ele>60</ele>
        <time>2011-12-04T10:40:54.3Z</time>
      </trkpt>
      <trkpt lat="47.2808" lon="-1.66684">
        <ele>60</ele>
        <time>2011-12-04T10:40:59Z</time>
      </trkpt>
      <trkpt lat="47.28078" lon="-1.66705">
        <ele>60</ele>
        <time>2011-12-04T10:40:59.2Z</time>
      </trkpt>
      <trkpt lat="47.28077" lon="-1.66712">
        <ele>60</ele>
        <time>2011-12-04T10:41:00.2Z</time>
      </trkpt>
      <trkpt lat="47.28075" lon="-1.66726">
        <ele>60</ele>
        <time>2011-12-04T10:41:05.4Z</time>
      </trkpt>
      <trkpt lat="47.2807" lon="-1.66754">
        <ele>60</ele>
        <time>2011-12-04T10:41:06.2Z</time>
      </trkpt>
      <trkpt lat="47.28068" lon="-1.66762">
        <ele>60</ele>
        <time>2011-12-04T10:41:07.2Z</time>
      </trkpt>
      <trkpt lat="47.28065" lon="-1.66777">
        <ele>60</ele>
        <time>2011-12-04T10:41:11.9Z</time>
      </trkpt>
      <trkpt lat="47.28063" lon="-1.668">
        <ele>60</ele>
        <time>2011-12-04T10:41:12.2Z</time>
      </trkpt>
      <trkpt lat="47.28062" lon="-1.66808">
        <ele>60</ele>
        <time>2011-12-04T10:41:13.2Z</time>
      </trkpt>
      <trkpt lat="47.2806" lon="-1.66823">
        <ele>60</ele>
        <time>2011-12-04T10:41:18.4Z</time>
      </trkpt>
      <trkpt lat="47.28056" lon="-1.66854">
        <ele>60</ele>
        <time>2011-12-04T10:41:19.2Z</time>
      </trkpt>
      <trkpt lat="47.28054" lon="-1.66861">
        <ele>60</ele>
        <time>2011-12-04T10:41:20.2Z</time>
      </trkpt>
      <trkpt lat="47.28052" lon="-1.66877">
        <ele>60</ele>
        <time>2011-12-04T10:41:24.9Z</time>
      </trkpt>
      <trkpt lat="47.28049" lon="-1.669">
        <ele>60</ele>
        <time>2011-12-04T10:41:25.2Z</time>
      </trkpt>
      <trkpt lat="47.28048" lon="-1.66907">
        <ele>60</ele>
        <time>2011-12-04T10:41:26.2Z</time>
      </trkpt>
      <trkpt lat="47.28046" lon="-1.6692">
        <ele>60</ele>
        <time>2011-12-04T10:41:31.4Z</time>
      </trkpt>
      <trkpt lat="47.28041" lon="-1.66949">
        <ele>60</ele>
        <time>2011-12-04T10:41:32.2Z</time>
      </trkpt>
      <trkpt lat="47.28039" lon="-1.66957">
        <ele>60</ele>
        <time>2011-12-04T10:41:33.2Z</time>
      </trkpt>
      <trkpt lat="47.28036" lon="-1.66971">
        <ele>60</ele>
        <time>2011-12-04T10:41:38Z</time>
      </trkpt>
      <trkpt lat="47.28031" lon="-1.66993">
        <ele>60</ele>
        <time>2011-12-04T10:41:38.2Z</time>
      </trkpt>
      <trkpt lat="47.2803" lon="-1.67">
        <ele>60</ele>
        <time>2011-12-04T10:41:39.2Z</time>
      </trkpt>
      <trkpt lat="47.28027" lon="-1.67013">
        <ele>60</ele>
        <time>2011-12-04T10:41:44.5Z</time>
      </trkpt>
      <trkpt lat="47.2802" lon="-1.67039">
        <ele>60</ele>
        <time>2011-12-04T10:41:45.2Z</time>
      </trkpt>
      <trkpt lat="47.28019" lon="-1.67045">
        <ele>60</ele>
        <time>2011-12-04T10:41:46.2Z</time>
      </trkpt>
      <trkpt lat="47.28011" lon="-1.67077">
        <ele>60</ele>
        <time>2011-12-04T10:41:51.2Z</time>
      </trkpt>
      <trkpt lat="47.28009" lon="-1.67084">
        <ele>60</ele>
        <time>2011-12-04T10:41:52.2Z</time>
      </trkpt>
      <trkpt lat="47.28006" lon="-1.67098">
        <ele>60</ele>
        <time>2011-12-04T10:41:57.7Z</time>
      </trkpt>
      <trkpt lat="47.28" lon="-1.67128">
        <ele>60</ele>
        <time>2011-12-04T10:41:58.2Z</time>
      </trkpt>
      <trkpt lat="47.27998" lon="-1.67135">
        <ele>60</ele>
        <time>2011-12-04T10:41:59.2Z</time>
      </trkpt>
      <trkpt lat="47.27995" lon="-1.67149">
        <ele>60</ele>
        <time>2011-12-04T10:42:04.3Z</time>
      </trkpt>
      <trkpt lat="47.27988" lon="-1.67177">
        <ele>60</ele>
        <time>2011-12-04T10:42:05.2Z</time>
      </trkpt>
      <trkpt lat="47.27987" lon="-1.67183">
        <ele>60</ele>
        <time>2011-12-04T10:42:06.2Z</time>
      </trkpt>
      <trkpt lat="47.27977" lon="-1.6722">
        <ele>60</ele>
        <time>2011-12-04T10:42:11.2Z</time>
      </trkpt>
      <trkpt lat="47.27975" lon="-1.67227">
        <ele>60</ele>
        <time>2011-12-04T10:42:12.2Z</time>
      </trkpt>
      <trkpt lat="47.27971" lon="-1.67243">
        <ele>60</ele>
        <time>2011-12-04T10:42:17.7Z</time>
      </trkpt>
      <trkpt lat="47.27962" lon="-1.67273">
        <ele>60</ele>
        <time>2011-12-04T10:42:18.2Z</time>
      </trkpt>
      <trkpt lat="47.27959" lon="-1.67281">
        <ele>60</ele>
        <time>2011-12-04T10:42:19.2Z</time>
      </trkpt>
      <trkpt lat="47.27955" lon="-1.67295">
        <ele>60</ele>
        <time>2011-12-04T10:42:24.4Z</time>
      </trkpt>
      <trkpt lat="47.27946" lon="-1.67325">
        <ele>60</ele>
        <time>2011-12-04T10:42:25.2Z</time>
      </trkpt>
      <trkpt lat="47.27944" lon="-1.67332">
        <ele>60</ele>
        <time>2011-12-04T10:42:26.2Z</time>
      </trkpt>
      <trkpt lat="47.27932" lon="-1.67369">
        <ele>60</ele>
        <time>2011-12-04T10:42:31.2Z</time>
      </trkpt>
      <trkpt lat="47.2793" lon="-1.67376">
        <ele>60</ele>
        <time>2011-12-04T10:42:32.2Z</time>
      </trkpt>
      <trkpt lat="47.27925" lon="-1.6739">
        <ele>60</ele>
        <time>2011-12-04T10:42:37.8Z</time>
      </trkpt>
      <trkpt lat="47.27918" lon="-1.67413">
        <ele>60</ele>
        <time>2011-12-04T10:42:38.2Z</time>
      </trkpt>
      <trkpt lat="47.27917" lon="-1.67417">
        <ele>60</ele>
        <time>2011-12-04T10:42:39.2Z</time>
      </trkpt>
      <trkpt lat="47.27917" lon="-1.67424">
        <ele>60</ele>
        <time>2011-12-04T10:42:44.6Z</time>
      </trkpt>
      <trkpt lat="47.27923" lon="-1.67431">
        <ele>60</ele>
        <time>2011-12-04T10:42:45.2Z</time>
      </trkpt>
      <trkpt lat="47.27926" lon="-1.67431">
        <ele>60</ele>
        <time>2011-12-04T10:42:46.4Z</time>
      </trkpt>
      <trkpt lat="47.2793" lon="-1.67432">
        <ele>60</ele>
        <time>2011-12-04T10:42:47.2Z</time>
      </trkpt>
      <trkpt lat="47.2795" lon="-1.6744">
        <ele>59</ele>
        <time>2011-12-04T10:42:52.3Z</time>
      </trkpt>
      <trkpt lat="47.27955" lon="-1.67441">
        <ele>58</ele>
        <time>2011-12-04T10:42:53.2Z</time>
      </trkpt>
      <trkpt lat="47.27964" lon="-1.67445">
        <ele>58</ele>
        <time>2011-12-04T10:42:59Z</time>
      </trkpt>
      <trkpt lat="47.27983" lon="-1.67455">
        <ele>57</ele>
        <time>2011-12-04T10:42:59.2Z</time>
      </trkpt>
      <trkpt lat="47.27988" lon="-1.67457">
        <ele>57</ele>
        <time>2011-12-04T10:43:00.2Z</time>
      </trkpt>
      <trkpt lat="47.27997" lon="-1.67463">
        <ele>57</ele>
        <time>2011-12-04T10:43:05.8Z</time>
      </trkpt>
      <trkpt lat="47.28011" lon="-1.67479">
        <ele>57</ele>
        <time>2011-12-04T10:43:06.2Z</time>
      </trkpt>
      <trkpt lat="47.28012" lon="-1.67486">
        <ele>57</ele>
        <time>2011-12-04T10:43:07.6Z</time>
      </trkpt>
      <trkpt lat="47.28011" lon="-1.67493">
        <ele>57</ele>
        <time>2011-12-04T10:43:08.2Z</time>
      </trkpt>
      <trkpt lat="47.28009" lon="-1.67507">
        <ele>57</ele>
        <time>2011-12-04T10:43:14.4Z</time>
      </trkpt>
      <trkpt lat="47.28005" lon="-1.67545">
        <ele>57</ele>
        <time>2011-12-04T10:43:15.2Z</time>
      </trkpt>
      <trkpt lat="47.28003" lon="-1.6756">
        <ele>57</ele>
        <time>2011-12-04T10:43:20.7Z</time>
      </trkpt>
      <trkpt lat="47.27999" lon="-1.6759">
        <ele>57</ele>
        <time>2011-12-04T10:43:21.2Z</time>
      </trkpt>
      <trkpt lat="47.27998" lon="-1.67598">
        <ele>57</ele>
        <time>2011-12-04T10:43:22.2Z</time>
      </trkpt>
      <trkpt lat="47.27996" lon="-1.67614">
        <ele>57</ele>
        <time>2011-12-04T10:43:27.5Z</time>
      </trkpt>
      <trkpt lat="47.27993" lon="-1.67649">
        <ele>57</ele>
        <time>2011-12-04T10:43:28.2Z</time>
      </trkpt>
      <trkpt lat="47.27993" lon="-1.67657">
        <ele>57</ele>
        <time>2011-12-04T10:43:29.2Z</time>
      </trkpt>
      <trkpt lat="47.27992" lon="-1.67675">
        <ele>57</ele>
        <time>2011-12-04T10:43:34.4Z</time>
      </trkpt>
      <trkpt lat="47.27988" lon="-1.6771">
        <ele>57</ele>
        <time>2011-12-04T10:43:35.2Z</time>
      </trkpt>
      <trkpt lat="47.27988" lon="-1.67719">
        <ele>57</ele>
        <time>2011-12-04T10:43:36.2Z</time>
      </trkpt>
      <trkpt lat="47.27987" lon="-1.67737">
        <ele>57</ele>
        <time>2011-12-04T10:43:41.3Z</time>
      </trkpt>
      <trkpt lat="47.27994" lon="-1.67773">
        <ele>57</ele>
        <time>2011-12-04T10:43:42.2Z</time>
      </trkpt>
      <trkpt lat="47.27998" lon="-1.6778">
        <ele>57</ele>
        <time>2011-12-04T10:43:43.6Z</time>
      </trkpt>
      <trkpt lat="47.28002" lon="-1.67787">
        <ele>57</ele>
        <time>2011-12-04T10:43:44.2Z</time>
      </trkpt>
      <trkpt lat="47.2801" lon="-1.67798">
        <ele>57</ele>
        <time>2011-12-04T10:43:49.3Z</time>
      </trkpt>
      <trkpt lat="47.2803" lon="-1.67812">
        <ele>57</ele>
        <time>2011-12-04T10:43:50.2Z</time>
      </trkpt>
      <trkpt lat="47.28035" lon="-1.67814">
        <ele>57</ele>
        <time>2011-12-04T10:43:51.2Z</time>
      </trkpt>
      <trkpt lat="47.2804" lon="-1.67815">
        <ele>57</ele>
        <time>2011-12-04T10:43:52.2Z</time>
      </trkpt>
      <trkpt lat="47.28049" lon="-1.67817">
        <ele>57</ele>
        <time>2011-12-04T10:43:57.4Z</time>
      </trkpt>
      <trkpt lat="47.28069" lon="-1.67817">
        <ele>57</ele>
        <time>2011-12-04T10:43:58.2Z</time>
      </trkpt>
      <trkpt lat="47.28073" lon="-1.67816">
        <ele>57</ele>
        <time>2011-12-04T10:43:59.2Z</time>
      </trkpt>
      <trkpt lat="47.28083" lon="-1.67816">
        <ele>57</ele>
        <time>2011-12-04T10:44:04.4Z</time>
      </trkpt>
      <trkpt lat="47.28102" lon="-1.67816">
        <ele>57</ele>
        <time>2011-12-04T10:44:05.2Z</time>
      </trkpt>
      <trkpt lat="47.28106" lon="-1.67815">
        <ele>57</ele>
        <time>2011-12-04T10:44:06.2Z</time>
      </trkpt>
      <trkpt lat="47.28113" lon="-1.67812">
        <ele>57</ele>
        <time>2011-12-04T10:44:11.5Z</time>
      </trkpt>
      <trkpt lat="47.28122" lon="-1.67802">
        <ele>57</ele>
        <time>2011-12-04T10:44:12.2Z</time>
      </trkpt>
      <trkpt lat="47.28124" lon="-1.67799">
        <ele>57</ele>
        <time>2011-12-04T10:44:13.6Z</time>
      </trkpt>
      <trkpt lat="47.28126" lon="-1.67796">
        <ele>57</ele>
        <time>2011-12-04T10:44:14.2Z</time>
      </trkpt>
      <trkpt lat="47.2813" lon="-1.67789">
        <ele>57</ele>
        <time>2011-12-04T10:44:19.5Z</time>
      </trkpt>
      <trkpt lat="47.28136" lon="-1.67776">
        <ele>57</ele>
        <time>2011-12-04T10:44:20.2Z</time>
      </trkpt>
      <trkpt lat="47.28138" lon="-1.67774">
        <ele>57</ele>
        <time>2011-12-04T10:44:21.2Z</time>
      </trkpt>
      <trkpt lat="47.28143" lon="-1.67771">
        <ele>57</ele>
        <time>2011-12-04T10:44:26.9Z</time>
      </trkpt>
      <trkpt lat="47.28154" lon="-1.67776">
        <ele>57</ele>
        <time>2011-12-04T10:44:27.7Z</time>
      </trkpt>
      <trkpt lat="47.28157" lon="-1.67777">
        <ele>57</ele>
        <time>2011-12-04T10:44:28.7Z</time>
      </trkpt>
      <trkpt lat="47.2816" lon="-1.67779">
        <ele>57</ele>
        <time>2011-12-04T10:44:29.7Z</time>
      </trkpt>
      <trkpt lat="47.28167" lon="-1.67781">
        <ele>57</ele>
        <time>2011-12-04T10:44:33.7Z</time>
      </trkpt>
      <trkpt lat="47.28177" lon="-1.67784">
        <ele>57</ele>
        <time>2011-12-04T10:44:34.2Z</time>
      </trkpt>
      <trkpt lat="47.28181" lon="-1.67784">
        <ele>57</ele>
        <time>2011-12-04T10:44:35.2Z</time>
      </trkpt>
      <trkpt lat="47.28187" lon="-1.67784">
        <ele>57</ele>
        <time>2011-12-04T10:44:39.5Z</time>
      </trkpt>
      <trkpt lat="47.28195" lon="-1.67783">
        <ele>57</ele>
        <time>2011-12-04T10:44:40.2Z</time>
      </trkpt>
      <trkpt lat="47.28198" lon="-1.67782">
        <ele>57</ele>
        <time>2011-12-04T10:44:41.2Z</time>
      </trkpt>
      <trkpt lat="47.28211" lon="-1.67783">
        <ele>57</ele>
        <time>2011-12-04T10:44:45.3Z</time>
      </trkpt>
      <trkpt lat="47.28214" lon="-1.67785">
        <ele>57</ele>
        <time>2011-12-04T10:44:46.4Z</time>
      </trkpt>
      <trkpt lat="47.28217" lon="-1.67786">
        <ele>57</ele>
        <time>2011-12-04T10:44:47.4Z</time>
      </trkpt>
      <trkpt lat="47.28223" lon="-1.67788">
        <ele>57</ele>
        <time>2011-12-04T10:44:51.5Z</time>
      </trkpt>
      <trkpt lat="47.28233" lon="-1.67791">
        <ele>56</ele>
        <time>2011-12-04T10:44:52.2Z</time>
      </trkpt>
      <trkpt lat="47.28236" lon="-1.67792">
        <ele>56</ele>
        <time>2011-12-04T10:44:53.2Z</time>
      </trkpt>
      <trkpt lat="47.2825" lon="-1.67797">
        <ele>56</ele>
        <time>2011-12-04T10:44:57.3Z</time>
      </trkpt>
      <trkpt lat="47.28253" lon="-1.67798">
        <ele>56</ele>
        <time>2011-12-04T10:44:58.2Z</time>
      </trkpt>
      <trkpt lat="47.28257" lon="-1.678">
        <ele>56</ele>
        <time>2011-12-04T10:44:59.2Z</time>
      </trkpt>
      <trkpt lat="47.28272" lon="-1.67803">
        <ele>56</ele>
        <time>2011-12-04T10:45:03.3Z</time>
      </trkpt>
      <trkpt lat="47.28276" lon="-1.67802">
        <ele>56</ele>
        <time>2011-12-04T10:45:04.2Z</time>
      </trkpt>
      <trkpt lat="47.28279" lon="-1.67802">
        <ele>56</ele>
        <time>2011-12-04T10:45:05.4Z</time>
      </trkpt>
      <trkpt lat="47.28286" lon="-1.67801">
        <ele>56</ele>
        <time>2011-12-04T10:45:09.5Z</time>
      </trkpt>
      <trkpt lat="47.28297" lon="-1.67804">
        <ele>56</ele>
        <time>2011-12-04T10:45:10.2Z</time>
      </trkpt>
      <trkpt lat="47.283" lon="-1.67806">
        <ele>56</ele>
        <time>2011-12-04T10:45:11.2Z</time>
      </trkpt>
      <trkpt lat="47.28302" lon="-1.6781">
        <ele>56</ele>
        <time>2011-12-04T10:45:12.2Z</time>
      </trkpt>
      <trkpt lat="47.28303" lon="-1.67814">
        <ele>56</ele>
        <time>2011-12-04T10:45:13.2Z</time>
      </trkpt>
      <trkpt lat="47.28298" lon="-1.67834">
        <ele>56</ele>
        <time>2011-12-04T10:45:18.3Z</time>
      </trkpt>
      <trkpt lat="47.28296" lon="-1.67838">
        <ele>56</ele>
        <time>2011-12-04T10:45:19.5Z</time>
      </trkpt>
      <trkpt lat="47.28295" lon="-1.67842">
        <ele>56</ele>
        <time>2011-12-04T10:45:20.4Z</time>
      </trkpt>
      <trkpt lat="47.28293" lon="-1.67849">
        <ele>56</ele>
        <time>2011-12-04T10:45:24.5Z</time>
      </trkpt>
      <trkpt lat="47.28286" lon="-1.67864">
        <ele>56</ele>
        <time>2011-12-04T10:45:25.2Z</time>
      </trkpt>
      <trkpt lat="47.28284" lon="-1.6787">
        <ele>56</ele>
        <time>2011-12-04T10:45:26.2Z</time>
      </trkpt>
      <trkpt lat="47.2828" lon="-1.67883">
        <ele>56</ele>
        <time>2011-12-04T10:45:30.3Z</time>
      </trkpt>
      <trkpt lat="47.28277" lon="-1.67902">
        <ele>57</ele>
        <time>2011-12-04T10:45:31.2Z</time>
      </trkpt>
      <trkpt lat="47.28276" lon="-1.67908">
        <ele>58</ele>
        <time>2011-12-04T10:45:32.8Z</time>
      </trkpt>
      <trkpt lat="47.28274" lon="-1.67922">
        <ele>58</ele>
        <time>2011-12-04T10:45:36.9Z</time>
      </trkpt>
      <trkpt lat="47.28271" lon="-1.67944">
        <ele>58</ele>
        <time>2011-12-04T10:45:37.2Z</time>
      </trkpt>
      <trkpt lat="47.28271" lon="-1.67951">
        <ele>59</ele>
        <time>2011-12-04T10:45:38.2Z</time>
      </trkpt>
      <trkpt lat="47.2827" lon="-1.67965">
        <ele>59</ele>
        <time>2011-12-04T10:45:42.7Z</time>
      </trkpt>
      <trkpt lat="47.28268" lon="-1.67985">
        <ele>59</ele>
        <time>2011-12-04T10:45:43.2Z</time>
      </trkpt>
      <trkpt lat="47.28267" lon="-1.67991">
        <ele>59</ele>
        <time>2011-12-04T10:45:44.2Z</time>
      </trkpt>
      <trkpt lat="47.28264" lon="-1.68005">
        <ele>59</ele>
        <time>2011-12-04T10:45:48.5Z</time>
      </trkpt>
      <trkpt lat="47.28259" lon="-1.68024">
        <ele>59</ele>
        <time>2011-12-04T10:45:49.2Z</time>
      </trkpt>
      <trkpt lat="47.28258" lon="-1.6803">
        <ele>59</ele>
        <time>2011-12-04T10:45:50.2Z</time>
      </trkpt>
      <trkpt lat="47.28256" lon="-1.68041">
        <ele>59</ele>
        <time>2011-12-04T10:45:54.4Z</time>
      </trkpt>
      <trkpt lat="47.28253" lon="-1.68055">
        <ele>59</ele>
        <time>2011-12-04T10:45:55.2Z</time>
      </trkpt>
      <trkpt lat="47.28253" lon="-1.6806">
        <ele>59</ele>
        <time>2011-12-04T10:45:56.2Z</time>
      </trkpt>
      <trkpt lat="47.28253" lon="-1.68071">
        <ele>59</ele>
        <time>2011-12-04T10:46:00.3Z</time>
      </trkpt>
      <trkpt lat="47.2825" lon="-1.68088">
        <ele>59</ele>
        <time>2011-12-04T10:46:01.2Z</time>
      </trkpt>
      <trkpt lat="47.28248" lon="-1.68094">
        <ele>59</ele>
        <time>2011-12-04T10:46:02.4Z</time>
      </trkpt>
      <trkpt lat="47.28246" lon="-1.68099">
        <ele>59</ele>
        <time>2011-12-04T10:46:03.2Z</time>
      </trkpt>
      <trkpt lat="47.28242" lon="-1.6811">
        <ele>59</ele>
        <time>2011-12-04T10:46:07.3Z</time>
      </trkpt>
      <trkpt lat="47.28236" lon="-1.68125">
        <ele>59</ele>
        <time>2011-12-04T10:46:08.2Z</time>
      </trkpt>
      <trkpt lat="47.28234" lon="-1.6813">
        <ele>59</ele>
        <time>2011-12-04T10:46:09.2Z</time>
      </trkpt>
      <trkpt lat="47.28231" lon="-1.68141">
        <ele>59</ele>
        <time>2011-12-04T10:46:13.3Z</time>
      </trkpt>
      <trkpt lat="47.28235" lon="-1.68155">
        <ele>59</ele>
        <time>2011-12-04T10:46:14.2Z</time>
      </trkpt>
      <trkpt lat="47.28238" lon="-1.68159">
        <ele>59</ele>
        <time>2011-12-04T10:46:15.2Z</time>
      </trkpt>
      <trkpt lat="47.28241" lon="-1.68163">
        <ele>59</ele>
        <time>2011-12-04T10:46:16.2Z</time>
      </trkpt>
      <trkpt lat="47.28249" lon="-1.68172">
        <ele>59</ele>
        <time>2011-12-04T10:46:20.9Z</time>
      </trkpt>
      <trkpt lat="47.28261" lon="-1.68188">
        <ele>59</ele>
        <time>2011-12-04T10:46:21.2Z</time>
      </trkpt>
      <trkpt lat="47.28265" lon="-1.68194">
        <ele>59</ele>
        <time>2011-12-04T10:46:22.2Z</time>
      </trkpt>
      <trkpt lat="47.28273" lon="-1.68205">
        <ele>58</ele>
        <time>2011-12-04T10:46:26.3Z</time>
      </trkpt>
      <trkpt lat="47.28288" lon="-1.68224">
        <ele>57</ele>
        <time>2011-12-04T10:46:27.2Z</time>
      </trkpt>
      <trkpt lat="47.28293" lon="-1.68231">
        <ele>56</ele>
        <time>2011-12-04T10:46:28.2Z</time>
      </trkpt>
      <trkpt lat="47.28304" lon="-1.68243">
        <ele>55</ele>
        <time>2011-12-04T10:46:32.3Z</time>
      </trkpt>
      <trkpt lat="47.28317" lon="-1.68254">
        <ele>54</ele>
        <time>2011-12-04T10:46:33.2Z</time>
      </trkpt>
      <trkpt lat="47.2832" lon="-1.68257">
        <ele>53</ele>
        <time>2011-12-04T10:46:34.2Z</time>
      </trkpt>
      <trkpt lat="47.28325" lon="-1.68262">
        <ele>52</ele>
        <time>2011-12-04T10:46:38.3Z</time>
      </trkpt>
      <trkpt lat="47.28327" lon="-1.6827">
        <ele>51</ele>
        <time>2011-12-04T10:46:39.2Z</time>
      </trkpt>
      <trkpt lat="47.28328" lon="-1.68273">
        <ele>50</ele>
        <time>2011-12-04T10:46:40.2Z</time>
      </trkpt>
      <trkpt lat="47.28328" lon="-1.68276">
        <ele>49</ele>
        <time>2011-12-04T10:46:41.2Z</time>
      </trkpt>
      <trkpt lat="47.28331" lon="-1.68281">
        <ele>48</ele>
        <time>2011-12-04T10:46:45.3Z</time>
      </trkpt>
      <trkpt lat="47.28334" lon="-1.68291">
        <ele>48</ele>
        <time>2011-12-04T10:46:46.2Z</time>
      </trkpt>
      <trkpt lat="47.28335" lon="-1.68294">
        <ele>48</ele>
        <time>2011-12-04T10:46:47.2Z</time>
      </trkpt>
      <trkpt lat="47.28335" lon="-1.68302">
        <ele>48</ele>
        <time>2011-12-04T10:46:51.4Z</time>
      </trkpt>
      <trkpt lat="47.28335" lon="-1.68313">
        <ele>48</ele>
        <time>2011-12-04T10:46:52.4Z</time>
      </trkpt>
      <trkpt lat="47.28335" lon="-1.68317">
        <ele>48</ele>
        <time>2011-12-04T10:46:53.2Z</time>
      </trkpt>
      <trkpt lat="47.28334" lon="-1.68325">
        <ele>48</ele>
        <time>2011-12-04T10:46:57.6Z</time>
      </trkpt>
      <trkpt lat="47.28335" lon="-1.68337">
        <ele>48</ele>
        <time>2011-12-04T10:46:58.2Z</time>
      </trkpt>
      <trkpt lat="47.28335" lon="-1.68342">
        <ele>48</ele>
        <time>2011-12-04T10:46:59.8Z</time>
      </trkpt>
      <trkpt lat="47.28335" lon="-1.68346">
        <ele>48</ele>
        <time>2011-12-04T10:47:00.8Z</time>
      </trkpt>
      <trkpt lat="47.28335" lon="-1.68355">
        <ele>49</ele>
        <time>2011-12-04T10:47:05Z</time>
      </trkpt>
      <trkpt lat="47.28336" lon="-1.68368">
        <ele>49</ele>
        <time>2011-12-04T10:47:05.2Z</time>
      </trkpt>
      <trkpt lat="47.28337" lon="-1.68372">
        <ele>49</ele>
        <time>2011-12-04T10:47:06.2Z</time>
      </trkpt>
      <trkpt lat="47.28339" lon="-1.6838">
        <ele>49</ele>
        <time>2011-12-04T10:47:10.9Z</time>
      </trkpt>
      <trkpt lat="47.28344" lon="-1.68391">
        <ele>49</ele>
        <time>2011-12-04T10:47:11.9Z</time>
      </trkpt>
      <trkpt lat="47.28346" lon="-1.68394">
        <ele>49</ele>
        <time>2011-12-04T10:47:12.9Z</time>
      </trkpt>
      <trkpt lat="47.28349" lon="-1.68397">
        <ele>49</ele>
        <time>2011-12-04T10:47:13.7Z</time>
      </trkpt>
      <trkpt lat="47.28354" lon="-1.68403">
        <ele>49</ele>
        <time>2011-12-04T10:47:17.9Z</time>
      </trkpt>
      <trkpt lat="47.28363" lon="-1.68409">
        <ele>49</ele>
        <time>2011-12-04T10:47:18.2Z</time>
      </trkpt>
      <trkpt lat="47.28367" lon="-1.68409">
        <ele>49</ele>
        <time>2011-12-04T10:47:19.2Z</time>
      </trkpt>
      <trkpt lat="47.2837" lon="-1.68408">
        <ele>49</ele>
        <time>2011-12-04T10:47:20.8Z</time>
      </trkpt>
      <trkpt lat="47.28374" lon="-1.68407">
        <ele>49</ele>
        <time>2011-12-04T10:47:21.8Z</time>
      </trkpt>
      <trkpt lat="47.2838" lon="-1.68402">
        <ele>49</ele>
        <time>2011-12-04T10:47:27Z</time>
      </trkpt>
      <trkpt lat="47.2839" lon="-1.6839">
        <ele>49</ele>
        <time>2011-12-04T10:47:28Z</time>
      </trkpt>
      <trkpt lat="47.28393" lon="-1.68387">
        <ele>49</ele>
        <time>2011-12-04T10:47:28.2Z</time>
      </trkpt>
      <trkpt lat="47.284" lon="-1.6838">
        <ele>49</ele>
        <time>2011-12-04T10:47:32.4Z</time>
      </trkpt>
      <trkpt lat="47.28411" lon="-1.68369">
        <ele>49</ele>
        <time>2011-12-04T10:47:33.2Z</time>
      </trkpt>
      <trkpt lat="47.28414" lon="-1.68365">
        <ele>49</ele>
        <time>2011-12-04T10:47:34.2Z</time>
      </trkpt>
      <trkpt lat="47.28421" lon="-1.68358">
        <ele>49</ele>
        <time>2011-12-04T10:47:38.4Z</time>
      </trkpt>
      <trkpt lat="47.28432" lon="-1.68347">
        <ele>49</ele>
        <time>2011-12-04T10:47:39.2Z</time>
      </trkpt>
      <trkpt lat="47.28435" lon="-1.68343">
        <ele>49</ele>
        <time>2011-12-04T10:47:40.2Z</time>
      </trkpt>
      <trkpt lat="47.28443" lon="-1.68335">
        <ele>49</ele>
        <time>2011-12-04T10:47:44.4Z</time>
      </trkpt>
      <trkpt lat="47.28453" lon="-1.68323">
        <ele>49</ele>
        <time>2011-12-04T10:47:45.2Z</time>
      </trkpt>
      <trkpt lat="47.28457" lon="-1.68319">
        <ele>49</ele>
        <time>2011-12-04T10:47:46.1Z</time>
      </trkpt>
      <trkpt lat="47.28464" lon="-1.6831">
        <ele>49</ele>
        <time>2011-12-04T10:47:50.4Z</time>
      </trkpt>
      <trkpt lat="47.28475" lon="-1.68298">
        <ele>50</ele>
        <time>2011-12-04T10:47:51.1Z</time>
      </trkpt>
      <trkpt lat="47.28478" lon="-1.68294">
        <ele>50</ele>
        <time>2011-12-04T10:47:52.2Z</time>
      </trkpt>
      <trkpt lat="47.28485" lon="-1.68287">
        <ele>51</ele>
        <time>2011-12-04T10:47:56.4Z</time>
      </trkpt>
      <trkpt lat="47.28495" lon="-1.68276">
        <ele>51</ele>
        <time>2011-12-04T10:47:57.2Z</time>
      </trkpt>
      <trkpt lat="47.28498" lon="-1.68273">
        <ele>52</ele>
        <time>2011-12-04T10:47:58.2Z</time>
      </trkpt>
      <trkpt lat="47.28505" lon="-1.68265">
        <ele>52</ele>
        <time>2011-12-04T10:48:02.4Z</time>
      </trkpt>
      <trkpt lat="47.28515" lon="-1.68254">
        <ele>53</ele>
        <time>2011-12-04T10:48:03.1Z</time>
      </trkpt>
      <trkpt lat="47.28518" lon="-1.68249">
        <ele>54</ele>
        <time>2011-12-04T10:48:04.2Z</time>
      </trkpt>
      <trkpt lat="47.28524" lon="-1.6824">
        <ele>54</ele>
        <time>2011-12-04T10:48:08.5Z</time>
      </trkpt>
      <trkpt lat="47.28535" lon="-1.68227">
        <ele>55</ele>
        <time>2011-12-04T10:48:09.1Z</time>
      </trkpt>
      <trkpt lat="47.28538" lon="-1.68222">
        <ele>55</ele>
        <time>2011-12-04T10:48:10.2Z</time>
      </trkpt>
      <trkpt lat="47.28545" lon="-1.68214">
        <ele>55</ele>
        <time>2011-12-04T10:48:14.5Z</time>
      </trkpt>
      <trkpt lat="47.28555" lon="-1.68202">
        <ele>56</ele>
        <time>2011-12-04T10:48:15.2Z</time>
      </trkpt>
      <trkpt lat="47.28559" lon="-1.68198">
        <ele>57</ele>
        <time>2011-12-04T10:48:16.2Z</time>
      </trkpt>
      <trkpt lat="47.28566" lon="-1.68191">
        <ele>57</ele>
        <time>2011-12-04T10:48:20.6Z</time>
      </trkpt>
      <trkpt lat="47.28576" lon="-1.6818">
        <ele>58</ele>
        <time>2011-12-04T10:48:21.2Z</time>
      </trkpt>
      <trkpt lat="47.28579" lon="-1.68176">
        <ele>59</ele>
        <time>2011-12-04T10:48:22.2Z</time>
      </trkpt>
      <trkpt lat="47.28586" lon="-1.6817">
        <ele>59</ele>
        <time>2011-12-04T10:48:26.6Z</time>
      </trkpt>
      <trkpt lat="47.28598" lon="-1.68159">
        <ele>60</ele>
        <time>2011-12-04T10:48:27.2Z</time>
      </trkpt>
      <trkpt lat="47.28601" lon="-1.68155">
        <ele>60</ele>
        <time>2011-12-04T10:48:28.2Z</time>
      </trkpt>
      <trkpt lat="47.28608" lon="-1.68145">
        <ele>60</ele>
        <time>2011-12-04T10:48:32.7Z</time>
      </trkpt>
      <trkpt lat="47.28619" lon="-1.68131">
        <ele>61</ele>
        <time>2011-12-04T10:48:33.2Z</time>
      </trkpt>
      <trkpt lat="47.28623" lon="-1.68127">
        <ele>61</ele>
        <time>2011-12-04T10:48:34.2Z</time>
      </trkpt>
      <trkpt lat="47.2863" lon="-1.68118">
        <ele>61</ele>
        <time>2011-12-04T10:48:38.8Z</time>
      </trkpt>
      <trkpt lat="47.28641" lon="-1.68104">
        <ele>62</ele>
        <time>2011-12-04T10:48:39.1Z</time>
      </trkpt>
      <trkpt lat="47.28645" lon="-1.68099">
        <ele>62</ele>
        <time>2011-12-04T10:48:40.1Z</time>
      </trkpt>
      <trkpt lat="47.28654" lon="-1.68091">
        <ele>62</ele>
        <time>2011-12-04T10:48:44.9Z</time>
      </trkpt>
      <trkpt lat="47.28665" lon="-1.68078">
        <ele>62</ele>
        <time>2011-12-04T10:48:45.1Z</time>
      </trkpt>
      <trkpt lat="47.28667" lon="-1.68074">
        <ele>62</ele>
        <time>2011-12-04T10:48:46.1Z</time>
      </trkpt>
      <trkpt lat="47.28671" lon="-1.6807">
        <ele>62</ele>
        <time>2011-12-04T10:48:51Z</time>
      </trkpt>
      <trkpt lat="47.28677" lon="-1.68072">
        <ele>62</ele>
        <time>2011-12-04T10:48:51.2Z</time>
      </trkpt>
      <trkpt lat="47.28678" lon="-1.68076">
        <ele>62</ele>
        <time>2011-12-04T10:48:52.2Z</time>
      </trkpt>
      <trkpt lat="47.28679" lon="-1.6808">
        <ele>62</ele>
        <time>2011-12-04T10:48:53.2Z</time>
      </trkpt>
      <trkpt lat="47.28682" lon="-1.6809">
        <ele>62</ele>
        <time>2011-12-04T10:48:57.5Z</time>
      </trkpt>
      <trkpt lat="47.28687" lon="-1.68105">
        <ele>62</ele>
        <time>2011-12-04T10:48:58.1Z</time>
      </trkpt>
      <trkpt lat="47.28689" lon="-1.6811">
        <ele>62</ele>
        <time>2011-12-04T10:48:59.2Z</time>
      </trkpt>
      <trkpt lat="47.28693" lon="-1.6812">
        <ele>62</ele>
        <time>2011-12-04T10:49:03.7Z</time>
      </trkpt>
      <trkpt lat="47.28698" lon="-1.68136">
        <ele>63</ele>
        <time>2011-12-04T10:49:04.2Z</time>
      </trkpt>
      <trkpt lat="47.28701" lon="-1.68141">
        <ele>63</ele>
        <time>2011-12-04T10:49:05.2Z</time>
      </trkpt>
      <trkpt lat="47.28705" lon="-1.68152">
        <ele>63</ele>
        <time>2011-12-04T10:49:09.8Z</time>
      </trkpt>
      <trkpt lat="47.28712" lon="-1.68168">
        <ele>63</ele>
        <time>2011-12-04T10:49:10.1Z</time>
      </trkpt>
      <trkpt lat="47.28714" lon="-1.68173">
        <ele>63</ele>
        <time>2011-12-04T10:49:11.1Z</time>
      </trkpt>
      <trkpt lat="47.28719" lon="-1.68183">
        <ele>63</ele>
        <time>2011-12-04T10:49:15.9Z</time>
      </trkpt>
      <trkpt lat="47.28725" lon="-1.68196">
        <ele>63</ele>
        <time>2011-12-04T10:49:16.1Z</time>
      </trkpt>
      <trkpt lat="47.28726" lon="-1.682">
        <ele>63</ele>
        <time>2011-12-04T10:49:17.1Z</time>
      </trkpt>
      <trkpt lat="47.28736" lon="-1.68227">
        <ele>63</ele>
        <time>2011-12-04T10:49:22.2Z</time>
      </trkpt>
      <trkpt lat="47.28737" lon="-1.68233">
        <ele>63</ele>
        <time>2011-12-04T10:49:23.2Z</time>
      </trkpt>
      <trkpt lat="47.28744" lon="-1.68268">
        <ele>63</ele>
        <time>2011-12-04T10:49:28.2Z</time>
      </trkpt>
      <trkpt lat="47.28745" lon="-1.68277">
        <ele>63</ele>
        <time>2011-12-04T10:49:29.2Z</time>
      </trkpt>
      <trkpt lat="47.28746" lon="-1.68285">
        <ele>63</ele>
        <time>2011-12-04T10:49:30.2Z</time>
      </trkpt>
      <trkpt lat="47.28747" lon="-1.68304">
        <ele>63</ele>
        <time>2011-12-04T10:49:34.6Z</time>
      </trkpt>
      <trkpt lat="47.2875" lon="-1.68332">
        <ele>63</ele>
        <time>2011-12-04T10:49:35.1Z</time>
      </trkpt>
      <trkpt lat="47.28749" lon="-1.68342">
        <ele>63</ele>
        <time>2011-12-04T10:49:36.2Z</time>
      </trkpt>
      <trkpt lat="47.28746" lon="-1.68361">
        <ele>63</ele>
        <time>2011-12-04T10:49:40.7Z</time>
      </trkpt>
      <trkpt lat="47.28731" lon="-1.68388">
        <ele>62</ele>
        <time>2011-12-04T10:49:41.7Z</time>
      </trkpt>
      <trkpt lat="47.28726" lon="-1.68396">
        <ele>61</ele>
        <time>2011-12-04T10:49:42.5Z</time>
      </trkpt>
      <trkpt lat="47.2872" lon="-1.68404">
        <ele>61</ele>
        <time>2011-12-04T10:49:43.3Z</time>
      </trkpt>
      <trkpt lat="47.28711" lon="-1.68419">
        <ele>60</ele>
        <time>2011-12-04T10:49:47.7Z</time>
      </trkpt>
      <trkpt lat="47.28695" lon="-1.68443">
        <ele>59</ele>
        <time>2011-12-04T10:49:48.1Z</time>
      </trkpt>
      <trkpt lat="47.2869" lon="-1.68451">
        <ele>58</ele>
        <time>2011-12-04T10:49:49.1Z</time>
      </trkpt>
      <trkpt lat="47.2868" lon="-1.68466">
        <ele>57</ele>
        <time>2011-12-04T10:49:53.9Z</time>
      </trkpt>
      <trkpt lat="47.28666" lon="-1.68481">
        <ele>56</ele>
        <time>2011-12-04T10:49:54.1Z</time>
      </trkpt>
      <trkpt lat="47.28661" lon="-1.68486">
        <ele>55</ele>
        <time>2011-12-04T10:49:55.1Z</time>
      </trkpt>
      <trkpt lat="47.28649" lon="-1.68518">
        <ele>54</ele>
        <time>2011-12-04T10:50:00.2Z</time>
      </trkpt>
      <trkpt lat="47.28649" lon="-1.68526">
        <ele>53</ele>
        <time>2011-12-04T10:50:01.4Z</time>
      </trkpt>
      <trkpt lat="47.2865" lon="-1.68535">
        <ele>52</ele>
        <time>2011-12-04T10:50:02.6Z</time>
      </trkpt>
      <trkpt lat="47.2865" lon="-1.68583">
        <ele>51</ele>
        <time>2011-12-04T10:50:07.2Z</time>
      </trkpt>
      <trkpt lat="47.2865" lon="-1.68593">
        <ele>50</ele>
        <time>2011-12-04T10:50:08.1Z</time>
      </trkpt>
      <trkpt lat="47.28652" lon="-1.68612">
        <ele>49</ele>
        <time>2011-12-04T10:50:13.3Z</time>
      </trkpt>
      <trkpt lat="47.28653" lon="-1.68652">
        <ele>48</ele>
        <time>2011-12-04T10:50:14.1Z</time>
      </trkpt>
      <trkpt lat="47.28653" lon="-1.68662">
        <ele>47</ele>
        <time>2011-12-04T10:50:15.1Z</time>
      </trkpt>
      <trkpt lat="47.28653" lon="-1.6868">
        <ele>46</ele>
        <time>2011-12-04T10:50:19.6Z</time>
      </trkpt>
      <trkpt lat="47.28654" lon="-1.68707">
        <ele>46</ele>
        <time>2011-12-04T10:50:20.1Z</time>
      </trkpt>
      <trkpt lat="47.28654" lon="-1.68715">
        <ele>46</ele>
        <time>2011-12-04T10:50:21.1Z</time>
      </trkpt>
      <trkpt lat="47.28654" lon="-1.68732">
        <ele>46</ele>
        <time>2011-12-04T10:50:25.9Z</time>
      </trkpt>
      <trkpt lat="47.28652" lon="-1.68756">
        <ele>46</ele>
        <time>2011-12-04T10:50:26.1Z</time>
      </trkpt>
      <trkpt lat="47.28651" lon="-1.68763">
        <ele>46</ele>
        <time>2011-12-04T10:50:27.1Z</time>
      </trkpt>
      <trkpt lat="47.28646" lon="-1.68798">
        <ele>46</ele>
        <time>2011-12-04T10:50:32.2Z</time>
      </trkpt>
      <trkpt lat="47.28645" lon="-1.68804">
        <ele>46</ele>
        <time>2011-12-04T10:50:33.1Z</time>
      </trkpt>
      <trkpt lat="47.28643" lon="-1.68818">
        <ele>46</ele>
        <time>2011-12-04T10:50:38.4Z</time>
      </trkpt>
      <trkpt lat="47.28639" lon="-1.68844">
        <ele>46</ele>
        <time>2011-12-04T10:50:39.1Z</time>
      </trkpt>
      <trkpt lat="47.28638" lon="-1.6885">
        <ele>46</ele>
        <time>2011-12-04T10:50:40.1Z</time>
      </trkpt>
      <trkpt lat="47.28636" lon="-1.68862">
        <ele>46</ele>
        <time>2011-12-04T10:50:44.7Z</time>
      </trkpt>
      <trkpt lat="47.28633" lon="-1.68881">
        <ele>46</ele>
        <time>2011-12-04T10:50:45.1Z</time>
      </trkpt>
      <trkpt lat="47.28633" lon="-1.68887">
        <ele>47</ele>
        <time>2011-12-04T10:50:46.1Z</time>
      </trkpt>
      <trkpt lat="47.28628" lon="-1.68917">
        <ele>48</ele>
        <time>2011-12-04T10:50:51.2Z</time>
      </trkpt>
      <trkpt lat="47.28627" lon="-1.68923">
        <ele>49</ele>
        <time>2011-12-04T10:50:52.1Z</time>
      </trkpt>
      <trkpt lat="47.28626" lon="-1.68935">
        <ele>50</ele>
        <time>2011-12-04T10:50:57.4Z</time>
      </trkpt>
      <trkpt lat="47.28623" lon="-1.68958">
        <ele>51</ele>
        <time>2011-12-04T10:50:58.1Z</time>
      </trkpt>
      <trkpt lat="47.28622" lon="-1.68964">
        <ele>52</ele>
        <time>2011-12-04T10:50:59.1Z</time>
      </trkpt>
      <trkpt lat="47.28621" lon="-1.68976">
        <ele>53</ele>
        <time>2011-12-04T10:51:03.7Z</time>
      </trkpt>
      <trkpt lat="47.28619" lon="-1.68994">
        <ele>54</ele>
        <time>2011-12-04T10:51:04.1Z</time>
      </trkpt>
      <trkpt lat="47.28619" lon="-1.69">
        <ele>55</ele>
        <time>2011-12-04T10:51:05.2Z</time>
      </trkpt>
      <trkpt lat="47.28618" lon="-1.69031">
        <ele>56</ele>
        <time>2011-12-04T10:51:10.2Z</time>
      </trkpt>
      <trkpt lat="47.28618" lon="-1.69037">
        <ele>57</ele>
        <time>2011-12-04T10:51:11.1Z</time>
      </trkpt>
      <trkpt lat="47.28618" lon="-1.69049">
        <ele>57</ele>
        <time>2011-12-04T10:51:16.4Z</time>
      </trkpt>
      <trkpt lat="47.2862" lon="-1.69073">
        <ele>57</ele>
        <time>2011-12-04T10:51:17.1Z</time>
      </trkpt>
      <trkpt lat="47.28621" lon="-1.69079">
        <ele>58</ele>
        <time>2011-12-04T10:51:18.1Z</time>
      </trkpt>
      <trkpt lat="47.28622" lon="-1.6909">
        <ele>58</ele>
        <time>2011-12-04T10:51:22.7Z</time>
      </trkpt>
      <trkpt lat="47.28625" lon="-1.69108">
        <ele>58</ele>
        <time>2011-12-04T10:51:23.1Z</time>
      </trkpt>
      <trkpt lat="47.28626" lon="-1.69114">
        <ele>58</ele>
        <time>2011-12-04T10:51:24.1Z</time>
      </trkpt>
      <trkpt lat="47.28631" lon="-1.69145">
        <ele>59</ele>
        <time>2011-12-04T10:51:29.2Z</time>
      </trkpt>
      <trkpt lat="47.28632" lon="-1.69151">
        <ele>59</ele>
        <time>2011-12-04T10:51:30.1Z</time>
      </trkpt>
      <trkpt lat="47.28635" lon="-1.69163">
        <ele>59</ele>
        <time>2011-12-04T10:51:35.5Z</time>
      </trkpt>
      <trkpt lat="47.2864" lon="-1.69185">
        <ele>59</ele>
        <time>2011-12-04T10:51:36.1Z</time>
      </trkpt>
      <trkpt lat="47.28641" lon="-1.6919">
        <ele>59</ele>
        <time>2011-12-04T10:51:37.1Z</time>
      </trkpt>
      <trkpt lat="47.28642" lon="-1.692">
        <ele>59</ele>
        <time>2011-12-04T10:51:41.9Z</time>
      </trkpt>
      <trkpt lat="47.28644" lon="-1.69208">
        <ele>59</ele>
        <time>2011-12-04T10:51:42.1Z</time>
      </trkpt>
      <trkpt lat="47.28645" lon="-1.69209">
        <ele>59</ele>
        <time>2011-12-04T10:51:43.2Z</time>
      </trkpt>
      <trkpt lat="47.28647" lon="-1.69211">
        <ele>59</ele>
        <time>2011-12-04T10:51:44.8Z</time>
      </trkpt>
      <trkpt lat="47.2865" lon="-1.69211">
        <ele>59</ele>
        <time>2011-12-04T10:51:45.7Z</time>
      </trkpt>
      <trkpt lat="47.28669" lon="-1.69204">
        <ele>59</ele>
        <time>2011-12-04T10:51:51.2Z</time>
      </trkpt>
      <trkpt lat="47.28673" lon="-1.69203">
        <ele>59</ele>
        <time>2011-12-04T10:51:52.1Z</time>
      </trkpt>
      <trkpt lat="47.28681" lon="-1.69198">
        <ele>59</ele>
        <time>2011-12-04T10:51:56.8Z</time>
      </trkpt>
      <trkpt lat="47.28693" lon="-1.69191">
        <ele>59</ele>
        <time>2011-12-04T10:51:57.1Z</time>
      </trkpt>
      <trkpt lat="47.28697" lon="-1.69189">
        <ele>58</ele>
        <time>2011-12-04T10:51:58.1Z</time>
      </trkpt>
      <trkpt lat="47.28717" lon="-1.69179">
        <ele>58</ele>
        <time>2011-12-04T10:52:03.2Z</time>
      </trkpt>
      <trkpt lat="47.2872" lon="-1.69177">
        <ele>57</ele>
        <time>2011-12-04T10:52:04.1Z</time>
      </trkpt>
      <trkpt lat="47.28722" lon="-1.69176">
        <ele>57</ele>
        <time>2011-12-04T10:52:05.1Z</time>
      </trkpt>
      <trkpt lat="47.28725" lon="-1.69175">
        <ele>56</ele>
        <time>2011-12-04T10:52:09.8Z</time>
      </trkpt>
      <trkpt lat="47.28726" lon="-1.69175">
        <ele>54</ele>
        <time>2011-12-04T10:52:14.1Z</time>
      </trkpt>
      <trkpt lat="47.28727" lon="-1.69177">
        <ele>54</ele>
        <time>2011-12-04T10:52:21.5Z</time>
      </trkpt>
      <trkpt lat="47.28729" lon="-1.69177">
        <ele>54</ele>
        <time>2011-12-04T10:52:22.3Z</time>
      </trkpt>
      <trkpt lat="47.2873" lon="-1.69178">
        <ele>54</ele>
        <time>2011-12-04T10:52:23.3Z</time>
      </trkpt>
      <trkpt lat="47.28733" lon="-1.69178">
        <ele>54</ele>
        <time>2011-12-04T10:52:27.9Z</time>
      </trkpt>
      <trkpt lat="47.28739" lon="-1.69176">
        <ele>54</ele>
        <time>2011-12-04T10:52:28.1Z</time>
      </trkpt>
      <trkpt lat="47.28741" lon="-1.69174">
        <ele>54</ele>
        <time>2011-12-04T10:52:29.9Z</time>
      </trkpt>
      <trkpt lat="47.28744" lon="-1.6917">
        <ele>54</ele>
        <time>2011-12-04T10:52:30.7Z</time>
      </trkpt>
      <trkpt lat="47.28751" lon="-1.69161">
        <ele>54</ele>
        <time>2011-12-04T10:52:35.4Z</time>
      </trkpt>
      <trkpt lat="47.2877" lon="-1.69136">
        <ele>54</ele>
        <time>2011-12-04T10:52:36.1Z</time>
      </trkpt>
      <trkpt lat="47.28773" lon="-1.6913">
        <ele>54</ele>
        <time>2011-12-04T10:52:37.1Z</time>
      </trkpt>
      <trkpt lat="47.28776" lon="-1.69123">
        <ele>54</ele>
        <time>2011-12-04T10:52:38.2Z</time>
      </trkpt>
      <trkpt lat="47.28779" lon="-1.69114">
        <ele>54</ele>
        <time>2011-12-04T10:52:39.1Z</time>
      </trkpt>
      <trkpt lat="47.28786" lon="-1.69099">
        <ele>53</ele>
        <time>2011-12-04T10:52:43.8Z</time>
      </trkpt>
      <trkpt lat="47.28799" lon="-1.69077">
        <ele>53</ele>
        <time>2011-12-04T10:52:44.1Z</time>
      </trkpt>
      <trkpt lat="47.28803" lon="-1.69068">
        <ele>53</ele>
        <time>2011-12-04T10:52:45.1Z</time>
      </trkpt>
      <trkpt lat="47.28812" lon="-1.6905">
        <ele>53</ele>
        <time>2011-12-04T10:52:50.3Z</time>
      </trkpt>
      <trkpt lat="47.28833" lon="-1.69025">
        <ele>53</ele>
        <time>2011-12-04T10:52:51.1Z</time>
      </trkpt>
      <trkpt lat="47.28839" lon="-1.69022">
        <ele>53</ele>
        <time>2011-12-04T10:52:52.3Z</time>
      </trkpt>
      <trkpt lat="47.28845" lon="-1.6902">
        <ele>53</ele>
        <time>2011-12-04T10:52:53.3Z</time>
      </trkpt>
      <trkpt lat="47.28857" lon="-1.69017">
        <ele>53</ele>
        <time>2011-12-04T10:52:58Z</time>
      </trkpt>
      <trkpt lat="47.2887" lon="-1.69026">
        <ele>52</ele>
        <time>2011-12-04T10:52:58.2Z</time>
      </trkpt>
      <trkpt lat="47.28874" lon="-1.6903">
        <ele>51</ele>
        <time>2011-12-04T10:52:59.4Z</time>
      </trkpt>
      <trkpt lat="47.28879" lon="-1.69033">
        <ele>50</ele>
        <time>2011-12-04T10:53:00.3Z</time>
      </trkpt>
      <trkpt lat="47.28883" lon="-1.69034">
        <ele>49</ele>
        <time>2011-12-04T10:53:01.1Z</time>
      </trkpt>
      <trkpt lat="47.28892" lon="-1.69033">
        <ele>48</ele>
        <time>2011-12-04T10:53:07.2Z</time>
      </trkpt>
      <trkpt lat="47.2891" lon="-1.69021">
        <ele>47</ele>
        <time>2011-12-04T10:53:08.2Z</time>
      </trkpt>
      <trkpt lat="47.28912" lon="-1.69017">
        <ele>47</ele>
        <time>2011-12-04T10:53:09.2Z</time>
      </trkpt>
      <trkpt lat="47.28914" lon="-1.69013">
        <ele>47</ele>
        <time>2011-12-04T10:53:10.2Z</time>
      </trkpt>
      <trkpt lat="47.28916" lon="-1.69007">
        <ele>47</ele>
        <time>2011-12-04T10:53:14.9Z</time>
      </trkpt>
      <trkpt lat="47.2892" lon="-1.69">
        <ele>47</ele>
        <time>2011-12-04T10:53:15.1Z</time>
      </trkpt>
      <trkpt lat="47.28922" lon="-1.68998">
        <ele>47</ele>
        <time>2011-12-04T10:53:16.3Z</time>
      </trkpt>
      <trkpt lat="47.28924" lon="-1.68997">
        <ele>47</ele>
        <time>2011-12-04T10:53:17.9Z</time>
      </trkpt>
      <trkpt lat="47.28925" lon="-1.68996">
        <ele>47</ele>
        <time>2011-12-04T10:53:18.1Z</time>
      </trkpt>
      <trkpt lat="47.28927" lon="-1.68994">
        <ele>47</ele>
        <time>2011-12-04T10:53:22.8Z</time>
      </trkpt>
      <trkpt lat="47.28926" lon="-1.68995">
        <ele>47</ele>
        <time>2011-12-04T10:53:26.5Z</time>
      </trkpt>
      <trkpt lat="47.28929" lon="-1.69">
        <ele>47</ele>
        <time>2011-12-04T10:53:32.2Z</time>
      </trkpt>
      <trkpt lat="47.28931" lon="-1.69001">
        <ele>47</ele>
        <time>2011-12-04T10:53:33.8Z</time>
      </trkpt>
      <trkpt lat="47.28936" lon="-1.69004">
        <ele>49</ele>
        <time>2011-12-04T10:53:40.5Z</time>
      </trkpt>
      <trkpt lat="47.28945" lon="-1.68998">
        <ele>50</ele>
        <time>2011-12-04T10:53:41.7Z</time>
      </trkpt>
      <trkpt lat="47.28946" lon="-1.68996">
        <ele>51</ele>
        <time>2011-12-04T10:53:42.5Z</time>
      </trkpt>
      <trkpt lat="47.28946" lon="-1.68993">
        <ele>51</ele>
        <time>2011-12-04T10:53:47.8Z</time>
      </trkpt>
      <trkpt lat="47.28949" lon="-1.68983">
        <ele>52</ele>
        <time>2011-12-04T10:53:49Z</time>
      </trkpt>
      <trkpt lat="47.28951" lon="-1.68978">
        <ele>53</ele>
        <time>2011-12-04T10:53:50.3Z</time>
      </trkpt>
      <trkpt lat="47.28951" lon="-1.68976">
        <ele>54</ele>
        <time>2011-12-04T10:53:51.2Z</time>
      </trkpt>
      <trkpt lat="47.28951" lon="-1.68972">
        <ele>55</ele>
        <time>2011-12-04T10:53:56.6Z</time>
      </trkpt>
      <trkpt lat="47.28953" lon="-1.68966">
        <ele>56</ele>
        <time>2011-12-04T10:53:57.3Z</time>
      </trkpt>
      <trkpt lat="47.28954" lon="-1.68965">
        <ele>58</ele>
        <time>2011-12-04T10:53:59.5Z</time>
      </trkpt>
      <trkpt lat="47.28954" lon="-1.68963">
        <ele>60</ele>
        <time>2011-12-04T10:54:05.8Z</time>
      </trkpt>
      <trkpt lat="47.28951" lon="-1.68979">
        <ele>60</ele>
        <time>2011-12-04T10:54:07.1Z</time>
      </trkpt>
      <trkpt lat="47.2895" lon="-1.68984">
        <ele>60</ele>
        <time>2011-12-04T10:54:08.1Z</time>
      </trkpt>
      <trkpt lat="47.28951" lon="-1.68991">
        <ele>60</ele>
        <time>2011-12-04T10:54:14.3Z</time>
      </trkpt>
      <trkpt lat="47.28956" lon="-1.69002">
        <ele>60</ele>
        <time>2011-12-04T10:54:15.1Z</time>
      </trkpt>
      <trkpt lat="47.28958" lon="-1.69002">
        <ele>60</ele>
        <time>2011-12-04T10:54:16.1Z</time>
      </trkpt>
      <trkpt lat="47.2896" lon="-1.69002">
        <ele>60</ele>
        <time>2011-12-04T10:54:17.1Z</time>
      </trkpt>
      <trkpt lat="47.28963" lon="-1.69002">
        <ele>59</ele>
        <time>2011-12-04T10:54:21.9Z</time>
      </trkpt>
      <trkpt lat="47.2897" lon="-1.69002">
        <ele>58</ele>
        <time>2011-12-04T10:54:22.1Z</time>
      </trkpt>
      <trkpt lat="47.28972" lon="-1.69002">
        <ele>57</ele>
        <time>2011-12-04T10:54:23.1Z</time>
      </trkpt>
      <trkpt lat="47.28977" lon="-1.69002">
        <ele>56</ele>
        <time>2011-12-04T10:54:28.5Z</time>
      </trkpt>
      <trkpt lat="47.28989" lon="-1.69001">
        <ele>55</ele>
        <time>2011-12-04T10:54:29.1Z</time>
      </trkpt>
      <trkpt lat="47.28992" lon="-1.69">
        <ele>54</ele>
        <time>2011-12-04T10:54:30.1Z</time>
      </trkpt>
      <trkpt lat="47.29004" lon="-1.68998">
        <ele>53</ele>
        <time>2011-12-04T10:54:35.2Z</time>
      </trkpt>
      <trkpt lat="47.29006" lon="-1.68997">
        <ele>52</ele>
        <time>2011-12-04T10:54:36.1Z</time>
      </trkpt>
      <trkpt lat="47.29008" lon="-1.68997">
        <ele>51</ele>
        <time>2011-12-04T10:54:37.1Z</time>
      </trkpt>
      <trkpt lat="47.29015" lon="-1.68999">
        <ele>50</ele>
        <time>2011-12-04T10:54:41.9Z</time>
      </trkpt>
      <trkpt lat="47.29024" lon="-1.68999">
        <ele>50</ele>
        <time>2011-12-04T10:54:43.2Z</time>
      </trkpt>
      <trkpt lat="47.29027" lon="-1.68999">
        <ele>50</ele>
        <time>2011-12-04T10:54:44.1Z</time>
      </trkpt>
      <trkpt lat="47.29038" lon="-1.68998">
        <ele>50</ele>
        <time>2011-12-04T10:54:49.1Z</time>
      </trkpt>
      <trkpt lat="47.29044" lon="-1.68998">
        <ele>51</ele>
        <time>2011-12-04T10:54:54.8Z</time>
      </trkpt>
      <trkpt lat="47.29057" lon="-1.68996">
        <ele>52</ele>
        <time>2011-12-04T10:54:59.6Z</time>
      </trkpt>
      <trkpt lat="47.29067" lon="-1.68995">
        <ele>53</ele>
        <time>2011-12-04T10:55:00.6Z</time>
      </trkpt>
      <trkpt lat="47.2907" lon="-1.68995">
        <ele>53</ele>
        <time>2011-12-04T10:55:01.4Z</time>
      </trkpt>
      <trkpt lat="47.29077" lon="-1.68997">
        <ele>53</ele>
        <time>2011-12-04T10:55:06.4Z</time>
      </trkpt>
      <trkpt lat="47.29089" lon="-1.69001">
        <ele>53</ele>
        <time>2011-12-04T10:55:07.1Z</time>
      </trkpt>
      <trkpt lat="47.29093" lon="-1.69002">
        <ele>53</ele>
        <time>2011-12-04T10:55:08.1Z</time>
      </trkpt>
      <trkpt lat="47.291" lon="-1.69003">
        <ele>53</ele>
        <time>2011-12-04T10:55:13Z</time>
      </trkpt>
      <trkpt lat="47.29109" lon="-1.69004">
        <ele>53</ele>
        <time>2011-12-04T10:55:13.2Z</time>
      </trkpt>
      <trkpt lat="47.29112" lon="-1.69005">
        <ele>53</ele>
        <time>2011-12-04T10:55:14.1Z</time>
      </trkpt>
      <trkpt lat="47.29117" lon="-1.69008">
        <ele>53</ele>
        <time>2011-12-04T10:55:19.6Z</time>
      </trkpt>
      <trkpt lat="47.29131" lon="-1.69013">
        <ele>53</ele>
        <time>2011-12-04T10:55:20.1Z</time>
      </trkpt>
      <trkpt lat="47.29134" lon="-1.69014">
        <ele>53</ele>
        <time>2011-12-04T10:55:21.1Z</time>
      </trkpt>
      <trkpt lat="47.29142" lon="-1.69018">
        <ele>53</ele>
        <time>2011-12-04T10:55:26.2Z</time>
      </trkpt>
      <trkpt lat="47.29155" lon="-1.69021">
        <ele>53</ele>
        <time>2011-12-04T10:55:27.1Z</time>
      </trkpt>
      <trkpt lat="47.29158" lon="-1.69021">
        <ele>53</ele>
        <time>2011-12-04T10:55:28.1Z</time>
      </trkpt>
      <trkpt lat="47.29165" lon="-1.69022">
        <ele>53</ele>
        <time>2011-12-04T10:55:33Z</time>
      </trkpt>
      <trkpt lat="47.29176" lon="-1.69021">
        <ele>53</ele>
        <time>2011-12-04T10:55:33.2Z</time>
      </trkpt>
      <trkpt lat="47.29179" lon="-1.6902">
        <ele>53</ele>
        <time>2011-12-04T10:55:34.8Z</time>
      </trkpt>
      <trkpt lat="47.29187" lon="-1.6902">
        <ele>53</ele>
        <time>2011-12-04T10:55:39.6Z</time>
      </trkpt>
      <trkpt lat="47.29199" lon="-1.69016">
        <ele>53</ele>
        <time>2011-12-04T10:55:40.1Z</time>
      </trkpt>
      <trkpt lat="47.29202" lon="-1.69015">
        <ele>54</ele>
        <time>2011-12-04T10:55:41.1Z</time>
      </trkpt>
      <trkpt lat="47.29208" lon="-1.69013">
        <ele>55</ele>
        <time>2011-12-04T10:55:46.2Z</time>
      </trkpt>
      <trkpt lat="47.29218" lon="-1.6901">
        <ele>56</ele>
        <time>2011-12-04T10:55:47.1Z</time>
      </trkpt>
      <trkpt lat="47.29221" lon="-1.69009">
        <ele>57</ele>
        <time>2011-12-04T10:55:48.1Z</time>
      </trkpt>
      <trkpt lat="47.29226" lon="-1.69006">
        <ele>58</ele>
        <time>2011-12-04T10:55:53Z</time>
      </trkpt>
      <trkpt lat="47.29234" lon="-1.69002">
        <ele>58</ele>
        <time>2011-12-04T10:55:53.2Z</time>
      </trkpt>
      <trkpt lat="47.29237" lon="-1.69">
        <ele>58</ele>
        <time>2011-12-04T10:55:54.1Z</time>
      </trkpt>
      <trkpt lat="47.29239" lon="-1.68999">
        <ele>58</ele>
        <time>2011-12-04T10:55:55.1Z</time>
      </trkpt>
      <trkpt lat="47.29252" lon="-1.68992">
        <ele>58</ele>
        <time>2011-12-04T10:56:00.1Z</time>
      </trkpt>
      <trkpt lat="47.29253" lon="-1.68991">
        <ele>58</ele>
        <time>2011-12-04T10:56:01.1Z</time>
      </trkpt>
      <trkpt lat="47.29255" lon="-1.68989">
        <ele>58</ele>
        <time>2011-12-04T10:56:02.9Z</time>
      </trkpt>
      <trkpt lat="47.29257" lon="-1.68987">
        <ele>58</ele>
        <time>2011-12-04T10:56:03.1Z</time>
      </trkpt>
      <trkpt lat="47.29262" lon="-1.68984">
        <ele>58</ele>
        <time>2011-12-04T10:56:08.6Z</time>
      </trkpt>
      <trkpt lat="47.29272" lon="-1.68975">
        <ele>59</ele>
        <time>2011-12-04T10:56:09.1Z</time>
      </trkpt>
      <trkpt lat="47.29276" lon="-1.6897">
        <ele>60</ele>
        <time>2011-12-04T10:56:14.6Z</time>
      </trkpt>
      <trkpt lat="47.29284" lon="-1.68961">
        <ele>60</ele>
        <time>2011-12-04T10:56:15.1Z</time>
      </trkpt>
      <trkpt lat="47.29286" lon="-1.68958">
        <ele>60</ele>
        <time>2011-12-04T10:56:16.1Z</time>
      </trkpt>
      <trkpt lat="47.29291" lon="-1.68953">
        <ele>61</ele>
        <time>2011-12-04T10:56:21.3Z</time>
      </trkpt>
      <trkpt lat="47.293" lon="-1.68944">
        <ele>61</ele>
        <time>2011-12-04T10:56:22.1Z</time>
      </trkpt>
      <trkpt lat="47.29303" lon="-1.68941">
        <ele>61</ele>
        <time>2011-12-04T10:56:23.1Z</time>
      </trkpt>
      <trkpt lat="47.29317" lon="-1.68928">
        <ele>61</ele>
        <time>2011-12-04T10:56:28.1Z</time>
      </trkpt>
      <trkpt lat="47.2932" lon="-1.68925">
        <ele>61</ele>
        <time>2011-12-04T10:56:29.1Z</time>
      </trkpt>
      <trkpt lat="47.29324" lon="-1.68922">
        <ele>61</ele>
        <time>2011-12-04T10:56:34.7Z</time>
      </trkpt>
      <trkpt lat="47.29332" lon="-1.68912">
        <ele>62</ele>
        <time>2011-12-04T10:56:35.1Z</time>
      </trkpt>
      <trkpt lat="47.29335" lon="-1.6891">
        <ele>62</ele>
        <time>2011-12-04T10:56:36.1Z</time>
      </trkpt>
      <trkpt lat="47.29338" lon="-1.68908">
        <ele>63</ele>
        <time>2011-12-04T10:56:37.1Z</time>
      </trkpt>
      <trkpt lat="47.29348" lon="-1.68896">
        <ele>63</ele>
        <time>2011-12-04T10:56:42.1Z</time>
      </trkpt>
      <trkpt lat="47.2935" lon="-1.68894">
        <ele>63</ele>
        <time>2011-12-04T10:56:43.7Z</time>
      </trkpt>
      <trkpt lat="47.29352" lon="-1.68891">
        <ele>63</ele>
        <time>2011-12-04T10:56:44.1Z</time>
      </trkpt>
      <trkpt lat="47.29356" lon="-1.68887">
        <ele>63</ele>
        <time>2011-12-04T10:56:49.7Z</time>
      </trkpt>
      <trkpt lat="47.29365" lon="-1.68877">
        <ele>63</ele>
        <time>2011-12-04T10:56:50.1Z</time>
      </trkpt>
      <trkpt lat="47.29368" lon="-1.68874">
        <ele>63</ele>
        <time>2011-12-04T10:56:51.1Z</time>
      </trkpt>
      <trkpt lat="47.2937" lon="-1.68872">
        <ele>63</ele>
        <time>2011-12-04T10:56:52.1Z</time>
      </trkpt>
      <trkpt lat="47.29385" lon="-1.68858">
        <ele>63</ele>
        <time>2011-12-04T10:56:57.1Z</time>
      </trkpt>
      <trkpt lat="47.29388" lon="-1.68855">
        <ele>63</ele>
        <time>2011-12-04T10:56:58.1Z</time>
      </trkpt>
      <trkpt lat="47.29395" lon="-1.68849">
        <ele>63</ele>
        <time>2011-12-04T10:57:03.8Z</time>
      </trkpt>
      <trkpt lat="47.29408" lon="-1.68836">
        <ele>63</ele>
        <time>2011-12-04T10:57:04.1Z</time>
      </trkpt>
      <trkpt lat="47.29412" lon="-1.68832">
        <ele>63</ele>
        <time>2011-12-04T10:57:05.1Z</time>
      </trkpt>
      <trkpt lat="47.29419" lon="-1.68825">
        <ele>64</ele>
        <time>2011-12-04T10:57:10.5Z</time>
      </trkpt>
      <trkpt lat="47.29434" lon="-1.68812">
        <ele>64</ele>
        <time>2011-12-04T10:57:11.1Z</time>
      </trkpt>
      <trkpt lat="47.29437" lon="-1.68809">
        <ele>64</ele>
        <time>2011-12-04T10:57:12.1Z</time>
      </trkpt>
      <trkpt lat="47.29445" lon="-1.68801">
        <ele>64</ele>
        <time>2011-12-04T10:57:17.2Z</time>
      </trkpt>
      <trkpt lat="47.29458" lon="-1.68785">
        <ele>64</ele>
        <time>2011-12-04T10:57:18.1Z</time>
      </trkpt>
      <trkpt lat="47.29462" lon="-1.68781">
        <ele>64</ele>
        <time>2011-12-04T10:57:19.1Z</time>
      </trkpt>
      <trkpt lat="47.29481" lon="-1.68763">
        <ele>64</ele>
        <time>2011-12-04T10:57:24.1Z</time>
      </trkpt>
      <trkpt lat="47.29485" lon="-1.68759">
        <ele>64</ele>
        <time>2011-12-04T10:57:25.1Z</time>
      </trkpt>
      <trkpt lat="47.29493" lon="-1.6875">
        <ele>64</ele>
        <time>2011-12-04T10:57:30.8Z</time>
      </trkpt>
      <trkpt lat="47.29508" lon="-1.68734">
        <ele>64</ele>
        <time>2011-12-04T10:57:31.1Z</time>
      </trkpt>
      <trkpt lat="47.29512" lon="-1.6873">
        <ele>64</ele>
        <time>2011-12-04T10:57:32.1Z</time>
      </trkpt>
      <trkpt lat="47.29519" lon="-1.68721">
        <ele>64</ele>
        <time>2011-12-04T10:57:37.6Z</time>
      </trkpt>
      <trkpt lat="47.2953" lon="-1.68707">
        <ele>64</ele>
        <time>2011-12-04T10:57:38.1Z</time>
      </trkpt>
      <trkpt lat="47.29533" lon="-1.68703">
        <ele>64</ele>
        <time>2011-12-04T10:57:39.1Z</time>
      </trkpt>
      <trkpt lat="47.29537" lon="-1.68699">
        <ele>64</ele>
        <time>2011-12-04T10:57:44.3Z</time>
      </trkpt>
      <trkpt lat="47.29547" lon="-1.68704">
        <ele>64</ele>
        <time>2011-12-04T10:57:45.1Z</time>
      </trkpt>
      <trkpt lat="47.29551" lon="-1.68706">
        <ele>64</ele>
        <time>2011-12-04T10:57:46.1Z</time>
      </trkpt>
      <trkpt lat="47.29554" lon="-1.68708">
        <ele>64</ele>
        <time>2011-12-04T10:57:47.1Z</time>
      </trkpt>
      <trkpt lat="47.2957" lon="-1.68721">
        <ele>64</ele>
        <time>2011-12-04T10:57:52.2Z</time>
      </trkpt>
      <trkpt lat="47.29573" lon="-1.68724">
        <ele>64</ele>
        <time>2011-12-04T10:57:53.1Z</time>
      </trkpt>
      <trkpt lat="47.29576" lon="-1.68726">
        <ele>64</ele>
        <time>2011-12-04T10:57:54.1Z</time>
      </trkpt>
      <trkpt lat="47.29593" lon="-1.68742">
        <ele>64</ele>
        <time>2011-12-04T10:57:59.2Z</time>
      </trkpt>
      <trkpt lat="47.29597" lon="-1.68746">
        <ele>64</ele>
        <time>2011-12-04T10:58:00.1Z</time>
      </trkpt>
      <trkpt lat="47.296" lon="-1.68749">
        <ele>64</ele>
        <time>2011-12-04T10:58:01.1Z</time>
      </trkpt>
      <trkpt lat="47.2962" lon="-1.6877">
        <ele>64</ele>
        <time>2011-12-04T10:58:06.2Z</time>
      </trkpt>
      <trkpt lat="47.29623" lon="-1.68773">
        <ele>64</ele>
        <time>2011-12-04T10:58:07.1Z</time>
      </trkpt>
      <trkpt lat="47.29626" lon="-1.68777">
        <ele>64</ele>
        <time>2011-12-04T10:58:08.1Z</time>
      </trkpt>
      <trkpt lat="47.29647" lon="-1.68796">
        <ele>64</ele>
        <time>2011-12-04T10:58:13.2Z</time>
      </trkpt>
      <trkpt lat="47.29651" lon="-1.688">
        <ele>64</ele>
        <time>2011-12-04T10:58:14.2Z</time>
      </trkpt>
      <trkpt lat="47.29655" lon="-1.68802">
        <ele>64</ele>
        <time>2011-12-04T10:58:15.4Z</time>
      </trkpt>
      <trkpt lat="47.29664" lon="-1.68803">
        <ele>64</ele>
        <time>2011-12-04T10:58:20.4Z</time>
      </trkpt>
      <trkpt lat="47.29678" lon="-1.68798">
        <ele>64</ele>
        <time>2011-12-04T10:58:21.2Z</time>
      </trkpt>
      <trkpt lat="47.29682" lon="-1.68795">
        <ele>64</ele>
        <time>2011-12-04T10:58:22.2Z</time>
      </trkpt>
      <trkpt lat="47.29686" lon="-1.68792">
        <ele>64</ele>
        <time>2011-12-04T10:58:23.6Z</time>
      </trkpt>
      <trkpt lat="47.29693" lon="-1.68787">
        <ele>64</ele>
        <time>2011-12-04T10:58:28.7Z</time>
      </trkpt>
      <trkpt lat="47.29708" lon="-1.68777">
        <ele>64</ele>
        <time>2011-12-04T10:58:29.1Z</time>
      </trkpt>
      <trkpt lat="47.29711" lon="-1.68774">
        <ele>64</ele>
        <time>2011-12-04T10:58:30.1Z</time>
      </trkpt>
      <trkpt lat="47.29719" lon="-1.68768">
        <ele>64</ele>
        <time>2011-12-04T10:58:35.5Z</time>
      </trkpt>
      <trkpt lat="47.29733" lon="-1.68759">
        <ele>64</ele>
        <time>2011-12-04T10:58:36.1Z</time>
      </trkpt>
      <trkpt lat="47.29735" lon="-1.68756">
        <ele>64</ele>
        <time>2011-12-04T10:58:37.1Z</time>
      </trkpt>
      <trkpt lat="47.29741" lon="-1.68752">
        <ele>64</ele>
        <time>2011-12-04T10:58:42.3Z</time>
      </trkpt>
      <trkpt lat="47.29752" lon="-1.68741">
        <ele>64</ele>
        <time>2011-12-04T10:58:43.1Z</time>
      </trkpt>
      <trkpt lat="47.29756" lon="-1.68738">
        <ele>64</ele>
        <time>2011-12-04T10:58:44.1Z</time>
      </trkpt>
      <trkpt lat="47.29762" lon="-1.68732">
        <ele>64</ele>
        <time>2011-12-04T10:58:49.2Z</time>
      </trkpt>
      <trkpt lat="47.29774" lon="-1.6872">
        <ele>64</ele>
        <time>2011-12-04T10:58:50.1Z</time>
      </trkpt>
      <trkpt lat="47.29777" lon="-1.68718">
        <ele>64</ele>
        <time>2011-12-04T10:58:51.1Z</time>
      </trkpt>
      <trkpt lat="47.29784" lon="-1.68713">
        <ele>64</ele>
        <time>2011-12-04T10:58:56.2Z</time>
      </trkpt>
      <trkpt lat="47.29798" lon="-1.68705">
        <ele>64</ele>
        <time>2011-12-04T10:58:57.1Z</time>
      </trkpt>
      <trkpt lat="47.29801" lon="-1.68704">
        <ele>64</ele>
        <time>2011-12-04T10:58:58.1Z</time>
      </trkpt>
      <trkpt lat="47.29808" lon="-1.68701">
        <ele>64</ele>
        <time>2011-12-04T10:59:03.2Z</time>
      </trkpt>
      <trkpt lat="47.29819" lon="-1.68694">
        <ele>64</ele>
        <time>2011-12-04T10:59:04.1Z</time>
      </trkpt>
      <trkpt lat="47.29823" lon="-1.68691">
        <ele>64</ele>
        <time>2011-12-04T10:59:05.1Z</time>
      </trkpt>
      <trkpt lat="47.29825" lon="-1.68689">
        <ele>64</ele>
        <time>2011-12-04T10:59:06.1Z</time>
      </trkpt>
      <trkpt lat="47.2983" lon="-1.68684">
        <ele>64</ele>
        <time>2011-12-04T10:59:11.2Z</time>
      </trkpt>
      <trkpt lat="47.29835" lon="-1.68681">
        <ele>64</ele>
        <time>2011-12-04T10:59:12.1Z</time>
      </trkpt>
      <trkpt lat="47.29837" lon="-1.6868">
        <ele>64</ele>
        <time>2011-12-04T10:59:14.7Z</time>
      </trkpt>
      <trkpt lat="47.29843" lon="-1.68674">
        <ele>64</ele>
        <time>2011-12-04T10:59:21.6Z</time>
      </trkpt>
      <trkpt lat="47.29846" lon="-1.68669">
        <ele>64</ele>
        <time>2011-12-04T10:59:27.7Z</time>
      </trkpt>
      <trkpt lat="47.29855" lon="-1.68655">
        <ele>64</ele>
        <time>2011-12-04T10:59:28.1Z</time>
      </trkpt>
      <trkpt lat="47.29856" lon="-1.68651">
        <ele>64</ele>
        <time>2011-12-04T10:59:29.1Z</time>
      </trkpt>
      <trkpt lat="47.29858" lon="-1.68647">
        <ele>64</ele>
        <time>2011-12-04T10:59:30.1Z</time>
      </trkpt>
      <trkpt lat="47.29862" lon="-1.68638">
        <ele>64</ele>
        <time>2011-12-04T10:59:35.3Z</time>
      </trkpt>
      <trkpt lat="47.29872" lon="-1.6862">
        <ele>64</ele>
        <time>2011-12-04T10:59:36.1Z</time>
      </trkpt>
      <trkpt lat="47.29875" lon="-1.68615">
        <ele>64</ele>
        <time>2011-12-04T10:59:37.1Z</time>
      </trkpt>
      <trkpt lat="47.29881" lon="-1.68606">
        <ele>64</ele>
        <time>2011-12-04T10:59:42.3Z</time>
      </trkpt>
      <trkpt lat="47.29892" lon="-1.68588">
        <ele>64</ele>
        <time>2011-12-04T10:59:43.1Z</time>
      </trkpt>
      <trkpt lat="47.29896" lon="-1.68586">
        <ele>64</ele>
        <time>2011-12-04T10:59:44.1Z</time>
      </trkpt>
      <trkpt lat="47.299" lon="-1.68586">
        <ele>64</ele>
        <time>2011-12-04T10:59:45.1Z</time>
      </trkpt>
      <trkpt lat="47.29907" lon="-1.68589">
        <ele>64</ele>
        <time>2011-12-04T10:59:50.8Z</time>
      </trkpt>
      <trkpt lat="47.29924" lon="-1.686">
        <ele>64</ele>
        <time>2011-12-04T10:59:52.1Z</time>
      </trkpt>
      <trkpt lat="47.29927" lon="-1.68602">
        <ele>64</ele>
        <time>2011-12-04T10:59:53.1Z</time>
      </trkpt>
      <trkpt lat="47.29935" lon="-1.68604">
        <ele>64</ele>
        <time>2011-12-04T10:59:58.3Z</time>
      </trkpt>
      <trkpt lat="47.29951" lon="-1.68613">
        <ele>64</ele>
        <time>2011-12-04T10:59:59.1Z</time>
      </trkpt>
      <trkpt lat="47.29954" lon="-1.68615">
        <ele>64</ele>
        <time>2011-12-04T11:00:00.1Z</time>
      </trkpt>
      <trkpt lat="47.29963" lon="-1.68617">
        <ele>64</ele>
        <time>2011-12-04T11:00:05.3Z</time>
      </trkpt>
      <trkpt lat="47.29977" lon="-1.68619">
        <ele>64</ele>
        <time>2011-12-04T11:00:06.1Z</time>
      </trkpt>
      <trkpt lat="47.29981" lon="-1.6862">
        <ele>64</ele>
        <time>2011-12-04T11:00:07.1Z</time>
      </trkpt>
      <trkpt lat="47.29987" lon="-1.68621">
        <ele>64</ele>
        <time>2011-12-04T11:00:12.3Z</time>
      </trkpt>
      <trkpt lat="47.30001" lon="-1.68627">
        <ele>64</ele>
        <time>2011-12-04T11:00:13.1Z</time>
      </trkpt>
      <trkpt lat="47.30005" lon="-1.68629">
        <ele>64</ele>
        <time>2011-12-04T11:00:14.1Z</time>
      </trkpt>
      <trkpt lat="47.3001" lon="-1.68631">
        <ele>64</ele>
        <time>2011-12-04T11:00:19.3Z</time>
      </trkpt>
      <trkpt lat="47.30018" lon="-1.68633">
        <ele>64</ele>
        <time>2011-12-04T11:00:20.1Z</time>
      </trkpt>
      <trkpt lat="47.30019" lon="-1.68631">
        <ele>64</ele>
        <time>2011-12-04T11:00:22.1Z</time>
      </trkpt>
      <trkpt lat="47.30019" lon="-1.68629">
        <ele>64</ele>
        <time>2011-12-04T11:00:23.1Z</time>
      </trkpt>
      <trkpt lat="47.30013" lon="-1.68613">
        <ele>64</ele>
        <time>2011-12-04T11:00:29.2Z</time>
      </trkpt>
      <trkpt lat="47.30011" lon="-1.6861">
        <ele>64</ele>
        <time>2011-12-04T11:00:30.8Z</time>
      </trkpt>
      <trkpt lat="47.30009" lon="-1.68606">
        <ele>64</ele>
        <time>2011-12-04T11:00:31.5Z</time>
      </trkpt>
      <trkpt lat="47.30007" lon="-1.68598">
        <ele>64</ele>
        <time>2011-12-04T11:00:36.7Z</time>
      </trkpt>
      <trkpt lat="47.3" lon="-1.68579">
        <ele>64</ele>
        <time>2011-12-04T11:00:37.1Z</time>
      </trkpt>
      <trkpt lat="47.29998" lon="-1.68573">
        <ele>64</ele>
        <time>2011-12-04T11:00:38.1Z</time>
      </trkpt>
      <trkpt lat="47.29993" lon="-1.68562">
        <ele>63</ele>
        <time>2011-12-04T11:00:43.7Z</time>
      </trkpt>
      <trkpt lat="47.29986" lon="-1.68545">
        <ele>62</ele>
        <time>2011-12-04T11:00:44.1Z</time>
      </trkpt>
      <trkpt lat="47.29988" lon="-1.68542">
        <ele>62</ele>
        <time>2011-12-04T11:00:45.3Z</time>
      </trkpt>
      <trkpt lat="47.2999" lon="-1.6854">
        <ele>61</ele>
        <time>2011-12-04T11:00:46.5Z</time>
      </trkpt>
      <trkpt lat="47.29994" lon="-1.68539">
        <ele>61</ele>
        <time>2011-12-04T11:00:47.2Z</time>
      </trkpt>
      <trkpt lat="47.30016" lon="-1.68528">
        <ele>61</ele>
        <time>2011-12-04T11:00:53.1Z</time>
      </trkpt>
      <trkpt lat="47.30019" lon="-1.68527">
        <ele>61</ele>
        <time>2011-12-04T11:00:54.1Z</time>
      </trkpt>
      <trkpt lat="47.30026" lon="-1.68523">
        <ele>61</ele>
        <time>2011-12-04T11:00:59.5Z</time>
      </trkpt>
      <trkpt lat="47.30039" lon="-1.68516">
        <ele>61</ele>
        <time>2011-12-04T11:01:00.1Z</time>
      </trkpt>
      <trkpt lat="47.30042" lon="-1.68514">
        <ele>61</ele>
        <time>2011-12-04T11:01:01.1Z</time>
      </trkpt>
      <trkpt lat="47.30049" lon="-1.6851">
        <ele>61</ele>
        <time>2011-12-04T11:01:06.5Z</time>
      </trkpt>
      <trkpt lat="47.30063" lon="-1.68501">
        <ele>62</ele>
        <time>2011-12-04T11:01:07.1Z</time>
      </trkpt>
      <trkpt lat="47.30067" lon="-1.68499">
        <ele>63</ele>
        <time>2011-12-04T11:01:08.1Z</time>
      </trkpt>
      <trkpt lat="47.30074" lon="-1.68494">
        <ele>64</ele>
        <time>2011-12-04T11:01:13.5Z</time>
      </trkpt>
      <trkpt lat="47.30089" lon="-1.68484">
        <ele>65</ele>
        <time>2011-12-04T11:01:14.1Z</time>
      </trkpt>
      <trkpt lat="47.30093" lon="-1.68482">
        <ele>66</ele>
        <time>2011-12-04T11:01:15.1Z</time>
      </trkpt>
      <trkpt lat="47.301" lon="-1.68477">
        <ele>67</ele>
        <time>2011-12-04T11:01:20.6Z</time>
      </trkpt>
      <trkpt lat="47.30114" lon="-1.68464">
        <ele>68</ele>
        <time>2011-12-04T11:01:21.1Z</time>
      </trkpt>
      <trkpt lat="47.30117" lon="-1.6846">
        <ele>69</ele>
        <time>2011-12-04T11:01:22.5Z</time>
      </trkpt>
      <trkpt lat="47.30121" lon="-1.68456">
        <ele>69</ele>
        <time>2011-12-04T11:01:23.3Z</time>
      </trkpt>
      <trkpt lat="47.30127" lon="-1.68448">
        <ele>70</ele>
        <time>2011-12-04T11:01:28.6Z</time>
      </trkpt>
      <trkpt lat="47.30136" lon="-1.68435">
        <ele>70</ele>
        <time>2011-12-04T11:01:29.1Z</time>
      </trkpt>
      <trkpt lat="47.30138" lon="-1.68432">
        <ele>71</ele>
        <time>2011-12-04T11:01:30.1Z</time>
      </trkpt>
      <trkpt lat="47.30142" lon="-1.68425">
        <ele>71</ele>
        <time>2011-12-04T11:01:35.6Z</time>
      </trkpt>
      <trkpt lat="47.30149" lon="-1.68414">
        <ele>72</ele>
        <time>2011-12-04T11:01:36.1Z</time>
      </trkpt>
      <trkpt lat="47.30151" lon="-1.68411">
        <ele>72</ele>
        <time>2011-12-04T11:01:37.1Z</time>
      </trkpt>
      <trkpt lat="47.30155" lon="-1.68406">
        <ele>72</ele>
        <time>2011-12-04T11:01:42.7Z</time>
      </trkpt>
      <trkpt lat="47.30165" lon="-1.68394">
        <ele>72</ele>
        <time>2011-12-04T11:01:43.1Z</time>
      </trkpt>
      <trkpt lat="47.30167" lon="-1.68391">
        <ele>72</ele>
        <time>2011-12-04T11:01:44.1Z</time>
      </trkpt>
      <trkpt lat="47.30172" lon="-1.68384">
        <ele>72</ele>
        <time>2011-12-04T11:01:49.8Z</time>
      </trkpt>
      <trkpt lat="47.30182" lon="-1.68373">
        <ele>72</ele>
        <time>2011-12-04T11:01:50.1Z</time>
      </trkpt>
      <trkpt lat="47.30185" lon="-1.68371">
        <ele>72</ele>
        <time>2011-12-04T11:01:51.1Z</time>
      </trkpt>
      <trkpt lat="47.30188" lon="-1.68369">
        <ele>72</ele>
        <time>2011-12-04T11:01:52.1Z</time>
      </trkpt>
      <trkpt lat="47.30193" lon="-1.68365">
        <ele>72</ele>
        <time>2011-12-04T11:01:57.4Z</time>
      </trkpt>
      <trkpt lat="47.30204" lon="-1.68356">
        <ele>72</ele>
        <time>2011-12-04T11:01:58.1Z</time>
      </trkpt>
      <trkpt lat="47.30207" lon="-1.68354">
        <ele>72</ele>
        <time>2011-12-04T11:01:59.1Z</time>
      </trkpt>
      <trkpt lat="47.30212" lon="-1.6835">
        <ele>72</ele>
        <time>2011-12-04T11:02:04.5Z</time>
      </trkpt>
      <trkpt lat="47.30222" lon="-1.68341">
        <ele>73</ele>
        <time>2011-12-04T11:02:05.1Z</time>
      </trkpt>
      <trkpt lat="47.30224" lon="-1.68339">
        <ele>73</ele>
        <time>2011-12-04T11:02:06.4Z</time>
      </trkpt>
      <trkpt lat="47.3023" lon="-1.68334">
        <ele>73</ele>
        <time>2011-12-04T11:02:10.4Z</time>
      </trkpt>
      <trkpt lat="47.3024" lon="-1.68325">
        <ele>74</ele>
        <time>2011-12-04T11:02:11.1Z</time>
      </trkpt>
      <trkpt lat="47.30243" lon="-1.68321">
        <ele>74</ele>
        <time>2011-12-04T11:02:12.1Z</time>
      </trkpt>
      <trkpt lat="47.30254" lon="-1.68312">
        <ele>74</ele>
        <time>2011-12-04T11:02:16.2Z</time>
      </trkpt>
      <trkpt lat="47.30256" lon="-1.68311">
        <ele>75</ele>
        <time>2011-12-04T11:02:17.1Z</time>
      </trkpt>
      <trkpt lat="47.30258" lon="-1.68308">
        <ele>75</ele>
        <time>2011-12-04T11:02:18.1Z</time>
      </trkpt>
      <trkpt lat="47.30269" lon="-1.68297">
        <ele>75</ele>
        <time>2011-12-04T11:02:22.2Z</time>
      </trkpt>
      <trkpt lat="47.30271" lon="-1.68295">
        <ele>75</ele>
        <time>2011-12-04T11:02:23.1Z</time>
      </trkpt>
      <trkpt lat="47.30273" lon="-1.68292">
        <ele>76</ele>
        <time>2011-12-04T11:02:24.5Z</time>
      </trkpt>
      <trkpt lat="47.30278" lon="-1.68287">
        <ele>76</ele>
        <time>2011-12-04T11:02:28.5Z</time>
      </trkpt>
      <trkpt lat="47.30286" lon="-1.68281">
        <ele>76</ele>
        <time>2011-12-04T11:02:29.1Z</time>
      </trkpt>
      <trkpt lat="47.30288" lon="-1.68279">
        <ele>76</ele>
        <time>2011-12-04T11:02:30.1Z</time>
      </trkpt>
      <trkpt lat="47.30293" lon="-1.68275">
        <ele>77</ele>
        <time>2011-12-04T11:02:34.2Z</time>
      </trkpt>
      <trkpt lat="47.30299" lon="-1.68271">
        <ele>77</ele>
        <time>2011-12-04T11:02:35.1Z</time>
      </trkpt>
      <trkpt lat="47.30301" lon="-1.68269">
        <ele>77</ele>
        <time>2011-12-04T11:02:36.7Z</time>
      </trkpt>
      <trkpt lat="47.30306" lon="-1.68266">
        <ele>77</ele>
        <time>2011-12-04T11:02:40.7Z</time>
      </trkpt>
      <trkpt lat="47.30313" lon="-1.68262">
        <ele>77</ele>
        <time>2011-12-04T11:02:41.1Z</time>
      </trkpt>
      <trkpt lat="47.30316" lon="-1.6826">
        <ele>77</ele>
        <time>2011-12-04T11:02:42.1Z</time>
      </trkpt>
      <trkpt lat="47.3032" lon="-1.68257">
        <ele>77</ele>
        <time>2011-12-04T11:02:46.4Z</time>
      </trkpt>
      <trkpt lat="47.30328" lon="-1.68254">
        <ele>77</ele>
        <time>2011-12-04T11:02:47.1Z</time>
      </trkpt>
      <trkpt lat="47.3033" lon="-1.68253">
        <ele>77</ele>
        <time>2011-12-04T11:02:48.1Z</time>
      </trkpt>
      <trkpt lat="47.3034" lon="-1.68247">
        <ele>77</ele>
        <time>2011-12-04T11:02:52.2Z</time>
      </trkpt>
      <trkpt lat="47.30343" lon="-1.68246">
        <ele>77</ele>
        <time>2011-12-04T11:02:53.1Z</time>
      </trkpt>
      <trkpt lat="47.30345" lon="-1.68244">
        <ele>77</ele>
        <time>2011-12-04T11:02:54.1Z</time>
      </trkpt>
      <trkpt lat="47.30355" lon="-1.68239">
        <ele>77</ele>
        <time>2011-12-04T11:02:58.2Z</time>
      </trkpt>
      <trkpt lat="47.30358" lon="-1.68238">
        <ele>77</ele>
        <time>2011-12-04T11:02:59.1Z</time>
      </trkpt>
      <trkpt lat="47.3036" lon="-1.68237">
        <ele>77</ele>
        <time>2011-12-04T11:03:00.1Z</time>
      </trkpt>
      <trkpt lat="47.3037" lon="-1.68231">
        <ele>77</ele>
        <time>2011-12-04T11:03:04.2Z</time>
      </trkpt>
      <trkpt lat="47.30373" lon="-1.68229">
        <ele>77</ele>
        <time>2011-12-04T11:03:05.1Z</time>
      </trkpt>
      <trkpt lat="47.30375" lon="-1.68227">
        <ele>77</ele>
        <time>2011-12-04T11:03:06.1Z</time>
      </trkpt>
      <trkpt lat="47.30386" lon="-1.6822">
        <ele>77</ele>
        <time>2011-12-04T11:03:10.2Z</time>
      </trkpt>
      <trkpt lat="47.30389" lon="-1.68218">
        <ele>77</ele>
        <time>2011-12-04T11:03:11.1Z</time>
      </trkpt>
      <trkpt lat="47.30395" lon="-1.68215">
        <ele>77</ele>
        <time>2011-12-04T11:03:15.9Z</time>
      </trkpt>
      <trkpt lat="47.30402" lon="-1.6821">
        <ele>77</ele>
        <time>2011-12-04T11:03:16.1Z</time>
      </trkpt>
      <trkpt lat="47.30404" lon="-1.68208">
        <ele>77</ele>
        <time>2011-12-04T11:03:17.1Z</time>
      </trkpt>
      <trkpt lat="47.30409" lon="-1.68206">
        <ele>77</ele>
        <time>2011-12-04T11:03:19.1Z</time>
      </trkpt>
      <trkpt lat="47.30416" lon="-1.68203">
        <ele>77</ele>
        <time>2011-12-04T11:03:23.2Z</time>
      </trkpt>
      <trkpt lat="47.30419" lon="-1.682">
        <ele>77</ele>
        <time>2011-12-04T11:03:27.6Z</time>
      </trkpt>
      <trkpt lat="47.30424" lon="-1.68195">
        <ele>77</ele>
        <time>2011-12-04T11:03:28.1Z</time>
      </trkpt>
      <trkpt lat="47.30427" lon="-1.68193">
        <ele>77</ele>
        <time>2011-12-04T11:03:29.1Z</time>
      </trkpt>
      <trkpt lat="47.30431" lon="-1.6819">
        <ele>77</ele>
        <time>2011-12-04T11:03:33.4Z</time>
      </trkpt>
      <trkpt lat="47.30437" lon="-1.68185">
        <ele>77</ele>
        <time>2011-12-04T11:03:34.1Z</time>
      </trkpt>
      <trkpt lat="47.30438" lon="-1.68184">
        <ele>77</ele>
        <time>2011-12-04T11:03:35.1Z</time>
      </trkpt>
      <trkpt lat="47.30445" lon="-1.68179">
        <ele>77</ele>
        <time>2011-12-04T11:03:39.2Z</time>
      </trkpt>
      <trkpt lat="47.30446" lon="-1.68178">
        <ele>77</ele>
        <time>2011-12-04T11:03:40.1Z</time>
      </trkpt>
      <trkpt lat="47.30447" lon="-1.68177">
        <ele>77</ele>
        <time>2011-12-04T11:03:42.1Z</time>
      </trkpt>
      <trkpt lat="47.30448" lon="-1.68175">
        <ele>77</ele>
        <time>2011-12-04T11:03:48.8Z</time>
      </trkpt>
      <trkpt lat="47.30448" lon="-1.68173">
        <ele>77</ele>
        <time>2011-12-04T11:03:55.6Z</time>
      </trkpt>
      <trkpt lat="47.30451" lon="-1.6817">
        <ele>77</ele>
        <time>2011-12-04T11:04:02.2Z</time>
      </trkpt>
      <trkpt lat="47.30453" lon="-1.68169">
        <ele>77</ele>
        <time>2011-12-04T11:04:03.3Z</time>
      </trkpt>
      <trkpt lat="47.30457" lon="-1.68167">
        <ele>77</ele>
        <time>2011-12-04T11:04:07.6Z</time>
      </trkpt>
      <trkpt lat="47.30466" lon="-1.68161">
        <ele>77</ele>
        <time>2011-12-04T11:04:08.3Z</time>
      </trkpt>
      <trkpt lat="47.3047" lon="-1.68158">
        <ele>77</ele>
        <time>2011-12-04T11:04:09.1Z</time>
      </trkpt>
      <trkpt lat="47.30476" lon="-1.68153">
        <ele>77</ele>
        <time>2011-12-04T11:04:13.3Z</time>
      </trkpt>
      <trkpt lat="47.30485" lon="-1.68146">
        <ele>77</ele>
        <time>2011-12-04T11:04:14.1Z</time>
      </trkpt>
      <trkpt lat="47.30488" lon="-1.68144">
        <ele>77</ele>
        <time>2011-12-04T11:04:15.1Z</time>
      </trkpt>
      <trkpt lat="47.30501" lon="-1.68137">
        <ele>77</ele>
        <time>2011-12-04T11:04:19.2Z</time>
      </trkpt>
      <trkpt lat="47.30504" lon="-1.68135">
        <ele>77</ele>
        <time>2011-12-04T11:04:20.1Z</time>
      </trkpt>
      <trkpt lat="47.30506" lon="-1.68132">
        <ele>77</ele>
        <time>2011-12-04T11:04:21.1Z</time>
      </trkpt>
      <trkpt lat="47.30517" lon="-1.68122">
        <ele>77</ele>
        <time>2011-12-04T11:04:25.2Z</time>
      </trkpt>
      <trkpt lat="47.30519" lon="-1.6812">
        <ele>77</ele>
        <time>2011-12-04T11:04:26.1Z</time>
      </trkpt>
      <trkpt lat="47.30522" lon="-1.68117">
        <ele>77</ele>
        <time>2011-12-04T11:04:27.1Z</time>
      </trkpt>
      <trkpt lat="47.30533" lon="-1.68108">
        <ele>77</ele>
        <time>2011-12-04T11:04:31.2Z</time>
      </trkpt>
      <trkpt lat="47.30536" lon="-1.68105">
        <ele>77</ele>
        <time>2011-12-04T11:04:32.1Z</time>
      </trkpt>
      <trkpt lat="47.30538" lon="-1.68103">
        <ele>77</ele>
        <time>2011-12-04T11:04:33.1Z</time>
      </trkpt>
      <trkpt lat="47.30547" lon="-1.68093">
        <ele>77</ele>
        <time>2011-12-04T11:04:37.1Z</time>
      </trkpt>
      <trkpt lat="47.3055" lon="-1.68091">
        <ele>77</ele>
        <time>2011-12-04T11:04:38.1Z</time>
      </trkpt>
      <trkpt lat="47.30555" lon="-1.68089">
        <ele>77</ele>
        <time>2011-12-04T11:04:42.9Z</time>
      </trkpt>
      <trkpt lat="47.30562" lon="-1.68085">
        <ele>77</ele>
        <time>2011-12-04T11:04:43.1Z</time>
      </trkpt>
      <trkpt lat="47.30564" lon="-1.68084">
        <ele>77</ele>
        <time>2011-12-04T11:04:44.1Z</time>
      </trkpt>
      <trkpt lat="47.3057" lon="-1.6808">
        <ele>77</ele>
        <time>2011-12-04T11:04:48.7Z</time>
      </trkpt>
      <trkpt lat="47.30579" lon="-1.68076">
        <ele>77</ele>
        <time>2011-12-04T11:04:49.1Z</time>
      </trkpt>
      <trkpt lat="47.30582" lon="-1.68074">
        <ele>77</ele>
        <time>2011-12-04T11:04:50.1Z</time>
      </trkpt>
      <trkpt lat="47.30588" lon="-1.6807">
        <ele>77</ele>
        <time>2011-12-04T11:04:54.5Z</time>
      </trkpt>
      <trkpt lat="47.30596" lon="-1.68065">
        <ele>77</ele>
        <time>2011-12-04T11:04:55.1Z</time>
      </trkpt>
      <trkpt lat="47.30599" lon="-1.68063">
        <ele>77</ele>
        <time>2011-12-04T11:04:56.1Z</time>
      </trkpt>
      <trkpt lat="47.30604" lon="-1.68059">
        <ele>77</ele>
        <time>2011-12-04T11:05:00.3Z</time>
      </trkpt>
      <trkpt lat="47.3061" lon="-1.68053">
        <ele>77</ele>
        <time>2011-12-04T11:05:01.1Z</time>
      </trkpt>
      <trkpt lat="47.30612" lon="-1.68052">
        <ele>77</ele>
        <time>2011-12-04T11:05:03.7Z</time>
      </trkpt>
      <trkpt lat="47.30613" lon="-1.68054">
        <ele>77</ele>
        <time>2011-12-04T11:05:17.1Z</time>
      </trkpt>
      <trkpt lat="47.30614" lon="-1.68052">
        <ele>77</ele>
        <time>2011-12-04T11:05:24.9Z</time>
      </trkpt>
      <trkpt lat="47.30616" lon="-1.68051">
        <ele>77</ele>
        <time>2011-12-04T11:05:34.6Z</time>
      </trkpt>
      <trkpt lat="47.30618" lon="-1.68049">
        <ele>76</ele>
        <time>2011-12-04T11:05:42.6Z</time>
      </trkpt>
      <trkpt lat="47.30622" lon="-1.68056">
        <ele>75</ele>
        <time>2011-12-04T11:05:49.1Z</time>
      </trkpt>
      <trkpt lat="47.30623" lon="-1.6806">
        <ele>75</ele>
        <time>2011-12-04T11:05:50.5Z</time>
      </trkpt>
      <trkpt lat="47.30624" lon="-1.68065">
        <ele>75</ele>
        <time>2011-12-04T11:05:51.3Z</time>
      </trkpt>
      <trkpt lat="47.30626" lon="-1.68075">
        <ele>75</ele>
        <time>2011-12-04T11:05:55.3Z</time>
      </trkpt>
      <trkpt lat="47.30631" lon="-1.68091">
        <ele>75</ele>
        <time>2011-12-04T11:05:56.1Z</time>
      </trkpt>
      <trkpt lat="47.30632" lon="-1.68096">
        <ele>75</ele>
        <time>2011-12-04T11:05:57.1Z</time>
      </trkpt>
      <trkpt lat="47.3064" lon="-1.68115">
        <ele>75</ele>
        <time>2011-12-04T11:06:01.2Z</time>
      </trkpt>
      <trkpt lat="47.30643" lon="-1.68119">
        <ele>75</ele>
        <time>2011-12-04T11:06:02.1Z</time>
      </trkpt>
      <trkpt lat="47.30646" lon="-1.68122">
        <ele>75</ele>
        <time>2011-12-04T11:06:03.1Z</time>
      </trkpt>
      <trkpt lat="47.3066" lon="-1.68135">
        <ele>75</ele>
        <time>2011-12-04T11:06:07.2Z</time>
      </trkpt>
      <trkpt lat="47.30664" lon="-1.68138">
        <ele>75</ele>
        <time>2011-12-04T11:06:08.1Z</time>
      </trkpt>
      <trkpt lat="47.30668" lon="-1.68141">
        <ele>75</ele>
        <time>2011-12-04T11:06:09.1Z</time>
      </trkpt>
      <trkpt lat="47.30682" lon="-1.68154">
        <ele>75</ele>
        <time>2011-12-04T11:06:13.2Z</time>
      </trkpt>
      <trkpt lat="47.30686" lon="-1.68158">
        <ele>75</ele>
        <time>2011-12-04T11:06:14.1Z</time>
      </trkpt>
      <trkpt lat="47.3069" lon="-1.68161">
        <ele>75</ele>
        <time>2011-12-04T11:06:15.1Z</time>
      </trkpt>
      <trkpt lat="47.30705" lon="-1.68174">
        <ele>75</ele>
        <time>2011-12-04T11:06:19.2Z</time>
      </trkpt>
      <trkpt lat="47.30709" lon="-1.68177">
        <ele>75</ele>
        <time>2011-12-04T11:06:20.1Z</time>
      </trkpt>
      <trkpt lat="47.30713" lon="-1.6818">
        <ele>75</ele>
        <time>2011-12-04T11:06:21.1Z</time>
      </trkpt>
      <trkpt lat="47.30721" lon="-1.68187">
        <ele>75</ele>
        <time>2011-12-04T11:06:25.2Z</time>
      </trkpt>
      <trkpt lat="47.30733" lon="-1.68197">
        <ele>74</ele>
        <time>2011-12-04T11:06:26.1Z</time>
      </trkpt>
      <trkpt lat="47.30736" lon="-1.68199">
        <ele>74</ele>
        <time>2011-12-04T11:06:27.1Z</time>
      </trkpt>
      <trkpt lat="47.30743" lon="-1.68203">
        <ele>74</ele>
        <time>2011-12-04T11:06:31.2Z</time>
      </trkpt>
      <trkpt lat="47.3075" lon="-1.68205">
        <ele>74</ele>
        <time>2011-12-04T11:06:32.6Z</time>
      </trkpt>
      <trkpt lat="47.30751" lon="-1.68203">
        <ele>74</ele>
        <time>2011-12-04T11:06:33.5Z</time>
      </trkpt>
      <trkpt lat="47.30752" lon="-1.68201">
        <ele>74</ele>
        <time>2011-12-04T11:06:34.3Z</time>
      </trkpt>
      <trkpt lat="47.30753" lon="-1.68199">
        <ele>74</ele>
        <time>2011-12-04T11:06:35.1Z</time>
      </trkpt>
      <trkpt lat="47.30754" lon="-1.68192">
        <ele>74</ele>
        <time>2011-12-04T11:06:39.7Z</time>
      </trkpt>
      <trkpt lat="47.30757" lon="-1.68178">
        <ele>74</ele>
        <time>2011-12-04T11:06:40.1Z</time>
      </trkpt>
      <trkpt lat="47.30758" lon="-1.68172">
        <ele>74</ele>
        <time>2011-12-04T11:06:41.1Z</time>
      </trkpt>
      <trkpt lat="47.30761" lon="-1.6816">
        <ele>74</ele>
        <time>2011-12-04T11:06:45.2Z</time>
      </trkpt>
      <trkpt lat="47.30765" lon="-1.68141">
        <ele>74</ele>
        <time>2011-12-04T11:06:46.1Z</time>
      </trkpt>
      <trkpt lat="47.30767" lon="-1.68134">
        <ele>74</ele>
        <time>2011-12-04T11:06:47.1Z</time>
      </trkpt>
      <trkpt lat="47.30771" lon="-1.68121">
        <ele>74</ele>
        <time>2011-12-04T11:06:51.2Z</time>
      </trkpt>
      <trkpt lat="47.30776" lon="-1.681">
        <ele>74</ele>
        <time>2011-12-04T11:06:52.1Z</time>
      </trkpt>
      <trkpt lat="47.30778" lon="-1.68093">
        <ele>74</ele>
        <time>2011-12-04T11:06:53.1Z</time>
      </trkpt>
      <trkpt lat="47.30781" lon="-1.68079">
        <ele>74</ele>
        <time>2011-12-04T11:06:57.2Z</time>
      </trkpt>
      <trkpt lat="47.30787" lon="-1.68058">
        <ele>74</ele>
        <time>2011-12-04T11:06:58.1Z</time>
      </trkpt>
      <trkpt lat="47.30789" lon="-1.6805">
        <ele>74</ele>
        <time>2011-12-04T11:06:59.1Z</time>
      </trkpt>
      <trkpt lat="47.30794" lon="-1.68035">
        <ele>74</ele>
        <time>2011-12-04T11:07:03.2Z</time>
      </trkpt>
      <trkpt lat="47.30801" lon="-1.68016">
        <ele>74</ele>
        <time>2011-12-04T11:07:04.1Z</time>
      </trkpt>
      <trkpt lat="47.30803" lon="-1.6801">
        <ele>74</ele>
        <time>2011-12-04T11:07:05Z</time>
      </trkpt>
      <trkpt lat="47.30808" lon="-1.68">
        <ele>74</ele>
        <time>2011-12-04T11:07:09.2Z</time>
      </trkpt>
      <trkpt lat="47.30813" lon="-1.67987">
        <ele>74</ele>
        <time>2011-12-04T11:07:10.1Z</time>
      </trkpt>
      <trkpt lat="47.30814" lon="-1.67984">
        <ele>74</ele>
        <time>2011-12-04T11:07:11.1Z</time>
      </trkpt>
      <trkpt lat="47.30818" lon="-1.67983">
        <ele>74</ele>
        <time>2011-12-04T11:07:16.2Z</time>
      </trkpt>
      <trkpt lat="47.30828" lon="-1.67995">
        <ele>74</ele>
        <time>2011-12-04T11:07:17.2Z</time>
      </trkpt>
      <trkpt lat="47.30831" lon="-1.68">
        <ele>74</ele>
        <time>2011-12-04T11:07:18.1Z</time>
      </trkpt>
      <trkpt lat="47.30833" lon="-1.68006">
        <ele>74</ele>
        <time>2011-12-04T11:07:19.1Z</time>
      </trkpt>
      <trkpt lat="47.30839" lon="-1.68018">
        <ele>74</ele>
        <time>2011-12-04T11:07:23.2Z</time>
      </trkpt>
      <trkpt lat="47.30846" lon="-1.68034">
        <ele>74</ele>
        <time>2011-12-04T11:07:24.1Z</time>
      </trkpt>
      <trkpt lat="47.30849" lon="-1.6804">
        <ele>74</ele>
        <time>2011-12-04T11:07:25.1Z</time>
      </trkpt>
      <trkpt lat="47.30855" lon="-1.68053">
        <ele>74</ele>
        <time>2011-12-04T11:07:29.2Z</time>
      </trkpt>
      <trkpt lat="47.30864" lon="-1.68072">
        <ele>74</ele>
        <time>2011-12-04T11:07:30.1Z</time>
      </trkpt>
      <trkpt lat="47.30867" lon="-1.68079">
        <ele>74</ele>
        <time>2011-12-04T11:07:31.1Z</time>
      </trkpt>
      <trkpt lat="47.30873" lon="-1.68092">
        <ele>74</ele>
        <time>2011-12-04T11:07:35.2Z</time>
      </trkpt>
      <trkpt lat="47.30881" lon="-1.68112">
        <ele>74</ele>
        <time>2011-12-04T11:07:36.1Z</time>
      </trkpt>
      <trkpt lat="47.30884" lon="-1.68118">
        <ele>74</ele>
        <time>2011-12-04T11:07:37.1Z</time>
      </trkpt>
      <trkpt lat="47.3089" lon="-1.68132">
        <ele>74</ele>
        <time>2011-12-04T11:07:41.2Z</time>
      </trkpt>
      <trkpt lat="47.30899" lon="-1.68151">
        <ele>74</ele>
        <time>2011-12-04T11:07:42.1Z</time>
      </trkpt>
      <trkpt lat="47.30902" lon="-1.68158">
        <ele>74</ele>
        <time>2011-12-04T11:07:43.1Z</time>
      </trkpt>
      <trkpt lat="47.30907" lon="-1.68171">
        <ele>74</ele>
        <time>2011-12-04T11:07:47.2Z</time>
      </trkpt>
      <trkpt lat="47.30915" lon="-1.68191">
        <ele>74</ele>
        <time>2011-12-04T11:07:48.1Z</time>
      </trkpt>
      <trkpt lat="47.30918" lon="-1.68198">
        <ele>74</ele>
        <time>2011-12-04T11:07:49Z</time>
      </trkpt>
      <trkpt lat="47.30924" lon="-1.68211">
        <ele>74</ele>
        <time>2011-12-04T11:07:53.2Z</time>
      </trkpt>
      <trkpt lat="47.30933" lon="-1.68231">
        <ele>74</ele>
        <time>2011-12-04T11:07:54Z</time>
      </trkpt>
      <trkpt lat="47.30936" lon="-1.68237">
        <ele>74</ele>
        <time>2011-12-04T11:07:55.1Z</time>
      </trkpt>
      <trkpt lat="47.30942" lon="-1.6825">
        <ele>74</ele>
        <time>2011-12-04T11:07:59.2Z</time>
      </trkpt>
      <trkpt lat="47.30955" lon="-1.68275">
        <ele>74</ele>
        <time>2011-12-04T11:08:03.6Z</time>
      </trkpt>
      <trkpt lat="47.30966" lon="-1.68291">
        <ele>74</ele>
        <time>2011-12-04T11:08:04Z</time>
      </trkpt>
      <trkpt lat="47.3097" lon="-1.68296">
        <ele>74</ele>
        <time>2011-12-04T11:08:05.1Z</time>
      </trkpt>
      <trkpt lat="47.30977" lon="-1.68306">
        <ele>74</ele>
        <time>2011-12-04T11:08:09.5Z</time>
      </trkpt>
      <trkpt lat="47.3099" lon="-1.6832">
        <ele>74</ele>
        <time>2011-12-04T11:08:10Z</time>
      </trkpt>
      <trkpt lat="47.30994" lon="-1.68324">
        <ele>74</ele>
        <time>2011-12-04T11:08:11.1Z</time>
      </trkpt>
      <trkpt lat="47.31004" lon="-1.68333">
        <ele>74</ele>
        <time>2011-12-04T11:08:13.8Z</time>
      </trkpt>
      <trkpt lat="47.31025" lon="-1.68351">
        <ele>74</ele>
        <time>2011-12-04T11:08:18.1Z</time>
      </trkpt>
      <trkpt lat="47.3103" lon="-1.68354">
        <ele>74</ele>
        <time>2011-12-04T11:08:19.1Z</time>
      </trkpt>
      <trkpt lat="47.31034" lon="-1.68358">
        <ele>74</ele>
        <time>2011-12-04T11:08:20Z</time>
      </trkpt>
      <trkpt lat="47.31043" lon="-1.68365">
        <ele>74</ele>
        <time>2011-12-04T11:08:24.2Z</time>
      </trkpt>
      <trkpt lat="47.31056" lon="-1.68376">
        <ele>74</ele>
        <time>2011-12-04T11:08:25Z</time>
      </trkpt>
      <trkpt lat="47.3106" lon="-1.68379">
        <ele>74</ele>
        <time>2011-12-04T11:08:26Z</time>
      </trkpt>
      <trkpt lat="47.31069" lon="-1.68386">
        <ele>74</ele>
        <time>2011-12-04T11:08:30.2Z</time>
      </trkpt>
      <trkpt lat="47.31083" lon="-1.68397">
        <ele>74</ele>
        <time>2011-12-04T11:08:31.1Z</time>
      </trkpt>
      <trkpt lat="47.31087" lon="-1.684">
        <ele>74</ele>
        <time>2011-12-04T11:08:32Z</time>
      </trkpt>
      <trkpt lat="47.31096" lon="-1.68408">
        <ele>74</ele>
        <time>2011-12-04T11:08:36.2Z</time>
      </trkpt>
      <trkpt lat="47.31109" lon="-1.68418">
        <ele>74</ele>
        <time>2011-12-04T11:08:37Z</time>
      </trkpt>
      <trkpt lat="47.31113" lon="-1.68422">
        <ele>74</ele>
        <time>2011-12-04T11:08:38Z</time>
      </trkpt>
      <trkpt lat="47.31122" lon="-1.6843">
        <ele>74</ele>
        <time>2011-12-04T11:08:42.2Z</time>
      </trkpt>
      <trkpt lat="47.31137" lon="-1.68442">
        <ele>74</ele>
        <time>2011-12-04T11:08:43Z</time>
      </trkpt>
      <trkpt lat="47.31142" lon="-1.68446">
        <ele>74</ele>
        <time>2011-12-04T11:08:44Z</time>
      </trkpt>
      <trkpt lat="47.31152" lon="-1.68454">
        <ele>74</ele>
        <time>2011-12-04T11:08:48.3Z</time>
      </trkpt>
      <trkpt lat="47.31166" lon="-1.68465">
        <ele>74</ele>
        <time>2011-12-04T11:08:49Z</time>
      </trkpt>
      <trkpt lat="47.3117" lon="-1.68469">
        <ele>74</ele>
        <time>2011-12-04T11:08:50Z</time>
      </trkpt>
      <trkpt lat="47.3118" lon="-1.68477">
        <ele>74</ele>
        <time>2011-12-04T11:08:54.3Z</time>
      </trkpt>
      <trkpt lat="47.31194" lon="-1.68489">
        <ele>74</ele>
        <time>2011-12-04T11:08:55Z</time>
      </trkpt>
      <trkpt lat="47.31198" lon="-1.68492">
        <ele>74</ele>
        <time>2011-12-04T11:08:56Z</time>
      </trkpt>
      <trkpt lat="47.31207" lon="-1.68499">
        <ele>74</ele>
        <time>2011-12-04T11:09:00.3Z</time>
      </trkpt>
      <trkpt lat="47.31221" lon="-1.68509">
        <ele>74</ele>
        <time>2011-12-04T11:09:01Z</time>
      </trkpt>
      <trkpt lat="47.31225" lon="-1.68509">
        <ele>74</ele>
        <time>2011-12-04T11:09:02.2Z</time>
      </trkpt>
      <trkpt lat="47.31234" lon="-1.68506">
        <ele>74</ele>
        <time>2011-12-04T11:09:07.4Z</time>
      </trkpt>
      <trkpt lat="47.31254" lon="-1.685">
        <ele>74</ele>
        <time>2011-12-04T11:09:08.2Z</time>
      </trkpt>
      <trkpt lat="47.31259" lon="-1.68498">
        <ele>74</ele>
        <time>2011-12-04T11:09:09Z</time>
      </trkpt>
      <trkpt lat="47.31269" lon="-1.68495">
        <ele>74</ele>
        <time>2011-12-04T11:09:13.4Z</time>
      </trkpt>
      <trkpt lat="47.31283" lon="-1.68489">
        <ele>74</ele>
        <time>2011-12-04T11:09:14Z</time>
      </trkpt>
      <trkpt lat="47.31288" lon="-1.68488">
        <ele>74</ele>
        <time>2011-12-04T11:09:15Z</time>
      </trkpt>
      <trkpt lat="47.31299" lon="-1.68484">
        <ele>74</ele>
        <time>2011-12-04T11:09:19.4Z</time>
      </trkpt>
      <trkpt lat="47.31314" lon="-1.6848">
        <ele>74</ele>
        <time>2011-12-04T11:09:20Z</time>
      </trkpt>
      <trkpt lat="47.31319" lon="-1.68478">
        <ele>74</ele>
        <time>2011-12-04T11:09:21Z</time>
      </trkpt>
      <trkpt lat="47.31329" lon="-1.68474">
        <ele>74</ele>
        <time>2011-12-04T11:09:25.4Z</time>
      </trkpt>
      <trkpt lat="47.31345" lon="-1.68469">
        <ele>74</ele>
        <time>2011-12-04T11:09:26Z</time>
      </trkpt>
      <trkpt lat="47.3135" lon="-1.68467">
        <ele>74</ele>
        <time>2011-12-04T11:09:27Z</time>
      </trkpt>
      <trkpt lat="47.31361" lon="-1.68463">
        <ele>74</ele>
        <time>2011-12-04T11:09:31.4Z</time>
      </trkpt>
      <trkpt lat="47.31378" lon="-1.68458">
        <ele>74</ele>
        <time>2011-12-04T11:09:32Z</time>
      </trkpt>
      <trkpt lat="47.31383" lon="-1.68456">
        <ele>74</ele>
        <time>2011-12-04T11:09:33Z</time>
      </trkpt>
      <trkpt lat="47.31395" lon="-1.68452">
        <ele>74</ele>
        <time>2011-12-04T11:09:37.4Z</time>
      </trkpt>
      <trkpt lat="47.31412" lon="-1.68446">
        <ele>74</ele>
        <time>2011-12-04T11:09:38Z</time>
      </trkpt>
      <trkpt lat="47.31418" lon="-1.68444">
        <ele>74</ele>
        <time>2011-12-04T11:09:39Z</time>
      </trkpt>
      <trkpt lat="47.3143" lon="-1.6844">
        <ele>74</ele>
        <time>2011-12-04T11:09:43.4Z</time>
      </trkpt>
      <trkpt lat="47.31447" lon="-1.68434">
        <ele>74</ele>
        <time>2011-12-04T11:09:44Z</time>
      </trkpt>
      <trkpt lat="47.31453" lon="-1.68431">
        <ele>74</ele>
        <time>2011-12-04T11:09:45Z</time>
      </trkpt>
      <trkpt lat="47.31465" lon="-1.68428">
        <ele>74</ele>
        <time>2011-12-04T11:09:49.4Z</time>
      </trkpt>
      <trkpt lat="47.31483" lon="-1.68421">
        <ele>74</ele>
        <time>2011-12-04T11:09:50Z</time>
      </trkpt>
      <trkpt lat="47.31489" lon="-1.68419">
        <ele>74</ele>
        <time>2011-12-04T11:09:51Z</time>
      </trkpt>
      <trkpt lat="47.31501" lon="-1.68415">
        <ele>74</ele>
        <time>2011-12-04T11:09:55.4Z</time>
      </trkpt>
      <trkpt lat="47.31518" lon="-1.68409">
        <ele>74</ele>
        <time>2011-12-04T11:09:56Z</time>
      </trkpt>
      <trkpt lat="47.31524" lon="-1.68407">
        <ele>74</ele>
        <time>2011-12-04T11:09:57Z</time>
      </trkpt>
      <trkpt lat="47.31535" lon="-1.68403">
        <ele>74</ele>
        <time>2011-12-04T11:10:01.5Z</time>
      </trkpt>
      <trkpt lat="47.31547" lon="-1.68399">
        <ele>74</ele>
        <time>2011-12-04T11:10:02Z</time>
      </trkpt>
      <trkpt lat="47.31549" lon="-1.68398">
        <ele>74</ele>
        <time>2011-12-04T11:10:03Z</time>
      </trkpt>
      <trkpt lat="47.31553" lon="-1.68397">
        <ele>74</ele>
        <time>2011-12-04T11:10:07.5Z</time>
      </trkpt>
      <trkpt lat="47.31564" lon="-1.68393">
        <ele>74</ele>
        <time>2011-12-04T11:10:08Z</time>
      </trkpt>
      <trkpt lat="47.31568" lon="-1.68391">
        <ele>73</ele>
        <time>2011-12-04T11:10:09Z</time>
      </trkpt>
      <trkpt lat="47.31577" lon="-1.68387">
        <ele>73</ele>
        <time>2011-12-04T11:10:13.6Z</time>
      </trkpt>
      <trkpt lat="47.31593" lon="-1.68382">
        <ele>73</ele>
        <time>2011-12-04T11:10:14Z</time>
      </trkpt>
      <trkpt lat="47.31598" lon="-1.6838">
        <ele>73</ele>
        <time>2011-12-04T11:10:15Z</time>
      </trkpt>
      <trkpt lat="47.31609" lon="-1.68376">
        <ele>73</ele>
        <time>2011-12-04T11:10:19.6Z</time>
      </trkpt>
      <trkpt lat="47.31626" lon="-1.68371">
        <ele>72</ele>
        <time>2011-12-04T11:10:20Z</time>
      </trkpt>
      <trkpt lat="47.31632" lon="-1.68369">
        <ele>72</ele>
        <time>2011-12-04T11:10:21Z</time>
      </trkpt>
      <trkpt lat="47.31643" lon="-1.68365">
        <ele>72</ele>
        <time>2011-12-04T11:10:25.7Z</time>
      </trkpt>
      <trkpt lat="47.31661" lon="-1.68359">
        <ele>72</ele>
        <time>2011-12-04T11:10:26Z</time>
      </trkpt>
      <trkpt lat="47.31667" lon="-1.68357">
        <ele>72</ele>
        <time>2011-12-04T11:10:27Z</time>
      </trkpt>
      <trkpt lat="47.31679" lon="-1.68352">
        <ele>72</ele>
        <time>2011-12-04T11:10:31.7Z</time>
      </trkpt>
      <trkpt lat="47.31697" lon="-1.68346">
        <ele>72</ele>
        <time>2011-12-04T11:10:32Z</time>
      </trkpt>
      <trkpt lat="47.31703" lon="-1.68344">
        <ele>72</ele>
        <time>2011-12-04T11:10:33Z</time>
      </trkpt>
      <trkpt lat="47.31714" lon="-1.6834">
        <ele>72</ele>
        <time>2011-12-04T11:10:37.8Z</time>
      </trkpt>
      <trkpt lat="47.31732" lon="-1.68334">
        <ele>72</ele>
        <time>2011-12-04T11:10:38Z</time>
      </trkpt>
      <trkpt lat="47.31737" lon="-1.68332">
        <ele>72</ele>
        <time>2011-12-04T11:10:39Z</time>
      </trkpt>
      <trkpt lat="47.31749" lon="-1.68328">
        <ele>72</ele>
        <time>2011-12-04T11:10:43.9Z</time>
      </trkpt>
      <trkpt lat="47.31767" lon="-1.68322">
        <ele>72</ele>
        <time>2011-12-04T11:10:44.1Z</time>
      </trkpt>
      <trkpt lat="47.31773" lon="-1.68319">
        <ele>71</ele>
        <time>2011-12-04T11:10:45Z</time>
      </trkpt>
      <trkpt lat="47.31801" lon="-1.6831">
        <ele>71</ele>
        <time>2011-12-04T11:10:50.1Z</time>
      </trkpt>
      <trkpt lat="47.31807" lon="-1.68309">
        <ele>71</ele>
        <time>2011-12-04T11:10:51Z</time>
      </trkpt>
      <trkpt lat="47.31828" lon="-1.6832">
        <ele>70</ele>
        <time>2011-12-04T11:10:56.1Z</time>
      </trkpt>
      <trkpt lat="47.3183" lon="-1.68322">
        <ele>69</ele>
        <time>2011-12-04T11:10:57.3Z</time>
      </trkpt>
      <trkpt lat="47.31831" lon="-1.68325">
        <ele>69</ele>
        <time>2011-12-04T11:10:58.5Z</time>
      </trkpt>
      <trkpt lat="47.31832" lon="-1.68327">
        <ele>68</ele>
        <time>2011-12-04T11:10:59.2Z</time>
      </trkpt>
      <trkpt lat="47.31838" lon="-1.6834">
        <ele>68</ele>
        <time>2011-12-04T11:11:04.1Z</time>
      </trkpt>
      <trkpt lat="47.3184" lon="-1.68343">
        <ele>67</ele>
        <time>2011-12-04T11:11:05.7Z</time>
      </trkpt>
      <trkpt lat="47.31852" lon="-1.68363">
        <ele>67</ele>
        <time>2011-12-04T11:11:10.1Z</time>
      </trkpt>
      <trkpt lat="47.31854" lon="-1.68368">
        <ele>67</ele>
        <time>2011-12-04T11:11:11Z</time>
      </trkpt>
      <trkpt lat="47.31857" lon="-1.68372">
        <ele>67</ele>
        <time>2011-12-04T11:11:12Z</time>
      </trkpt>
      <trkpt lat="47.31863" lon="-1.68382">
        <ele>67</ele>
        <time>2011-12-04T11:11:16.4Z</time>
      </trkpt>
      <trkpt lat="47.31873" lon="-1.68399">
        <ele>67</ele>
        <time>2011-12-04T11:11:17Z</time>
      </trkpt>
      <trkpt lat="47.31876" lon="-1.68405">
        <ele>67</ele>
        <time>2011-12-04T11:11:18Z</time>
      </trkpt>
      <trkpt lat="47.31883" lon="-1.68417">
        <ele>67</ele>
        <time>2011-12-04T11:11:22.5Z</time>
      </trkpt>
      <trkpt lat="47.31891" lon="-1.68433">
        <ele>67</ele>
        <time>2011-12-04T11:11:23Z</time>
      </trkpt>
      <trkpt lat="47.31894" lon="-1.68439">
        <ele>67</ele>
        <time>2011-12-04T11:11:24Z</time>
      </trkpt>
      <trkpt lat="47.31898" lon="-1.68449">
        <ele>67</ele>
        <time>2011-12-04T11:11:28.6Z</time>
      </trkpt>
      <trkpt lat="47.31903" lon="-1.68464">
        <ele>67</ele>
        <time>2011-12-04T11:11:29Z</time>
      </trkpt>
      <trkpt lat="47.31905" lon="-1.68469">
        <ele>67</ele>
        <time>2011-12-04T11:11:30Z</time>
      </trkpt>
      <trkpt lat="47.31908" lon="-1.6848">
        <ele>67</ele>
        <time>2011-12-04T11:11:34.7Z</time>
      </trkpt>
      <trkpt lat="47.31913" lon="-1.68499">
        <ele>67</ele>
        <time>2011-12-04T11:11:35Z</time>
      </trkpt>
      <trkpt lat="47.31915" lon="-1.68507">
        <ele>67</ele>
        <time>2011-12-04T11:11:36Z</time>
      </trkpt>
      <trkpt lat="47.31919" lon="-1.68525">
        <ele>67</ele>
        <time>2011-12-04T11:11:40.9Z</time>
      </trkpt>
      <trkpt lat="47.31923" lon="-1.68554">
        <ele>67</ele>
        <time>2011-12-04T11:11:41.1Z</time>
      </trkpt>
      <trkpt lat="47.31925" lon="-1.68563">
        <ele>67</ele>
        <time>2011-12-04T11:11:42Z</time>
      </trkpt>
      <trkpt lat="47.3193" lon="-1.68611">
        <ele>67</ele>
        <time>2011-12-04T11:11:47.1Z</time>
      </trkpt>
      <trkpt lat="47.31932" lon="-1.68619">
        <ele>67</ele>
        <time>2011-12-04T11:11:48Z</time>
      </trkpt>
      <trkpt lat="47.31936" lon="-1.68657">
        <ele>67</ele>
        <time>2011-12-04T11:11:53.1Z</time>
      </trkpt>
      <trkpt lat="47.31936" lon="-1.68664">
        <ele>67</ele>
        <time>2011-12-04T11:11:54Z</time>
      </trkpt>
      <trkpt lat="47.31936" lon="-1.68671">
        <ele>67</ele>
        <time>2011-12-04T11:11:55Z</time>
      </trkpt>
      <trkpt lat="47.31937" lon="-1.68684">
        <ele>67</ele>
        <time>2011-12-04T11:11:59.4Z</time>
      </trkpt>
      <trkpt lat="47.3194" lon="-1.68704">
        <ele>67</ele>
        <time>2011-12-04T11:12:00Z</time>
      </trkpt>
      <trkpt lat="47.31941" lon="-1.6871">
        <ele>67</ele>
        <time>2011-12-04T11:12:01.2Z</time>
      </trkpt>
      <trkpt lat="47.31944" lon="-1.68723">
        <ele>68</ele>
        <time>2011-12-04T11:12:05.8Z</time>
      </trkpt>
      <trkpt lat="47.31946" lon="-1.68744">
        <ele>69</ele>
        <time>2011-12-04T11:12:06Z</time>
      </trkpt>
      <trkpt lat="47.31947" lon="-1.68751">
        <ele>70</ele>
        <time>2011-12-04T11:12:07.4Z</time>
      </trkpt>
      <trkpt lat="47.31952" lon="-1.68784">
        <ele>71</ele>
        <time>2011-12-04T11:12:12.1Z</time>
      </trkpt>
      <trkpt lat="47.31952" lon="-1.68791">
        <ele>71</ele>
        <time>2011-12-04T11:12:13Z</time>
      </trkpt>
      <trkpt lat="47.31954" lon="-1.68803">
        <ele>72</ele>
        <time>2011-12-04T11:12:18.2Z</time>
      </trkpt>
      <trkpt lat="47.31955" lon="-1.6883">
        <ele>72</ele>
        <time>2011-12-04T11:12:19Z</time>
      </trkpt>
      <trkpt lat="47.31956" lon="-1.68837">
        <ele>72</ele>
        <time>2011-12-04T11:12:20Z</time>
      </trkpt>
      <trkpt lat="47.31958" lon="-1.68852">
        <ele>72</ele>
        <time>2011-12-04T11:12:24.4Z</time>
      </trkpt>
      <trkpt lat="47.3196" lon="-1.68873">
        <ele>72</ele>
        <time>2011-12-04T11:12:25Z</time>
      </trkpt>
      <trkpt lat="47.31961" lon="-1.6888">
        <ele>72</ele>
        <time>2011-12-04T11:12:26Z</time>
      </trkpt>
      <trkpt lat="47.31962" lon="-1.68893">
        <ele>71</ele>
        <time>2011-12-04T11:12:30.6Z</time>
      </trkpt>
      <trkpt lat="47.31962" lon="-1.68914">
        <ele>70</ele>
        <time>2011-12-04T11:12:31Z</time>
      </trkpt>
      <trkpt lat="47.3196" lon="-1.68923">
        <ele>69</ele>
        <time>2011-12-04T11:12:32Z</time>
      </trkpt>
      <trkpt lat="47.3196" lon="-1.68937">
        <ele>69</ele>
        <time>2011-12-04T11:12:36.7Z</time>
      </trkpt>
      <trkpt lat="47.31961" lon="-1.68952">
        <ele>69</ele>
        <time>2011-12-04T11:12:37Z</time>
      </trkpt>
      <trkpt lat="47.31961" lon="-1.68955">
        <ele>69</ele>
        <time>2011-12-04T11:12:38Z</time>
      </trkpt>
      <trkpt lat="47.31959" lon="-1.68961">
        <ele>69</ele>
        <time>2011-12-04T11:12:42.9Z</time>
      </trkpt>
      <trkpt lat="47.31955" lon="-1.68961">
        <ele>69</ele>
        <time>2011-12-04T11:12:43.7Z</time>
      </trkpt>
      <trkpt lat="47.31954" lon="-1.6896">
        <ele>69</ele>
        <time>2011-12-04T11:12:45.4Z</time>
      </trkpt>
      <trkpt lat="47.31952" lon="-1.68957">
        <ele>69</ele>
        <time>2011-12-04T11:12:49.9Z</time>
      </trkpt>
      <trkpt lat="47.31951" lon="-1.68951">
        <ele>70</ele>
        <time>2011-12-04T11:12:50Z</time>
      </trkpt>
      <trkpt lat="47.31951" lon="-1.68949">
        <ele>71</ele>
        <time>2011-12-04T11:12:51Z</time>
      </trkpt>
      <trkpt lat="47.31958" lon="-1.68933">
        <ele>72</ele>
        <time>2011-12-04T11:12:56.1Z</time>
      </trkpt>
      <trkpt lat="47.31961" lon="-1.68932">
        <ele>73</ele>
        <time>2011-12-04T11:12:57.3Z</time>
      </trkpt>
      <trkpt lat="47.31965" lon="-1.68931">
        <ele>74</ele>
        <time>2011-12-04T11:12:58Z</time>
      </trkpt>
      <trkpt lat="47.31972" lon="-1.6893">
        <ele>75</ele>
        <time>2011-12-04T11:13:02.7Z</time>
      </trkpt>
      <trkpt lat="47.31983" lon="-1.68929">
        <ele>75</ele>
        <time>2011-12-04T11:13:03Z</time>
      </trkpt>
      <trkpt lat="47.31986" lon="-1.68929">
        <ele>75</ele>
        <time>2011-12-04T11:13:04.1Z</time>
      </trkpt>
      <trkpt lat="47.31989" lon="-1.6893">
        <ele>75</ele>
        <time>2011-12-04T11:13:05.6Z</time>
      </trkpt>
      <trkpt lat="47.32007" lon="-1.6893">
        <ele>75</ele>
        <time>2011-12-04T11:13:10.1Z</time>
      </trkpt>
      <trkpt lat="47.3201" lon="-1.68929">
        <ele>75</ele>
        <time>2011-12-04T11:13:11.5Z</time>
      </trkpt>
      <trkpt lat="47.32014" lon="-1.6893">
        <ele>75</ele>
        <time>2011-12-04T11:13:12Z</time>
      </trkpt>
      <trkpt lat="47.32018" lon="-1.68931">
        <ele>75</ele>
        <time>2011-12-04T11:13:13.2Z</time>
      </trkpt>
      <trkpt lat="47.32024" lon="-1.68929">
        <ele>75</ele>
        <time>2011-12-04T11:13:17.6Z</time>
      </trkpt>
      <trkpt lat="47.32036" lon="-1.68921">
        <ele>75</ele>
        <time>2011-12-04T11:13:18.6Z</time>
      </trkpt>
      <trkpt lat="47.3204" lon="-1.68921">
        <ele>75</ele>
        <time>2011-12-04T11:13:19.6Z</time>
      </trkpt>
      <trkpt lat="47.32044" lon="-1.6892">
        <ele>74</ele>
        <time>2011-12-04T11:13:20.4Z</time>
      </trkpt>
      <trkpt lat="47.32053" lon="-1.68916">
        <ele>74</ele>
        <time>2011-12-04T11:13:24.8Z</time>
      </trkpt>
      <trkpt lat="47.32065" lon="-1.68911">
        <ele>73</ele>
        <time>2011-12-04T11:13:25.6Z</time>
      </trkpt>
      <trkpt lat="47.3207" lon="-1.68912">
        <ele>73</ele>
        <time>2011-12-04T11:13:26.2Z</time>
      </trkpt>
      <trkpt lat="47.32073" lon="-1.68912">
        <ele>72</ele>
        <time>2011-12-04T11:13:27.2Z</time>
      </trkpt>
      <trkpt lat="47.32081" lon="-1.68911">
        <ele>72</ele>
        <time>2011-12-04T11:13:31.6Z</time>
      </trkpt>
      <trkpt lat="47.32099" lon="-1.68907">
        <ele>71</ele>
        <time>2011-12-04T11:13:32.2Z</time>
      </trkpt>
      <trkpt lat="47.32104" lon="-1.68905">
        <ele>70</ele>
        <time>2011-12-04T11:13:33Z</time>
      </trkpt>
      <trkpt lat="47.32109" lon="-1.68902">
        <ele>69</ele>
        <time>2011-12-04T11:13:34.2Z</time>
      </trkpt>
      <trkpt lat="47.32116" lon="-1.68894">
        <ele>68</ele>
        <time>2011-12-04T11:13:39.4Z</time>
      </trkpt>
      <trkpt lat="47.3212" lon="-1.68871">
        <ele>68</ele>
        <time>2011-12-04T11:13:40Z</time>
      </trkpt>
      <trkpt lat="47.32119" lon="-1.68866">
        <ele>67</ele>
        <time>2011-12-04T11:13:41.6Z</time>
      </trkpt>
      <trkpt lat="47.32118" lon="-1.68857">
        <ele>67</ele>
        <time>2011-12-04T11:13:46.9Z</time>
      </trkpt>
      <trkpt lat="47.32116" lon="-1.68844">
        <ele>67</ele>
        <time>2011-12-04T11:13:47Z</time>
      </trkpt>
      <trkpt lat="47.32116" lon="-1.68842">
        <ele>67</ele>
        <time>2011-12-04T11:13:48.6Z</time>
      </trkpt>
      <trkpt lat="47.32115" lon="-1.68833">
        <ele>67</ele>
        <time>2011-12-04T11:13:53.1Z</time>
      </trkpt>
      <trkpt lat="47.32114" lon="-1.68833">
        <ele>67</ele>
        <time>2011-12-04T11:13:54.1Z</time>
      </trkpt>
      <trkpt lat="47.32112" lon="-1.68834">
        <ele>67</ele>
        <time>2011-12-04T11:13:56Z</time>
      </trkpt>
      <trkpt lat="47.32112" lon="-1.68833">
        <ele>67</ele>
        <time>2011-12-04T11:14:01.7Z</time>
      </trkpt>
      <trkpt lat="47.32113" lon="-1.68829">
        <ele>67</ele>
        <time>2011-12-04T11:14:02.4Z</time>
      </trkpt>
      <trkpt lat="47.32114" lon="-1.68826">
        <ele>70</ele>
        <time>2011-12-04T11:14:09.9Z</time>
      </trkpt>
      <trkpt lat="47.32116" lon="-1.68816">
        <ele>70</ele>
        <time>2011-12-04T11:14:14.9Z</time>
      </trkpt>
      <trkpt lat="47.32116" lon="-1.68811">
        <ele>70</ele>
        <time>2011-12-04T11:14:15.4Z</time>
      </trkpt>
      <trkpt lat="47.32114" lon="-1.68808">
        <ele>70</ele>
        <time>2011-12-04T11:14:17.2Z</time>
      </trkpt>
      <trkpt lat="47.32113" lon="-1.688">
        <ele>70</ele>
        <time>2011-12-04T11:14:21.7Z</time>
      </trkpt>
      <trkpt lat="47.32112" lon="-1.68788">
        <ele>70</ele>
        <time>2011-12-04T11:14:22.4Z</time>
      </trkpt>
      <trkpt lat="47.32111" lon="-1.68786">
        <ele>70</ele>
        <time>2011-12-04T11:14:23Z</time>
      </trkpt>
      <trkpt lat="47.3211" lon="-1.68781">
        <ele>70</ele>
        <time>2011-12-04T11:14:24.4Z</time>
      </trkpt>
      <trkpt lat="47.32109" lon="-1.68776">
        <ele>70</ele>
        <time>2011-12-04T11:14:25Z</time>
      </trkpt>
      <trkpt lat="47.32108" lon="-1.68764">
        <ele>70</ele>
        <time>2011-12-04T11:14:29.5Z</time>
      </trkpt>
      <trkpt lat="47.32103" lon="-1.68753">
        <ele>70</ele>
        <time>2011-12-04T11:14:30Z</time>
      </trkpt>
      <trkpt lat="47.32102" lon="-1.68749">
        <ele>71</ele>
        <time>2011-12-04T11:14:31Z</time>
      </trkpt>
      <trkpt lat="47.32101" lon="-1.68745">
        <ele>72</ele>
        <time>2011-12-04T11:14:32Z</time>
      </trkpt>
      <trkpt lat="47.32097" lon="-1.68734">
        <ele>73</ele>
        <time>2011-12-04T11:14:36.5Z</time>
      </trkpt>
      <trkpt lat="47.32092" lon="-1.68717">
        <ele>74</ele>
        <time>2011-12-04T11:14:37Z</time>
      </trkpt>
      <trkpt lat="47.3209" lon="-1.68713">
        <ele>75</ele>
        <time>2011-12-04T11:14:38Z</time>
      </trkpt>
      <trkpt lat="47.32085" lon="-1.68701">
        <ele>76</ele>
        <time>2011-12-04T11:14:42.8Z</time>
      </trkpt>
      <trkpt lat="47.32079" lon="-1.68686">
        <ele>77</ele>
        <time>2011-12-04T11:14:43Z</time>
      </trkpt>
      <trkpt lat="47.32077" lon="-1.68682">
        <ele>78</ele>
        <time>2011-12-04T11:14:44Z</time>
      </trkpt>
      <trkpt lat="47.32075" lon="-1.68669">
        <ele>79</ele>
        <time>2011-12-04T11:14:49.1Z</time>
      </trkpt>
      <trkpt lat="47.32074" lon="-1.68668">
        <ele>81</ele>
        <time>2011-12-04T11:14:51Z</time>
      </trkpt>
      <trkpt lat="47.32074" lon="-1.68667">
        <ele>82</ele>
        <time>2011-12-04T11:14:58Z</time>
      </trkpt>
      <trkpt lat="47.32075" lon="-1.68666">
        <ele>83</ele>
        <time>2011-12-04T11:15:00.6Z</time>
      </trkpt>
      <trkpt lat="47.32077" lon="-1.68664">
        <ele>84</ele>
        <time>2011-12-04T11:15:05.7Z</time>
      </trkpt>
      <trkpt lat="47.3208" lon="-1.68662">
        <ele>85</ele>
        <time>2011-12-04T11:15:06.5Z</time>
      </trkpt>
      <trkpt lat="47.32082" lon="-1.68662">
        <ele>86</ele>
        <time>2011-12-04T11:15:08Z</time>
      </trkpt>
      <trkpt lat="47.32086" lon="-1.68663">
        <ele>86</ele>
        <time>2011-12-04T11:15:14.3Z</time>
      </trkpt>
      <trkpt lat="47.32089" lon="-1.68662">
        <ele>86</ele>
        <time>2011-12-04T11:15:15Z</time>
      </trkpt>
      <trkpt lat="47.32089" lon="-1.68659">
        <ele>86</ele>
        <time>2011-12-04T11:15:16.4Z</time>
      </trkpt>
      <trkpt lat="47.32091" lon="-1.68648">
        <ele>86</ele>
        <time>2011-12-04T11:15:21.5Z</time>
      </trkpt>
      <trkpt lat="47.32092" lon="-1.68633">
        <ele>86</ele>
        <time>2011-12-04T11:15:22Z</time>
      </trkpt>
      <trkpt lat="47.32092" lon="-1.6863">
        <ele>85</ele>
        <time>2011-12-04T11:15:23.4Z</time>
      </trkpt>
      <trkpt lat="47.32092" lon="-1.68628">
        <ele>84</ele>
        <time>2011-12-04T11:15:24.4Z</time>
      </trkpt>
      <trkpt lat="47.32089" lon="-1.6862">
        <ele>82</ele>
        <time>2011-12-04T11:15:30.4Z</time>
      </trkpt>
      <trkpt lat="47.32088" lon="-1.68619">
        <ele>81</ele>
        <time>2011-12-04T11:15:31.2Z</time>
      </trkpt>
      <trkpt lat="47.32088" lon="-1.68616">
        <ele>80</ele>
        <time>2011-12-04T11:15:32Z</time>
      </trkpt>
      <trkpt lat="47.3209" lon="-1.68613">
        <ele>79</ele>
        <time>2011-12-04T11:15:36.5Z</time>
      </trkpt>
      <trkpt lat="47.32092" lon="-1.6861">
        <ele>79</ele>
        <time>2011-12-04T11:15:37.3Z</time>
      </trkpt>
      <trkpt lat="47.32093" lon="-1.68609">
        <ele>79</ele>
        <time>2011-12-04T11:15:39.2Z</time>
      </trkpt>
      <trkpt lat="47.32099" lon="-1.68612">
        <ele>77</ele>
        <time>2011-12-04T11:15:45.1Z</time>
      </trkpt>
      <trkpt lat="47.32102" lon="-1.68611">
        <ele>76</ele>
        <time>2011-12-04T11:15:46.7Z</time>
      </trkpt>
      <trkpt lat="47.32104" lon="-1.68611">
        <ele>75</ele>
        <time>2011-12-04T11:15:47.5Z</time>
      </trkpt>
      <trkpt lat="47.32106" lon="-1.6861">
        <ele>74</ele>
        <time>2011-12-04T11:15:48.5Z</time>
      </trkpt>
      <trkpt lat="47.32116" lon="-1.6861">
        <ele>73</ele>
        <time>2011-12-04T11:15:53Z</time>
      </trkpt>
      <trkpt lat="47.32118" lon="-1.68608">
        <ele>71</ele>
        <time>2011-12-04T11:15:55.4Z</time>
      </trkpt>
      <trkpt lat="47.32118" lon="-1.68606">
        <ele>70</ele>
        <time>2011-12-04T11:15:56.4Z</time>
      </trkpt>
      <trkpt lat="47.32119" lon="-1.68603">
        <ele>69</ele>
        <time>2011-12-04T11:16:01.3Z</time>
      </trkpt>
      <trkpt lat="47.3212" lon="-1.68596">
        <ele>68</ele>
        <time>2011-12-04T11:16:02.2Z</time>
      </trkpt>
      <trkpt lat="47.32122" lon="-1.68596">
        <ele>66</ele>
        <time>2011-12-04T11:16:08.4Z</time>
      </trkpt>
      <trkpt lat="47.32124" lon="-1.68594">
        <ele>65</ele>
        <time>2011-12-04T11:16:09.2Z</time>
      </trkpt>
      <trkpt lat="47.32126" lon="-1.68594">
        <ele>63</ele>
        <time>2011-12-04T11:16:11.2Z</time>
      </trkpt>
      <trkpt lat="47.32122" lon="-1.68578">
        <ele>62</ele>
        <time>2011-12-04T11:16:17.1Z</time>
      </trkpt>
      <trkpt lat="47.32121" lon="-1.68575">
        <ele>61</ele>
        <time>2011-12-04T11:16:18.1Z</time>
      </trkpt>
      <trkpt lat="47.32118" lon="-1.68569">
        <ele>60</ele>
        <time>2011-12-04T11:16:23.8Z</time>
      </trkpt>
      <trkpt lat="47.32115" lon="-1.68552">
        <ele>59</ele>
        <time>2011-12-04T11:16:24Z</time>
      </trkpt>
      <trkpt lat="47.32115" lon="-1.68547">
        <ele>59</ele>
        <time>2011-12-04T11:16:25.4Z</time>
      </trkpt>
      <trkpt lat="47.32115" lon="-1.68538">
        <ele>58</ele>
        <time>2011-12-04T11:16:30.7Z</time>
      </trkpt>
      <trkpt lat="47.32116" lon="-1.68521">
        <ele>58</ele>
        <time>2011-12-04T11:16:31Z</time>
      </trkpt>
      <trkpt lat="47.32116" lon="-1.68515">
        <ele>57</ele>
        <time>2011-12-04T11:16:32Z</time>
      </trkpt>
      <trkpt lat="47.32117" lon="-1.68502">
        <ele>57</ele>
        <time>2011-12-04T11:16:36.6Z</time>
      </trkpt>
      <trkpt lat="47.32119" lon="-1.68489">
        <ele>56</ele>
        <time>2011-12-04T11:16:37Z</time>
      </trkpt>
      <trkpt lat="47.32119" lon="-1.68486">
        <ele>54</ele>
        <time>2011-12-04T11:16:45.4Z</time>
      </trkpt>
      <trkpt lat="47.32119" lon="-1.68488">
        <ele>53</ele>
        <time>2011-12-04T11:16:53.8Z</time>
      </trkpt>
      <trkpt lat="47.32119" lon="-1.6849">
        <ele>53</ele>
        <time>2011-12-04T11:17:00.7Z</time>
      </trkpt>
      <trkpt lat="47.32122" lon="-1.68488">
        <ele>53</ele>
        <time>2011-12-04T11:17:01.2Z</time>
      </trkpt>
      <trkpt lat="47.32124" lon="-1.68484">
        <ele>53</ele>
        <time>2011-12-04T11:17:08Z</time>
      </trkpt>
      <trkpt lat="47.32123" lon="-1.68482">
        <ele>53</ele>
        <time>2011-12-04T11:17:09Z</time>
      </trkpt>
      <trkpt lat="47.32123" lon="-1.6848">
        <ele>53</ele>
        <time>2011-12-04T11:17:10.2Z</time>
      </trkpt>
      <trkpt lat="47.32128" lon="-1.68468">
        <ele>53</ele>
        <time>2011-12-04T11:17:16.1Z</time>
      </trkpt>
      <trkpt lat="47.32128" lon="-1.68466">
        <ele>53</ele>
        <time>2011-12-04T11:17:17.3Z</time>
      </trkpt>
      <trkpt lat="47.32134" lon="-1.68461">
        <ele>53</ele>
        <time>2011-12-04T11:17:22.1Z</time>
      </trkpt>
      <trkpt lat="47.32136" lon="-1.6846">
        <ele>53</ele>
        <time>2011-12-04T11:17:23.1Z</time>
      </trkpt>
      <trkpt lat="47.32138" lon="-1.68459">
        <ele>53</ele>
        <time>2011-12-04T11:17:24.4Z</time>
      </trkpt>
      <trkpt lat="47.32141" lon="-1.6845">
        <ele>53</ele>
        <time>2011-12-04T11:17:29.1Z</time>
      </trkpt>
      <trkpt lat="47.32142" lon="-1.68448">
        <ele>53</ele>
        <time>2011-12-04T11:17:31Z</time>
      </trkpt>
      <trkpt lat="47.32141" lon="-1.68444">
        <ele>53</ele>
        <time>2011-12-04T11:17:40.5Z</time>
      </trkpt>
      <trkpt lat="47.32146" lon="-1.68439">
        <ele>53</ele>
        <time>2011-12-04T11:17:41.5Z</time>
      </trkpt>
      <trkpt lat="47.32148" lon="-1.68436">
        <ele>53</ele>
        <time>2011-12-04T11:17:42.3Z</time>
      </trkpt>
      <trkpt lat="47.32163" lon="-1.68424">
        <ele>53</ele>
        <time>2011-12-04T11:17:47.1Z</time>
      </trkpt>
      <trkpt lat="47.32167" lon="-1.68424">
        <ele>53</ele>
        <time>2011-12-04T11:17:48.3Z</time>
      </trkpt>
      <trkpt lat="47.32171" lon="-1.68424">
        <ele>52</ele>
        <time>2011-12-04T11:17:49.2Z</time>
      </trkpt>
      <trkpt lat="47.32179" lon="-1.68423">
        <ele>51</ele>
        <time>2011-12-04T11:17:53.8Z</time>
      </trkpt>
      <trkpt lat="47.32189" lon="-1.68419">
        <ele>50</ele>
        <time>2011-12-04T11:17:54Z</time>
      </trkpt>
      <trkpt lat="47.32192" lon="-1.68419">
        <ele>49</ele>
        <time>2011-12-04T11:17:55Z</time>
      </trkpt>
      <trkpt lat="47.32205" lon="-1.68414">
        <ele>48</ele>
        <time>2011-12-04T11:18:00.1Z</time>
      </trkpt>
      <trkpt lat="47.32208" lon="-1.68415">
        <ele>47</ele>
        <time>2011-12-04T11:18:01.5Z</time>
      </trkpt>
      <trkpt lat="47.3221" lon="-1.68416">
        <ele>46</ele>
        <time>2011-12-04T11:18:02Z</time>
      </trkpt>
      <trkpt lat="47.32212" lon="-1.68419">
        <ele>45</ele>
        <time>2011-12-04T11:18:03Z</time>
      </trkpt>
      <trkpt lat="47.32215" lon="-1.68426">
        <ele>45</ele>
        <time>2011-12-04T11:18:08.3Z</time>
      </trkpt>
      <trkpt lat="47.32222" lon="-1.68443">
        <ele>44</ele>
        <time>2011-12-04T11:18:09.3Z</time>
      </trkpt>
      <trkpt lat="47.32224" lon="-1.68447">
        <ele>43</ele>
        <time>2011-12-04T11:18:10.5Z</time>
      </trkpt>
      <trkpt lat="47.32234" lon="-1.68467">
        <ele>42</ele>
        <time>2011-12-04T11:18:15.1Z</time>
      </trkpt>
      <trkpt lat="47.32235" lon="-1.68471">
        <ele>41</ele>
        <time>2011-12-04T11:18:16Z</time>
      </trkpt>
      <trkpt lat="47.32239" lon="-1.68479">
        <ele>40</ele>
        <time>2011-12-04T11:18:21.4Z</time>
      </trkpt>
      <trkpt lat="47.32246" lon="-1.68492">
        <ele>40</ele>
        <time>2011-12-04T11:18:22Z</time>
      </trkpt>
      <trkpt lat="47.32248" lon="-1.68494">
        <ele>40</ele>
        <time>2011-12-04T11:18:23.6Z</time>
      </trkpt>
      <trkpt lat="47.32251" lon="-1.68498">
        <ele>40</ele>
        <time>2011-12-04T11:18:24.6Z</time>
      </trkpt>
      <trkpt lat="47.32256" lon="-1.68507">
        <ele>40</ele>
        <time>2011-12-04T11:18:29.1Z</time>
      </trkpt>
      <trkpt lat="47.32259" lon="-1.68534">
        <ele>40</ele>
        <time>2011-12-04T11:18:30.1Z</time>
      </trkpt>
      <trkpt lat="47.32261" lon="-1.6854">
        <ele>40</ele>
        <time>2011-12-04T11:18:31Z</time>
      </trkpt>
      <trkpt lat="47.32265" lon="-1.68552">
        <ele>39</ele>
        <time>2011-12-04T11:18:35.7Z</time>
      </trkpt>
      <trkpt lat="47.32265" lon="-1.68573">
        <ele>38</ele>
        <time>2011-12-04T11:18:36Z</time>
      </trkpt>
      <trkpt lat="47.32265" lon="-1.68582">
        <ele>37</ele>
        <time>2011-12-04T11:18:37.2Z</time>
      </trkpt>
      <trkpt lat="47.32266" lon="-1.68588">
        <ele>36</ele>
        <time>2011-12-04T11:18:38Z</time>
      </trkpt>
      <trkpt lat="47.3227" lon="-1.686">
        <ele>35</ele>
        <time>2011-12-04T11:18:42.6Z</time>
      </trkpt>
      <trkpt lat="47.32275" lon="-1.68616">
        <ele>34</ele>
        <time>2011-12-04T11:18:43Z</time>
      </trkpt>
      <trkpt lat="47.32277" lon="-1.68621">
        <ele>33</ele>
        <time>2011-12-04T11:18:44Z</time>
      </trkpt>
      <trkpt lat="47.3228" lon="-1.68626">
        <ele>31</ele>
        <time>2011-12-04T11:18:45Z</time>
      </trkpt>
      <trkpt lat="47.32286" lon="-1.68635">
        <ele>30</ele>
        <time>2011-12-04T11:18:49.5Z</time>
      </trkpt>
      <trkpt lat="47.32297" lon="-1.68651">
        <ele>29</ele>
        <time>2011-12-04T11:18:50Z</time>
      </trkpt>
      <trkpt lat="47.32299" lon="-1.68657">
        <ele>28</ele>
        <time>2011-12-04T11:18:51.2Z</time>
      </trkpt>
      <trkpt lat="47.32305" lon="-1.68667">
        <ele>27</ele>
        <time>2011-12-04T11:18:56.2Z</time>
      </trkpt>
      <trkpt lat="47.32316" lon="-1.68689">
        <ele>27</ele>
        <time>2011-12-04T11:18:57Z</time>
      </trkpt>
      <trkpt lat="47.3232" lon="-1.68694">
        <ele>27</ele>
        <time>2011-12-04T11:18:58.4Z</time>
      </trkpt>
      <trkpt lat="47.32324" lon="-1.68698">
        <ele>27</ele>
        <time>2011-12-04T11:18:59.2Z</time>
      </trkpt>
      <trkpt lat="47.32332" lon="-1.68705">
        <ele>27</ele>
        <time>2011-12-04T11:19:03.7Z</time>
      </trkpt>
      <trkpt lat="47.32346" lon="-1.68716">
        <ele>27</ele>
        <time>2011-12-04T11:19:04Z</time>
      </trkpt>
      <trkpt lat="47.3235" lon="-1.6872">
        <ele>27</ele>
        <time>2011-12-04T11:19:05Z</time>
      </trkpt>
      <trkpt lat="47.32358" lon="-1.68725">
        <ele>27</ele>
        <time>2011-12-04T11:19:10.1Z</time>
      </trkpt>
      <trkpt lat="47.32372" lon="-1.68736">
        <ele>27</ele>
        <time>2011-12-04T11:19:11Z</time>
      </trkpt>
      <trkpt lat="47.32375" lon="-1.68738">
        <ele>27</ele>
        <time>2011-12-04T11:19:12Z</time>
      </trkpt>
      <trkpt lat="47.32383" lon="-1.6874">
        <ele>27</ele>
        <time>2011-12-04T11:19:17.8Z</time>
      </trkpt>
      <trkpt lat="47.324" lon="-1.6874">
        <ele>27</ele>
        <time>2011-12-04T11:19:18.5Z</time>
      </trkpt>
      <trkpt lat="47.32403" lon="-1.68739">
        <ele>27</ele>
        <time>2011-12-04T11:19:19Z</time>
      </trkpt>
      <trkpt lat="47.32407" lon="-1.68739">
        <ele>27</ele>
        <time>2011-12-04T11:19:20.6Z</time>
      </trkpt>
      <trkpt lat="47.32412" lon="-1.68739">
        <ele>26</ele>
        <time>2011-12-04T11:19:25.7Z</time>
      </trkpt>
      <trkpt lat="47.32421" lon="-1.68741">
        <ele>25</ele>
        <time>2011-12-04T11:19:26Z</time>
      </trkpt>
      <trkpt lat="47.32424" lon="-1.68741">
        <ele>25</ele>
        <time>2011-12-04T11:19:27Z</time>
      </trkpt>
      <trkpt lat="47.32428" lon="-1.68743">
        <ele>25</ele>
        <time>2011-12-04T11:19:32.8Z</time>
      </trkpt>
      <trkpt lat="47.32441" lon="-1.68746">
        <ele>25</ele>
        <time>2011-12-04T11:19:33.5Z</time>
      </trkpt>
      <trkpt lat="47.32445" lon="-1.68747">
        <ele>25</ele>
        <time>2011-12-04T11:19:34Z</time>
      </trkpt>
      <trkpt lat="47.32455" lon="-1.68748">
        <ele>25</ele>
        <time>2011-12-04T11:19:39.1Z</time>
      </trkpt>
      <trkpt lat="47.32473" lon="-1.68754">
        <ele>25</ele>
        <time>2011-12-04T11:19:40.1Z</time>
      </trkpt>
      <trkpt lat="47.32477" lon="-1.68756">
        <ele>25</ele>
        <time>2011-12-04T11:19:41.5Z</time>
      </trkpt>
      <trkpt lat="47.32482" lon="-1.68759">
        <ele>25</ele>
        <time>2011-12-04T11:19:42.2Z</time>
      </trkpt>
      <trkpt lat="47.32492" lon="-1.68763">
        <ele>25</ele>
        <time>2011-12-04T11:19:46.8Z</time>
      </trkpt>
      <trkpt lat="47.32507" lon="-1.6877">
        <ele>25</ele>
        <time>2011-12-04T11:19:47Z</time>
      </trkpt>
      <trkpt lat="47.32512" lon="-1.68772">
        <ele>25</ele>
        <time>2011-12-04T11:19:48Z</time>
      </trkpt>
      <trkpt lat="47.32521" lon="-1.68775">
        <ele>25</ele>
        <time>2011-12-04T11:19:53.2Z</time>
      </trkpt>
      <trkpt lat="47.32535" lon="-1.6878">
        <ele>25</ele>
        <time>2011-12-04T11:19:54Z</time>
      </trkpt>
      <trkpt lat="47.32539" lon="-1.68782">
        <ele>25</ele>
        <time>2011-12-04T11:19:55Z</time>
      </trkpt>
      <trkpt lat="47.32548" lon="-1.68788">
        <ele>25</ele>
        <time>2011-12-04T11:19:59.6Z</time>
      </trkpt>
      <trkpt lat="47.32561" lon="-1.68797">
        <ele>25</ele>
        <time>2011-12-04T11:20:00Z</time>
      </trkpt>
      <trkpt lat="47.32565" lon="-1.68801">
        <ele>25</ele>
        <time>2011-12-04T11:20:01Z</time>
      </trkpt>
      <trkpt lat="47.32578" lon="-1.68823">
        <ele>26</ele>
        <time>2011-12-04T11:20:06.1Z</time>
      </trkpt>
      <trkpt lat="47.32579" lon="-1.6883">
        <ele>27</ele>
        <time>2011-12-04T11:20:07.4Z</time>
      </trkpt>
      <trkpt lat="47.32581" lon="-1.68835">
        <ele>28</ele>
        <time>2011-12-04T11:20:08.4Z</time>
      </trkpt>
      <trkpt lat="47.32585" lon="-1.68846">
        <ele>29</ele>
        <time>2011-12-04T11:20:13.1Z</time>
      </trkpt>
      <trkpt lat="47.32591" lon="-1.68867">
        <ele>30</ele>
        <time>2011-12-04T11:20:14Z</time>
      </trkpt>
      <trkpt lat="47.32592" lon="-1.68873">
        <ele>31</ele>
        <time>2011-12-04T11:20:15Z</time>
      </trkpt>
      <trkpt lat="47.32595" lon="-1.68883">
        <ele>32</ele>
        <time>2011-12-04T11:20:19.7Z</time>
      </trkpt>
      <trkpt lat="47.32598" lon="-1.68888">
        <ele>33</ele>
        <time>2011-12-04T11:20:20Z</time>
      </trkpt>
      <trkpt lat="47.326" lon="-1.68889">
        <ele>33</ele>
        <time>2011-12-04T11:20:21Z</time>
      </trkpt>
      <trkpt lat="47.32602" lon="-1.68889">
        <ele>33</ele>
        <time>2011-12-04T11:20:22.2Z</time>
      </trkpt>
      <trkpt lat="47.32603" lon="-1.68887">
        <ele>33</ele>
        <time>2011-12-04T11:20:23Z</time>
      </trkpt>
      <trkpt lat="47.32608" lon="-1.68884">
        <ele>33</ele>
        <time>2011-12-04T11:20:28.2Z</time>
      </trkpt>
      <trkpt lat="47.32619" lon="-1.68877">
        <ele>33</ele>
        <time>2011-12-04T11:20:29Z</time>
      </trkpt>
      <trkpt lat="47.32622" lon="-1.68876">
        <ele>33</ele>
        <time>2011-12-04T11:20:30Z</time>
      </trkpt>
      <trkpt lat="47.32639" lon="-1.68872">
        <ele>33</ele>
        <time>2011-12-04T11:20:36.1Z</time>
      </trkpt>
      <trkpt lat="47.32641" lon="-1.68872">
        <ele>33</ele>
        <time>2011-12-04T11:20:37Z</time>
      </trkpt>
      <trkpt lat="47.32641" lon="-1.68876">
        <ele>33</ele>
        <time>2011-12-04T11:20:43.8Z</time>
      </trkpt>
      <trkpt lat="47.32644" lon="-1.68893">
        <ele>33</ele>
        <time>2011-12-04T11:20:44.6Z</time>
      </trkpt>
      <trkpt lat="47.32647" lon="-1.68898">
        <ele>32</ele>
        <time>2011-12-04T11:20:45.4Z</time>
      </trkpt>
      <trkpt lat="47.32649" lon="-1.68903">
        <ele>32</ele>
        <time>2011-12-04T11:20:46.5Z</time>
      </trkpt>
      <trkpt lat="47.32651" lon="-1.68914">
        <ele>32</ele>
        <time>2011-12-04T11:20:51.2Z</time>
      </trkpt>
      <trkpt lat="47.32654" lon="-1.68931">
        <ele>32</ele>
        <time>2011-12-04T11:20:52.1Z</time>
      </trkpt>
      <trkpt lat="47.32655" lon="-1.68934">
        <ele>32</ele>
        <time>2011-12-04T11:20:53.1Z</time>
      </trkpt>
      <trkpt lat="47.32656" lon="-1.6894">
        <ele>32</ele>
        <time>2011-12-04T11:20:57.8Z</time>
      </trkpt>
      <trkpt lat="47.32655" lon="-1.68951">
        <ele>32</ele>
        <time>2011-12-04T11:20:58Z</time>
      </trkpt>
      <trkpt lat="47.32655" lon="-1.68956">
        <ele>32</ele>
        <time>2011-12-04T11:20:59.4Z</time>
      </trkpt>
      <trkpt lat="47.32655" lon="-1.6896">
        <ele>32</ele>
        <time>2011-12-04T11:21:00.3Z</time>
      </trkpt>
      <trkpt lat="47.32653" lon="-1.68979">
        <ele>33</ele>
        <time>2011-12-04T11:21:05.1Z</time>
      </trkpt>
      <trkpt lat="47.32652" lon="-1.68983">
        <ele>34</ele>
        <time>2011-12-04T11:21:06Z</time>
      </trkpt>
      <trkpt lat="47.32651" lon="-1.68987">
        <ele>35</ele>
        <time>2011-12-04T11:21:07Z</time>
      </trkpt>
      <trkpt lat="47.3265" lon="-1.68991">
        <ele>36</ele>
        <time>2011-12-04T11:21:08Z</time>
      </trkpt>
      <trkpt lat="47.3265" lon="-1.68995">
        <ele>37</ele>
        <time>2011-12-04T11:21:09Z</time>
      </trkpt>
      <trkpt lat="47.32649" lon="-1.68998">
        <ele>38</ele>
        <time>2011-12-04T11:21:10Z</time>
      </trkpt>
      <trkpt lat="47.32648" lon="-1.69001">
        <ele>39</ele>
        <time>2011-12-04T11:21:11Z</time>
      </trkpt>
      <trkpt lat="47.32648" lon="-1.69004">
        <ele>40</ele>
        <time>2011-12-04T11:21:12Z</time>
      </trkpt>
      <trkpt lat="47.32648" lon="-1.69007">
        <ele>40</ele>
        <time>2011-12-04T11:21:13Z</time>
      </trkpt>
      <trkpt lat="47.32647" lon="-1.6901">
        <ele>41</ele>
        <time>2011-12-04T11:21:14Z</time>
      </trkpt>
      <trkpt lat="47.32648" lon="-1.69013">
        <ele>41</ele>
        <time>2011-12-04T11:21:15Z</time>
      </trkpt>
      <trkpt lat="47.32648" lon="-1.69016">
        <ele>42</ele>
        <time>2011-12-04T11:21:16Z</time>
      </trkpt>
      <trkpt lat="47.32647" lon="-1.6902">
        <ele>42</ele>
        <time>2011-12-04T11:21:17Z</time>
      </trkpt>
      <trkpt lat="47.32647" lon="-1.69023">
        <ele>43</ele>
        <time>2011-12-04T11:21:18Z</time>
      </trkpt>
      <trkpt lat="47.32647" lon="-1.69027">
        <ele>43</ele>
        <time>2011-12-04T11:21:19Z</time>
      </trkpt>
      <trkpt lat="47.32648" lon="-1.6903">
        <ele>44</ele>
        <time>2011-12-04T11:21:20Z</time>
      </trkpt>
      <trkpt lat="47.32648" lon="-1.69033">
        <ele>44</ele>
        <time>2011-12-04T11:21:21Z</time>
      </trkpt>
      <trkpt lat="47.32648" lon="-1.69036">
        <ele>45</ele>
        <time>2011-12-04T11:21:22Z</time>
      </trkpt>
      <trkpt lat="47.32649" lon="-1.69038">
        <ele>45</ele>
        <time>2011-12-04T11:21:23Z</time>
      </trkpt>
      <trkpt lat="47.32655" lon="-1.69051">
        <ele>45</ele>
        <time>2011-12-04T11:21:28.6Z</time>
      </trkpt>
      <trkpt lat="47.32656" lon="-1.69053">
        <ele>46</ele>
        <time>2011-12-04T11:21:29.3Z</time>
      </trkpt>
      <trkpt lat="47.32656" lon="-1.69057">
        <ele>46</ele>
        <time>2011-12-04T11:21:30.1Z</time>
      </trkpt>
      <trkpt lat="47.32658" lon="-1.69061">
        <ele>46</ele>
        <time>2011-12-04T11:21:31Z</time>
      </trkpt>
      <trkpt lat="47.32659" lon="-1.69063">
        <ele>46</ele>
        <time>2011-12-04T11:21:32Z</time>
      </trkpt>
      <trkpt lat="47.3266" lon="-1.69066">
        <ele>46</ele>
        <time>2011-12-04T11:21:33Z</time>
      </trkpt>
      <trkpt lat="47.3266" lon="-1.6907">
        <ele>46</ele>
        <time>2011-12-04T11:21:34Z</time>
      </trkpt>
      <trkpt lat="47.32661" lon="-1.69073">
        <ele>46</ele>
        <time>2011-12-04T11:21:35Z</time>
      </trkpt>
      <trkpt lat="47.32662" lon="-1.69076">
        <ele>46</ele>
        <time>2011-12-04T11:21:36Z</time>
      </trkpt>
      <trkpt lat="47.32662" lon="-1.69079">
        <ele>46</ele>
        <time>2011-12-04T11:21:37Z</time>
      </trkpt>
      <trkpt lat="47.32664" lon="-1.69081">
        <ele>46</ele>
        <time>2011-12-04T11:21:38Z</time>
      </trkpt>
      <trkpt lat="47.32665" lon="-1.69084">
        <ele>46</ele>
        <time>2011-12-04T11:21:39Z</time>
      </trkpt>
      <trkpt lat="47.32665" lon="-1.69088">
        <ele>46</ele>
        <time>2011-12-04T11:21:40Z</time>
      </trkpt>
      <trkpt lat="47.32666" lon="-1.69091">
        <ele>46</ele>
        <time>2011-12-04T11:21:41Z</time>
      </trkpt>
      <trkpt lat="47.32666" lon="-1.69093">
        <ele>45</ele>
        <time>2011-12-04T11:21:42Z</time>
      </trkpt>
      <trkpt lat="47.32667" lon="-1.69097">
        <ele>45</ele>
        <time>2011-12-04T11:21:43Z</time>
      </trkpt>
      <trkpt lat="47.32668" lon="-1.691">
        <ele>44</ele>
        <time>2011-12-04T11:21:44Z</time>
      </trkpt>
      <trkpt lat="47.32669" lon="-1.69103">
        <ele>44</ele>
        <time>2011-12-04T11:21:45Z</time>
      </trkpt>
      <trkpt lat="47.3267" lon="-1.69104">
        <ele>44</ele>
        <time>2011-12-04T11:21:46Z</time>
      </trkpt>
      <trkpt lat="47.32671" lon="-1.69107">
        <ele>44</ele>
        <time>2011-12-04T11:21:47Z</time>
      </trkpt>
      <trkpt lat="47.32671" lon="-1.69109">
        <ele>44</ele>
        <time>2011-12-04T11:21:48Z</time>
      </trkpt>
      <trkpt lat="47.32671" lon="-1.69111">
        <ele>44</ele>
        <time>2011-12-04T11:21:49Z</time>
      </trkpt>
      <trkpt lat="47.32672" lon="-1.69113">
        <ele>44</ele>
        <time>2011-12-04T11:21:50Z</time>
      </trkpt>
      <trkpt lat="47.32673" lon="-1.69115">
        <ele>44</ele>
        <time>2011-12-04T11:21:51Z</time>
      </trkpt>
      <trkpt lat="47.32673" lon="-1.6912">
        <ele>44</ele>
        <time>2011-12-04T11:21:52Z</time>
      </trkpt>
      <trkpt lat="47.32673" lon="-1.69123">
        <ele>44</ele>
        <time>2011-12-04T11:21:53Z</time>
      </trkpt>
      <trkpt lat="47.32673" lon="-1.69125">
        <ele>44</ele>
        <time>2011-12-04T11:21:54Z</time>
      </trkpt>
      <trkpt lat="47.32675" lon="-1.69127">
        <ele>44</ele>
        <time>2011-12-04T11:21:56.7Z</time>
      </trkpt>
      <trkpt lat="47.32676" lon="-1.69129">
        <ele>44</ele>
        <time>2011-12-04T11:22:02.2Z</time>
      </trkpt>
      <trkpt lat="47.32678" lon="-1.69128">
        <ele>44</ele>
        <time>2011-12-04T11:22:03.1Z</time>
      </trkpt>
      <trkpt lat="47.32679" lon="-1.69127">
        <ele>43</ele>
        <time>2011-12-04T11:22:04.1Z</time>
      </trkpt>
      <trkpt lat="47.3268" lon="-1.69126">
        <ele>42</ele>
        <time>2011-12-04T11:22:05Z</time>
      </trkpt>
      <trkpt lat="47.32683" lon="-1.69125">
        <ele>41</ele>
        <time>2011-12-04T11:22:10.7Z</time>
      </trkpt>
      <trkpt lat="47.32686" lon="-1.69124">
        <ele>40</ele>
        <time>2011-12-04T11:22:15.7Z</time>
      </trkpt>
      <trkpt lat="47.32684" lon="-1.69131">
        <ele>37</ele>
        <time>2011-12-04T11:22:22.9Z</time>
      </trkpt>
      <trkpt lat="47.32685" lon="-1.69146">
        <ele>36</ele>
        <time>2011-12-04T11:22:23.4Z</time>
      </trkpt>
      <trkpt lat="47.32685" lon="-1.6915">
        <ele>36</ele>
        <time>2011-12-04T11:22:24Z</time>
      </trkpt>
      <trkpt lat="47.32687" lon="-1.69171">
        <ele>36</ele>
        <time>2011-12-04T11:22:29.1Z</time>
      </trkpt>
      <trkpt lat="47.32687" lon="-1.69175">
        <ele>36</ele>
        <time>2011-12-04T11:22:30Z</time>
      </trkpt>
      <trkpt lat="47.32688" lon="-1.69179">
        <ele>36</ele>
        <time>2011-12-04T11:22:31Z</time>
      </trkpt>
      <trkpt lat="47.3269" lon="-1.69188">
        <ele>36</ele>
        <time>2011-12-04T11:22:35.7Z</time>
      </trkpt>
      <trkpt lat="47.32695" lon="-1.692">
        <ele>36</ele>
        <time>2011-12-04T11:22:36Z</time>
      </trkpt>
      <trkpt lat="47.32696" lon="-1.69204">
        <ele>36</ele>
        <time>2011-12-04T11:22:37Z</time>
      </trkpt>
      <trkpt lat="47.32698" lon="-1.69232">
        <ele>36</ele>
        <time>2011-12-04T11:22:42.1Z</time>
      </trkpt>
      <trkpt lat="47.32699" lon="-1.69237">
        <ele>36</ele>
        <time>2011-12-04T11:22:43Z</time>
      </trkpt>
      <trkpt lat="47.327" lon="-1.69242">
        <ele>36</ele>
        <time>2011-12-04T11:22:44Z</time>
      </trkpt>
      <trkpt lat="47.32702" lon="-1.69252">
        <ele>36</ele>
        <time>2011-12-04T11:22:48.6Z</time>
      </trkpt>
      <trkpt lat="47.32705" lon="-1.69266">
        <ele>37</ele>
        <time>2011-12-04T11:22:49Z</time>
      </trkpt>
      <trkpt lat="47.32706" lon="-1.69269">
        <ele>38</ele>
        <time>2011-12-04T11:22:50Z</time>
      </trkpt>
      <trkpt lat="47.3271" lon="-1.69293">
        <ele>39</ele>
        <time>2011-12-04T11:22:55.1Z</time>
      </trkpt>
      <trkpt lat="47.3271" lon="-1.69299">
        <ele>40</ele>
        <time>2011-12-04T11:22:56.1Z</time>
      </trkpt>
      <trkpt lat="47.3271" lon="-1.69305">
        <ele>41</ele>
        <time>2011-12-04T11:22:57.2Z</time>
      </trkpt>
      <trkpt lat="47.32709" lon="-1.69334">
        <ele>42</ele>
        <time>2011-12-04T11:23:02Z</time>
      </trkpt>
      <trkpt lat="47.32709" lon="-1.69341">
        <ele>43</ele>
        <time>2011-12-04T11:23:03Z</time>
      </trkpt>
      <trkpt lat="47.32711" lon="-1.69353">
        <ele>43</ele>
        <time>2011-12-04T11:23:08.3Z</time>
      </trkpt>
      <trkpt lat="47.32711" lon="-1.69377">
        <ele>43</ele>
        <time>2011-12-04T11:23:09Z</time>
      </trkpt>
      <trkpt lat="47.32711" lon="-1.69383">
        <ele>43</ele>
        <time>2011-12-04T11:23:10Z</time>
      </trkpt>
      <trkpt lat="47.32711" lon="-1.69395">
        <ele>42</ele>
        <time>2011-12-04T11:23:14.7Z</time>
      </trkpt>
      <trkpt lat="47.32711" lon="-1.69418">
        <ele>41</ele>
        <time>2011-12-04T11:23:15Z</time>
      </trkpt>
      <trkpt lat="47.32711" lon="-1.69423">
        <ele>41</ele>
        <time>2011-12-04T11:23:16Z</time>
      </trkpt>
      <trkpt lat="47.32711" lon="-1.69435">
        <ele>41</ele>
        <time>2011-12-04T11:23:21.2Z</time>
      </trkpt>
      <trkpt lat="47.32711" lon="-1.69462">
        <ele>41</ele>
        <time>2011-12-04T11:23:22Z</time>
      </trkpt>
      <trkpt lat="47.32711" lon="-1.69467">
        <ele>41</ele>
        <time>2011-12-04T11:23:23Z</time>
      </trkpt>
      <trkpt lat="47.32711" lon="-1.69477">
        <ele>41</ele>
        <time>2011-12-04T11:23:27.6Z</time>
      </trkpt>
      <trkpt lat="47.32709" lon="-1.69494">
        <ele>41</ele>
        <time>2011-12-04T11:23:28Z</time>
      </trkpt>
      <trkpt lat="47.32709" lon="-1.69498">
        <ele>41</ele>
        <time>2011-12-04T11:23:29Z</time>
      </trkpt>
      <trkpt lat="47.32709" lon="-1.69502">
        <ele>41</ele>
        <time>2011-12-04T11:23:34.1Z</time>
      </trkpt>
      <trkpt lat="47.32708" lon="-1.69514">
        <ele>41</ele>
        <time>2011-12-04T11:23:35Z</time>
      </trkpt>
      <trkpt lat="47.32709" lon="-1.69519">
        <ele>41</ele>
        <time>2011-12-04T11:23:36Z</time>
      </trkpt>
      <trkpt lat="47.3271" lon="-1.69528">
        <ele>41</ele>
        <time>2011-12-04T11:23:40.7Z</time>
      </trkpt>
      <trkpt lat="47.32713" lon="-1.69545">
        <ele>41</ele>
        <time>2011-12-04T11:23:41Z</time>
      </trkpt>
      <trkpt lat="47.32714" lon="-1.69551">
        <ele>41</ele>
        <time>2011-12-04T11:23:42Z</time>
      </trkpt>
      <trkpt lat="47.32717" lon="-1.69562">
        <ele>41</ele>
        <time>2011-12-04T11:23:47.1Z</time>
      </trkpt>
      <trkpt lat="47.32717" lon="-1.6959">
        <ele>41</ele>
        <time>2011-12-04T11:23:48Z</time>
      </trkpt>
      <trkpt lat="47.32718" lon="-1.69596">
        <ele>40</ele>
        <time>2011-12-04T11:23:49Z</time>
      </trkpt>
      <trkpt lat="47.32718" lon="-1.69609">
        <ele>39</ele>
        <time>2011-12-04T11:23:53.7Z</time>
      </trkpt>
      <trkpt lat="47.32719" lon="-1.69629">
        <ele>38</ele>
        <time>2011-12-04T11:23:54Z</time>
      </trkpt>
      <trkpt lat="47.32719" lon="-1.69636">
        <ele>38</ele>
        <time>2011-12-04T11:23:55Z</time>
      </trkpt>
      <trkpt lat="47.3272" lon="-1.69648">
        <ele>38</ele>
        <time>2011-12-04T11:24:00.1Z</time>
      </trkpt>
      <trkpt lat="47.32722" lon="-1.69675">
        <ele>39</ele>
        <time>2011-12-04T11:24:01Z</time>
      </trkpt>
      <trkpt lat="47.32723" lon="-1.69682">
        <ele>40</ele>
        <time>2011-12-04T11:24:02Z</time>
      </trkpt>
      <trkpt lat="47.32722" lon="-1.69697">
        <ele>41</ele>
        <time>2011-12-04T11:24:06.7Z</time>
      </trkpt>
      <trkpt lat="47.32722" lon="-1.69719">
        <ele>42</ele>
        <time>2011-12-04T11:24:07Z</time>
      </trkpt>
      <trkpt lat="47.32723" lon="-1.69725">
        <ele>42</ele>
        <time>2011-12-04T11:24:08Z</time>
      </trkpt>
      <trkpt lat="47.32724" lon="-1.69738">
        <ele>42</ele>
        <time>2011-12-04T11:24:13.1Z</time>
      </trkpt>
      <trkpt lat="47.32725" lon="-1.69761">
        <ele>42</ele>
        <time>2011-12-04T11:24:14Z</time>
      </trkpt>
      <trkpt lat="47.32725" lon="-1.69766">
        <ele>41</ele>
        <time>2011-12-04T11:24:15Z</time>
      </trkpt>
      <trkpt lat="47.32725" lon="-1.69771">
        <ele>40</ele>
        <time>2011-12-04T11:24:16Z</time>
      </trkpt>
      <trkpt lat="47.32725" lon="-1.69777">
        <ele>39</ele>
        <time>2011-12-04T11:24:21.3Z</time>
      </trkpt>
      <trkpt lat="47.32713" lon="-1.69786">
        <ele>39</ele>
        <time>2011-12-04T11:24:22Z</time>
      </trkpt>
      <trkpt lat="47.32709" lon="-1.6979">
        <ele>39</ele>
        <time>2011-12-04T11:24:23.3Z</time>
      </trkpt>
      <trkpt lat="47.32704" lon="-1.69797">
        <ele>39</ele>
        <time>2011-12-04T11:24:28.4Z</time>
      </trkpt>
      <trkpt lat="47.32691" lon="-1.6981">
        <ele>39</ele>
        <time>2011-12-04T11:24:29.2Z</time>
      </trkpt>
      <trkpt lat="47.32688" lon="-1.69812">
        <ele>39</ele>
        <time>2011-12-04T11:24:30.4Z</time>
      </trkpt>
      <trkpt lat="47.32682" lon="-1.69817">
        <ele>39</ele>
        <time>2011-12-04T11:24:35.1Z</time>
      </trkpt>
      <trkpt lat="47.32673" lon="-1.69824">
        <ele>39</ele>
        <time>2011-12-04T11:24:36Z</time>
      </trkpt>
      <trkpt lat="47.32669" lon="-1.69825">
        <ele>39</ele>
        <time>2011-12-04T11:24:37Z</time>
      </trkpt>
      <trkpt lat="47.32664" lon="-1.69827">
        <ele>40</ele>
        <time>2011-12-04T11:24:41.7Z</time>
      </trkpt>
      <trkpt lat="47.32652" lon="-1.69831">
        <ele>41</ele>
        <time>2011-12-04T11:24:42Z</time>
      </trkpt>
      <trkpt lat="47.32649" lon="-1.69833">
        <ele>42</ele>
        <time>2011-12-04T11:24:43Z</time>
      </trkpt>
      <trkpt lat="47.32642" lon="-1.69833">
        <ele>43</ele>
        <time>2011-12-04T11:24:48.2Z</time>
      </trkpt>
      <trkpt lat="47.3263" lon="-1.6983">
        <ele>43</ele>
        <time>2011-12-04T11:24:49Z</time>
      </trkpt>
      <trkpt lat="47.32627" lon="-1.69828">
        <ele>43</ele>
        <time>2011-12-04T11:24:50.1Z</time>
      </trkpt>
      <trkpt lat="47.3261" lon="-1.69818">
        <ele>43</ele>
        <time>2011-12-04T11:24:56Z</time>
      </trkpt>
      <trkpt lat="47.32607" lon="-1.69817">
        <ele>43</ele>
        <time>2011-12-04T11:24:57Z</time>
      </trkpt>
      <trkpt lat="47.326" lon="-1.69815">
        <ele>43</ele>
        <time>2011-12-04T11:25:01.8Z</time>
      </trkpt>
      <trkpt lat="47.3259" lon="-1.69814">
        <ele>43</ele>
        <time>2011-12-04T11:25:02Z</time>
      </trkpt>
      <trkpt lat="47.32587" lon="-1.69813">
        <ele>43</ele>
        <time>2011-12-04T11:25:03Z</time>
      </trkpt>
      <trkpt lat="47.3258" lon="-1.69812">
        <ele>43</ele>
        <time>2011-12-04T11:25:08.3Z</time>
      </trkpt>
      <trkpt lat="47.32569" lon="-1.69809">
        <ele>43</ele>
        <time>2011-12-04T11:25:09Z</time>
      </trkpt>
      <trkpt lat="47.32567" lon="-1.69809">
        <ele>43</ele>
        <time>2011-12-04T11:25:10Z</time>
      </trkpt>
      <trkpt lat="47.32561" lon="-1.69807">
        <ele>43</ele>
        <time>2011-12-04T11:25:14.8Z</time>
      </trkpt>
      <trkpt lat="47.32551" lon="-1.69805">
        <ele>43</ele>
        <time>2011-12-04T11:25:15Z</time>
      </trkpt>
      <trkpt lat="47.32548" lon="-1.69804">
        <ele>43</ele>
        <time>2011-12-04T11:25:16Z</time>
      </trkpt>
      <trkpt lat="47.32542" lon="-1.69802">
        <ele>43</ele>
        <time>2011-12-04T11:25:21.3Z</time>
      </trkpt>
      <trkpt lat="47.32533" lon="-1.69805">
        <ele>43</ele>
        <time>2011-12-04T11:25:22Z</time>
      </trkpt>
      <trkpt lat="47.32531" lon="-1.69808">
        <ele>43</ele>
        <time>2011-12-04T11:25:23.4Z</time>
      </trkpt>
      <trkpt lat="47.32529" lon="-1.69811">
        <ele>43</ele>
        <time>2011-12-04T11:25:24.1Z</time>
      </trkpt>
      <trkpt lat="47.32528" lon="-1.69815">
        <ele>43</ele>
        <time>2011-12-04T11:25:25.1Z</time>
      </trkpt>
      <trkpt lat="47.32525" lon="-1.69823">
        <ele>43</ele>
        <time>2011-12-04T11:25:30.2Z</time>
      </trkpt>
      <trkpt lat="47.32521" lon="-1.69838">
        <ele>43</ele>
        <time>2011-12-04T11:25:31Z</time>
      </trkpt>
      <trkpt lat="47.3252" lon="-1.69842">
        <ele>44</ele>
        <time>2011-12-04T11:25:36.3Z</time>
      </trkpt>
      <trkpt lat="47.3252" lon="-1.69858">
        <ele>44</ele>
        <time>2011-12-04T11:25:37Z</time>
      </trkpt>
      <trkpt lat="47.32519" lon="-1.69861">
        <ele>44</ele>
        <time>2011-12-04T11:25:38Z</time>
      </trkpt>
      <trkpt lat="47.32517" lon="-1.69869">
        <ele>44</ele>
        <time>2011-12-04T11:25:42.9Z</time>
      </trkpt>
      <trkpt lat="47.32517" lon="-1.69879">
        <ele>43</ele>
        <time>2011-12-04T11:25:43Z</time>
      </trkpt>
      <trkpt lat="47.32517" lon="-1.69883">
        <ele>42</ele>
        <time>2011-12-04T11:25:44.4Z</time>
      </trkpt>
      <trkpt lat="47.32518" lon="-1.69887">
        <ele>41</ele>
        <time>2011-12-04T11:25:45.2Z</time>
      </trkpt>
      <trkpt lat="47.32518" lon="-1.69894">
        <ele>40</ele>
        <time>2011-12-04T11:25:50.1Z</time>
      </trkpt>
      <trkpt lat="47.32518" lon="-1.69904">
        <ele>40</ele>
        <time>2011-12-04T11:25:51Z</time>
      </trkpt>
      <trkpt lat="47.32518" lon="-1.69906">
        <ele>40</ele>
        <time>2011-12-04T11:25:52Z</time>
      </trkpt>
      <trkpt lat="47.3252" lon="-1.69912">
        <ele>40</ele>
        <time>2011-12-04T11:25:56.7Z</time>
      </trkpt>
      <trkpt lat="47.32522" lon="-1.69924">
        <ele>40</ele>
        <time>2011-12-04T11:25:57Z</time>
      </trkpt>
      <trkpt lat="47.32522" lon="-1.69927">
        <ele>40</ele>
        <time>2011-12-04T11:25:58Z</time>
      </trkpt>
      <trkpt lat="47.32523" lon="-1.69931">
        <ele>40</ele>
        <time>2011-12-04T11:25:59Z</time>
      </trkpt>
      <trkpt lat="47.32523" lon="-1.69937">
        <ele>40</ele>
        <time>2011-12-04T11:26:03.8Z</time>
      </trkpt>
      <trkpt lat="47.32522" lon="-1.69939">
        <ele>40</ele>
        <time>2011-12-04T11:26:04.5Z</time>
      </trkpt>
      <trkpt lat="47.32524" lon="-1.69939">
        <ele>40</ele>
        <time>2011-12-04T11:26:12.3Z</time>
      </trkpt>
      <trkpt lat="47.32525" lon="-1.69942">
        <ele>41</ele>
        <time>2011-12-04T11:26:21.1Z</time>
      </trkpt>
      <trkpt lat="47.32526" lon="-1.69944">
        <ele>41</ele>
        <time>2011-12-04T11:26:22.1Z</time>
      </trkpt>
      <trkpt lat="47.32527" lon="-1.69947">
        <ele>41</ele>
        <time>2011-12-04T11:26:23.3Z</time>
      </trkpt>
      <trkpt lat="47.32528" lon="-1.69953">
        <ele>41</ele>
        <time>2011-12-04T11:26:28.1Z</time>
      </trkpt>
      <trkpt lat="47.3253" lon="-1.69969">
        <ele>41</ele>
        <time>2011-12-04T11:26:29Z</time>
      </trkpt>
      <trkpt lat="47.32529" lon="-1.69973">
        <ele>41</ele>
        <time>2011-12-04T11:26:30.1Z</time>
      </trkpt>
      <trkpt lat="47.32531" lon="-1.69982">
        <ele>41</ele>
        <time>2011-12-04T11:26:36.1Z</time>
      </trkpt>
      <trkpt lat="47.32531" lon="-1.70004">
        <ele>41</ele>
        <time>2011-12-04T11:26:37.3Z</time>
      </trkpt>
      <trkpt lat="47.32531" lon="-1.70013">
        <ele>41</ele>
        <time>2011-12-04T11:26:42.1Z</time>
      </trkpt>
      <trkpt lat="47.32531" lon="-1.7003">
        <ele>41</ele>
        <time>2011-12-04T11:26:43Z</time>
      </trkpt>
      <trkpt lat="47.32532" lon="-1.70032">
        <ele>41</ele>
        <time>2011-12-04T11:26:44.3Z</time>
      </trkpt>
      <trkpt lat="47.32534" lon="-1.70034">
        <ele>41</ele>
        <time>2011-12-04T11:26:45.3Z</time>
      </trkpt>
      <trkpt lat="47.32541" lon="-1.70034">
        <ele>41</ele>
        <time>2011-12-04T11:26:50.7Z</time>
      </trkpt>
      <trkpt lat="47.32558" lon="-1.70033">
        <ele>41</ele>
        <time>2011-12-04T11:26:51.4Z</time>
      </trkpt>
      <trkpt lat="47.32562" lon="-1.70032">
        <ele>41</ele>
        <time>2011-12-04T11:26:52.2Z</time>
      </trkpt>
      <trkpt lat="47.32573" lon="-1.70031">
        <ele>41</ele>
        <time>2011-12-04T11:26:57.2Z</time>
      </trkpt>
      <trkpt lat="47.32597" lon="-1.70031">
        <ele>40</ele>
        <time>2011-12-04T11:26:58Z</time>
      </trkpt>
      <trkpt lat="47.32603" lon="-1.7003">
        <ele>39</ele>
        <time>2011-12-04T11:26:59Z</time>
      </trkpt>
      <trkpt lat="47.32615" lon="-1.70029">
        <ele>38</ele>
        <time>2011-12-04T11:27:03.7Z</time>
      </trkpt>
      <trkpt lat="47.32633" lon="-1.70026">
        <ele>38</ele>
        <time>2011-12-04T11:27:03.9Z</time>
      </trkpt>
      <trkpt lat="47.32638" lon="-1.70026">
        <ele>37</ele>
        <time>2011-12-04T11:27:05Z</time>
      </trkpt>
      <trkpt lat="47.32643" lon="-1.70023">
        <ele>37</ele>
        <time>2011-12-04T11:27:10.3Z</time>
      </trkpt>
      <trkpt lat="47.32645" lon="-1.7002">
        <ele>37</ele>
        <time>2011-12-04T11:27:11.2Z</time>
      </trkpt>
      <trkpt lat="47.32643" lon="-1.70026">
        <ele>39</ele>
        <time>2011-12-04T11:27:37.3Z</time>
      </trkpt>
      <trkpt lat="47.32658" lon="-1.70024">
        <ele>39</ele>
        <time>2011-12-04T11:27:38.5Z</time>
      </trkpt>
      <trkpt lat="47.32661" lon="-1.70023">
        <ele>39</ele>
        <time>2011-12-04T11:27:39.3Z</time>
      </trkpt>
      <trkpt lat="47.32668" lon="-1.70022">
        <ele>39</ele>
        <time>2011-12-04T11:27:44.1Z</time>
      </trkpt>
      <trkpt lat="47.32678" lon="-1.70021">
        <ele>38</ele>
        <time>2011-12-04T11:27:44.3Z</time>
      </trkpt>
      <trkpt lat="47.32681" lon="-1.70021">
        <ele>38</ele>
        <time>2011-12-04T11:27:45.2Z</time>
      </trkpt>
      <trkpt lat="47.32689" lon="-1.7002">
        <ele>38</ele>
        <time>2011-12-04T11:27:50.6Z</time>
      </trkpt>
      <trkpt lat="47.32705" lon="-1.70016">
        <ele>37</ele>
        <time>2011-12-04T11:27:51.2Z</time>
      </trkpt>
      <trkpt lat="47.32709" lon="-1.70015">
        <ele>36</ele>
        <time>2011-12-04T11:27:52.2Z</time>
      </trkpt>
      <trkpt lat="47.32728" lon="-1.70004">
        <ele>36</ele>
        <time>2011-12-04T11:27:57.3Z</time>
      </trkpt>
      <trkpt lat="47.3273" lon="-1.70001">
        <ele>36</ele>
        <time>2011-12-04T11:27:58.9Z</time>
      </trkpt>
      <trkpt lat="47.32733" lon="-1.69997">
        <ele>36</ele>
        <time>2011-12-04T11:27:59.8Z</time>
      </trkpt>
      <trkpt lat="47.32738" lon="-1.69991">
        <ele>36</ele>
        <time>2011-12-04T11:28:04.7Z</time>
      </trkpt>
      <trkpt lat="47.3274" lon="-1.69994">
        <ele>36</ele>
        <time>2011-12-04T11:28:05.2Z</time>
      </trkpt>
      <trkpt lat="47.32739" lon="-1.69997">
        <ele>36</ele>
        <time>2011-12-04T11:28:06.3Z</time>
      </trkpt>
      <trkpt lat="47.32739" lon="-1.70001">
        <ele>36</ele>
        <time>2011-12-04T11:28:07.8Z</time>
      </trkpt>
      <trkpt lat="47.3274" lon="-1.70005">
        <ele>36</ele>
        <time>2011-12-04T11:28:08.8Z</time>
      </trkpt>
      <trkpt lat="47.32742" lon="-1.70014">
        <ele>36</ele>
        <time>2011-12-04T11:28:14Z</time>
      </trkpt>
      <trkpt lat="47.32748" lon="-1.70035">
        <ele>36</ele>
        <time>2011-12-04T11:28:14.7Z</time>
      </trkpt>
      <trkpt lat="47.3275" lon="-1.7004">
        <ele>36</ele>
        <time>2011-12-04T11:28:15.2Z</time>
      </trkpt>
      <trkpt lat="47.32753" lon="-1.7005">
        <ele>36</ele>
        <time>2011-12-04T11:28:20.6Z</time>
      </trkpt>
      <trkpt lat="47.32762" lon="-1.7007">
        <ele>36</ele>
        <time>2011-12-04T11:28:21.2Z</time>
      </trkpt>
      <trkpt lat="47.32764" lon="-1.70075">
        <ele>35</ele>
        <time>2011-12-04T11:28:22.2Z</time>
      </trkpt>
      <trkpt lat="47.32771" lon="-1.70098">
        <ele>34</ele>
        <time>2011-12-04T11:28:27.2Z</time>
      </trkpt>
      <trkpt lat="47.32772" lon="-1.70103">
        <ele>34</ele>
        <time>2011-12-04T11:28:28.6Z</time>
      </trkpt>
      <trkpt lat="47.32772" lon="-1.70108">
        <ele>34</ele>
        <time>2011-12-04T11:28:30Z</time>
      </trkpt>
      <trkpt lat="47.32773" lon="-1.70112">
        <ele>34</ele>
        <time>2011-12-04T11:28:30.2Z</time>
      </trkpt>
      <trkpt lat="47.32774" lon="-1.70121">
        <ele>34</ele>
        <time>2011-12-04T11:28:35Z</time>
      </trkpt>
      <trkpt lat="47.32777" lon="-1.70131">
        <ele>34</ele>
        <time>2011-12-04T11:28:35.2Z</time>
      </trkpt>
      <trkpt lat="47.32778" lon="-1.70134">
        <ele>33</ele>
        <time>2011-12-04T11:28:36.2Z</time>
      </trkpt>
      <trkpt lat="47.32781" lon="-1.70139">
        <ele>33</ele>
        <time>2011-12-04T11:28:41.6Z</time>
      </trkpt>
      <trkpt lat="47.32787" lon="-1.70145">
        <ele>33</ele>
        <time>2011-12-04T11:28:42.4Z</time>
      </trkpt>
      <trkpt lat="47.32788" lon="-1.70146">
        <ele>33</ele>
        <time>2011-12-04T11:28:43.4Z</time>
      </trkpt>
      <trkpt lat="47.3279" lon="-1.70148">
        <ele>33</ele>
        <time>2011-12-04T11:28:48.7Z</time>
      </trkpt>
      <trkpt lat="47.32794" lon="-1.70151">
        <ele>33</ele>
        <time>2011-12-04T11:28:49.4Z</time>
      </trkpt>
      <trkpt lat="47.32796" lon="-1.70153">
        <ele>34</ele>
        <time>2011-12-04T11:28:51.4Z</time>
      </trkpt>
      <trkpt lat="47.32796" lon="-1.70154">
        <ele>35</ele>
        <time>2011-12-04T11:28:52.8Z</time>
      </trkpt>
      <trkpt lat="47.32803" lon="-1.70162">
        <ele>36</ele>
        <time>2011-12-04T11:28:58.3Z</time>
      </trkpt>
      <trkpt lat="47.32804" lon="-1.70164">
        <ele>37</ele>
        <time>2011-12-04T11:28:59.2Z</time>
      </trkpt>
      <trkpt lat="47.32811" lon="-1.70171">
        <ele>38</ele>
        <time>2011-12-04T11:29:04.3Z</time>
      </trkpt>
      <trkpt lat="47.32812" lon="-1.70173">
        <ele>39</ele>
        <time>2011-12-04T11:29:05.2Z</time>
      </trkpt>
      <trkpt lat="47.32815" lon="-1.70177">
        <ele>40</ele>
        <time>2011-12-04T11:29:10.9Z</time>
      </trkpt>
      <trkpt lat="47.3282" lon="-1.70181">
        <ele>40</ele>
        <time>2011-12-04T11:29:11.6Z</time>
      </trkpt>
      <trkpt lat="47.32822" lon="-1.70181">
        <ele>40</ele>
        <time>2011-12-04T11:29:12.4Z</time>
      </trkpt>
      <trkpt lat="47.32824" lon="-1.70182">
        <ele>41</ele>
        <time>2011-12-04T11:29:13.8Z</time>
      </trkpt>
      <trkpt lat="47.32825" lon="-1.70183">
        <ele>41</ele>
        <time>2011-12-04T11:29:14.3Z</time>
      </trkpt>
      <trkpt lat="47.32826" lon="-1.70187">
        <ele>42</ele>
        <time>2011-12-04T11:29:19.7Z</time>
      </trkpt>
      <trkpt lat="47.32827" lon="-1.70197">
        <ele>43</ele>
        <time>2011-12-04T11:29:20.3Z</time>
      </trkpt>
      <trkpt lat="47.32827" lon="-1.702">
        <ele>44</ele>
        <time>2011-12-04T11:29:21.7Z</time>
      </trkpt>
      <trkpt lat="47.32828" lon="-1.70203">
        <ele>45</ele>
        <time>2011-12-04T11:29:26.5Z</time>
      </trkpt>
      <trkpt lat="47.32828" lon="-1.70214">
        <ele>46</ele>
        <time>2011-12-04T11:29:27.2Z</time>
      </trkpt>
      <trkpt lat="47.32829" lon="-1.70217">
        <ele>48</ele>
        <time>2011-12-04T11:29:28.2Z</time>
      </trkpt>
      <trkpt lat="47.32829" lon="-1.70218">
        <ele>50</ele>
        <time>2011-12-04T11:29:29.2Z</time>
      </trkpt>
      <trkpt lat="47.3283" lon="-1.70223">
        <ele>52</ele>
        <time>2011-12-04T11:29:34.1Z</time>
      </trkpt>
      <trkpt lat="47.32832" lon="-1.7023">
        <ele>54</ele>
        <time>2011-12-04T11:29:34.3Z</time>
      </trkpt>
      <trkpt lat="47.32832" lon="-1.70233">
        <ele>55</ele>
        <time>2011-12-04T11:29:35.2Z</time>
      </trkpt>
      <trkpt lat="47.32832" lon="-1.7024">
        <ele>56</ele>
        <time>2011-12-04T11:29:40.7Z</time>
      </trkpt>
      <trkpt lat="47.32832" lon="-1.70254">
        <ele>57</ele>
        <time>2011-12-04T11:29:41.5Z</time>
      </trkpt>
      <trkpt lat="47.32832" lon="-1.70257">
        <ele>59</ele>
        <time>2011-12-04T11:29:42.4Z</time>
      </trkpt>
      <trkpt lat="47.32832" lon="-1.70259">
        <ele>60</ele>
        <time>2011-12-04T11:29:43.2Z</time>
      </trkpt>
      <trkpt lat="47.32833" lon="-1.7027">
        <ele>62</ele>
        <time>2011-12-04T11:29:48.3Z</time>
      </trkpt>
      <trkpt lat="47.32833" lon="-1.70273">
        <ele>63</ele>
        <time>2011-12-04T11:29:49.2Z</time>
      </trkpt>
      <trkpt lat="47.32834" lon="-1.70276">
        <ele>64</ele>
        <time>2011-12-04T11:29:50.3Z</time>
      </trkpt>
      <trkpt lat="47.32834" lon="-1.70278">
        <ele>65</ele>
        <time>2011-12-04T11:29:51.2Z</time>
      </trkpt>
      <trkpt lat="47.32835" lon="-1.70286">
        <ele>66</ele>
        <time>2011-12-04T11:29:56.1Z</time>
      </trkpt>
      <trkpt lat="47.32836" lon="-1.70297">
        <ele>67</ele>
        <time>2011-12-04T11:29:56.2Z</time>
      </trkpt>
      <trkpt lat="47.32836" lon="-1.70301">
        <ele>68</ele>
        <time>2011-12-04T11:29:57.8Z</time>
      </trkpt>
      <trkpt lat="47.32836" lon="-1.70303">
        <ele>70</ele>
        <time>2011-12-04T11:29:58.6Z</time>
      </trkpt>
      <trkpt lat="47.32837" lon="-1.70311">
        <ele>71</ele>
        <time>2011-12-04T11:30:03.4Z</time>
      </trkpt>
      <trkpt lat="47.32836" lon="-1.70327">
        <ele>73</ele>
        <time>2011-12-04T11:30:04.2Z</time>
      </trkpt>
      <trkpt lat="47.32836" lon="-1.7033">
        <ele>74</ele>
        <time>2011-12-04T11:30:05.2Z</time>
      </trkpt>
      <trkpt lat="47.32836" lon="-1.70337">
        <ele>75</ele>
        <time>2011-12-04T11:30:10.1Z</time>
      </trkpt>
      <trkpt lat="47.32835" lon="-1.70347">
        <ele>76</ele>
        <time>2011-12-04T11:30:10.3Z</time>
      </trkpt>
      <trkpt lat="47.32836" lon="-1.7035">
        <ele>77</ele>
        <time>2011-12-04T11:30:11.2Z</time>
      </trkpt>
      <trkpt lat="47.32837" lon="-1.70356">
        <ele>78</ele>
        <time>2011-12-04T11:30:16.7Z</time>
      </trkpt>
      <trkpt lat="47.32843" lon="-1.70369">
        <ele>79</ele>
        <time>2011-12-04T11:30:17.7Z</time>
      </trkpt>
      <trkpt lat="47.32845" lon="-1.70371">
        <ele>80</ele>
        <time>2011-12-04T11:30:18.7Z</time>
      </trkpt>
      <trkpt lat="47.32847" lon="-1.70372">
        <ele>81</ele>
        <time>2011-12-04T11:30:19.3Z</time>
      </trkpt>
      <trkpt lat="47.32849" lon="-1.70375">
        <ele>82</ele>
        <time>2011-12-04T11:30:25.3Z</time>
      </trkpt>
      <trkpt lat="47.32859" lon="-1.7039">
        <ele>83</ele>
        <time>2011-12-04T11:30:26.9Z</time>
      </trkpt>
      <trkpt lat="47.3286" lon="-1.70393">
        <ele>84</ele>
        <time>2011-12-04T11:30:27.7Z</time>
      </trkpt>
      <trkpt lat="47.32863" lon="-1.70396">
        <ele>85</ele>
        <time>2011-12-04T11:30:28.2Z</time>
      </trkpt>
      <trkpt lat="47.32865" lon="-1.70404">
        <ele>86</ele>
        <time>2011-12-04T11:30:33.5Z</time>
      </trkpt>
      <trkpt lat="47.32867" lon="-1.70419">
        <ele>87</ele>
        <time>2011-12-04T11:30:34.2Z</time>
      </trkpt>
      <trkpt lat="47.32866" lon="-1.70425">
        <ele>88</ele>
        <time>2011-12-04T11:30:35.8Z</time>
      </trkpt>
      <trkpt lat="47.32868" lon="-1.70436">
        <ele>88</ele>
        <time>2011-12-04T11:30:40.8Z</time>
      </trkpt>
      <trkpt lat="47.3287" lon="-1.70459">
        <ele>88</ele>
        <time>2011-12-04T11:30:41.2Z</time>
      </trkpt>
      <trkpt lat="47.3287" lon="-1.70464">
        <ele>88</ele>
        <time>2011-12-04T11:30:42.2Z</time>
      </trkpt>
      <trkpt lat="47.3287" lon="-1.70475">
        <ele>88</ele>
        <time>2011-12-04T11:30:47.4Z</time>
      </trkpt>
      <trkpt lat="47.32873" lon="-1.70496">
        <ele>88</ele>
        <time>2011-12-04T11:30:48.2Z</time>
      </trkpt>
      <trkpt lat="47.32876" lon="-1.70502">
        <ele>88</ele>
        <time>2011-12-04T11:30:49.4Z</time>
      </trkpt>
      <trkpt lat="47.32879" lon="-1.70513">
        <ele>88</ele>
        <time>2011-12-04T11:30:55.5Z</time>
      </trkpt>
      <trkpt lat="47.32892" lon="-1.70541">
        <ele>88</ele>
        <time>2011-12-04T11:30:56.2Z</time>
      </trkpt>
      <trkpt lat="47.32893" lon="-1.70546">
        <ele>88</ele>
        <time>2011-12-04T11:30:57.2Z</time>
      </trkpt>
      <trkpt lat="47.32898" lon="-1.70566">
        <ele>88</ele>
        <time>2011-12-04T11:31:02.2Z</time>
      </trkpt>
      <trkpt lat="47.32899" lon="-1.7057">
        <ele>87</ele>
        <time>2011-12-04T11:31:03.6Z</time>
      </trkpt>
      <trkpt lat="47.329" lon="-1.70575">
        <ele>86</ele>
        <time>2011-12-04T11:31:04.2Z</time>
      </trkpt>
      <trkpt lat="47.32901" lon="-1.70582">
        <ele>86</ele>
        <time>2011-12-04T11:31:09.5Z</time>
      </trkpt>
      <trkpt lat="47.32901" lon="-1.70595">
        <ele>86</ele>
        <time>2011-12-04T11:31:10.3Z</time>
      </trkpt>
      <trkpt lat="47.32901" lon="-1.70599">
        <ele>86</ele>
        <time>2011-12-04T11:31:11.2Z</time>
      </trkpt>
      <trkpt lat="47.32901" lon="-1.70602">
        <ele>86</ele>
        <time>2011-12-04T11:31:12.4Z</time>
      </trkpt>
      <trkpt lat="47.32903" lon="-1.70608">
        <ele>86</ele>
        <time>2011-12-04T11:31:17.9Z</time>
      </trkpt>
      <trkpt lat="47.32906" lon="-1.70618">
        <ele>85</ele>
        <time>2011-12-04T11:31:18.2Z</time>
      </trkpt>
      <trkpt lat="47.32906" lon="-1.7062">
        <ele>84</ele>
        <time>2011-12-04T11:31:19.4Z</time>
      </trkpt>
      <trkpt lat="47.32908" lon="-1.70626">
        <ele>84</ele>
        <time>2011-12-04T11:31:24.3Z</time>
      </trkpt>
      <trkpt lat="47.32917" lon="-1.70635">
        <ele>84</ele>
        <time>2011-12-04T11:31:25.3Z</time>
      </trkpt>
      <trkpt lat="47.3292" lon="-1.70637">
        <ele>84</ele>
        <time>2011-12-04T11:31:26.7Z</time>
      </trkpt>
      <trkpt lat="47.32923" lon="-1.7064">
        <ele>84</ele>
        <time>2011-12-04T11:31:27.2Z</time>
      </trkpt>
      <trkpt lat="47.32926" lon="-1.70659">
        <ele>84</ele>
        <time>2011-12-04T11:31:32.2Z</time>
      </trkpt>
      <trkpt lat="47.32927" lon="-1.70665">
        <ele>85</ele>
        <time>2011-12-04T11:31:33.2Z</time>
      </trkpt>
      <trkpt lat="47.32928" lon="-1.70669">
        <ele>85</ele>
        <time>2011-12-04T11:31:34.2Z</time>
      </trkpt>
      <trkpt lat="47.3293" lon="-1.70693">
        <ele>85</ele>
        <time>2011-12-04T11:31:39.2Z</time>
      </trkpt>
      <trkpt lat="47.32931" lon="-1.70697">
        <ele>85</ele>
        <time>2011-12-04T11:31:40.6Z</time>
      </trkpt>
      <trkpt lat="47.32932" lon="-1.70702">
        <ele>85</ele>
        <time>2011-12-04T11:31:41.2Z</time>
      </trkpt>
      <trkpt lat="47.32935" lon="-1.70709">
        <ele>85</ele>
        <time>2011-12-04T11:31:46.5Z</time>
      </trkpt>
      <trkpt lat="47.32934" lon="-1.70728">
        <ele>85</ele>
        <time>2011-12-04T11:31:47.3Z</time>
      </trkpt>
      <trkpt lat="47.32933" lon="-1.70733">
        <ele>84</ele>
        <time>2011-12-04T11:31:48.9Z</time>
      </trkpt>
      <trkpt lat="47.32933" lon="-1.70738">
        <ele>83</ele>
        <time>2011-12-04T11:31:49.9Z</time>
      </trkpt>
      <trkpt lat="47.32932" lon="-1.7075">
        <ele>83</ele>
        <time>2011-12-04T11:31:54.8Z</time>
      </trkpt>
      <trkpt lat="47.32932" lon="-1.70772">
        <ele>83</ele>
        <time>2011-12-04T11:31:55.2Z</time>
      </trkpt>
      <trkpt lat="47.32932" lon="-1.70778">
        <ele>83</ele>
        <time>2011-12-04T11:31:56.2Z</time>
      </trkpt>
      <trkpt lat="47.32932" lon="-1.70793">
        <ele>83</ele>
        <time>2011-12-04T11:32:01.5Z</time>
      </trkpt>
      <trkpt lat="47.32933" lon="-1.7082">
        <ele>83</ele>
        <time>2011-12-04T11:32:02.2Z</time>
      </trkpt>
      <trkpt lat="47.32935" lon="-1.70826">
        <ele>83</ele>
        <time>2011-12-04T11:32:03.6Z</time>
      </trkpt>
      <trkpt lat="47.32937" lon="-1.70834">
        <ele>82</ele>
        <time>2011-12-04T11:32:04.6Z</time>
      </trkpt>
      <trkpt lat="47.32942" lon="-1.70846">
        <ele>81</ele>
        <time>2011-12-04T11:32:09.5Z</time>
      </trkpt>
      <trkpt lat="47.3296" lon="-1.70869">
        <ele>80</ele>
        <time>2011-12-04T11:32:10.9Z</time>
      </trkpt>
      <trkpt lat="47.32964" lon="-1.70875">
        <ele>79</ele>
        <time>2011-12-04T11:32:11.7Z</time>
      </trkpt>
      <trkpt lat="47.32969" lon="-1.7088">
        <ele>77</ele>
        <time>2011-12-04T11:32:12.2Z</time>
      </trkpt>
      <trkpt lat="47.32992" lon="-1.70899">
        <ele>75</ele>
        <time>2011-12-04T11:32:17.3Z</time>
      </trkpt>
      <trkpt lat="47.32995" lon="-1.70901">
        <ele>72</ele>
        <time>2011-12-04T11:32:18.2Z</time>
      </trkpt>
      <trkpt lat="47.32997" lon="-1.70902">
        <ele>69</ele>
        <time>2011-12-04T11:32:19.2Z</time>
      </trkpt>
      <trkpt lat="47.33003" lon="-1.70909">
        <ele>66</ele>
        <time>2011-12-04T11:32:24.2Z</time>
      </trkpt>
      <trkpt lat="47.33004" lon="-1.70909">
        <ele>56</ele>
        <time>2011-12-04T11:32:33.7Z</time>
      </trkpt>
      <trkpt lat="47.33005" lon="-1.70908">
        <ele>55</ele>
        <time>2011-12-04T11:32:34.7Z</time>
      </trkpt>
      <trkpt lat="47.33001" lon="-1.70908">
        <ele>47</ele>
        <time>2011-12-04T11:32:51.7Z</time>
      </trkpt>
      <trkpt lat="47.32998" lon="-1.70908">
        <ele>47</ele>
        <time>2011-12-04T11:32:52.3Z</time>
      </trkpt>
      <trkpt lat="47.32993" lon="-1.70907">
        <ele>47</ele>
        <time>2011-12-04T11:32:53.7Z</time>
      </trkpt>
      <trkpt lat="47.32985" lon="-1.70906">
        <ele>47</ele>
        <time>2011-12-04T11:32:58.6Z</time>
      </trkpt>
      <trkpt lat="47.32967" lon="-1.70899">
        <ele>47</ele>
        <time>2011-12-04T11:32:59.2Z</time>
      </trkpt>
      <trkpt lat="47.32963" lon="-1.70898">
        <ele>47</ele>
        <time>2011-12-04T11:33:00.2Z</time>
      </trkpt>
      <trkpt lat="47.32955" lon="-1.70895">
        <ele>47</ele>
        <time>2011-12-04T11:33:05.4Z</time>
      </trkpt>
      <trkpt lat="47.32936" lon="-1.70887">
        <ele>47</ele>
        <time>2011-12-04T11:33:06.2Z</time>
      </trkpt>
      <trkpt lat="47.32932" lon="-1.70886">
        <ele>46</ele>
        <time>2011-12-04T11:33:07.2Z</time>
      </trkpt>
      <trkpt lat="47.32917" lon="-1.70877">
        <ele>46</ele>
        <time>2011-12-04T11:33:12.2Z</time>
      </trkpt>
      <trkpt lat="47.32914" lon="-1.70875">
        <ele>45</ele>
        <time>2011-12-04T11:33:13.2Z</time>
      </trkpt>
      <trkpt lat="47.32907" lon="-1.70873">
        <ele>44</ele>
        <time>2011-12-04T11:33:18.9Z</time>
      </trkpt>
      <trkpt lat="47.32892" lon="-1.70875">
        <ele>43</ele>
        <time>2011-12-04T11:33:19.2Z</time>
      </trkpt>
      <trkpt lat="47.32888" lon="-1.70876">
        <ele>42</ele>
        <time>2011-12-04T11:33:20.6Z</time>
      </trkpt>
      <trkpt lat="47.32883" lon="-1.70876">
        <ele>41</ele>
        <time>2011-12-04T11:33:21.4Z</time>
      </trkpt>
      <trkpt lat="47.32873" lon="-1.70876">
        <ele>40</ele>
        <time>2011-12-04T11:33:26.3Z</time>
      </trkpt>
      <trkpt lat="47.32852" lon="-1.70876">
        <ele>39</ele>
        <time>2011-12-04T11:33:27.2Z</time>
      </trkpt>
      <trkpt lat="47.32846" lon="-1.70877">
        <ele>38</ele>
        <time>2011-12-04T11:33:28.2Z</time>
      </trkpt>
      <trkpt lat="47.3282" lon="-1.70877">
        <ele>37</ele>
        <time>2011-12-04T11:33:33.3Z</time>
      </trkpt>
      <trkpt lat="47.32815" lon="-1.70879">
        <ele>36</ele>
        <time>2011-12-04T11:33:34.2Z</time>
      </trkpt>
      <trkpt lat="47.32811" lon="-1.70878">
        <ele>35</ele>
        <time>2011-12-04T11:33:35.2Z</time>
      </trkpt>
      <trkpt lat="47.32797" lon="-1.70866">
        <ele>34</ele>
        <time>2011-12-04T11:33:40.3Z</time>
      </trkpt>
      <trkpt lat="47.32796" lon="-1.70863">
        <ele>33</ele>
        <time>2011-12-04T11:33:41.3Z</time>
      </trkpt>
      <trkpt lat="47.32795" lon="-1.70861">
        <ele>33</ele>
        <time>2011-12-04T11:33:42.5Z</time>
      </trkpt>
      <trkpt lat="47.32794" lon="-1.7086">
        <ele>33</ele>
        <time>2011-12-04T11:33:43.2Z</time>
      </trkpt>
      <trkpt lat="47.32793" lon="-1.70853">
        <ele>33</ele>
        <time>2011-12-04T11:33:48.3Z</time>
      </trkpt>
      <trkpt lat="47.32794" lon="-1.70851">
        <ele>33</ele>
        <time>2011-12-04T11:33:50.2Z</time>
      </trkpt>
      <trkpt lat="47.32795" lon="-1.70856">
        <ele>33</ele>
        <time>2011-12-04T11:33:57.2Z</time>
      </trkpt>
      <trkpt lat="47.32795" lon="-1.70859">
        <ele>33</ele>
        <time>2011-12-04T11:33:59.6Z</time>
      </trkpt>
      <trkpt lat="47.32795" lon="-1.70861">
        <ele>33</ele>
        <time>2011-12-04T11:34:06.2Z</time>
      </trkpt>
      <trkpt lat="47.32801" lon="-1.70856">
        <ele>33</ele>
        <time>2011-12-04T11:34:14.7Z</time>
      </trkpt>
      <trkpt lat="47.328" lon="-1.70852">
        <ele>33</ele>
        <time>2011-12-04T11:34:21.9Z</time>
      </trkpt>
      <trkpt lat="47.32796" lon="-1.70843">
        <ele>33</ele>
        <time>2011-12-04T11:34:22.9Z</time>
      </trkpt>
      <trkpt lat="47.32795" lon="-1.70839">
        <ele>33</ele>
        <time>2011-12-04T11:34:23.2Z</time>
      </trkpt>
      <trkpt lat="47.32794" lon="-1.7083">
        <ele>33</ele>
        <time>2011-12-04T11:34:28.8Z</time>
      </trkpt>
      <trkpt lat="47.32793" lon="-1.70812">
        <ele>32</ele>
        <time>2011-12-04T11:34:29.6Z</time>
      </trkpt>
      <trkpt lat="47.32792" lon="-1.70806">
        <ele>31</ele>
        <time>2011-12-04T11:34:30.2Z</time>
      </trkpt>
      <trkpt lat="47.32791" lon="-1.70798">
        <ele>30</ele>
        <time>2011-12-04T11:34:35.6Z</time>
      </trkpt>
      <trkpt lat="47.32786" lon="-1.70783">
        <ele>29</ele>
        <time>2011-12-04T11:34:36.2Z</time>
      </trkpt>
      <trkpt lat="47.32784" lon="-1.7078">
        <ele>28</ele>
        <time>2011-12-04T11:34:37.2Z</time>
      </trkpt>
      <trkpt lat="47.32784" lon="-1.70776">
        <ele>26</ele>
        <time>2011-12-04T11:34:38.2Z</time>
      </trkpt>
      <trkpt lat="47.32784" lon="-1.7077">
        <ele>24</ele>
        <time>2011-12-04T11:34:43.6Z</time>
      </trkpt>
      <trkpt lat="47.32782" lon="-1.70759">
        <ele>22</ele>
        <time>2011-12-04T11:34:44.6Z</time>
      </trkpt>
      <trkpt lat="47.32783" lon="-1.70756">
        <ele>20</ele>
        <time>2011-12-04T11:34:45.8Z</time>
      </trkpt>
      <trkpt lat="47.32782" lon="-1.70753">
        <ele>19</ele>
        <time>2011-12-04T11:34:46.3Z</time>
      </trkpt>
      <trkpt lat="47.32782" lon="-1.70746">
        <ele>18</ele>
        <time>2011-12-04T11:34:51.9Z</time>
      </trkpt>
      <trkpt lat="47.32774" lon="-1.70727">
        <ele>17</ele>
        <time>2011-12-04T11:34:52.9Z</time>
      </trkpt>
      <trkpt lat="47.32773" lon="-1.70724">
        <ele>17</ele>
        <time>2011-12-04T11:34:53.5Z</time>
      </trkpt>
      <trkpt lat="47.32772" lon="-1.70722">
        <ele>17</ele>
        <time>2011-12-04T11:34:54.4Z</time>
      </trkpt>
      <trkpt lat="47.3277" lon="-1.70716">
        <ele>17</ele>
        <time>2011-12-04T11:35:00.4Z</time>
      </trkpt>
      <trkpt lat="47.32769" lon="-1.70703">
        <ele>18</ele>
        <time>2011-12-04T11:35:01.2Z</time>
      </trkpt>
      <trkpt lat="47.3277" lon="-1.707">
        <ele>19</ele>
        <time>2011-12-04T11:35:02.6Z</time>
      </trkpt>
      <trkpt lat="47.32771" lon="-1.70698">
        <ele>21</ele>
        <time>2011-12-04T11:35:08.7Z</time>
      </trkpt>
      <trkpt lat="47.3277" lon="-1.70696">
        <ele>23</ele>
        <time>2011-12-04T11:35:10.7Z</time>
      </trkpt>
      <trkpt lat="47.3277" lon="-1.70698">
        <ele>24</ele>
        <time>2011-12-04T11:35:16.9Z</time>
      </trkpt>
      <trkpt lat="47.3277" lon="-1.70704">
        <ele>25</ele>
        <time>2011-12-04T11:35:17.6Z</time>
      </trkpt>
      <trkpt lat="47.3277" lon="-1.70707">
        <ele>25</ele>
        <time>2011-12-04T11:35:18.2Z</time>
      </trkpt>
      <trkpt lat="47.3277" lon="-1.70713">
        <ele>25</ele>
        <time>2011-12-04T11:35:23.6Z</time>
      </trkpt>
      <trkpt lat="47.32773" lon="-1.70724">
        <ele>26</ele>
        <time>2011-12-04T11:35:24.2Z</time>
      </trkpt>
      <trkpt lat="47.32773" lon="-1.70728">
        <ele>27</ele>
        <time>2011-12-04T11:35:25.6Z</time>
      </trkpt>
      <trkpt lat="47.32773" lon="-1.70732">
        <ele>28</ele>
        <time>2011-12-04T11:35:26.8Z</time>
      </trkpt>
      <trkpt lat="47.32773" lon="-1.7074">
        <ele>29</ele>
        <time>2011-12-04T11:35:32.6Z</time>
      </trkpt>
      <trkpt lat="47.32773" lon="-1.70757">
        <ele>30</ele>
        <time>2011-12-04T11:35:33.2Z</time>
      </trkpt>
      <trkpt lat="47.32774" lon="-1.70762">
        <ele>31</ele>
        <time>2011-12-04T11:35:38.6Z</time>
      </trkpt>
      <trkpt lat="47.32775" lon="-1.70768">
        <ele>33</ele>
        <time>2011-12-04T11:35:39.2Z</time>
      </trkpt>
      <trkpt lat="47.32775" lon="-1.70769">
        <ele>35</ele>
        <time>2011-12-04T11:35:40.6Z</time>
      </trkpt>
      <trkpt lat="47.32777" lon="-1.70772">
        <ele>37</ele>
        <time>2011-12-04T11:35:41.4Z</time>
      </trkpt>
      <trkpt lat="47.32777" lon="-1.70776">
        <ele>39</ele>
        <time>2011-12-04T11:35:47.8Z</time>
      </trkpt>
      <trkpt lat="47.32777" lon="-1.70778">
        <ele>40</ele>
        <time>2011-12-04T11:35:48.5Z</time>
      </trkpt>
      <trkpt lat="47.32775" lon="-1.70779">
        <ele>41</ele>
        <time>2011-12-04T11:35:55.9Z</time>
      </trkpt>
      <trkpt lat="47.32772" lon="-1.7078">
        <ele>41</ele>
        <time>2011-12-04T11:35:56.4Z</time>
      </trkpt>
      <trkpt lat="47.32771" lon="-1.70779">
        <ele>41</ele>
        <time>2011-12-04T11:35:57.4Z</time>
      </trkpt>
      <trkpt lat="47.32767" lon="-1.70778">
        <ele>41</ele>
        <time>2011-12-04T11:36:02.5Z</time>
      </trkpt>
      <trkpt lat="47.32762" lon="-1.70775">
        <ele>41</ele>
        <time>2011-12-04T11:36:03.2Z</time>
      </trkpt>
      <trkpt lat="47.3276" lon="-1.70774">
        <ele>40</ele>
        <time>2011-12-04T11:36:04.2Z</time>
      </trkpt>
      <trkpt lat="47.32759" lon="-1.70773">
        <ele>39</ele>
        <time>2011-12-04T11:36:05.4Z</time>
      </trkpt>
      <trkpt lat="47.32755" lon="-1.70771">
        <ele>38</ele>
        <time>2011-12-04T11:36:10.4Z</time>
      </trkpt>
      <trkpt lat="47.32746" lon="-1.70769">
        <ele>37</ele>
        <time>2011-12-04T11:36:11.2Z</time>
      </trkpt>
      <trkpt lat="47.32744" lon="-1.70768">
        <ele>36</ele>
        <time>2011-12-04T11:36:12.4Z</time>
      </trkpt>
      <trkpt lat="47.32739" lon="-1.70768">
        <ele>36</ele>
        <time>2011-12-04T11:36:18.6Z</time>
      </trkpt>
      <trkpt lat="47.32726" lon="-1.70773">
        <ele>36</ele>
        <time>2011-12-04T11:36:19.2Z</time>
      </trkpt>
      <trkpt lat="47.32723" lon="-1.70775">
        <ele>36</ele>
        <time>2011-12-04T11:36:20.4Z</time>
      </trkpt>
      <trkpt lat="47.32713" lon="-1.70791">
        <ele>35</ele>
        <time>2011-12-04T11:36:26.3Z</time>
      </trkpt>
      <trkpt lat="47.32712" lon="-1.70795">
        <ele>35</ele>
        <time>2011-12-04T11:36:27.3Z</time>
      </trkpt>
      <trkpt lat="47.3271" lon="-1.70799">
        <ele>34</ele>
        <time>2011-12-04T11:36:28.2Z</time>
      </trkpt>
      <trkpt lat="47.32704" lon="-1.70815">
        <ele>34</ele>
        <time>2011-12-04T11:36:33.3Z</time>
      </trkpt>
      <trkpt lat="47.32702" lon="-1.7082">
        <ele>33</ele>
        <time>2011-12-04T11:36:34.2Z</time>
      </trkpt>
      <trkpt lat="47.32701" lon="-1.70823">
        <ele>33</ele>
        <time>2011-12-04T11:36:35.2Z</time>
      </trkpt>
      <trkpt lat="47.32696" lon="-1.70838">
        <ele>33</ele>
        <time>2011-12-04T11:36:40.3Z</time>
      </trkpt>
      <trkpt lat="47.32694" lon="-1.70842">
        <ele>33</ele>
        <time>2011-12-04T11:36:41.7Z</time>
      </trkpt>
      <trkpt lat="47.32693" lon="-1.70845">
        <ele>33</ele>
        <time>2011-12-04T11:36:42.2Z</time>
      </trkpt>
      <trkpt lat="47.3269" lon="-1.70853">
        <ele>33</ele>
        <time>2011-12-04T11:36:47.7Z</time>
      </trkpt>
      <trkpt lat="47.32684" lon="-1.70863">
        <ele>33</ele>
        <time>2011-12-04T11:36:48.2Z</time>
      </trkpt>
      <trkpt lat="47.32683" lon="-1.70865">
        <ele>33</ele>
        <time>2011-12-04T11:36:49.4Z</time>
      </trkpt>
      <trkpt lat="47.32682" lon="-1.70869">
        <ele>34</ele>
        <time>2011-12-04T11:36:54.7Z</time>
      </trkpt>
      <trkpt lat="47.32678" lon="-1.70878">
        <ele>35</ele>
        <time>2011-12-04T11:36:55.2Z</time>
      </trkpt>
      <trkpt lat="47.32677" lon="-1.70879">
        <ele>36</ele>
        <time>2011-12-04T11:36:56.2Z</time>
      </trkpt>
      <trkpt lat="47.32675" lon="-1.70883">
        <ele>37</ele>
        <time>2011-12-04T11:37:01.5Z</time>
      </trkpt>
      <trkpt lat="47.32669" lon="-1.70894">
        <ele>38</ele>
        <time>2011-12-04T11:37:02.2Z</time>
      </trkpt>
      <trkpt lat="47.32667" lon="-1.70896">
        <ele>39</ele>
        <time>2011-12-04T11:37:03.2Z</time>
      </trkpt>
      <trkpt lat="47.32665" lon="-1.70897">
        <ele>40</ele>
        <time>2011-12-04T11:37:04.6Z</time>
      </trkpt>
      <trkpt lat="47.32662" lon="-1.709">
        <ele>41</ele>
        <time>2011-12-04T11:37:09.6Z</time>
      </trkpt>
      <trkpt lat="47.32654" lon="-1.70904">
        <ele>42</ele>
        <time>2011-12-04T11:37:10.2Z</time>
      </trkpt>
      <trkpt lat="47.32652" lon="-1.70904">
        <ele>43</ele>
        <time>2011-12-04T11:37:11.6Z</time>
      </trkpt>
      <trkpt lat="47.3265" lon="-1.70904">
        <ele>44</ele>
        <time>2011-12-04T11:37:12.6Z</time>
      </trkpt>
      <trkpt lat="47.32646" lon="-1.70904">
        <ele>45</ele>
        <time>2011-12-04T11:37:17.6Z</time>
      </trkpt>
      <trkpt lat="47.32636" lon="-1.70904">
        <ele>46</ele>
        <time>2011-12-04T11:37:18.2Z</time>
      </trkpt>
      <trkpt lat="47.32634" lon="-1.70904">
        <ele>46</ele>
        <time>2011-12-04T11:37:19.2Z</time>
      </trkpt>
      <trkpt lat="47.3263" lon="-1.70903">
        <ele>46</ele>
        <time>2011-12-04T11:37:24.5Z</time>
      </trkpt>
      <trkpt lat="47.32622" lon="-1.70902">
        <ele>46</ele>
        <time>2011-12-04T11:37:25.2Z</time>
      </trkpt>
      <trkpt lat="47.3262" lon="-1.70901">
        <ele>46</ele>
        <time>2011-12-04T11:37:26.2Z</time>
      </trkpt>
      <trkpt lat="47.32618" lon="-1.709">
        <ele>46</ele>
        <time>2011-12-04T11:37:27.6Z</time>
      </trkpt>
      <trkpt lat="47.32614" lon="-1.70899">
        <ele>46</ele>
        <time>2011-12-04T11:37:33.4Z</time>
      </trkpt>
      <trkpt lat="47.32608" lon="-1.70895">
        <ele>46</ele>
        <time>2011-12-04T11:37:34.2Z</time>
      </trkpt>
      <trkpt lat="47.32606" lon="-1.70894">
        <ele>47</ele>
        <time>2011-12-04T11:37:35.4Z</time>
      </trkpt>
      <trkpt lat="47.32603" lon="-1.70893">
        <ele>47</ele>
        <time>2011-12-04T11:37:40.4Z</time>
      </trkpt>
      <trkpt lat="47.326" lon="-1.70892">
        <ele>48</ele>
        <time>2011-12-04T11:37:41.2Z</time>
      </trkpt>
      <trkpt lat="47.32598" lon="-1.70893">
        <ele>49</ele>
        <time>2011-12-04T11:37:43.2Z</time>
      </trkpt>
      <trkpt lat="47.32596" lon="-1.70894">
        <ele>50</ele>
        <time>2011-12-04T11:37:51Z</time>
      </trkpt>
      <trkpt lat="47.32594" lon="-1.70894">
        <ele>50</ele>
        <time>2011-12-04T11:37:53Z</time>
      </trkpt>
      <trkpt lat="47.32592" lon="-1.70893">
        <ele>50</ele>
        <time>2011-12-04T11:37:58.9Z</time>
      </trkpt>
      <trkpt lat="47.32587" lon="-1.70893">
        <ele>50</ele>
        <time>2011-12-04T11:37:59.6Z</time>
      </trkpt>
      <trkpt lat="47.32585" lon="-1.70893">
        <ele>50</ele>
        <time>2011-12-04T11:38:07.1Z</time>
      </trkpt>
      <trkpt lat="47.32581" lon="-1.70892">
        <ele>50</ele>
        <time>2011-12-04T11:38:07.6Z</time>
      </trkpt>
      <trkpt lat="47.32578" lon="-1.70891">
        <ele>50</ele>
        <time>2011-12-04T11:38:13.5Z</time>
      </trkpt>
      <trkpt lat="47.32576" lon="-1.7089">
        <ele>50</ele>
        <time>2011-12-04T11:38:14.2Z</time>
      </trkpt>
      <trkpt lat="47.32574" lon="-1.7089">
        <ele>50</ele>
        <time>2011-12-04T11:38:22.6Z</time>
      </trkpt>
      <trkpt lat="47.32571" lon="-1.7089">
        <ele>50</ele>
        <time>2011-12-04T11:38:23.4Z</time>
      </trkpt>
      <trkpt lat="47.32569" lon="-1.70888">
        <ele>51</ele>
        <time>2011-12-04T11:38:31.4Z</time>
      </trkpt>
      <trkpt lat="47.32567" lon="-1.70887">
        <ele>51</ele>
        <time>2011-12-04T11:38:39.5Z</time>
      </trkpt>
      <trkpt lat="47.32566" lon="-1.70888">
        <ele>51</ele>
        <time>2011-12-04T11:38:40.2Z</time>
      </trkpt>
      <trkpt lat="47.32564" lon="-1.70888">
        <ele>51</ele>
        <time>2011-12-04T11:38:42.2Z</time>
      </trkpt>
      <trkpt lat="47.32561" lon="-1.70885">
        <ele>51</ele>
        <time>2011-12-04T11:38:49.7Z</time>
      </trkpt>
      <trkpt lat="47.32559" lon="-1.70884">
        <ele>52</ele>
        <time>2011-12-04T11:38:56.3Z</time>
      </trkpt>
      <trkpt lat="47.32553" lon="-1.70882">
        <ele>53</ele>
        <time>2011-12-04T11:38:57.3Z</time>
      </trkpt>
      <trkpt lat="47.32552" lon="-1.70882">
        <ele>54</ele>
        <time>2011-12-04T11:39:02.4Z</time>
      </trkpt>
      <trkpt lat="47.32551" lon="-1.70883">
        <ele>55</ele>
        <time>2011-12-04T11:39:03.2Z</time>
      </trkpt>
      <trkpt lat="47.32549" lon="-1.70882">
        <ele>55</ele>
        <time>2011-12-04T11:39:04.2Z</time>
      </trkpt>
      <trkpt lat="47.32547" lon="-1.7088">
        <ele>56</ele>
        <time>2011-12-04T11:39:09.3Z</time>
      </trkpt>
      <trkpt lat="47.32537" lon="-1.70879">
        <ele>56</ele>
        <time>2011-12-04T11:39:10.7Z</time>
      </trkpt>
      <trkpt lat="47.32535" lon="-1.70879">
        <ele>56</ele>
        <time>2011-12-04T11:39:11.4Z</time>
      </trkpt>
      <trkpt lat="47.32532" lon="-1.70879">
        <ele>56</ele>
        <time>2011-12-04T11:39:12.2Z</time>
      </trkpt>
      <trkpt lat="47.32528" lon="-1.70877">
        <ele>56</ele>
        <time>2011-12-04T11:39:17.3Z</time>
      </trkpt>
      <trkpt lat="47.32519" lon="-1.70875">
        <ele>57</ele>
        <time>2011-12-04T11:39:18.2Z</time>
      </trkpt>
      <trkpt lat="47.32516" lon="-1.70874">
        <ele>57</ele>
        <time>2011-12-04T11:39:19.2Z</time>
      </trkpt>
      <trkpt lat="47.32511" lon="-1.70874">
        <ele>57</ele>
        <time>2011-12-04T11:39:24.3Z</time>
      </trkpt>
      <trkpt lat="47.32506" lon="-1.70876">
        <ele>57</ele>
        <time>2011-12-04T11:39:25.2Z</time>
      </trkpt>
      <trkpt lat="47.32504" lon="-1.70878">
        <ele>58</ele>
        <time>2011-12-04T11:39:26.2Z</time>
      </trkpt>
      <trkpt lat="47.32503" lon="-1.70881">
        <ele>58</ele>
        <time>2011-12-04T11:39:27.2Z</time>
      </trkpt>
      <trkpt lat="47.32499" lon="-1.70886">
        <ele>58</ele>
        <time>2011-12-04T11:39:32.3Z</time>
      </trkpt>
      <trkpt lat="47.32494" lon="-1.70903">
        <ele>58</ele>
        <time>2011-12-04T11:39:33.2Z</time>
      </trkpt>
      <trkpt lat="47.32492" lon="-1.70907">
        <ele>58</ele>
        <time>2011-12-04T11:39:34.2Z</time>
      </trkpt>
      <trkpt lat="47.3249" lon="-1.70915">
        <ele>58</ele>
        <time>2011-12-04T11:39:39.3Z</time>
      </trkpt>
      <trkpt lat="47.32484" lon="-1.70932">
        <ele>58</ele>
        <time>2011-12-04T11:39:40.2Z</time>
      </trkpt>
      <trkpt lat="47.32482" lon="-1.70937">
        <ele>58</ele>
        <time>2011-12-04T11:39:41.2Z</time>
      </trkpt>
      <trkpt lat="47.32479" lon="-1.70946">
        <ele>58</ele>
        <time>2011-12-04T11:39:46.3Z</time>
      </trkpt>
      <trkpt lat="47.32473" lon="-1.70964">
        <ele>58</ele>
        <time>2011-12-04T11:39:47.2Z</time>
      </trkpt>
      <trkpt lat="47.32472" lon="-1.70969">
        <ele>59</ele>
        <time>2011-12-04T11:39:48.2Z</time>
      </trkpt>
      <trkpt lat="47.32469" lon="-1.70977">
        <ele>59</ele>
        <time>2011-12-04T11:39:53.3Z</time>
      </trkpt>
      <trkpt lat="47.32463" lon="-1.70991">
        <ele>60</ele>
        <time>2011-12-04T11:39:54.2Z</time>
      </trkpt>
      <trkpt lat="47.32461" lon="-1.70994">
        <ele>60</ele>
        <time>2011-12-04T11:39:55.2Z</time>
      </trkpt>
      <trkpt lat="47.32444" lon="-1.71">
        <ele>60</ele>
        <time>2011-12-04T11:40:01.3Z</time>
      </trkpt>
      <trkpt lat="47.32441" lon="-1.71">
        <ele>60</ele>
        <time>2011-12-04T11:40:02.2Z</time>
      </trkpt>
      <trkpt lat="47.32438" lon="-1.71">
        <ele>60</ele>
        <time>2011-12-04T11:40:03.6Z</time>
      </trkpt>
      <trkpt lat="47.32431" lon="-1.71">
        <ele>60</ele>
        <time>2011-12-04T11:40:08.7Z</time>
      </trkpt>
      <trkpt lat="47.32419" lon="-1.71">
        <ele>60</ele>
        <time>2011-12-04T11:40:09.2Z</time>
      </trkpt>
      <trkpt lat="47.32416" lon="-1.71">
        <ele>60</ele>
        <time>2011-12-04T11:40:10.2Z</time>
      </trkpt>
      <trkpt lat="47.32409" lon="-1.71001">
        <ele>60</ele>
        <time>2011-12-04T11:40:15.6Z</time>
      </trkpt>
      <trkpt lat="47.32395" lon="-1.71004">
        <ele>60</ele>
        <time>2011-12-04T11:40:16.2Z</time>
      </trkpt>
      <trkpt lat="47.32391" lon="-1.71005">
        <ele>60</ele>
        <time>2011-12-04T11:40:17.2Z</time>
      </trkpt>
      <trkpt lat="47.32383" lon="-1.71007">
        <ele>60</ele>
        <time>2011-12-04T11:40:22.5Z</time>
      </trkpt>
      <trkpt lat="47.32368" lon="-1.71013">
        <ele>60</ele>
        <time>2011-12-04T11:40:23.2Z</time>
      </trkpt>
      <trkpt lat="47.32364" lon="-1.71014">
        <ele>60</ele>
        <time>2011-12-04T11:40:24.2Z</time>
      </trkpt>
      <trkpt lat="47.32357" lon="-1.71018">
        <ele>60</ele>
        <time>2011-12-04T11:40:29.3Z</time>
      </trkpt>
      <trkpt lat="47.32343" lon="-1.71025">
        <ele>60</ele>
        <time>2011-12-04T11:40:30.2Z</time>
      </trkpt>
      <trkpt lat="47.32339" lon="-1.71028">
        <ele>60</ele>
        <time>2011-12-04T11:40:31.2Z</time>
      </trkpt>
      <trkpt lat="47.32332" lon="-1.71032">
        <ele>60</ele>
        <time>2011-12-04T11:40:36.3Z</time>
      </trkpt>
      <trkpt lat="47.32322" lon="-1.7104">
        <ele>60</ele>
        <time>2011-12-04T11:40:37.2Z</time>
      </trkpt>
      <trkpt lat="47.32319" lon="-1.71042">
        <ele>60</ele>
        <time>2011-12-04T11:40:38.2Z</time>
      </trkpt>
      <trkpt lat="47.32317" lon="-1.71041">
        <ele>60</ele>
        <time>2011-12-04T11:40:39.2Z</time>
      </trkpt>
      <trkpt lat="47.32312" lon="-1.71022">
        <ele>60</ele>
        <time>2011-12-04T11:40:45.2Z</time>
      </trkpt>
      <trkpt lat="47.32311" lon="-1.71018">
        <ele>60</ele>
        <time>2011-12-04T11:40:46.6Z</time>
      </trkpt>
      <trkpt lat="47.32311" lon="-1.71013">
        <ele>60</ele>
        <time>2011-12-04T11:40:47.3Z</time>
      </trkpt>
      <trkpt lat="47.32311" lon="-1.71004">
        <ele>60</ele>
        <time>2011-12-04T11:40:53Z</time>
      </trkpt>
      <trkpt lat="47.32306" lon="-1.70986">
        <ele>60</ele>
        <time>2011-12-04T11:40:54Z</time>
      </trkpt>
      <trkpt lat="47.32305" lon="-1.70981">
        <ele>60</ele>
        <time>2011-12-04T11:40:54.2Z</time>
      </trkpt>
      <trkpt lat="47.32305" lon="-1.70976">
        <ele>60</ele>
        <time>2011-12-04T11:40:55.2Z</time>
      </trkpt>
      <trkpt lat="47.32302" lon="-1.70968">
        <ele>60</ele>
        <time>2011-12-04T11:41:00.4Z</time>
      </trkpt>
      <trkpt lat="47.32303" lon="-1.70946">
        <ele>60</ele>
        <time>2011-12-04T11:41:01.2Z</time>
      </trkpt>
      <trkpt lat="47.32304" lon="-1.70944">
        <ele>60</ele>
        <time>2011-12-04T11:41:02.2Z</time>
      </trkpt>
      <trkpt lat="47.32306" lon="-1.70937">
        <ele>60</ele>
        <time>2011-12-04T11:41:08.5Z</time>
      </trkpt>
      <trkpt lat="47.32307" lon="-1.70936">
        <ele>60</ele>
        <time>2011-12-04T11:41:09.3Z</time>
      </trkpt>
      <trkpt lat="47.32308" lon="-1.70935">
        <ele>61</ele>
        <time>2011-12-04T11:41:11.2Z</time>
      </trkpt>
      <trkpt lat="47.32308" lon="-1.70932">
        <ele>61</ele>
        <time>2011-12-04T11:41:16.7Z</time>
      </trkpt>
      <trkpt lat="47.32308" lon="-1.70928">
        <ele>61</ele>
        <time>2011-12-04T11:41:17.5Z</time>
      </trkpt>
      <trkpt lat="47.32309" lon="-1.70925">
        <ele>61</ele>
        <time>2011-12-04T11:41:25.2Z</time>
      </trkpt>
      <trkpt lat="47.32308" lon="-1.70922">
        <ele>61</ele>
        <time>2011-12-04T11:41:28.3Z</time>
      </trkpt>
      <trkpt lat="47.32307" lon="-1.70917">
        <ele>61</ele>
        <time>2011-12-04T11:41:34.3Z</time>
      </trkpt>
      <trkpt lat="47.32303" lon="-1.70889">
        <ele>61</ele>
        <time>2011-12-04T11:41:35.3Z</time>
      </trkpt>
      <trkpt lat="47.32298" lon="-1.70874">
        <ele>61</ele>
        <time>2011-12-04T11:41:40.4Z</time>
      </trkpt>
      <trkpt lat="47.32288" lon="-1.7085">
        <ele>61</ele>
        <time>2011-12-04T11:41:41.2Z</time>
      </trkpt>
      <trkpt lat="47.32285" lon="-1.70845">
        <ele>61</ele>
        <time>2011-12-04T11:41:42.4Z</time>
      </trkpt>
      <trkpt lat="47.32279" lon="-1.70835">
        <ele>61</ele>
        <time>2011-12-04T11:41:47.9Z</time>
      </trkpt>
      <trkpt lat="47.32268" lon="-1.70806">
        <ele>61</ele>
        <time>2011-12-04T11:41:48.2Z</time>
      </trkpt>
      <trkpt lat="47.32266" lon="-1.70799">
        <ele>61</ele>
        <time>2011-12-04T11:41:49.2Z</time>
      </trkpt>
      <trkpt lat="47.32262" lon="-1.70782">
        <ele>60</ele>
        <time>2011-12-04T11:41:54.9Z</time>
      </trkpt>
      <trkpt lat="47.32255" lon="-1.70758">
        <ele>59</ele>
        <time>2011-12-04T11:41:55.2Z</time>
      </trkpt>
      <trkpt lat="47.32256" lon="-1.7075">
        <ele>58</ele>
        <time>2011-12-04T11:41:56.2Z</time>
      </trkpt>
      <trkpt lat="47.32258" lon="-1.70745">
        <ele>56</ele>
        <time>2011-12-04T11:41:57.2Z</time>
      </trkpt>
      <trkpt lat="47.32261" lon="-1.70731">
        <ele>55</ele>
        <time>2011-12-04T11:42:03.4Z</time>
      </trkpt>
      <trkpt lat="47.32263" lon="-1.70709">
        <ele>54</ele>
        <time>2011-12-04T11:42:04.2Z</time>
      </trkpt>
      <trkpt lat="47.32262" lon="-1.70707">
        <ele>54</ele>
        <time>2011-12-04T11:42:05.2Z</time>
      </trkpt>
      <trkpt lat="47.32261" lon="-1.70701">
        <ele>54</ele>
        <time>2011-12-04T11:42:11.6Z</time>
      </trkpt>
      <trkpt lat="47.32258" lon="-1.70694">
        <ele>55</ele>
        <time>2011-12-04T11:42:12.7Z</time>
      </trkpt>
      <trkpt lat="47.32257" lon="-1.70693">
        <ele>56</ele>
        <time>2011-12-04T11:42:13.3Z</time>
      </trkpt>
      <trkpt lat="47.32256" lon="-1.7069">
        <ele>58</ele>
        <time>2011-12-04T11:42:20.1Z</time>
      </trkpt>
      <trkpt lat="47.32252" lon="-1.70683">
        <ele>59</ele>
        <time>2011-12-04T11:42:20.8Z</time>
      </trkpt>
      <trkpt lat="47.32251" lon="-1.70682">
        <ele>60</ele>
        <time>2011-12-04T11:42:21.2Z</time>
      </trkpt>
      <trkpt lat="47.32249" lon="-1.70678">
        <ele>61</ele>
        <time>2011-12-04T11:42:27.4Z</time>
      </trkpt>
      <trkpt lat="47.32243" lon="-1.70671">
        <ele>61</ele>
        <time>2011-12-04T11:42:28.2Z</time>
      </trkpt>
      <trkpt lat="47.32242" lon="-1.7067">
        <ele>61</ele>
        <time>2011-12-04T11:42:29.2Z</time>
      </trkpt>
      <trkpt lat="47.32241" lon="-1.70667">
        <ele>61</ele>
        <time>2011-12-04T11:42:30.3Z</time>
      </trkpt>
      <trkpt lat="47.32239" lon="-1.70662">
        <ele>61</ele>
        <time>2011-12-04T11:42:36.3Z</time>
      </trkpt>
      <trkpt lat="47.32236" lon="-1.7065">
        <ele>61</ele>
        <time>2011-12-04T11:42:37.2Z</time>
      </trkpt>
      <trkpt lat="47.32237" lon="-1.70647">
        <ele>61</ele>
        <time>2011-12-04T11:42:38.2Z</time>
      </trkpt>
      <trkpt lat="47.32238" lon="-1.70645">
        <ele>61</ele>
        <time>2011-12-04T11:42:39.2Z</time>
      </trkpt>
      <trkpt lat="47.32238" lon="-1.70642">
        <ele>61</ele>
        <time>2011-12-04T11:42:45Z</time>
      </trkpt>
      <trkpt lat="47.3224" lon="-1.70636">
        <ele>61</ele>
        <time>2011-12-04T11:42:45.2Z</time>
      </trkpt>
      <trkpt lat="47.3224" lon="-1.70633">
        <ele>61</ele>
        <time>2011-12-04T11:42:52.4Z</time>
      </trkpt>
      <trkpt lat="47.32246" lon="-1.70622">
        <ele>61</ele>
        <time>2011-12-04T11:42:53.6Z</time>
      </trkpt>
      <trkpt lat="47.32247" lon="-1.7062">
        <ele>61</ele>
        <time>2011-12-04T11:42:54.2Z</time>
      </trkpt>
      <trkpt lat="47.32248" lon="-1.70617">
        <ele>61</ele>
        <time>2011-12-04T11:42:55.6Z</time>
      </trkpt>
      <trkpt lat="47.32248" lon="-1.70613">
        <ele>61</ele>
        <time>2011-12-04T11:43:00.8Z</time>
      </trkpt>
      <trkpt lat="47.3225" lon="-1.70603">
        <ele>61</ele>
        <time>2011-12-04T11:43:01.2Z</time>
      </trkpt>
      <trkpt lat="47.3225" lon="-1.70601">
        <ele>61</ele>
        <time>2011-12-04T11:43:02.2Z</time>
      </trkpt>
      <trkpt lat="47.3225" lon="-1.70595">
        <ele>61</ele>
        <time>2011-12-04T11:43:08.8Z</time>
      </trkpt>
      <trkpt lat="47.32252" lon="-1.70585">
        <ele>61</ele>
        <time>2011-12-04T11:43:09.7Z</time>
      </trkpt>
      <trkpt lat="47.32252" lon="-1.70581">
        <ele>61</ele>
        <time>2011-12-04T11:43:10.5Z</time>
      </trkpt>
      <trkpt lat="47.32252" lon="-1.70578">
        <ele>61</ele>
        <time>2011-12-04T11:43:11.3Z</time>
      </trkpt>
      <trkpt lat="47.32252" lon="-1.70571">
        <ele>61</ele>
        <time>2011-12-04T11:43:16.5Z</time>
      </trkpt>
      <trkpt lat="47.32251" lon="-1.70556">
        <ele>61</ele>
        <time>2011-12-04T11:43:17.2Z</time>
      </trkpt>
      <trkpt lat="47.3225" lon="-1.70553">
        <ele>61</ele>
        <time>2011-12-04T11:43:18.2Z</time>
      </trkpt>
      <trkpt lat="47.32248" lon="-1.70551">
        <ele>62</ele>
        <time>2011-12-04T11:43:19.2Z</time>
      </trkpt>
      <trkpt lat="47.32247" lon="-1.70547">
        <ele>62</ele>
        <time>2011-12-04T11:43:20.2Z</time>
      </trkpt>
      <trkpt lat="47.32245" lon="-1.70545">
        <ele>62</ele>
        <time>2011-12-04T11:43:21.2Z</time>
      </trkpt>
      <trkpt lat="47.32243" lon="-1.70536">
        <ele>62</ele>
        <time>2011-12-04T11:43:26.4Z</time>
      </trkpt>
      <trkpt lat="47.32239" lon="-1.7052">
        <ele>62</ele>
        <time>2011-12-04T11:43:27.2Z</time>
      </trkpt>
      <trkpt lat="47.32237" lon="-1.70514">
        <ele>63</ele>
        <time>2011-12-04T11:43:28.2Z</time>
      </trkpt>
      <trkpt lat="47.32236" lon="-1.70509">
        <ele>63</ele>
        <time>2011-12-04T11:43:29.2Z</time>
      </trkpt>
      <trkpt lat="47.32236" lon="-1.70497">
        <ele>63</ele>
        <time>2011-12-04T11:43:35Z</time>
      </trkpt>
      <trkpt lat="47.32233" lon="-1.70483">
        <ele>63</ele>
        <time>2011-12-04T11:43:35.2Z</time>
      </trkpt>
      <trkpt lat="47.32231" lon="-1.70479">
        <ele>63</ele>
        <time>2011-12-04T11:43:36.8Z</time>
      </trkpt>
      <trkpt lat="47.3223" lon="-1.70476">
        <ele>63</ele>
        <time>2011-12-04T11:43:37.3Z</time>
      </trkpt>
      <trkpt lat="47.32228" lon="-1.7047">
        <ele>63</ele>
        <time>2011-12-04T11:43:42.9Z</time>
      </trkpt>
      <trkpt lat="47.32227" lon="-1.70455">
        <ele>63</ele>
        <time>2011-12-04T11:43:43.2Z</time>
      </trkpt>
      <trkpt lat="47.32227" lon="-1.70452">
        <ele>63</ele>
        <time>2011-12-04T11:43:44.2Z</time>
      </trkpt>
      <trkpt lat="47.32224" lon="-1.70444">
        <ele>62</ele>
        <time>2011-12-04T11:43:49.5Z</time>
      </trkpt>
      <trkpt lat="47.32218" lon="-1.70425">
        <ele>61</ele>
        <time>2011-12-04T11:43:50.2Z</time>
      </trkpt>
      <trkpt lat="47.32217" lon="-1.70421">
        <ele>60</ele>
        <time>2011-12-04T11:43:51.2Z</time>
      </trkpt>
      <trkpt lat="47.32215" lon="-1.70412">
        <ele>60</ele>
        <time>2011-12-04T11:43:56.5Z</time>
      </trkpt>
      <trkpt lat="47.32211" lon="-1.70393">
        <ele>59</ele>
        <time>2011-12-04T11:43:57.2Z</time>
      </trkpt>
      <trkpt lat="47.3221" lon="-1.70383">
        <ele>58</ele>
        <time>2011-12-04T11:44:02.5Z</time>
      </trkpt>
      <trkpt lat="47.32209" lon="-1.70366">
        <ele>57</ele>
        <time>2011-12-04T11:44:03.2Z</time>
      </trkpt>
      <trkpt lat="47.32208" lon="-1.70359">
        <ele>56</ele>
        <time>2011-12-04T11:44:04.2Z</time>
      </trkpt>
      <trkpt lat="47.32207" lon="-1.70344">
        <ele>56</ele>
        <time>2011-12-04T11:44:09.5Z</time>
      </trkpt>
      <trkpt lat="47.32207" lon="-1.70322">
        <ele>56</ele>
        <time>2011-12-04T11:44:10.2Z</time>
      </trkpt>
      <trkpt lat="47.32208" lon="-1.70317">
        <ele>57</ele>
        <time>2011-12-04T11:44:11.2Z</time>
      </trkpt>
      <trkpt lat="47.32209" lon="-1.70303">
        <ele>58</ele>
        <time>2011-12-04T11:44:16.5Z</time>
      </trkpt>
      <trkpt lat="47.32213" lon="-1.70285">
        <ele>59</ele>
        <time>2011-12-04T11:44:17.2Z</time>
      </trkpt>
      <trkpt lat="47.32213" lon="-1.70281">
        <ele>60</ele>
        <time>2011-12-04T11:44:18.2Z</time>
      </trkpt>
      <trkpt lat="47.32215" lon="-1.7027">
        <ele>61</ele>
        <time>2011-12-04T11:44:23.5Z</time>
      </trkpt>
      <trkpt lat="47.32218" lon="-1.70247">
        <ele>62</ele>
        <time>2011-12-04T11:44:24.2Z</time>
      </trkpt>
      <trkpt lat="47.3222" lon="-1.70241">
        <ele>62</ele>
        <time>2011-12-04T11:44:25.2Z</time>
      </trkpt>
      <trkpt lat="47.32221" lon="-1.70228">
        <ele>62</ele>
        <time>2011-12-04T11:44:30.5Z</time>
      </trkpt>
      <trkpt lat="47.32223" lon="-1.70203">
        <ele>62</ele>
        <time>2011-12-04T11:44:31.2Z</time>
      </trkpt>
      <trkpt lat="47.32224" lon="-1.70198">
        <ele>62</ele>
        <time>2011-12-04T11:44:32.2Z</time>
      </trkpt>
      <trkpt lat="47.32224" lon="-1.70193">
        <ele>62</ele>
        <time>2011-12-04T11:44:37.5Z</time>
      </trkpt>
      <trkpt lat="47.32224" lon="-1.7019">
        <ele>62</ele>
        <time>2011-12-04T11:44:38.2Z</time>
      </trkpt>
      <trkpt lat="47.32224" lon="-1.70187">
        <ele>62</ele>
        <time>2011-12-04T11:44:46.5Z</time>
      </trkpt>
      <trkpt lat="47.32224" lon="-1.70182">
        <ele>63</ele>
        <time>2011-12-04T11:44:55.2Z</time>
      </trkpt>
      <trkpt lat="47.32223" lon="-1.7018">
        <ele>64</ele>
        <time>2011-12-04T11:44:56.6Z</time>
      </trkpt>
      <trkpt lat="47.32221" lon="-1.7018">
        <ele>64</ele>
        <time>2011-12-04T11:44:57.4Z</time>
      </trkpt>
      <trkpt lat="47.32218" lon="-1.70179">
        <ele>64</ele>
        <time>2011-12-04T11:45:03.3Z</time>
      </trkpt>
      <trkpt lat="47.3221" lon="-1.70183">
        <ele>64</ele>
        <time>2011-12-04T11:45:04.7Z</time>
      </trkpt>
      <trkpt lat="47.32208" lon="-1.70184">
        <ele>64</ele>
        <time>2011-12-04T11:45:05.4Z</time>
      </trkpt>
      <trkpt lat="47.32203" lon="-1.70186">
        <ele>64</ele>
        <time>2011-12-04T11:45:10.7Z</time>
      </trkpt>
      <trkpt lat="47.3219" lon="-1.70195">
        <ele>64</ele>
        <time>2011-12-04T11:45:11.2Z</time>
      </trkpt>
      <trkpt lat="47.32187" lon="-1.70199">
        <ele>64</ele>
        <time>2011-12-04T11:45:12.6Z</time>
      </trkpt>
      <trkpt lat="47.32183" lon="-1.70202">
        <ele>64</ele>
        <time>2011-12-04T11:45:13.2Z</time>
      </trkpt>
      <trkpt lat="47.32176" lon="-1.70209">
        <ele>64</ele>
        <time>2011-12-04T11:45:18.4Z</time>
      </trkpt>
      <trkpt lat="47.32159" lon="-1.70221">
        <ele>64</ele>
        <time>2011-12-04T11:45:19.1Z</time>
      </trkpt>
      <trkpt lat="47.32154" lon="-1.70224">
        <ele>63</ele>
        <time>2011-12-04T11:45:20.2Z</time>
      </trkpt>
      <trkpt lat="47.32146" lon="-1.7023">
        <ele>63</ele>
        <time>2011-12-04T11:45:25.5Z</time>
      </trkpt>
      <trkpt lat="47.3213" lon="-1.70243">
        <ele>63</ele>
        <time>2011-12-04T11:45:26.2Z</time>
      </trkpt>
      <trkpt lat="47.32127" lon="-1.70245">
        <ele>63</ele>
        <time>2011-12-04T11:45:27.2Z</time>
      </trkpt>
      <trkpt lat="47.3212" lon="-1.70252">
        <ele>63</ele>
        <time>2011-12-04T11:45:32.5Z</time>
      </trkpt>
      <trkpt lat="47.32107" lon="-1.7027">
        <ele>63</ele>
        <time>2011-12-04T11:45:33.2Z</time>
      </trkpt>
      <trkpt lat="47.32104" lon="-1.70273">
        <ele>63</ele>
        <time>2011-12-04T11:45:34.5Z</time>
      </trkpt>
      <trkpt lat="47.32098" lon="-1.7028">
        <ele>63</ele>
        <time>2011-12-04T11:45:40.1Z</time>
      </trkpt>
      <trkpt lat="47.32085" lon="-1.70293">
        <ele>63</ele>
        <time>2011-12-04T11:45:40.2Z</time>
      </trkpt>
      <trkpt lat="47.32081" lon="-1.70297">
        <ele>63</ele>
        <time>2011-12-04T11:45:41.2Z</time>
      </trkpt>
      <trkpt lat="47.32061" lon="-1.70318">
        <ele>63</ele>
        <time>2011-12-04T11:45:47.5Z</time>
      </trkpt>
      <trkpt lat="47.32057" lon="-1.70323">
        <ele>63</ele>
        <time>2011-12-04T11:45:48.2Z</time>
      </trkpt>
      <trkpt lat="47.32049" lon="-1.70331">
        <ele>63</ele>
        <time>2011-12-04T11:45:52.8Z</time>
      </trkpt>
      <trkpt lat="47.32038" lon="-1.70343">
        <ele>63</ele>
        <time>2011-12-04T11:45:53.2Z</time>
      </trkpt>
      <trkpt lat="47.32035" lon="-1.70347">
        <ele>63</ele>
        <time>2011-12-04T11:45:54.2Z</time>
      </trkpt>
      <trkpt lat="47.32029" lon="-1.70354">
        <ele>63</ele>
        <time>2011-12-04T11:45:58.5Z</time>
      </trkpt>
      <trkpt lat="47.32019" lon="-1.70365">
        <ele>63</ele>
        <time>2011-12-04T11:45:59.2Z</time>
      </trkpt>
      <trkpt lat="47.32016" lon="-1.70369">
        <ele>63</ele>
        <time>2011-12-04T11:46:00.2Z</time>
      </trkpt>
      <trkpt lat="47.32004" lon="-1.70383">
        <ele>63</ele>
        <time>2011-12-04T11:46:04.2Z</time>
      </trkpt>
      <trkpt lat="47.32001" lon="-1.70387">
        <ele>63</ele>
        <time>2011-12-04T11:46:05.2Z</time>
      </trkpt>
      <trkpt lat="47.31997" lon="-1.7039">
        <ele>63</ele>
        <time>2011-12-04T11:46:06.2Z</time>
      </trkpt>
      <trkpt lat="47.31984" lon="-1.70404">
        <ele>63</ele>
        <time>2011-12-04T11:46:10.2Z</time>
      </trkpt>
      <trkpt lat="47.3198" lon="-1.70408">
        <ele>63</ele>
        <time>2011-12-04T11:46:11.2Z</time>
      </trkpt>
      <trkpt lat="47.31974" lon="-1.70414">
        <ele>63</ele>
        <time>2011-12-04T11:46:15.8Z</time>
      </trkpt>
      <trkpt lat="47.31965" lon="-1.70424">
        <ele>63</ele>
        <time>2011-12-04T11:46:16.2Z</time>
      </trkpt>
      <trkpt lat="47.31962" lon="-1.70428">
        <ele>64</ele>
        <time>2011-12-04T11:46:17.2Z</time>
      </trkpt>
      <trkpt lat="47.31956" lon="-1.70435">
        <ele>64</ele>
        <time>2011-12-04T11:46:21.5Z</time>
      </trkpt>
      <trkpt lat="47.31946" lon="-1.70446">
        <ele>64</ele>
        <time>2011-12-04T11:46:22.1Z</time>
      </trkpt>
      <trkpt lat="47.31943" lon="-1.70449">
        <ele>65</ele>
        <time>2011-12-04T11:46:23.2Z</time>
      </trkpt>
      <trkpt lat="47.31933" lon="-1.70461">
        <ele>65</ele>
        <time>2011-12-04T11:46:27.3Z</time>
      </trkpt>
      <trkpt lat="47.31931" lon="-1.70463">
        <ele>65</ele>
        <time>2011-12-04T11:46:28.1Z</time>
      </trkpt>
      <trkpt lat="47.31928" lon="-1.70465">
        <ele>65</ele>
        <time>2011-12-04T11:46:29.2Z</time>
      </trkpt>
      <trkpt lat="47.31917" lon="-1.70479">
        <ele>65</ele>
        <time>2011-12-04T11:46:33.2Z</time>
      </trkpt>
      <trkpt lat="47.31914" lon="-1.70482">
        <ele>65</ele>
        <time>2011-12-04T11:46:34.1Z</time>
      </trkpt>
      <trkpt lat="47.31908" lon="-1.70488">
        <ele>65</ele>
        <time>2011-12-04T11:46:38.8Z</time>
      </trkpt>
      <trkpt lat="47.31899" lon="-1.70497">
        <ele>65</ele>
        <time>2011-12-04T11:46:39.2Z</time>
      </trkpt>
      <trkpt lat="47.31896" lon="-1.70501">
        <ele>65</ele>
        <time>2011-12-04T11:46:40.2Z</time>
      </trkpt>
      <trkpt lat="47.31891" lon="-1.70507">
        <ele>65</ele>
        <time>2011-12-04T11:46:44.5Z</time>
      </trkpt>
      <trkpt lat="47.31882" lon="-1.70516">
        <ele>65</ele>
        <time>2011-12-04T11:46:45.2Z</time>
      </trkpt>
      <trkpt lat="47.31878" lon="-1.7052">
        <ele>65</ele>
        <time>2011-12-04T11:46:46.1Z</time>
      </trkpt>
      <trkpt lat="47.31873" lon="-1.70527">
        <ele>65</ele>
        <time>2011-12-04T11:46:50.3Z</time>
      </trkpt>
      <trkpt lat="47.31866" lon="-1.70535">
        <ele>65</ele>
        <time>2011-12-04T11:46:51.1Z</time>
      </trkpt>
      <trkpt lat="47.31863" lon="-1.70537">
        <ele>65</ele>
        <time>2011-12-04T11:46:52.2Z</time>
      </trkpt>
      <trkpt lat="47.31853" lon="-1.70548">
        <ele>65</ele>
        <time>2011-12-04T11:46:56.2Z</time>
      </trkpt>
      <trkpt lat="47.3185" lon="-1.70551">
        <ele>65</ele>
        <time>2011-12-04T11:46:57.1Z</time>
      </trkpt>
      <trkpt lat="47.31845" lon="-1.70556">
        <ele>65</ele>
        <time>2011-12-04T11:47:01.9Z</time>
      </trkpt>
      <trkpt lat="47.31837" lon="-1.70566">
        <ele>65</ele>
        <time>2011-12-04T11:47:02.1Z</time>
      </trkpt>
      <trkpt lat="47.31834" lon="-1.70569">
        <ele>65</ele>
        <time>2011-12-04T11:47:03.1Z</time>
      </trkpt>
      <trkpt lat="47.31828" lon="-1.70575">
        <ele>65</ele>
        <time>2011-12-04T11:47:07.6Z</time>
      </trkpt>
      <trkpt lat="47.31819" lon="-1.70585">
        <ele>66</ele>
        <time>2011-12-04T11:47:08.2Z</time>
      </trkpt>
      <trkpt lat="47.31817" lon="-1.70587">
        <ele>66</ele>
        <time>2011-12-04T11:47:09.1Z</time>
      </trkpt>
      <trkpt lat="47.31812" lon="-1.70592">
        <ele>66</ele>
        <time>2011-12-04T11:47:13.4Z</time>
      </trkpt>
      <trkpt lat="47.31805" lon="-1.706">
        <ele>66</ele>
        <time>2011-12-04T11:47:14.1Z</time>
      </trkpt>
      <trkpt lat="47.31803" lon="-1.70602">
        <ele>67</ele>
        <time>2011-12-04T11:47:15.1Z</time>
      </trkpt>
      <trkpt lat="47.31796" lon="-1.70611">
        <ele>67</ele>
        <time>2011-12-04T11:47:19.2Z</time>
      </trkpt>
      <trkpt lat="47.31794" lon="-1.70612">
        <ele>67</ele>
        <time>2011-12-04T11:47:20.6Z</time>
      </trkpt>
      <trkpt lat="47.31791" lon="-1.70612">
        <ele>67</ele>
        <time>2011-12-04T11:47:21.6Z</time>
      </trkpt>
      <trkpt lat="47.31788" lon="-1.7061">
        <ele>67</ele>
        <time>2011-12-04T11:47:22.3Z</time>
      </trkpt>
      <trkpt lat="47.31786" lon="-1.70606">
        <ele>68</ele>
        <time>2011-12-04T11:47:23.3Z</time>
      </trkpt>
      <trkpt lat="47.31783" lon="-1.70598">
        <ele>68</ele>
        <time>2011-12-04T11:47:27.9Z</time>
      </trkpt>
      <trkpt lat="47.31778" lon="-1.70585">
        <ele>68</ele>
        <time>2011-12-04T11:47:28.1Z</time>
      </trkpt>
      <trkpt lat="47.31776" lon="-1.70581">
        <ele>68</ele>
        <time>2011-12-04T11:47:29.1Z</time>
      </trkpt>
      <trkpt lat="47.31768" lon="-1.70564">
        <ele>68</ele>
        <time>2011-12-04T11:47:33.2Z</time>
      </trkpt>
      <trkpt lat="47.31766" lon="-1.70559">
        <ele>68</ele>
        <time>2011-12-04T11:47:34.1Z</time>
      </trkpt>
      <trkpt lat="47.31762" lon="-1.70549">
        <ele>68</ele>
        <time>2011-12-04T11:47:38.9Z</time>
      </trkpt>
      <trkpt lat="47.31755" lon="-1.70533">
        <ele>68</ele>
        <time>2011-12-04T11:47:39.1Z</time>
      </trkpt>
      <trkpt lat="47.31754" lon="-1.70528">
        <ele>68</ele>
        <time>2011-12-04T11:47:40.1Z</time>
      </trkpt>
      <trkpt lat="47.3175" lon="-1.70517">
        <ele>68</ele>
        <time>2011-12-04T11:47:44.6Z</time>
      </trkpt>
      <trkpt lat="47.31746" lon="-1.705">
        <ele>68</ele>
        <time>2011-12-04T11:47:45.1Z</time>
      </trkpt>
      <trkpt lat="47.31744" lon="-1.70494">
        <ele>68</ele>
        <time>2011-12-04T11:47:46.1Z</time>
      </trkpt>
      <trkpt lat="47.31741" lon="-1.70483">
        <ele>68</ele>
        <time>2011-12-04T11:47:50.3Z</time>
      </trkpt>
      <trkpt lat="47.31738" lon="-1.70469">
        <ele>68</ele>
        <time>2011-12-04T11:47:51.1Z</time>
      </trkpt>
      <trkpt lat="47.31736" lon="-1.70465">
        <ele>68</ele>
        <time>2011-12-04T11:47:52.1Z</time>
      </trkpt>
      <trkpt lat="47.3173" lon="-1.70445">
        <ele>68</ele>
        <time>2011-12-04T11:47:56.2Z</time>
      </trkpt>
      <trkpt lat="47.31729" lon="-1.7044">
        <ele>68</ele>
        <time>2011-12-04T11:47:57.1Z</time>
      </trkpt>
      <trkpt lat="47.31726" lon="-1.70428">
        <ele>68</ele>
        <time>2011-12-04T11:48:01.9Z</time>
      </trkpt>
      <trkpt lat="47.31721" lon="-1.70411">
        <ele>68</ele>
        <time>2011-12-04T11:48:02.1Z</time>
      </trkpt>
      <trkpt lat="47.3172" lon="-1.70406">
        <ele>68</ele>
        <time>2011-12-04T11:48:03.1Z</time>
      </trkpt>
      <trkpt lat="47.31716" lon="-1.70396">
        <ele>68</ele>
        <time>2011-12-04T11:48:07.6Z</time>
      </trkpt>
      <trkpt lat="47.31713" lon="-1.70377">
        <ele>68</ele>
        <time>2011-12-04T11:48:08.1Z</time>
      </trkpt>
      <trkpt lat="47.31712" lon="-1.7037">
        <ele>68</ele>
        <time>2011-12-04T11:48:09.1Z</time>
      </trkpt>
      <trkpt lat="47.3171" lon="-1.70357">
        <ele>68</ele>
        <time>2011-12-04T11:48:13.3Z</time>
      </trkpt>
      <trkpt lat="47.31706" lon="-1.70341">
        <ele>68</ele>
        <time>2011-12-04T11:48:14.1Z</time>
      </trkpt>
      <trkpt lat="47.31704" lon="-1.70336">
        <ele>68</ele>
        <time>2011-12-04T11:48:15.1Z</time>
      </trkpt>
      <trkpt lat="47.31699" lon="-1.70314">
        <ele>68</ele>
        <time>2011-12-04T11:48:19.2Z</time>
      </trkpt>
      <trkpt lat="47.31697" lon="-1.70308">
        <ele>68</ele>
        <time>2011-12-04T11:48:20.2Z</time>
      </trkpt>
      <trkpt lat="47.31694" lon="-1.70298">
        <ele>68</ele>
        <time>2011-12-04T11:48:24.9Z</time>
      </trkpt>
      <trkpt lat="47.3169" lon="-1.70286">
        <ele>68</ele>
        <time>2011-12-04T11:48:25.1Z</time>
      </trkpt>
      <trkpt lat="47.3169" lon="-1.70283">
        <ele>68</ele>
        <time>2011-12-04T11:48:26.1Z</time>
      </trkpt>
      <trkpt lat="47.31686" lon="-1.7028">
        <ele>68</ele>
        <time>2011-12-04T11:48:30.6Z</time>
      </trkpt>
      <trkpt lat="47.31682" lon="-1.70284">
        <ele>68</ele>
        <time>2011-12-04T11:48:31.6Z</time>
      </trkpt>
      <trkpt lat="47.31681" lon="-1.70288">
        <ele>68</ele>
        <time>2011-12-04T11:48:32.4Z</time>
      </trkpt>
      <trkpt lat="47.3168" lon="-1.70292">
        <ele>68</ele>
        <time>2011-12-04T11:48:33.4Z</time>
      </trkpt>
      <trkpt lat="47.31678" lon="-1.70302">
        <ele>68</ele>
        <time>2011-12-04T11:48:37.3Z</time>
      </trkpt>
      <trkpt lat="47.31675" lon="-1.70318">
        <ele>68</ele>
        <time>2011-12-04T11:48:38.1Z</time>
      </trkpt>
      <trkpt lat="47.31674" lon="-1.70323">
        <ele>68</ele>
        <time>2011-12-04T11:48:39.1Z</time>
      </trkpt>
      <trkpt lat="47.31673" lon="-1.70331">
        <ele>68</ele>
        <time>2011-12-04T11:48:42.4Z</time>
      </trkpt>
      <trkpt lat="47.3167" lon="-1.70347">
        <ele>68</ele>
        <time>2011-12-04T11:48:46.4Z</time>
      </trkpt>
      <trkpt lat="47.31667" lon="-1.70364">
        <ele>69</ele>
        <time>2011-12-04T11:48:47.1Z</time>
      </trkpt>
      <trkpt lat="47.31666" lon="-1.70369">
        <ele>70</ele>
        <time>2011-12-04T11:48:48.2Z</time>
      </trkpt>
      <trkpt lat="47.31662" lon="-1.7039">
        <ele>71</ele>
        <time>2011-12-04T11:48:52.2Z</time>
      </trkpt>
      <trkpt lat="47.31661" lon="-1.70396">
        <ele>72</ele>
        <time>2011-12-04T11:48:53.2Z</time>
      </trkpt>
      <trkpt lat="47.3166" lon="-1.70402">
        <ele>72</ele>
        <time>2011-12-04T11:48:54.1Z</time>
      </trkpt>
      <trkpt lat="47.31656" lon="-1.70428">
        <ele>73</ele>
        <time>2011-12-04T11:48:58.2Z</time>
      </trkpt>
      <trkpt lat="47.31654" lon="-1.70435">
        <ele>73</ele>
        <time>2011-12-04T11:48:59.1Z</time>
      </trkpt>
      <trkpt lat="47.31653" lon="-1.70448">
        <ele>73</ele>
        <time>2011-12-04T11:49:03.9Z</time>
      </trkpt>
      <trkpt lat="47.31649" lon="-1.70467">
        <ele>74</ele>
        <time>2011-12-04T11:49:04.1Z</time>
      </trkpt>
      <trkpt lat="47.31648" lon="-1.70474">
        <ele>74</ele>
        <time>2011-12-04T11:49:05.1Z</time>
      </trkpt>
      <trkpt lat="47.31646" lon="-1.70487">
        <ele>74</ele>
        <time>2011-12-04T11:49:09.7Z</time>
      </trkpt>
      <trkpt lat="47.31642" lon="-1.70508">
        <ele>74</ele>
        <time>2011-12-04T11:49:10.1Z</time>
      </trkpt>
      <trkpt lat="47.31641" lon="-1.70515">
        <ele>74</ele>
        <time>2011-12-04T11:49:11.1Z</time>
      </trkpt>
      <trkpt lat="47.3164" lon="-1.70528">
        <ele>75</ele>
        <time>2011-12-04T11:49:15.4Z</time>
      </trkpt>
      <trkpt lat="47.31636" lon="-1.70548">
        <ele>75</ele>
        <time>2011-12-04T11:49:16.1Z</time>
      </trkpt>
      <trkpt lat="47.31635" lon="-1.70555">
        <ele>75</ele>
        <time>2011-12-04T11:49:17.1Z</time>
      </trkpt>
      <trkpt lat="47.31631" lon="-1.70583">
        <ele>75</ele>
        <time>2011-12-04T11:49:21.2Z</time>
      </trkpt>
      <trkpt lat="47.3163" lon="-1.7059">
        <ele>75</ele>
        <time>2011-12-04T11:49:22.1Z</time>
      </trkpt>
      <trkpt lat="47.31629" lon="-1.70598">
        <ele>75</ele>
        <time>2011-12-04T11:49:23.1Z</time>
      </trkpt>
      <trkpt lat="47.31625" lon="-1.70627">
        <ele>75</ele>
        <time>2011-12-04T11:49:27.2Z</time>
      </trkpt>
      <trkpt lat="47.31624" lon="-1.70634">
        <ele>75</ele>
        <time>2011-12-04T11:49:28.1Z</time>
      </trkpt>
      <trkpt lat="47.31621" lon="-1.70648">
        <ele>75</ele>
        <time>2011-12-04T11:49:32.9Z</time>
      </trkpt>
      <trkpt lat="47.31618" lon="-1.70671">
        <ele>75</ele>
        <time>2011-12-04T11:49:33.1Z</time>
      </trkpt>
      <trkpt lat="47.31617" lon="-1.70678">
        <ele>75</ele>
        <time>2011-12-04T11:49:34.1Z</time>
      </trkpt>
      <trkpt lat="47.31614" lon="-1.70693">
        <ele>75</ele>
        <time>2011-12-04T11:49:38.7Z</time>
      </trkpt>
      <trkpt lat="47.31611" lon="-1.70715">
        <ele>75</ele>
        <time>2011-12-04T11:49:39.1Z</time>
      </trkpt>
      <trkpt lat="47.3161" lon="-1.70723">
        <ele>75</ele>
        <time>2011-12-04T11:49:40.1Z</time>
      </trkpt>
      <trkpt lat="47.31608" lon="-1.70738">
        <ele>75</ele>
        <time>2011-12-04T11:49:44.5Z</time>
      </trkpt>
      <trkpt lat="47.31605" lon="-1.7076">
        <ele>75</ele>
        <time>2011-12-04T11:49:45.1Z</time>
      </trkpt>
      <trkpt lat="47.31603" lon="-1.70767">
        <ele>75</ele>
        <time>2011-12-04T11:49:46.1Z</time>
      </trkpt>
      <trkpt lat="47.31601" lon="-1.70782">
        <ele>75</ele>
        <time>2011-12-04T11:49:50.3Z</time>
      </trkpt>
      <trkpt lat="47.31598" lon="-1.70803">
        <ele>75</ele>
        <time>2011-12-04T11:49:51.1Z</time>
      </trkpt>
      <trkpt lat="47.31597" lon="-1.70811">
        <ele>75</ele>
        <time>2011-12-04T11:49:52.1Z</time>
      </trkpt>
      <trkpt lat="47.31593" lon="-1.70839">
        <ele>75</ele>
        <time>2011-12-04T11:49:56.2Z</time>
      </trkpt>
      <trkpt lat="47.31592" lon="-1.70846">
        <ele>75</ele>
        <time>2011-12-04T11:49:57.1Z</time>
      </trkpt>
      <trkpt lat="47.31591" lon="-1.70852">
        <ele>75</ele>
        <time>2011-12-04T11:49:58.1Z</time>
      </trkpt>
      <trkpt lat="47.31588" lon="-1.70876">
        <ele>75</ele>
        <time>2011-12-04T11:50:02.2Z</time>
      </trkpt>
      <trkpt lat="47.31587" lon="-1.70881">
        <ele>75</ele>
        <time>2011-12-04T11:50:03.1Z</time>
      </trkpt>
      <trkpt lat="47.31586" lon="-1.70886">
        <ele>75</ele>
        <time>2011-12-04T11:50:04.1Z</time>
      </trkpt>
      <trkpt lat="47.31584" lon="-1.70906">
        <ele>75</ele>
        <time>2011-12-04T11:50:08.2Z</time>
      </trkpt>
      <trkpt lat="47.31583" lon="-1.70912">
        <ele>75</ele>
        <time>2011-12-04T11:50:09.1Z</time>
      </trkpt>
      <trkpt lat="47.31582" lon="-1.70918">
        <ele>75</ele>
        <time>2011-12-04T11:50:10.1Z</time>
      </trkpt>
      <trkpt lat="47.31577" lon="-1.70943">
        <ele>74</ele>
        <time>2011-12-04T11:50:14.2Z</time>
      </trkpt>
      <trkpt lat="47.31575" lon="-1.7095">
        <ele>74</ele>
        <time>2011-12-04T11:50:15.1Z</time>
      </trkpt>
      <trkpt lat="47.31574" lon="-1.70957">
        <ele>74</ele>
        <time>2011-12-04T11:50:16.1Z</time>
      </trkpt>
      <trkpt lat="47.3157" lon="-1.70985">
        <ele>74</ele>
        <time>2011-12-04T11:50:20.2Z</time>
      </trkpt>
      <trkpt lat="47.31568" lon="-1.70993">
        <ele>73</ele>
        <time>2011-12-04T11:50:21.1Z</time>
      </trkpt>
      <trkpt lat="47.31567" lon="-1.71">
        <ele>72</ele>
        <time>2011-12-04T11:50:22.1Z</time>
      </trkpt>
      <trkpt lat="47.31563" lon="-1.71028">
        <ele>72</ele>
        <time>2011-12-04T11:50:26.2Z</time>
      </trkpt>
      <trkpt lat="47.31562" lon="-1.71036">
        <ele>71</ele>
        <time>2011-12-04T11:50:27.1Z</time>
      </trkpt>
      <trkpt lat="47.31561" lon="-1.71043">
        <ele>71</ele>
        <time>2011-12-04T11:50:28.1Z</time>
      </trkpt>
      <trkpt lat="47.31556" lon="-1.71071">
        <ele>71</ele>
        <time>2011-12-04T11:50:32.2Z</time>
      </trkpt>
      <trkpt lat="47.31555" lon="-1.71078">
        <ele>71</ele>
        <time>2011-12-04T11:50:33.1Z</time>
      </trkpt>
      <trkpt lat="47.31554" lon="-1.71085">
        <ele>71</ele>
        <time>2011-12-04T11:50:34.1Z</time>
      </trkpt>
      <trkpt lat="47.31549" lon="-1.71116">
        <ele>71</ele>
        <time>2011-12-04T11:50:38.2Z</time>
      </trkpt>
      <trkpt lat="47.31548" lon="-1.71123">
        <ele>71</ele>
        <time>2011-12-04T11:50:39.1Z</time>
      </trkpt>
      <trkpt lat="47.31545" lon="-1.71131">
        <ele>71</ele>
        <time>2011-12-04T11:50:40.1Z</time>
      </trkpt>
      <trkpt lat="47.3153" lon="-1.71149">
        <ele>71</ele>
        <time>2011-12-04T11:50:44.2Z</time>
      </trkpt>
      <trkpt lat="47.31524" lon="-1.71151">
        <ele>71</ele>
        <time>2011-12-04T11:50:45.2Z</time>
      </trkpt>
      <trkpt lat="47.31519" lon="-1.71153">
        <ele>71</ele>
        <time>2011-12-04T11:50:46.2Z</time>
      </trkpt>
      <trkpt lat="47.31509" lon="-1.71158">
        <ele>71</ele>
        <time>2011-12-04T11:50:50.2Z</time>
      </trkpt>
      <trkpt lat="47.31493" lon="-1.71167">
        <ele>71</ele>
        <time>2011-12-04T11:50:51.1Z</time>
      </trkpt>
      <trkpt lat="47.31488" lon="-1.71169">
        <ele>71</ele>
        <time>2011-12-04T11:50:52.1Z</time>
      </trkpt>
      <trkpt lat="47.31467" lon="-1.7118">
        <ele>71</ele>
        <time>2011-12-04T11:50:56.2Z</time>
      </trkpt>
      <trkpt lat="47.31462" lon="-1.71184">
        <ele>71</ele>
        <time>2011-12-04T11:50:57.1Z</time>
      </trkpt>
      <trkpt lat="47.31456" lon="-1.71186">
        <ele>71</ele>
        <time>2011-12-04T11:50:58.1Z</time>
      </trkpt>
      <trkpt lat="47.31433" lon="-1.71195">
        <ele>70</ele>
        <time>2011-12-04T11:51:02.2Z</time>
      </trkpt>
      <trkpt lat="47.31428" lon="-1.71199">
        <ele>70</ele>
        <time>2011-12-04T11:51:03.1Z</time>
      </trkpt>
      <trkpt lat="47.31422" lon="-1.71203">
        <ele>69</ele>
        <time>2011-12-04T11:51:04.1Z</time>
      </trkpt>
      <trkpt lat="47.31402" lon="-1.71214">
        <ele>69</ele>
        <time>2011-12-04T11:51:08.2Z</time>
      </trkpt>
      <trkpt lat="47.31397" lon="-1.71217">
        <ele>68</ele>
        <time>2011-12-04T11:51:09.1Z</time>
      </trkpt>
      <trkpt lat="47.31392" lon="-1.71219">
        <ele>68</ele>
        <time>2011-12-04T11:51:10.1Z</time>
      </trkpt>
      <trkpt lat="47.3137" lon="-1.71231">
        <ele>67</ele>
        <time>2011-12-04T11:51:14.2Z</time>
      </trkpt>
      <trkpt lat="47.31364" lon="-1.71233">
        <ele>67</ele>
        <time>2011-12-04T11:51:15.1Z</time>
      </trkpt>
      <trkpt lat="47.31358" lon="-1.71235">
        <ele>67</ele>
        <time>2011-12-04T11:51:16.1Z</time>
      </trkpt>
      <trkpt lat="47.31335" lon="-1.71247">
        <ele>67</ele>
        <time>2011-12-04T11:51:20.2Z</time>
      </trkpt>
      <trkpt lat="47.31329" lon="-1.7125">
        <ele>67</ele>
        <time>2011-12-04T11:51:21.1Z</time>
      </trkpt>
      <trkpt lat="47.31323" lon="-1.71253">
        <ele>67</ele>
        <time>2011-12-04T11:51:22.1Z</time>
      </trkpt>
      <trkpt lat="47.31301" lon="-1.71263">
        <ele>67</ele>
        <time>2011-12-04T11:51:26.2Z</time>
      </trkpt>
      <trkpt lat="47.31295" lon="-1.71266">
        <ele>67</ele>
        <time>2011-12-04T11:51:27.1Z</time>
      </trkpt>
      <trkpt lat="47.3129" lon="-1.71269">
        <ele>67</ele>
        <time>2011-12-04T11:51:28.1Z</time>
      </trkpt>
      <trkpt lat="47.31278" lon="-1.71275">
        <ele>67</ele>
        <time>2011-12-04T11:51:32.2Z</time>
      </trkpt>
      <trkpt lat="47.31261" lon="-1.71282">
        <ele>67</ele>
        <time>2011-12-04T11:51:33.1Z</time>
      </trkpt>
      <trkpt lat="47.31255" lon="-1.71285">
        <ele>67</ele>
        <time>2011-12-04T11:51:34.1Z</time>
      </trkpt>
      <trkpt lat="47.31228" lon="-1.71293">
        <ele>67</ele>
        <time>2011-12-04T11:51:38.2Z</time>
      </trkpt>
      <trkpt lat="47.31221" lon="-1.71294">
        <ele>67</ele>
        <time>2011-12-04T11:51:39.1Z</time>
      </trkpt>
      <trkpt lat="47.31213" lon="-1.71294">
        <ele>66</ele>
        <time>2011-12-04T11:51:40.1Z</time>
      </trkpt>
      <trkpt lat="47.31184" lon="-1.71291">
        <ele>66</ele>
        <time>2011-12-04T11:51:44.2Z</time>
      </trkpt>
      <trkpt lat="47.31178" lon="-1.71285">
        <ele>65</ele>
        <time>2011-12-04T11:51:45.6Z</time>
      </trkpt>
      <trkpt lat="47.31173" lon="-1.71276">
        <ele>65</ele>
        <time>2011-12-04T11:51:46.6Z</time>
      </trkpt>
      <trkpt lat="47.31168" lon="-1.71268">
        <ele>64</ele>
        <time>2011-12-04T11:51:47.2Z</time>
      </trkpt>
      <trkpt lat="47.31155" lon="-1.7126">
        <ele>64</ele>
        <time>2011-12-04T11:51:51.2Z</time>
      </trkpt>
      <trkpt lat="47.31133" lon="-1.71265">
        <ele>63</ele>
        <time>2011-12-04T11:51:52.2Z</time>
      </trkpt>
      <trkpt lat="47.31126" lon="-1.71268">
        <ele>63</ele>
        <time>2011-12-04T11:51:53.6Z</time>
      </trkpt>
      <trkpt lat="47.31118" lon="-1.7127">
        <ele>63</ele>
        <time>2011-12-04T11:51:54.6Z</time>
      </trkpt>
      <trkpt lat="47.31103" lon="-1.71271">
        <ele>63</ele>
        <time>2011-12-04T11:51:58.6Z</time>
      </trkpt>
      <trkpt lat="47.31085" lon="-1.71273">
        <ele>62</ele>
        <time>2011-12-04T11:51:59.1Z</time>
      </trkpt>
      <trkpt lat="47.31079" lon="-1.71275">
        <ele>62</ele>
        <time>2011-12-04T11:52:00.1Z</time>
      </trkpt>
      <trkpt lat="47.31068" lon="-1.71276">
        <ele>62</ele>
        <time>2011-12-04T11:52:04.5Z</time>
      </trkpt>
      <trkpt lat="47.31052" lon="-1.7128">
        <ele>62</ele>
        <time>2011-12-04T11:52:05.1Z</time>
      </trkpt>
      <trkpt lat="47.31046" lon="-1.71281">
        <ele>62</ele>
        <time>2011-12-04T11:52:06.1Z</time>
      </trkpt>
      <trkpt lat="47.31035" lon="-1.71284">
        <ele>62</ele>
        <time>2011-12-04T11:52:10.3Z</time>
      </trkpt>
      <trkpt lat="47.31019" lon="-1.71288">
        <ele>62</ele>
        <time>2011-12-04T11:52:11.1Z</time>
      </trkpt>
      <trkpt lat="47.31014" lon="-1.71289">
        <ele>62</ele>
        <time>2011-12-04T11:52:12.1Z</time>
      </trkpt>
      <trkpt lat="47.30993" lon="-1.71294">
        <ele>62</ele>
        <time>2011-12-04T11:52:16.2Z</time>
      </trkpt>
      <trkpt lat="47.30988" lon="-1.71296">
        <ele>62</ele>
        <time>2011-12-04T11:52:17.1Z</time>
      </trkpt>
      <trkpt lat="47.30983" lon="-1.71297">
        <ele>62</ele>
        <time>2011-12-04T11:52:18.1Z</time>
      </trkpt>
      <trkpt lat="47.30973" lon="-1.71299">
        <ele>62</ele>
        <time>2011-12-04T11:52:22.2Z</time>
      </trkpt>
      <trkpt lat="47.30958" lon="-1.71303">
        <ele>62</ele>
        <time>2011-12-04T11:52:23.1Z</time>
      </trkpt>
      <trkpt lat="47.30953" lon="-1.71304">
        <ele>62</ele>
        <time>2011-12-04T11:52:24.1Z</time>
      </trkpt>
      <trkpt lat="47.30944" lon="-1.71306">
        <ele>62</ele>
        <time>2011-12-04T11:52:28.2Z</time>
      </trkpt>
      <trkpt lat="47.3093" lon="-1.71309">
        <ele>62</ele>
        <time>2011-12-04T11:52:29.1Z</time>
      </trkpt>
      <trkpt lat="47.30926" lon="-1.7131">
        <ele>62</ele>
        <time>2011-12-04T11:52:30.1Z</time>
      </trkpt>
      <trkpt lat="47.30917" lon="-1.71313">
        <ele>62</ele>
        <time>2011-12-04T11:52:34.2Z</time>
      </trkpt>
      <trkpt lat="47.30903" lon="-1.71317">
        <ele>62</ele>
        <time>2011-12-04T11:52:35.1Z</time>
      </trkpt>
      <trkpt lat="47.30898" lon="-1.71318">
        <ele>62</ele>
        <time>2011-12-04T11:52:36.1Z</time>
      </trkpt>
      <trkpt lat="47.30889" lon="-1.7132">
        <ele>62</ele>
        <time>2011-12-04T11:52:40.2Z</time>
      </trkpt>
      <trkpt lat="47.30875" lon="-1.71324">
        <ele>62</ele>
        <time>2011-12-04T11:52:41.1Z</time>
      </trkpt>
      <trkpt lat="47.3087" lon="-1.71325">
        <ele>62</ele>
        <time>2011-12-04T11:52:42.1Z</time>
      </trkpt>
      <trkpt lat="47.30861" lon="-1.71328">
        <ele>62</ele>
        <time>2011-12-04T11:52:46.2Z</time>
      </trkpt>
      <trkpt lat="47.30849" lon="-1.71331">
        <ele>62</ele>
        <time>2011-12-04T11:52:47.1Z</time>
      </trkpt>
      <trkpt lat="47.30845" lon="-1.71331">
        <ele>62</ele>
        <time>2011-12-04T11:52:48.1Z</time>
      </trkpt>
      <trkpt lat="47.30836" lon="-1.71334">
        <ele>62</ele>
        <time>2011-12-04T11:52:52.2Z</time>
      </trkpt>
      <trkpt lat="47.30822" lon="-1.71337">
        <ele>62</ele>
        <time>2011-12-04T11:52:53.1Z</time>
      </trkpt>
      <trkpt lat="47.30817" lon="-1.71338">
        <ele>62</ele>
        <time>2011-12-04T11:52:54.1Z</time>
      </trkpt>
      <trkpt lat="47.30808" lon="-1.71341">
        <ele>62</ele>
        <time>2011-12-04T11:52:58.2Z</time>
      </trkpt>
      <trkpt lat="47.30794" lon="-1.71344">
        <ele>62</ele>
        <time>2011-12-04T11:52:59.1Z</time>
      </trkpt>
      <trkpt lat="47.30789" lon="-1.71345">
        <ele>62</ele>
        <time>2011-12-04T11:53:00.1Z</time>
      </trkpt>
      <trkpt lat="47.30778" lon="-1.71348">
        <ele>62</ele>
        <time>2011-12-04T11:53:04.2Z</time>
      </trkpt>
      <trkpt lat="47.30763" lon="-1.71351">
        <ele>62</ele>
        <time>2011-12-04T11:53:05.1Z</time>
      </trkpt>
      <trkpt lat="47.30758" lon="-1.71353">
        <ele>62</ele>
        <time>2011-12-04T11:53:06.1Z</time>
      </trkpt>
      <trkpt lat="47.30749" lon="-1.71355">
        <ele>62</ele>
        <time>2011-12-04T11:53:10.2Z</time>
      </trkpt>
      <trkpt lat="47.30735" lon="-1.71359">
        <ele>62</ele>
        <time>2011-12-04T11:53:11.1Z</time>
      </trkpt>
      <trkpt lat="47.3073" lon="-1.7136">
        <ele>62</ele>
        <time>2011-12-04T11:53:12.1Z</time>
      </trkpt>
      <trkpt lat="47.3072" lon="-1.71363">
        <ele>62</ele>
        <time>2011-12-04T11:53:16.2Z</time>
      </trkpt>
      <trkpt lat="47.30705" lon="-1.71366">
        <ele>62</ele>
        <time>2011-12-04T11:53:17.1Z</time>
      </trkpt>
      <trkpt lat="47.30701" lon="-1.71367">
        <ele>62</ele>
        <time>2011-12-04T11:53:18.1Z</time>
      </trkpt>
      <trkpt lat="47.30691" lon="-1.71368">
        <ele>62</ele>
        <time>2011-12-04T11:53:22.3Z</time>
      </trkpt>
      <trkpt lat="47.30676" lon="-1.71371">
        <ele>62</ele>
        <time>2011-12-04T11:53:23.1Z</time>
      </trkpt>
      <trkpt lat="47.3067" lon="-1.71373">
        <ele>62</ele>
        <time>2011-12-04T11:53:24.1Z</time>
      </trkpt>
      <trkpt lat="47.30659" lon="-1.71375">
        <ele>62</ele>
        <time>2011-12-04T11:53:28.3Z</time>
      </trkpt>
      <trkpt lat="47.30643" lon="-1.71379">
        <ele>62</ele>
        <time>2011-12-04T11:53:29.1Z</time>
      </trkpt>
      <trkpt lat="47.30638" lon="-1.7138">
        <ele>62</ele>
        <time>2011-12-04T11:53:30.1Z</time>
      </trkpt>
      <trkpt lat="47.30628" lon="-1.71381">
        <ele>62</ele>
        <time>2011-12-04T11:53:34.2Z</time>
      </trkpt>
      <trkpt lat="47.30614" lon="-1.71384">
        <ele>62</ele>
        <time>2011-12-04T11:53:35.1Z</time>
      </trkpt>
      <trkpt lat="47.3061" lon="-1.71385">
        <ele>62</ele>
        <time>2011-12-04T11:53:36.1Z</time>
      </trkpt>
      <trkpt lat="47.30601" lon="-1.71387">
        <ele>62</ele>
        <time>2011-12-04T11:53:40.3Z</time>
      </trkpt>
      <trkpt lat="47.30588" lon="-1.71391">
        <ele>62</ele>
        <time>2011-12-04T11:53:41.1Z</time>
      </trkpt>
      <trkpt lat="47.30584" lon="-1.71392">
        <ele>62</ele>
        <time>2011-12-04T11:53:42.1Z</time>
      </trkpt>
      <trkpt lat="47.30575" lon="-1.71394">
        <ele>62</ele>
        <time>2011-12-04T11:53:46.2Z</time>
      </trkpt>
      <trkpt lat="47.30562" lon="-1.71397">
        <ele>63</ele>
        <time>2011-12-04T11:53:47.1Z</time>
      </trkpt>
      <trkpt lat="47.30558" lon="-1.71398">
        <ele>64</ele>
        <time>2011-12-04T11:53:48.1Z</time>
      </trkpt>
      <trkpt lat="47.30548" lon="-1.714">
        <ele>64</ele>
        <time>2011-12-04T11:53:52.3Z</time>
      </trkpt>
      <trkpt lat="47.30535" lon="-1.71403">
        <ele>64</ele>
        <time>2011-12-04T11:53:53.1Z</time>
      </trkpt>
      <trkpt lat="47.30531" lon="-1.71404">
        <ele>64</ele>
        <time>2011-12-04T11:53:54.1Z</time>
      </trkpt>
      <trkpt lat="47.30527" lon="-1.71405">
        <ele>64</ele>
        <time>2011-12-04T11:53:58.4Z</time>
      </trkpt>
      <trkpt lat="47.3052" lon="-1.71403">
        <ele>64</ele>
        <time>2011-12-04T11:53:59.1Z</time>
      </trkpt>
      <trkpt lat="47.30518" lon="-1.714">
        <ele>64</ele>
        <time>2011-12-04T11:54:00.7Z</time>
      </trkpt>
      <trkpt lat="47.30516" lon="-1.71397">
        <ele>64</ele>
        <time>2011-12-04T11:54:01.3Z</time>
      </trkpt>
      <trkpt lat="47.30513" lon="-1.71389">
        <ele>64</ele>
        <time>2011-12-04T11:54:05.4Z</time>
      </trkpt>
      <trkpt lat="47.30506" lon="-1.71377">
        <ele>64</ele>
        <time>2011-12-04T11:54:06.1Z</time>
      </trkpt>
      <trkpt lat="47.30504" lon="-1.71372">
        <ele>64</ele>
        <time>2011-12-04T11:54:07.1Z</time>
      </trkpt>
      <trkpt lat="47.30499" lon="-1.71364">
        <ele>64</ele>
        <time>2011-12-04T11:54:11.3Z</time>
      </trkpt>
      <trkpt lat="47.30493" lon="-1.7135">
        <ele>64</ele>
        <time>2011-12-04T11:54:12.1Z</time>
      </trkpt>
      <trkpt lat="47.30491" lon="-1.71346">
        <ele>64</ele>
        <time>2011-12-04T11:54:13.1Z</time>
      </trkpt>
      <trkpt lat="47.30486" lon="-1.71338">
        <ele>64</ele>
        <time>2011-12-04T11:54:17.2Z</time>
      </trkpt>
      <trkpt lat="47.30479" lon="-1.71325">
        <ele>65</ele>
        <time>2011-12-04T11:54:18.1Z</time>
      </trkpt>
      <trkpt lat="47.30477" lon="-1.7132">
        <ele>65</ele>
        <time>2011-12-04T11:54:19.1Z</time>
      </trkpt>
      <trkpt lat="47.30473" lon="-1.71311">
        <ele>66</ele>
        <time>2011-12-04T11:54:23.3Z</time>
      </trkpt>
      <trkpt lat="47.30466" lon="-1.71298">
        <ele>66</ele>
        <time>2011-12-04T11:54:24.1Z</time>
      </trkpt>
      <trkpt lat="47.30464" lon="-1.71295">
        <ele>66</ele>
        <time>2011-12-04T11:54:25.1Z</time>
      </trkpt>
      <trkpt lat="47.30459" lon="-1.71287">
        <ele>67</ele>
        <time>2011-12-04T11:54:29.3Z</time>
      </trkpt>
      <trkpt lat="47.30453" lon="-1.71273">
        <ele>67</ele>
        <time>2011-12-04T11:54:30.1Z</time>
      </trkpt>
      <trkpt lat="47.30451" lon="-1.71267">
        <ele>67</ele>
        <time>2011-12-04T11:54:31.1Z</time>
      </trkpt>
      <trkpt lat="47.30446" lon="-1.71255">
        <ele>67</ele>
        <time>2011-12-04T11:54:35.3Z</time>
      </trkpt>
      <trkpt lat="47.30438" lon="-1.71236">
        <ele>67</ele>
        <time>2011-12-04T11:54:36.1Z</time>
      </trkpt>
      <trkpt lat="47.30435" lon="-1.7123">
        <ele>67</ele>
        <time>2011-12-04T11:54:37.1Z</time>
      </trkpt>
      <trkpt lat="47.30428" lon="-1.71217">
        <ele>67</ele>
        <time>2011-12-04T11:54:41.3Z</time>
      </trkpt>
      <trkpt lat="47.30419" lon="-1.712">
        <ele>68</ele>
        <time>2011-12-04T11:54:42.1Z</time>
      </trkpt>
      <trkpt lat="47.30416" lon="-1.71194">
        <ele>68</ele>
        <time>2011-12-04T11:54:43.1Z</time>
      </trkpt>
      <trkpt lat="47.30408" lon="-1.71184">
        <ele>68</ele>
        <time>2011-12-04T11:54:47.2Z</time>
      </trkpt>
      <trkpt lat="47.30401" lon="-1.71168">
        <ele>68</ele>
        <time>2011-12-04T11:54:48.1Z</time>
      </trkpt>
      <trkpt lat="47.30398" lon="-1.71163">
        <ele>68</ele>
        <time>2011-12-04T11:54:49.1Z</time>
      </trkpt>
      <trkpt lat="47.30393" lon="-1.71152">
        <ele>68</ele>
        <time>2011-12-04T11:54:53.3Z</time>
      </trkpt>
      <trkpt lat="47.30384" lon="-1.71137">
        <ele>68</ele>
        <time>2011-12-04T11:54:54.1Z</time>
      </trkpt>
      <trkpt lat="47.30381" lon="-1.71132">
        <ele>68</ele>
        <time>2011-12-04T11:54:55.1Z</time>
      </trkpt>
      <trkpt lat="47.30375" lon="-1.71122">
        <ele>68</ele>
        <time>2011-12-04T11:54:59.3Z</time>
      </trkpt>
      <trkpt lat="47.30366" lon="-1.71108">
        <ele>68</ele>
        <time>2011-12-04T11:55:00.1Z</time>
      </trkpt>
      <trkpt lat="47.30363" lon="-1.71104">
        <ele>68</ele>
        <time>2011-12-04T11:55:01.1Z</time>
      </trkpt>
      <trkpt lat="47.30359" lon="-1.71095">
        <ele>68</ele>
        <time>2011-12-04T11:55:05.3Z</time>
      </trkpt>
      <trkpt lat="47.30355" lon="-1.71087">
        <ele>68</ele>
        <time>2011-12-04T11:55:06.1Z</time>
      </trkpt>
      <trkpt lat="47.30353" lon="-1.71086">
        <ele>68</ele>
        <time>2011-12-04T11:55:07.5Z</time>
      </trkpt>
      <trkpt lat="47.30351" lon="-1.71086">
        <ele>68</ele>
        <time>2011-12-04T11:55:08.3Z</time>
      </trkpt>
      <trkpt lat="47.30346" lon="-1.71086">
        <ele>68</ele>
        <time>2011-12-04T11:55:13.2Z</time>
      </trkpt>
      <trkpt lat="47.30334" lon="-1.71082">
        <ele>68</ele>
        <time>2011-12-04T11:55:14.1Z</time>
      </trkpt>
      <trkpt lat="47.30332" lon="-1.71081">
        <ele>68</ele>
        <time>2011-12-04T11:55:15.1Z</time>
      </trkpt>
      <trkpt lat="47.30331" lon="-1.71078">
        <ele>68</ele>
        <time>2011-12-04T11:55:19.8Z</time>
      </trkpt>
      <trkpt lat="47.30331" lon="-1.71073">
        <ele>68</ele>
        <time>2011-12-04T11:55:20.4Z</time>
      </trkpt>
      <trkpt lat="47.3033" lon="-1.71071">
        <ele>68</ele>
        <time>2011-12-04T11:55:21.6Z</time>
      </trkpt>
      <trkpt lat="47.3033" lon="-1.71068">
        <ele>68</ele>
        <time>2011-12-04T11:55:22.6Z</time>
      </trkpt>
      <trkpt lat="47.30327" lon="-1.71061">
        <ele>68</ele>
        <time>2011-12-04T11:55:26.7Z</time>
      </trkpt>
      <trkpt lat="47.30324" lon="-1.71048">
        <ele>68</ele>
        <time>2011-12-04T11:55:27.1Z</time>
      </trkpt>
      <trkpt lat="47.30322" lon="-1.71044">
        <ele>68</ele>
        <time>2011-12-04T11:55:28.1Z</time>
      </trkpt>
      <trkpt lat="47.3032" lon="-1.71034">
        <ele>68</ele>
        <time>2011-12-04T11:55:32.6Z</time>
      </trkpt>
      <trkpt lat="47.30316" lon="-1.71019">
        <ele>68</ele>
        <time>2011-12-04T11:55:33.1Z</time>
      </trkpt>
      <trkpt lat="47.30314" lon="-1.71015">
        <ele>68</ele>
        <time>2011-12-04T11:55:34.1Z</time>
      </trkpt>
      <trkpt lat="47.30312" lon="-1.71006">
        <ele>68</ele>
        <time>2011-12-04T11:55:38.6Z</time>
      </trkpt>
      <trkpt lat="47.30306" lon="-1.70992">
        <ele>68</ele>
        <time>2011-12-04T11:55:39.1Z</time>
      </trkpt>
      <trkpt lat="47.30305" lon="-1.70987">
        <ele>68</ele>
        <time>2011-12-04T11:55:40.1Z</time>
      </trkpt>
      <trkpt lat="47.30302" lon="-1.70977">
        <ele>68</ele>
        <time>2011-12-04T11:55:44.5Z</time>
      </trkpt>
      <trkpt lat="47.30297" lon="-1.70958">
        <ele>68</ele>
        <time>2011-12-04T11:55:45.7Z</time>
      </trkpt>
      <trkpt lat="47.30295" lon="-1.70951">
        <ele>68</ele>
        <time>2011-12-04T11:55:46.1Z</time>
      </trkpt>
      <trkpt lat="47.30291" lon="-1.7094">
        <ele>68</ele>
        <time>2011-12-04T11:55:50.8Z</time>
      </trkpt>
      <trkpt lat="47.30285" lon="-1.70922">
        <ele>68</ele>
        <time>2011-12-04T11:55:51.1Z</time>
      </trkpt>
      <trkpt lat="47.30284" lon="-1.70914">
        <ele>68</ele>
        <time>2011-12-04T11:55:52.1Z</time>
      </trkpt>
      <trkpt lat="47.3028" lon="-1.70902">
        <ele>68</ele>
        <time>2011-12-04T11:55:56.8Z</time>
      </trkpt>
      <trkpt lat="47.30275" lon="-1.70882">
        <ele>68</ele>
        <time>2011-12-04T11:55:57.1Z</time>
      </trkpt>
      <trkpt lat="47.30275" lon="-1.70874">
        <ele>68</ele>
        <time>2011-12-04T11:55:58.1Z</time>
      </trkpt>
      <trkpt lat="47.30272" lon="-1.7086">
        <ele>68</ele>
        <time>2011-12-04T11:56:02.7Z</time>
      </trkpt>
      <trkpt lat="47.30266" lon="-1.70842">
        <ele>68</ele>
        <time>2011-12-04T11:56:03.1Z</time>
      </trkpt>
      <trkpt lat="47.30265" lon="-1.70836">
        <ele>68</ele>
        <time>2011-12-04T11:56:04.1Z</time>
      </trkpt>
      <trkpt lat="47.30261" lon="-1.70825">
        <ele>68</ele>
        <time>2011-12-04T11:56:08.7Z</time>
      </trkpt>
      <trkpt lat="47.30257" lon="-1.70806">
        <ele>68</ele>
        <time>2011-12-04T11:56:09.1Z</time>
      </trkpt>
      <trkpt lat="47.30256" lon="-1.70801">
        <ele>68</ele>
        <time>2011-12-04T11:56:10.1Z</time>
      </trkpt>
      <trkpt lat="47.30253" lon="-1.70787">
        <ele>68</ele>
        <time>2011-12-04T11:56:14.6Z</time>
      </trkpt>
      <trkpt lat="47.30248" lon="-1.7077">
        <ele>68</ele>
        <time>2011-12-04T11:56:15.1Z</time>
      </trkpt>
      <trkpt lat="47.30246" lon="-1.70766">
        <ele>68</ele>
        <time>2011-12-04T11:56:16.1Z</time>
      </trkpt>
      <trkpt lat="47.30244" lon="-1.70761">
        <ele>68</ele>
        <time>2011-12-04T11:56:17.1Z</time>
      </trkpt>
      <trkpt lat="47.30241" lon="-1.70748">
        <ele>68</ele>
        <time>2011-12-04T11:56:21.3Z</time>
      </trkpt>
      <trkpt lat="47.30239" lon="-1.7073">
        <ele>68</ele>
        <time>2011-12-04T11:56:22.1Z</time>
      </trkpt>
      <trkpt lat="47.30237" lon="-1.70724">
        <ele>68</ele>
        <time>2011-12-04T11:56:23.1Z</time>
      </trkpt>
      <trkpt lat="47.30235" lon="-1.70712">
        <ele>68</ele>
        <time>2011-12-04T11:56:27.3Z</time>
      </trkpt>
      <trkpt lat="47.30231" lon="-1.70692">
        <ele>68</ele>
        <time>2011-12-04T11:56:28.1Z</time>
      </trkpt>
      <trkpt lat="47.30229" lon="-1.70685">
        <ele>68</ele>
        <time>2011-12-04T11:56:29.1Z</time>
      </trkpt>
      <trkpt lat="47.30226" lon="-1.70671">
        <ele>68</ele>
        <time>2011-12-04T11:56:33.3Z</time>
      </trkpt>
      <trkpt lat="47.30222" lon="-1.70649">
        <ele>68</ele>
        <time>2011-12-04T11:56:34.1Z</time>
      </trkpt>
      <trkpt lat="47.3022" lon="-1.70642">
        <ele>68</ele>
        <time>2011-12-04T11:56:35.1Z</time>
      </trkpt>
      <trkpt lat="47.30217" lon="-1.70628">
        <ele>68</ele>
        <time>2011-12-04T11:56:39.3Z</time>
      </trkpt>
      <trkpt lat="47.30211" lon="-1.70606">
        <ele>68</ele>
        <time>2011-12-04T11:56:40.1Z</time>
      </trkpt>
      <trkpt lat="47.30209" lon="-1.706">
        <ele>68</ele>
        <time>2011-12-04T11:56:41.1Z</time>
      </trkpt>
      <trkpt lat="47.30201" lon="-1.7059">
        <ele>68</ele>
        <time>2011-12-04T11:56:45.3Z</time>
      </trkpt>
      <trkpt lat="47.30185" lon="-1.70586">
        <ele>68</ele>
        <time>2011-12-04T11:56:46.3Z</time>
      </trkpt>
      <trkpt lat="47.30181" lon="-1.70585">
        <ele>68</ele>
        <time>2011-12-04T11:56:47.3Z</time>
      </trkpt>
      <trkpt lat="47.30176" lon="-1.70585">
        <ele>68</ele>
        <time>2011-12-04T11:56:48.5Z</time>
      </trkpt>
      <trkpt lat="47.30166" lon="-1.70586">
        <ele>68</ele>
        <time>2011-12-04T11:56:52.7Z</time>
      </trkpt>
      <trkpt lat="47.30156" lon="-1.70588">
        <ele>67</ele>
        <time>2011-12-04T11:56:53.1Z</time>
      </trkpt>
      <trkpt lat="47.30154" lon="-1.70589">
        <ele>66</ele>
        <time>2011-12-04T11:56:54.1Z</time>
      </trkpt>
      <trkpt lat="47.30152" lon="-1.70591">
        <ele>66</ele>
        <time>2011-12-04T11:56:55.1Z</time>
      </trkpt>
      <trkpt lat="47.30151" lon="-1.70593">
        <ele>65</ele>
        <time>2011-12-04T11:56:56.1Z</time>
      </trkpt>
      <trkpt lat="47.3014" lon="-1.70613">
        <ele>65</ele>
        <time>2011-12-04T11:57:01.2Z</time>
      </trkpt>
      <trkpt lat="47.30138" lon="-1.70618">
        <ele>65</ele>
        <time>2011-12-04T11:57:02.1Z</time>
      </trkpt>
      <trkpt lat="47.30131" lon="-1.70628">
        <ele>65</ele>
        <time>2011-12-04T11:57:06.4Z</time>
      </trkpt>
      <trkpt lat="47.30118" lon="-1.70644">
        <ele>65</ele>
        <time>2011-12-04T11:57:07.1Z</time>
      </trkpt>
      <trkpt lat="47.30115" lon="-1.70649">
        <ele>65</ele>
        <time>2011-12-04T11:57:08.1Z</time>
      </trkpt>
      <trkpt lat="47.30108" lon="-1.70659">
        <ele>65</ele>
        <time>2011-12-04T11:57:12.4Z</time>
      </trkpt>
      <trkpt lat="47.30098" lon="-1.70673">
        <ele>65</ele>
        <time>2011-12-04T11:57:13.1Z</time>
      </trkpt>
      <trkpt lat="47.30095" lon="-1.70678">
        <ele>65</ele>
        <time>2011-12-04T11:57:14.1Z</time>
      </trkpt>
      <trkpt lat="47.30088" lon="-1.70688">
        <ele>65</ele>
        <time>2011-12-04T11:57:18.4Z</time>
      </trkpt>
      <trkpt lat="47.30078" lon="-1.70702">
        <ele>65</ele>
        <time>2011-12-04T11:57:19.1Z</time>
      </trkpt>
      <trkpt lat="47.30075" lon="-1.70707">
        <ele>65</ele>
        <time>2011-12-04T11:57:20.1Z</time>
      </trkpt>
      <trkpt lat="47.30068" lon="-1.70718">
        <ele>65</ele>
        <time>2011-12-04T11:57:24.4Z</time>
      </trkpt>
      <trkpt lat="47.30061" lon="-1.7074">
        <ele>65</ele>
        <time>2011-12-04T11:57:25.1Z</time>
      </trkpt>
      <trkpt lat="47.3006" lon="-1.70748">
        <ele>65</ele>
        <time>2011-12-04T11:57:26.5Z</time>
      </trkpt>
      <trkpt lat="47.3006" lon="-1.70756">
        <ele>65</ele>
        <time>2011-12-04T11:57:27.1Z</time>
      </trkpt>
      <trkpt lat="47.30062" lon="-1.70771">
        <ele>65</ele>
        <time>2011-12-04T11:57:31.3Z</time>
      </trkpt>
      <trkpt lat="47.3007" lon="-1.70794">
        <ele>65</ele>
        <time>2011-12-04T11:57:32.1Z</time>
      </trkpt>
      <trkpt lat="47.30074" lon="-1.70801">
        <ele>65</ele>
        <time>2011-12-04T11:57:33.1Z</time>
      </trkpt>
      <trkpt lat="47.30077" lon="-1.70808">
        <ele>65</ele>
        <time>2011-12-04T11:57:34.1Z</time>
      </trkpt>
      <trkpt lat="47.30084" lon="-1.7082">
        <ele>65</ele>
        <time>2011-12-04T11:57:38.3Z</time>
      </trkpt>
      <trkpt lat="47.30093" lon="-1.70837">
        <ele>65</ele>
        <time>2011-12-04T11:57:39.1Z</time>
      </trkpt>
      <trkpt lat="47.30095" lon="-1.70842">
        <ele>65</ele>
        <time>2011-12-04T11:57:40.1Z</time>
      </trkpt>
      <trkpt lat="47.30096" lon="-1.70847">
        <ele>65</ele>
        <time>2011-12-04T11:57:44.3Z</time>
      </trkpt>
      <trkpt lat="47.30093" lon="-1.70843">
        <ele>65</ele>
        <time>2011-12-04T11:57:45.1Z</time>
      </trkpt>
      <trkpt lat="47.30093" lon="-1.70841">
        <ele>65</ele>
        <time>2011-12-04T11:57:46.7Z</time>
      </trkpt>
      <trkpt lat="47.30092" lon="-1.70839">
        <ele>65</ele>
        <time>2011-12-04T11:57:47.5Z</time>
      </trkpt>
      <trkpt lat="47.3009" lon="-1.70834">
        <ele>65</ele>
        <time>2011-12-04T11:57:52.3Z</time>
      </trkpt>
      <trkpt lat="47.30084" lon="-1.7082">
        <ele>65</ele>
        <time>2011-12-04T11:57:53.1Z</time>
      </trkpt>
      <trkpt lat="47.3008" lon="-1.70812">
        <ele>65</ele>
        <time>2011-12-04T11:57:57.7Z</time>
      </trkpt>
      <trkpt lat="47.30074" lon="-1.70798">
        <ele>65</ele>
        <time>2011-12-04T11:57:58.1Z</time>
      </trkpt>
      <trkpt lat="47.30072" lon="-1.70794">
        <ele>65</ele>
        <time>2011-12-04T11:57:59.1Z</time>
      </trkpt>
      <trkpt lat="47.30069" lon="-1.70785">
        <ele>65</ele>
        <time>2011-12-04T11:58:03.7Z</time>
      </trkpt>
      <trkpt lat="47.30065" lon="-1.70774">
        <ele>65</ele>
        <time>2011-12-04T11:58:04.1Z</time>
      </trkpt>
      <trkpt lat="47.30064" lon="-1.7077">
        <ele>65</ele>
        <time>2011-12-04T11:58:05.1Z</time>
      </trkpt>
      <trkpt lat="47.30062" lon="-1.70763">
        <ele>65</ele>
        <time>2011-12-04T11:58:09.7Z</time>
      </trkpt>
      <trkpt lat="47.30062" lon="-1.70749">
        <ele>66</ele>
        <time>2011-12-04T11:58:10.1Z</time>
      </trkpt>
      <trkpt lat="47.30062" lon="-1.70745">
        <ele>66</ele>
        <time>2011-12-04T11:58:11.5Z</time>
      </trkpt>
      <trkpt lat="47.30062" lon="-1.70741">
        <ele>66</ele>
        <time>2011-12-04T11:58:12.3Z</time>
      </trkpt>
      <trkpt lat="47.30062" lon="-1.70733">
        <ele>67</ele>
        <time>2011-12-04T11:58:16.5Z</time>
      </trkpt>
      <trkpt lat="47.30061" lon="-1.70722">
        <ele>67</ele>
        <time>2011-12-04T11:58:17.1Z</time>
      </trkpt>
      <trkpt lat="47.3006" lon="-1.7072">
        <ele>67</ele>
        <time>2011-12-04T11:58:18.3Z</time>
      </trkpt>
      <trkpt lat="47.30059" lon="-1.70717">
        <ele>67</ele>
        <time>2011-12-04T11:58:19.2Z</time>
      </trkpt>
      <trkpt lat="47.30057" lon="-1.70712">
        <ele>67</ele>
        <time>2011-12-04T11:58:23.5Z</time>
      </trkpt>
      <trkpt lat="47.30054" lon="-1.70705">
        <ele>67</ele>
        <time>2011-12-04T11:58:24.1Z</time>
      </trkpt>
      <trkpt lat="47.30054" lon="-1.70702">
        <ele>67</ele>
        <time>2011-12-04T11:58:25.1Z</time>
      </trkpt>
      <trkpt lat="47.3005" lon="-1.70697">
        <ele>67</ele>
        <time>2011-12-04T11:58:29.5Z</time>
      </trkpt>
      <trkpt lat="47.30043" lon="-1.70689">
        <ele>67</ele>
        <time>2011-12-04T11:58:30.1Z</time>
      </trkpt>
      <trkpt lat="47.3004" lon="-1.70686">
        <ele>67</ele>
        <time>2011-12-04T11:58:31.1Z</time>
      </trkpt>
      <trkpt lat="47.30035" lon="-1.70679">
        <ele>67</ele>
        <time>2011-12-04T11:58:35.5Z</time>
      </trkpt>
      <trkpt lat="47.30027" lon="-1.70667">
        <ele>67</ele>
        <time>2011-12-04T11:58:36.1Z</time>
      </trkpt>
      <trkpt lat="47.30024" lon="-1.70662">
        <ele>67</ele>
        <time>2011-12-04T11:58:37.1Z</time>
      </trkpt>
      <trkpt lat="47.30018" lon="-1.70653">
        <ele>67</ele>
        <time>2011-12-04T11:58:41.5Z</time>
      </trkpt>
      <trkpt lat="47.3001" lon="-1.70636">
        <ele>67</ele>
        <time>2011-12-04T11:58:42.1Z</time>
      </trkpt>
      <trkpt lat="47.30007" lon="-1.70631">
        <ele>67</ele>
        <time>2011-12-04T11:58:43.1Z</time>
      </trkpt>
      <trkpt lat="47.30003" lon="-1.70619">
        <ele>67</ele>
        <time>2011-12-04T11:58:47.5Z</time>
      </trkpt>
      <trkpt lat="47.29996" lon="-1.70601">
        <ele>67</ele>
        <time>2011-12-04T11:58:48.1Z</time>
      </trkpt>
      <trkpt lat="47.29994" lon="-1.70596">
        <ele>67</ele>
        <time>2011-12-04T11:58:49.1Z</time>
      </trkpt>
      <trkpt lat="47.29988" lon="-1.70585">
        <ele>67</ele>
        <time>2011-12-04T11:58:53.5Z</time>
      </trkpt>
      <trkpt lat="47.29977" lon="-1.70568">
        <ele>67</ele>
        <time>2011-12-04T11:58:54.1Z</time>
      </trkpt>
      <trkpt lat="47.29974" lon="-1.70562">
        <ele>67</ele>
        <time>2011-12-04T11:58:55.1Z</time>
      </trkpt>
      <trkpt lat="47.29967" lon="-1.70548">
        <ele>67</ele>
        <time>2011-12-04T11:58:59.6Z</time>
      </trkpt>
      <trkpt lat="47.29958" lon="-1.70527">
        <ele>67</ele>
        <time>2011-12-04T11:59:00.1Z</time>
      </trkpt>
      <trkpt lat="47.29956" lon="-1.7052">
        <ele>67</ele>
        <time>2011-12-04T11:59:01.1Z</time>
      </trkpt>
      <trkpt lat="47.2995" lon="-1.70507">
        <ele>67</ele>
        <time>2011-12-04T11:59:05.6Z</time>
      </trkpt>
      <trkpt lat="47.29942" lon="-1.7049">
        <ele>67</ele>
        <time>2011-12-04T11:59:06.1Z</time>
      </trkpt>
      <trkpt lat="47.29938" lon="-1.70484">
        <ele>67</ele>
        <time>2011-12-04T11:59:07.1Z</time>
      </trkpt>
      <trkpt lat="47.29933" lon="-1.7048">
        <ele>67</ele>
        <time>2011-12-04T11:59:08.3Z</time>
      </trkpt>
      <trkpt lat="47.29908" lon="-1.70457">
        <ele>67</ele>
        <time>2011-12-04T11:59:13.2Z</time>
      </trkpt>
      <trkpt lat="47.29904" lon="-1.70452">
        <ele>67</ele>
        <time>2011-12-04T11:59:14.1Z</time>
      </trkpt>
      <trkpt lat="47.29895" lon="-1.7044">
        <ele>67</ele>
        <time>2011-12-04T11:59:18.5Z</time>
      </trkpt>
      <trkpt lat="47.29885" lon="-1.7042">
        <ele>67</ele>
        <time>2011-12-04T11:59:19.1Z</time>
      </trkpt>
      <trkpt lat="47.29882" lon="-1.70412">
        <ele>67</ele>
        <time>2011-12-04T11:59:20.5Z</time>
      </trkpt>
      <trkpt lat="47.29875" lon="-1.70397">
        <ele>67</ele>
        <time>2011-12-04T11:59:24.8Z</time>
      </trkpt>
      <trkpt lat="47.29866" lon="-1.70374">
        <ele>67</ele>
        <time>2011-12-04T11:59:25.1Z</time>
      </trkpt>
      <trkpt lat="47.29863" lon="-1.70366">
        <ele>67</ele>
        <time>2011-12-04T11:59:26.1Z</time>
      </trkpt>
      <trkpt lat="47.29858" lon="-1.70349">
        <ele>67</ele>
        <time>2011-12-04T11:59:30.8Z</time>
      </trkpt>
      <trkpt lat="47.2985" lon="-1.70325">
        <ele>67</ele>
        <time>2011-12-04T11:59:31.1Z</time>
      </trkpt>
      <trkpt lat="47.29848" lon="-1.70316">
        <ele>67</ele>
        <time>2011-12-04T11:59:32.1Z</time>
      </trkpt>
      <trkpt lat="47.29843" lon="-1.70301">
        <ele>67</ele>
        <time>2011-12-04T11:59:36.8Z</time>
      </trkpt>
      <trkpt lat="47.29838" lon="-1.70279">
        <ele>67</ele>
        <time>2011-12-04T11:59:37.1Z</time>
      </trkpt>
      <trkpt lat="47.29837" lon="-1.70272">
        <ele>67</ele>
        <time>2011-12-04T11:59:38.1Z</time>
      </trkpt>
      <trkpt lat="47.29835" lon="-1.70258">
        <ele>67</ele>
        <time>2011-12-04T11:59:42.9Z</time>
      </trkpt>
      <trkpt lat="47.29834" lon="-1.7024">
        <ele>67</ele>
        <time>2011-12-04T11:59:43.1Z</time>
      </trkpt>
      <trkpt lat="47.29835" lon="-1.70234">
        <ele>67</ele>
        <time>2011-12-04T11:59:44.3Z</time>
      </trkpt>
      <trkpt lat="47.29836" lon="-1.70228">
        <ele>67</ele>
        <time>2011-12-04T11:59:45.2Z</time>
      </trkpt>
      <trkpt lat="47.29838" lon="-1.70218">
        <ele>67</ele>
        <time>2011-12-04T11:59:49.5Z</time>
      </trkpt>
      <trkpt lat="47.29839" lon="-1.70209">
        <ele>67</ele>
        <time>2011-12-04T11:59:50.1Z</time>
      </trkpt>
      <trkpt lat="47.29839" lon="-1.70207">
        <ele>67</ele>
        <time>2011-12-04T11:59:51.1Z</time>
      </trkpt>
      <trkpt lat="47.29838" lon="-1.70203">
        <ele>67</ele>
        <time>2011-12-04T11:59:52.3Z</time>
      </trkpt>
      <trkpt lat="47.29837" lon="-1.70194">
        <ele>67</ele>
        <time>2011-12-04T11:59:56.6Z</time>
      </trkpt>
      <trkpt lat="47.29829" lon="-1.70182">
        <ele>67</ele>
        <time>2011-12-04T11:59:57.1Z</time>
      </trkpt>
      <trkpt lat="47.29826" lon="-1.70178">
        <ele>67</ele>
        <time>2011-12-04T11:59:58.3Z</time>
      </trkpt>
      <trkpt lat="47.2982" lon="-1.70174">
        <ele>67</ele>
        <time>2011-12-04T11:59:59.1Z</time>
      </trkpt>
      <trkpt lat="47.29811" lon="-1.70168">
        <ele>67</ele>
        <time>2011-12-04T12:00:03.4Z</time>
      </trkpt>
      <trkpt lat="47.29794" lon="-1.70159">
        <ele>67</ele>
        <time>2011-12-04T12:00:04.1Z</time>
      </trkpt>
      <trkpt lat="47.29788" lon="-1.70155">
        <ele>67</ele>
        <time>2011-12-04T12:00:05.1Z</time>
      </trkpt>
      <trkpt lat="47.29778" lon="-1.70148">
        <ele>67</ele>
        <time>2011-12-04T12:00:09.4Z</time>
      </trkpt>
      <trkpt lat="47.29759" lon="-1.70142">
        <ele>67</ele>
        <time>2011-12-04T12:00:10.1Z</time>
      </trkpt>
      <trkpt lat="47.29752" lon="-1.70142">
        <ele>67</ele>
        <time>2011-12-04T12:00:11.3Z</time>
      </trkpt>
      <trkpt lat="47.29746" lon="-1.70142">
        <ele>67</ele>
        <time>2011-12-04T12:00:12.1Z</time>
      </trkpt>
      <trkpt lat="47.29737" lon="-1.70141">
        <ele>67</ele>
        <time>2011-12-04T12:00:16.4Z</time>
      </trkpt>
      <trkpt lat="47.29729" lon="-1.70139">
        <ele>67</ele>
        <time>2011-12-04T12:00:17.1Z</time>
      </trkpt>
      <trkpt lat="47.29727" lon="-1.70139">
        <ele>67</ele>
        <time>2011-12-04T12:00:18.1Z</time>
      </trkpt>
      <trkpt lat="47.29725" lon="-1.70139">
        <ele>67</ele>
        <time>2011-12-04T12:00:22.5Z</time>
      </trkpt>
      <trkpt lat="47.29722" lon="-1.70139">
        <ele>66</ele>
        <time>2011-12-04T12:00:23.4Z</time>
      </trkpt>
      <trkpt lat="47.29718" lon="-1.70139">
        <ele>66</ele>
        <time>2011-12-04T12:00:28.7Z</time>
      </trkpt>
      <trkpt lat="47.29712" lon="-1.7014">
        <ele>66</ele>
        <time>2011-12-04T12:00:29.1Z</time>
      </trkpt>
      <trkpt lat="47.2971" lon="-1.7014">
        <ele>66</ele>
        <time>2011-12-04T12:00:30.1Z</time>
      </trkpt>
      <trkpt lat="47.29706" lon="-1.70141">
        <ele>66</ele>
        <time>2011-12-04T12:00:34.7Z</time>
      </trkpt>
      <trkpt lat="47.29699" lon="-1.70145">
        <ele>66</ele>
        <time>2011-12-04T12:00:35.1Z</time>
      </trkpt>
      <trkpt lat="47.29697" lon="-1.70148">
        <ele>66</ele>
        <time>2011-12-04T12:00:36.5Z</time>
      </trkpt>
      <trkpt lat="47.29694" lon="-1.7015">
        <ele>66</ele>
        <time>2011-12-04T12:00:37.3Z</time>
      </trkpt>
      <trkpt lat="47.2969" lon="-1.70158">
        <ele>66</ele>
        <time>2011-12-04T12:00:41.6Z</time>
      </trkpt>
      <trkpt lat="47.29682" lon="-1.70173">
        <ele>66</ele>
        <time>2011-12-04T12:00:42.1Z</time>
      </trkpt>
      <trkpt lat="47.29679" lon="-1.70178">
        <ele>66</ele>
        <time>2011-12-04T12:00:43.1Z</time>
      </trkpt>
      <trkpt lat="47.29669" lon="-1.70187">
        <ele>66</ele>
        <time>2011-12-04T12:00:47.8Z</time>
      </trkpt>
      <trkpt lat="47.29655" lon="-1.70197">
        <ele>65</ele>
        <time>2011-12-04T12:00:48.5Z</time>
      </trkpt>
      <trkpt lat="47.29651" lon="-1.70201">
        <ele>65</ele>
        <time>2011-12-04T12:00:49.3Z</time>
      </trkpt>
      <trkpt lat="47.29647" lon="-1.70205">
        <ele>65</ele>
        <time>2011-12-04T12:00:50.1Z</time>
      </trkpt>
      <trkpt lat="47.29643" lon="-1.70209">
        <ele>65</ele>
        <time>2011-12-04T12:00:51.7Z</time>
      </trkpt>
      <trkpt lat="47.29637" lon="-1.70218">
        <ele>65</ele>
        <time>2011-12-04T12:00:56Z</time>
      </trkpt>
      <trkpt lat="47.29627" lon="-1.70221">
        <ele>65</ele>
        <time>2011-12-04T12:00:56.1Z</time>
      </trkpt>
      <trkpt lat="47.29624" lon="-1.7022">
        <ele>65</ele>
        <time>2011-12-04T12:00:57.1Z</time>
      </trkpt>
      <trkpt lat="47.29623" lon="-1.70219">
        <ele>65</ele>
        <time>2011-12-04T12:00:58.1Z</time>
      </trkpt>
      <trkpt lat="47.29621" lon="-1.70219">
        <ele>65</ele>
        <time>2011-12-04T12:01:05.3Z</time>
      </trkpt>
      <trkpt lat="47.29622" lon="-1.70221">
        <ele>64</ele>
        <time>2011-12-04T12:01:21.3Z</time>
      </trkpt>
      <trkpt lat="47.29622" lon="-1.70225">
        <ele>64</ele>
        <time>2011-12-04T12:01:27Z</time>
      </trkpt>
      <trkpt lat="47.29624" lon="-1.70227">
        <ele>64</ele>
        <time>2011-12-04T12:01:27.7Z</time>
      </trkpt>
      <trkpt lat="47.29624" lon="-1.70229">
        <ele>64</ele>
        <time>2011-12-04T12:01:28.1Z</time>
      </trkpt>
      <trkpt lat="47.29625" lon="-1.70233">
        <ele>64</ele>
        <time>2011-12-04T12:01:29.1Z</time>
      </trkpt>
      <trkpt lat="47.29626" lon="-1.7024">
        <ele>64</ele>
        <time>2011-12-04T12:01:34.8Z</time>
      </trkpt>
      <trkpt lat="47.29623" lon="-1.70259">
        <ele>64</ele>
        <time>2011-12-04T12:01:35.1Z</time>
      </trkpt>
      <trkpt lat="47.29622" lon="-1.70263">
        <ele>64</ele>
        <time>2011-12-04T12:01:36.3Z</time>
      </trkpt>
      <trkpt lat="47.2962" lon="-1.70267">
        <ele>64</ele>
        <time>2011-12-04T12:01:37.3Z</time>
      </trkpt>
      <trkpt lat="47.29615" lon="-1.70276">
        <ele>64</ele>
        <time>2011-12-04T12:01:41.5Z</time>
      </trkpt>
      <trkpt lat="47.29609" lon="-1.70291">
        <ele>64</ele>
        <time>2011-12-04T12:01:42.1Z</time>
      </trkpt>
      <trkpt lat="47.29608" lon="-1.70297">
        <ele>64</ele>
        <time>2011-12-04T12:01:43.7Z</time>
      </trkpt>
      <trkpt lat="47.29607" lon="-1.70302">
        <ele>64</ele>
        <time>2011-12-04T12:01:44.5Z</time>
      </trkpt>
      <trkpt lat="47.29606" lon="-1.70309">
        <ele>64</ele>
        <time>2011-12-04T12:01:48.8Z</time>
      </trkpt>
      <trkpt lat="47.29607" lon="-1.7032">
        <ele>64</ele>
        <time>2011-12-04T12:01:49.1Z</time>
      </trkpt>
      <trkpt lat="47.29607" lon="-1.70324">
        <ele>64</ele>
        <time>2011-12-04T12:01:50.1Z</time>
      </trkpt>
      <trkpt lat="47.29608" lon="-1.70328">
        <ele>64</ele>
        <time>2011-12-04T12:01:51.5Z</time>
      </trkpt>
      <trkpt lat="47.2961" lon="-1.70336">
        <ele>64</ele>
        <time>2011-12-04T12:01:55.8Z</time>
      </trkpt>
      <trkpt lat="47.29611" lon="-1.70355">
        <ele>65</ele>
        <time>2011-12-04T12:01:56.1Z</time>
      </trkpt>
      <trkpt lat="47.29611" lon="-1.70362">
        <ele>66</ele>
        <time>2011-12-04T12:01:57.1Z</time>
      </trkpt>
      <trkpt lat="47.29612" lon="-1.70374">
        <ele>67</ele>
        <time>2011-12-04T12:02:01.9Z</time>
      </trkpt>
      <trkpt lat="47.29613" lon="-1.70395">
        <ele>68</ele>
        <time>2011-12-04T12:02:02.1Z</time>
      </trkpt>
      <trkpt lat="47.29614" lon="-1.70404">
        <ele>69</ele>
        <time>2011-12-04T12:02:03.1Z</time>
      </trkpt>
      <trkpt lat="47.29616" lon="-1.70423">
        <ele>69</ele>
        <time>2011-12-04T12:02:08Z</time>
      </trkpt>
      <trkpt lat="47.2962" lon="-1.70448">
        <ele>69</ele>
        <time>2011-12-04T12:02:08.1Z</time>
      </trkpt>
      <trkpt lat="47.2962" lon="-1.70456">
        <ele>69</ele>
        <time>2011-12-04T12:02:09.1Z</time>
      </trkpt>
      <trkpt lat="47.29623" lon="-1.70495">
        <ele>69</ele>
        <time>2011-12-04T12:02:14.1Z</time>
      </trkpt>
      <trkpt lat="47.29624" lon="-1.70503">
        <ele>68</ele>
        <time>2011-12-04T12:02:15.1Z</time>
      </trkpt>
      <trkpt lat="47.29625" lon="-1.70531">
        <ele>68</ele>
        <time>2011-12-04T12:02:20.2Z</time>
      </trkpt>
      <trkpt lat="47.29625" lon="-1.70532">
        <ele>67</ele>
        <time>2011-12-04T12:02:21.1Z</time>
      </trkpt>
      <trkpt lat="47.29625" lon="-1.70534">
        <ele>66</ele>
        <time>2011-12-04T12:02:22.1Z</time>
      </trkpt>
      <trkpt lat="47.29624" lon="-1.70538">
        <ele>65</ele>
        <time>2011-12-04T12:02:26.4Z</time>
      </trkpt>
      <trkpt lat="47.29622" lon="-1.70539">
        <ele>64</ele>
        <time>2011-12-04T12:02:27.8Z</time>
      </trkpt>
      <trkpt lat="47.29621" lon="-1.70536">
        <ele>63</ele>
        <time>2011-12-04T12:02:29.8Z</time>
      </trkpt>
      <trkpt lat="47.29621" lon="-1.70535">
        <ele>63</ele>
        <time>2011-12-04T12:02:30.8Z</time>
      </trkpt>
      <trkpt lat="47.29624" lon="-1.70535">
        <ele>63</ele>
        <time>2011-12-04T12:02:35.5Z</time>
      </trkpt>
      <trkpt lat="47.29628" lon="-1.70541">
        <ele>62</ele>
        <time>2011-12-04T12:02:36.7Z</time>
      </trkpt>
      <trkpt lat="47.2963" lon="-1.70544">
        <ele>62</ele>
        <time>2011-12-04T12:02:37.4Z</time>
      </trkpt>
      <trkpt lat="47.29631" lon="-1.70547">
        <ele>62</ele>
        <time>2011-12-04T12:02:38.8Z</time>
      </trkpt>
      <trkpt lat="47.29637" lon="-1.70563">
        <ele>62</ele>
        <time>2011-12-04T12:02:42.2Z</time>
      </trkpt>
      <trkpt lat="47.29642" lon="-1.70569">
        <ele>62</ele>
        <time>2011-12-04T12:02:46.5Z</time>
      </trkpt>
      <trkpt lat="47.2965" lon="-1.70578">
        <ele>62</ele>
        <time>2011-12-04T12:02:47.1Z</time>
      </trkpt>
      <trkpt lat="47.29652" lon="-1.70581">
        <ele>61</ele>
        <time>2011-12-04T12:02:48.5Z</time>
      </trkpt>
      <trkpt lat="47.29668" lon="-1.706">
        <ele>61</ele>
        <time>2011-12-04T12:02:53.1Z</time>
      </trkpt>
      <trkpt lat="47.29671" lon="-1.70604">
        <ele>61</ele>
        <time>2011-12-04T12:02:54.1Z</time>
      </trkpt>
      <trkpt lat="47.29687" lon="-1.70625">
        <ele>61</ele>
        <time>2011-12-04T12:02:59.2Z</time>
      </trkpt>
      <trkpt lat="47.29689" lon="-1.70629">
        <ele>60</ele>
        <time>2011-12-04T12:03:00.1Z</time>
      </trkpt>
      <trkpt lat="47.29692" lon="-1.70634">
        <ele>60</ele>
        <time>2011-12-04T12:03:01.1Z</time>
      </trkpt>
      <trkpt lat="47.29697" lon="-1.70643">
        <ele>60</ele>
        <time>2011-12-04T12:03:05.4Z</time>
      </trkpt>
      <trkpt lat="47.29703" lon="-1.70658">
        <ele>60</ele>
        <time>2011-12-04T12:03:06.1Z</time>
      </trkpt>
      <trkpt lat="47.29706" lon="-1.70664">
        <ele>60</ele>
        <time>2011-12-04T12:03:07.1Z</time>
      </trkpt>
      <trkpt lat="47.29709" lon="-1.70674">
        <ele>60</ele>
        <time>2011-12-04T12:03:11.5Z</time>
      </trkpt>
      <trkpt lat="47.29715" lon="-1.70691">
        <ele>60</ele>
        <time>2011-12-04T12:03:12.1Z</time>
      </trkpt>
      <trkpt lat="47.29717" lon="-1.70697">
        <ele>60</ele>
        <time>2011-12-04T12:03:13.1Z</time>
      </trkpt>
      <trkpt lat="47.29722" lon="-1.70708">
        <ele>60</ele>
        <time>2011-12-04T12:03:17.6Z</time>
      </trkpt>
      <trkpt lat="47.2973" lon="-1.70726">
        <ele>60</ele>
        <time>2011-12-04T12:03:18.1Z</time>
      </trkpt>
      <trkpt lat="47.29733" lon="-1.70731">
        <ele>60</ele>
        <time>2011-12-04T12:03:19.1Z</time>
      </trkpt>
      <trkpt lat="47.2974" lon="-1.70743">
        <ele>60</ele>
        <time>2011-12-04T12:03:23.7Z</time>
      </trkpt>
      <trkpt lat="47.2975" lon="-1.70758">
        <ele>60</ele>
        <time>2011-12-04T12:03:24.1Z</time>
      </trkpt>
      <trkpt lat="47.29753" lon="-1.70764">
        <ele>60</ele>
        <time>2011-12-04T12:03:25.1Z</time>
      </trkpt>
      <trkpt lat="47.2976" lon="-1.70778">
        <ele>60</ele>
        <time>2011-12-04T12:03:29.8Z</time>
      </trkpt>
      <trkpt lat="47.29772" lon="-1.70798">
        <ele>60</ele>
        <time>2011-12-04T12:03:30.1Z</time>
      </trkpt>
      <trkpt lat="47.29777" lon="-1.70804">
        <ele>60</ele>
        <time>2011-12-04T12:03:31.1Z</time>
      </trkpt>
      <trkpt lat="47.29786" lon="-1.70817">
        <ele>59</ele>
        <time>2011-12-04T12:03:35.9Z</time>
      </trkpt>
      <trkpt lat="47.29799" lon="-1.70836">
        <ele>58</ele>
        <time>2011-12-04T12:03:36.1Z</time>
      </trkpt>
      <trkpt lat="47.29803" lon="-1.70841">
        <ele>58</ele>
        <time>2011-12-04T12:03:37.1Z</time>
      </trkpt>
      <trkpt lat="47.2982" lon="-1.70868">
        <ele>58</ele>
        <time>2011-12-04T12:03:42.1Z</time>
      </trkpt>
      <trkpt lat="47.29823" lon="-1.70874">
        <ele>58</ele>
        <time>2011-12-04T12:03:43.1Z</time>
      </trkpt>
      <trkpt lat="47.29827" lon="-1.70885">
        <ele>58</ele>
        <time>2011-12-04T12:03:48.2Z</time>
      </trkpt>
      <trkpt lat="47.2983" lon="-1.70905">
        <ele>58</ele>
        <time>2011-12-04T12:03:49.1Z</time>
      </trkpt>
      <trkpt lat="47.2983" lon="-1.70908">
        <ele>58</ele>
        <time>2011-12-04T12:03:50.2Z</time>
      </trkpt>
      <trkpt lat="47.29831" lon="-1.70911">
        <ele>58</ele>
        <time>2011-12-04T12:03:51.1Z</time>
      </trkpt>
      <trkpt lat="47.29831" lon="-1.70913">
        <ele>58</ele>
        <time>2011-12-04T12:03:55.4Z</time>
      </trkpt>
      <trkpt lat="47.29831" lon="-1.70916">
        <ele>58</ele>
        <time>2011-12-04T12:03:56.3Z</time>
      </trkpt>
      <trkpt lat="47.29828" lon="-1.70918">
        <ele>58</ele>
        <time>2011-12-04T12:03:58.7Z</time>
      </trkpt>
      <trkpt lat="47.29823" lon="-1.70916">
        <ele>58</ele>
        <time>2011-12-04T12:04:03.7Z</time>
      </trkpt>
      <trkpt lat="47.29808" lon="-1.70906">
        <ele>58</ele>
        <time>2011-12-04T12:04:04.4Z</time>
      </trkpt>
      <trkpt lat="47.29803" lon="-1.70903">
        <ele>58</ele>
        <time>2011-12-04T12:04:05.6Z</time>
      </trkpt>
      <trkpt lat="47.29793" lon="-1.70897">
        <ele>58</ele>
        <time>2011-12-04T12:04:10Z</time>
      </trkpt>
      <trkpt lat="47.29776" lon="-1.70889">
        <ele>58</ele>
        <time>2011-12-04T12:04:10.1Z</time>
      </trkpt>
      <trkpt lat="47.2977" lon="-1.70886">
        <ele>58</ele>
        <time>2011-12-04T12:04:11.1Z</time>
      </trkpt>
      <trkpt lat="47.29743" lon="-1.70869">
        <ele>58</ele>
        <time>2011-12-04T12:04:16.1Z</time>
      </trkpt>
      <trkpt lat="47.29737" lon="-1.70866">
        <ele>58</ele>
        <time>2011-12-04T12:04:17.1Z</time>
      </trkpt>
      <trkpt lat="47.29726" lon="-1.7086">
        <ele>58</ele>
        <time>2011-12-04T12:04:22.2Z</time>
      </trkpt>
      <trkpt lat="47.29704" lon="-1.70848">
        <ele>58</ele>
        <time>2011-12-04T12:04:23.1Z</time>
      </trkpt>
      <trkpt lat="47.29698" lon="-1.70844">
        <ele>58</ele>
        <time>2011-12-04T12:04:24.1Z</time>
      </trkpt>
      <trkpt lat="47.29688" lon="-1.70838">
        <ele>58</ele>
        <time>2011-12-04T12:04:28.4Z</time>
      </trkpt>
      <trkpt lat="47.29672" lon="-1.70826">
        <ele>58</ele>
        <time>2011-12-04T12:04:29.1Z</time>
      </trkpt>
      <trkpt lat="47.29667" lon="-1.70821">
        <ele>58</ele>
        <time>2011-12-04T12:04:30.1Z</time>
      </trkpt>
      <trkpt lat="47.29657" lon="-1.70811">
        <ele>58</ele>
        <time>2011-12-04T12:04:34.6Z</time>
      </trkpt>
      <trkpt lat="47.29644" lon="-1.70792">
        <ele>58</ele>
        <time>2011-12-04T12:04:35.1Z</time>
      </trkpt>
      <trkpt lat="47.2964" lon="-1.70786">
        <ele>58</ele>
        <time>2011-12-04T12:04:36.1Z</time>
      </trkpt>
      <trkpt lat="47.29633" lon="-1.70771">
        <ele>58</ele>
        <time>2011-12-04T12:04:40.7Z</time>
      </trkpt>
      <trkpt lat="47.29624" lon="-1.70749">
        <ele>58</ele>
        <time>2011-12-04T12:04:41.1Z</time>
      </trkpt>
      <trkpt lat="47.29621" lon="-1.70741">
        <ele>58</ele>
        <time>2011-12-04T12:04:42.1Z</time>
      </trkpt>
      <trkpt lat="47.29615" lon="-1.70723">
        <ele>58</ele>
        <time>2011-12-04T12:04:46.9Z</time>
      </trkpt>
      <trkpt lat="47.29607" lon="-1.70695">
        <ele>58</ele>
        <time>2011-12-04T12:04:47.1Z</time>
      </trkpt>
      <trkpt lat="47.29604" lon="-1.70684">
        <ele>58</ele>
        <time>2011-12-04T12:04:48.1Z</time>
      </trkpt>
      <trkpt lat="47.29587" lon="-1.70632">
        <ele>58</ele>
        <time>2011-12-04T12:04:53.1Z</time>
      </trkpt>
      <trkpt lat="47.29584" lon="-1.70622">
        <ele>58</ele>
        <time>2011-12-04T12:04:54.1Z</time>
      </trkpt>
      <trkpt lat="47.29577" lon="-1.70604">
        <ele>57</ele>
        <time>2011-12-04T12:04:59.2Z</time>
      </trkpt>
      <trkpt lat="47.29566" lon="-1.70569">
        <ele>57</ele>
        <time>2011-12-04T12:05:00.1Z</time>
      </trkpt>
      <trkpt lat="47.29563" lon="-1.7056">
        <ele>56</ele>
        <time>2011-12-04T12:05:01.1Z</time>
      </trkpt>
      <trkpt lat="47.29557" lon="-1.70543">
        <ele>56</ele>
        <time>2011-12-04T12:05:05.5Z</time>
      </trkpt>
      <trkpt lat="47.29546" lon="-1.70513">
        <ele>56</ele>
        <time>2011-12-04T12:05:06.1Z</time>
      </trkpt>
      <trkpt lat="47.29543" lon="-1.70503">
        <ele>55</ele>
        <time>2011-12-04T12:05:07.1Z</time>
      </trkpt>
      <trkpt lat="47.29536" lon="-1.70483">
        <ele>55</ele>
        <time>2011-12-04T12:05:11.6Z</time>
      </trkpt>
      <trkpt lat="47.29525" lon="-1.70454">
        <ele>55</ele>
        <time>2011-12-04T12:05:12.1Z</time>
      </trkpt>
      <trkpt lat="47.29521" lon="-1.70446">
        <ele>55</ele>
        <time>2011-12-04T12:05:13.1Z</time>
      </trkpt>
      <trkpt lat="47.29513" lon="-1.7043">
        <ele>55</ele>
        <time>2011-12-04T12:05:17.8Z</time>
      </trkpt>
      <trkpt lat="47.29502" lon="-1.70412">
        <ele>55</ele>
        <time>2011-12-04T12:05:18.1Z</time>
      </trkpt>
      <trkpt lat="47.295" lon="-1.70409">
        <ele>55</ele>
        <time>2011-12-04T12:05:19.1Z</time>
      </trkpt>
      <trkpt lat="47.29497" lon="-1.70407">
        <ele>55</ele>
        <time>2011-12-04T12:05:20.1Z</time>
      </trkpt>
      <trkpt lat="47.29493" lon="-1.70406">
        <ele>55</ele>
        <time>2011-12-04T12:05:25.6Z</time>
      </trkpt>
      <trkpt lat="47.2949" lon="-1.704">
        <ele>55</ele>
        <time>2011-12-04T12:05:26.4Z</time>
      </trkpt>
      <trkpt lat="47.29491" lon="-1.70399">
        <ele>55</ele>
        <time>2011-12-04T12:05:27.4Z</time>
      </trkpt>
      <trkpt lat="47.29493" lon="-1.70399">
        <ele>54</ele>
        <time>2011-12-04T12:05:28.2Z</time>
      </trkpt>
      <trkpt lat="47.29495" lon="-1.70402">
        <ele>54</ele>
        <time>2011-12-04T12:05:29.2Z</time>
      </trkpt>
      <trkpt lat="47.29499" lon="-1.70407">
        <ele>54</ele>
        <time>2011-12-04T12:05:34.4Z</time>
      </trkpt>
      <trkpt lat="47.29507" lon="-1.70418">
        <ele>53</ele>
        <time>2011-12-04T12:05:35Z</time>
      </trkpt>
      <trkpt lat="47.29509" lon="-1.70422">
        <ele>52</ele>
        <time>2011-12-04T12:05:39.7Z</time>
      </trkpt>
      <trkpt lat="47.2951" lon="-1.70431">
        <ele>52</ele>
        <time>2011-12-04T12:05:40.1Z</time>
      </trkpt>
      <trkpt lat="47.29509" lon="-1.70433">
        <ele>51</ele>
        <time>2011-12-04T12:05:41.7Z</time>
      </trkpt>
      <trkpt lat="47.29508" lon="-1.70435">
        <ele>50</ele>
        <time>2011-12-04T12:05:42.6Z</time>
      </trkpt>
      <trkpt lat="47.29506" lon="-1.70437">
        <ele>49</ele>
        <time>2011-12-04T12:05:43.6Z</time>
      </trkpt>
      <trkpt lat="47.29501" lon="-1.7044">
        <ele>49</ele>
        <time>2011-12-04T12:05:48.4Z</time>
      </trkpt>
      <trkpt lat="47.2949" lon="-1.70446">
        <ele>49</ele>
        <time>2011-12-04T12:05:49.1Z</time>
      </trkpt>
      <trkpt lat="47.29487" lon="-1.70445">
        <ele>49</ele>
        <time>2011-12-04T12:05:50.1Z</time>
      </trkpt>
      <trkpt lat="47.29482" lon="-1.70445">
        <ele>49</ele>
        <time>2011-12-04T12:05:55.5Z</time>
      </trkpt>
      <trkpt lat="47.29474" lon="-1.70446">
        <ele>49</ele>
        <time>2011-12-04T12:05:56Z</time>
      </trkpt>
      <trkpt lat="47.29472" lon="-1.70446">
        <ele>49</ele>
        <time>2011-12-04T12:05:57.1Z</time>
      </trkpt>
      <trkpt lat="47.2947" lon="-1.70446">
        <ele>49</ele>
        <time>2011-12-04T12:05:58.1Z</time>
      </trkpt>
      <trkpt lat="47.29465" lon="-1.70445">
        <ele>49</ele>
        <time>2011-12-04T12:06:02.5Z</time>
      </trkpt>
      <trkpt lat="47.29459" lon="-1.70443">
        <ele>49</ele>
        <time>2011-12-04T12:06:03Z</time>
      </trkpt>
      <trkpt lat="47.29456" lon="-1.70443">
        <ele>49</ele>
        <time>2011-12-04T12:06:04.1Z</time>
      </trkpt>
      <trkpt lat="47.29453" lon="-1.70442">
        <ele>49</ele>
        <time>2011-12-04T12:06:05.1Z</time>
      </trkpt>
      <trkpt lat="47.29448" lon="-1.70439">
        <ele>49</ele>
        <time>2011-12-04T12:06:09.5Z</time>
      </trkpt>
      <trkpt lat="47.2944" lon="-1.70435">
        <ele>49</ele>
        <time>2011-12-04T12:06:10Z</time>
      </trkpt>
      <trkpt lat="47.29437" lon="-1.70435">
        <ele>49</ele>
        <time>2011-12-04T12:06:11Z</time>
      </trkpt>
      <trkpt lat="47.29436" lon="-1.70435">
        <ele>49</ele>
        <time>2011-12-04T12:06:12.4Z</time>
      </trkpt>
      <trkpt lat="47.29431" lon="-1.70436">
        <ele>49</ele>
        <time>2011-12-04T12:06:17.6Z</time>
      </trkpt>
      <trkpt lat="47.29427" lon="-1.7044">
        <ele>49</ele>
        <time>2011-12-04T12:06:18.1Z</time>
      </trkpt>
      <trkpt lat="47.29424" lon="-1.70442">
        <ele>49</ele>
        <time>2011-12-04T12:06:24.6Z</time>
      </trkpt>
      <trkpt lat="47.29421" lon="-1.70446">
        <ele>49</ele>
        <time>2011-12-04T12:06:25.6Z</time>
      </trkpt>
      <trkpt lat="47.29419" lon="-1.70449">
        <ele>49</ele>
        <time>2011-12-04T12:06:31.5Z</time>
      </trkpt>
      <trkpt lat="47.29417" lon="-1.70451">
        <ele>49</ele>
        <time>2011-12-04T12:06:32.3Z</time>
      </trkpt>
      <trkpt lat="47.29414" lon="-1.70453">
        <ele>50</ele>
        <time>2011-12-04T12:06:37Z</time>
      </trkpt>
      <trkpt lat="47.29412" lon="-1.70453">
        <ele>51</ele>
        <time>2011-12-04T12:06:37.1Z</time>
      </trkpt>
      <trkpt lat="47.29411" lon="-1.70452">
        <ele>54</ele>
        <time>2011-12-04T12:06:40.1Z</time>
      </trkpt>
      <trkpt lat="47.2941" lon="-1.70452">
        <ele>55</ele>
        <time>2011-12-04T12:06:45.6Z</time>
      </trkpt>
      <trkpt lat="47.29405" lon="-1.70456">
        <ele>56</ele>
        <time>2011-12-04T12:06:46.4Z</time>
      </trkpt>
      <trkpt lat="47.29404" lon="-1.70457">
        <ele>58</ele>
        <time>2011-12-04T12:06:48.6Z</time>
      </trkpt>
      <trkpt lat="47.29401" lon="-1.70459">
        <ele>60</ele>
        <time>2011-12-04T12:06:54.1Z</time>
      </trkpt>
      <trkpt lat="47.29399" lon="-1.7046">
        <ele>62</ele>
        <time>2011-12-04T12:06:56.5Z</time>
      </trkpt>
      <trkpt lat="47.29397" lon="-1.70461">
        <ele>63</ele>
        <time>2011-12-04T12:07:01.5Z</time>
      </trkpt>
      <trkpt lat="47.29395" lon="-1.70463">
        <ele>64</ele>
        <time>2011-12-04T12:07:02.5Z</time>
      </trkpt>
      <trkpt lat="47.29393" lon="-1.70462">
        <ele>66</ele>
        <time>2011-12-04T12:07:04.2Z</time>
      </trkpt>
      <trkpt lat="47.29392" lon="-1.70463">
        <ele>67</ele>
        <time>2011-12-04T12:07:09.4Z</time>
      </trkpt>
      <trkpt lat="47.29389" lon="-1.70466">
        <ele>67</ele>
        <time>2011-12-04T12:07:10.1Z</time>
      </trkpt>
      <trkpt lat="47.29387" lon="-1.70466">
        <ele>68</ele>
        <time>2011-12-04T12:07:12.1Z</time>
      </trkpt>
      <trkpt lat="47.29386" lon="-1.70468">
        <ele>68</ele>
        <time>2011-12-04T12:07:17.5Z</time>
      </trkpt>
      <trkpt lat="47.29383" lon="-1.70471">
        <ele>69</ele>
        <time>2011-12-04T12:07:18.2Z</time>
      </trkpt>
      <trkpt lat="47.2938" lon="-1.70472">
        <ele>70</ele>
        <time>2011-12-04T12:07:20.4Z</time>
      </trkpt>
      <trkpt lat="47.29378" lon="-1.70473">
        <ele>70</ele>
        <time>2011-12-04T12:07:24.9Z</time>
      </trkpt>
      <trkpt lat="47.29375" lon="-1.70475">
        <ele>70</ele>
        <time>2011-12-04T12:07:25.6Z</time>
      </trkpt>
      <trkpt lat="47.29373" lon="-1.70476">
        <ele>70</ele>
        <time>2011-12-04T12:07:27.2Z</time>
      </trkpt>
      <trkpt lat="47.29371" lon="-1.70479">
        <ele>70</ele>
        <time>2011-12-04T12:07:32.6Z</time>
      </trkpt>
      <trkpt lat="47.29369" lon="-1.70482">
        <ele>69</ele>
        <time>2011-12-04T12:07:33.4Z</time>
      </trkpt>
      <trkpt lat="47.29368" lon="-1.70483">
        <ele>69</ele>
        <time>2011-12-04T12:07:35.2Z</time>
      </trkpt>
      <trkpt lat="47.29367" lon="-1.70484">
        <ele>69</ele>
        <time>2011-12-04T12:07:40.6Z</time>
      </trkpt>
      <trkpt lat="47.29362" lon="-1.70489">
        <ele>69</ele>
        <time>2011-12-04T12:07:41.3Z</time>
      </trkpt>
      <trkpt lat="47.29361" lon="-1.7049">
        <ele>69</ele>
        <time>2011-12-04T12:07:43.5Z</time>
      </trkpt>
      <trkpt lat="47.29359" lon="-1.70493">
        <ele>68</ele>
        <time>2011-12-04T12:07:48.3Z</time>
      </trkpt>
      <trkpt lat="47.29353" lon="-1.70498">
        <ele>67</ele>
        <time>2011-12-04T12:07:49Z</time>
      </trkpt>
      <trkpt lat="47.2935" lon="-1.70501">
        <ele>66</ele>
        <time>2011-12-04T12:07:54.1Z</time>
      </trkpt>
      <trkpt lat="47.29344" lon="-1.7051">
        <ele>65</ele>
        <time>2011-12-04T12:07:55.5Z</time>
      </trkpt>
      <trkpt lat="47.29342" lon="-1.70512">
        <ele>65</ele>
        <time>2011-12-04T12:07:56Z</time>
      </trkpt>
      <trkpt lat="47.2934" lon="-1.70515">
        <ele>64</ele>
        <time>2011-12-04T12:07:57.2Z</time>
      </trkpt>
      <trkpt lat="47.29335" lon="-1.7052">
        <ele>64</ele>
        <time>2011-12-04T12:08:01.6Z</time>
      </trkpt>
      <trkpt lat="47.29328" lon="-1.70529">
        <ele>64</ele>
        <time>2011-12-04T12:08:02Z</time>
      </trkpt>
      <trkpt lat="47.29327" lon="-1.70532">
        <ele>64</ele>
        <time>2011-12-04T12:08:03Z</time>
      </trkpt>
      <trkpt lat="47.29323" lon="-1.70536">
        <ele>64</ele>
        <time>2011-12-04T12:08:07.9Z</time>
      </trkpt>
      <trkpt lat="47.29317" lon="-1.70543">
        <ele>64</ele>
        <time>2011-12-04T12:08:08.4Z</time>
      </trkpt>
      <trkpt lat="47.29314" lon="-1.70546">
        <ele>64</ele>
        <time>2011-12-04T12:08:13.5Z</time>
      </trkpt>
      <trkpt lat="47.29306" lon="-1.70556">
        <ele>64</ele>
        <time>2011-12-04T12:08:14Z</time>
      </trkpt>
      <trkpt lat="47.29298" lon="-1.70566">
        <ele>64</ele>
        <time>2011-12-04T12:08:19.1Z</time>
      </trkpt>
      <trkpt lat="47.29296" lon="-1.70567">
        <ele>63</ele>
        <time>2011-12-04T12:08:20.5Z</time>
      </trkpt>
      <trkpt lat="47.29294" lon="-1.70568">
        <ele>63</ele>
        <time>2011-12-04T12:08:21.3Z</time>
      </trkpt>
      <trkpt lat="47.29291" lon="-1.70568">
        <ele>62</ele>
        <time>2011-12-04T12:08:22.5Z</time>
      </trkpt>
      <trkpt lat="47.29288" lon="-1.70568">
        <ele>62</ele>
        <time>2011-12-04T12:08:27.5Z</time>
      </trkpt>
      <trkpt lat="47.29279" lon="-1.70561">
        <ele>61</ele>
        <time>2011-12-04T12:08:28.5Z</time>
      </trkpt>
      <trkpt lat="47.29277" lon="-1.70558">
        <ele>61</ele>
        <time>2011-12-04T12:08:29Z</time>
      </trkpt>
      <trkpt lat="47.29275" lon="-1.70556">
        <ele>61</ele>
        <time>2011-12-04T12:08:30.2Z</time>
      </trkpt>
      <trkpt lat="47.2927" lon="-1.7055">
        <ele>60</ele>
        <time>2011-12-04T12:08:34.6Z</time>
      </trkpt>
      <trkpt lat="47.29261" lon="-1.70542">
        <ele>59</ele>
        <time>2011-12-04T12:08:35Z</time>
      </trkpt>
      <trkpt lat="47.29259" lon="-1.70539">
        <ele>58</ele>
        <time>2011-12-04T12:08:36Z</time>
      </trkpt>
      <trkpt lat="47.29254" lon="-1.70533">
        <ele>57</ele>
        <time>2011-12-04T12:08:40.8Z</time>
      </trkpt>
      <trkpt lat="47.29246" lon="-1.70522">
        <ele>56</ele>
        <time>2011-12-04T12:08:45.2Z</time>
      </trkpt>
      <trkpt lat="47.29239" lon="-1.70508">
        <ele>55</ele>
        <time>2011-12-04T12:08:46Z</time>
      </trkpt>
      <trkpt lat="47.29238" lon="-1.70504">
        <ele>54</ele>
        <time>2011-12-04T12:08:47Z</time>
      </trkpt>
      <trkpt lat="47.29235" lon="-1.70495">
        <ele>54</ele>
        <time>2011-12-04T12:08:52.8Z</time>
      </trkpt>
      <trkpt lat="47.29228" lon="-1.70477">
        <ele>54</ele>
        <time>2011-12-04T12:08:53.1Z</time>
      </trkpt>
      <trkpt lat="47.29227" lon="-1.70472">
        <ele>54</ele>
        <time>2011-12-04T12:08:54Z</time>
      </trkpt>
      <trkpt lat="47.29225" lon="-1.70464">
        <ele>54</ele>
        <time>2011-12-04T12:08:58.5Z</time>
      </trkpt>
      <trkpt lat="47.29222" lon="-1.7045">
        <ele>54</ele>
        <time>2011-12-04T12:08:59Z</time>
      </trkpt>
      <trkpt lat="47.2922" lon="-1.70445">
        <ele>54</ele>
        <time>2011-12-04T12:09:00Z</time>
      </trkpt>
      <trkpt lat="47.29218" lon="-1.70437">
        <ele>54</ele>
        <time>2011-12-04T12:09:04.7Z</time>
      </trkpt>
      <trkpt lat="47.29215" lon="-1.70426">
        <ele>54</ele>
        <time>2011-12-04T12:09:05Z</time>
      </trkpt>
      <trkpt lat="47.29215" lon="-1.70423">
        <ele>54</ele>
        <time>2011-12-04T12:09:06Z</time>
      </trkpt>
      <trkpt lat="47.29213" lon="-1.70417">
        <ele>54</ele>
        <time>2011-12-04T12:09:10.9Z</time>
      </trkpt>
      <trkpt lat="47.29212" lon="-1.70412">
        <ele>54</ele>
        <time>2011-12-04T12:09:11.1Z</time>
      </trkpt>
      <trkpt lat="47.29214" lon="-1.70413">
        <ele>54</ele>
        <time>2011-12-04T12:09:13.2Z</time>
      </trkpt>
      <trkpt lat="47.29214" lon="-1.70415">
        <ele>54</ele>
        <time>2011-12-04T12:09:14Z</time>
      </trkpt>
      <trkpt lat="47.29214" lon="-1.70417">
        <ele>54</ele>
        <time>2011-12-04T12:09:15.1Z</time>
      </trkpt>
      <trkpt lat="47.29215" lon="-1.70423">
        <ele>54</ele>
        <time>2011-12-04T12:09:20.3Z</time>
      </trkpt>
      <trkpt lat="47.29218" lon="-1.70438">
        <ele>54</ele>
        <time>2011-12-04T12:09:21Z</time>
      </trkpt>
      <trkpt lat="47.2922" lon="-1.70448">
        <ele>54</ele>
        <time>2011-12-04T12:09:25.7Z</time>
      </trkpt>
      <trkpt lat="47.29223" lon="-1.70464">
        <ele>54</ele>
        <time>2011-12-04T12:09:26Z</time>
      </trkpt>
      <trkpt lat="47.29225" lon="-1.7047">
        <ele>54</ele>
        <time>2011-12-04T12:09:27Z</time>
      </trkpt>
      <trkpt lat="47.29227" lon="-1.7048">
        <ele>54</ele>
        <time>2011-12-04T12:09:31.9Z</time>
      </trkpt>
      <trkpt lat="47.29232" lon="-1.70494">
        <ele>54</ele>
        <time>2011-12-04T12:09:32.1Z</time>
      </trkpt>
      <trkpt lat="47.29234" lon="-1.705">
        <ele>54</ele>
        <time>2011-12-04T12:09:33Z</time>
      </trkpt>
      <trkpt lat="47.29245" lon="-1.70525">
        <ele>53</ele>
        <time>2011-12-04T12:09:38.1Z</time>
      </trkpt>
      <trkpt lat="47.29248" lon="-1.70529">
        <ele>53</ele>
        <time>2011-12-04T12:09:39.5Z</time>
      </trkpt>
      <trkpt lat="47.2925" lon="-1.70533">
        <ele>52</ele>
        <time>2011-12-04T12:09:40Z</time>
      </trkpt>
      <trkpt lat="47.29266" lon="-1.70553">
        <ele>52</ele>
        <time>2011-12-04T12:09:45.1Z</time>
      </trkpt>
      <trkpt lat="47.29269" lon="-1.70557">
        <ele>52</ele>
        <time>2011-12-04T12:09:46Z</time>
      </trkpt>
      <trkpt lat="47.29274" lon="-1.70564">
        <ele>52</ele>
        <time>2011-12-04T12:09:51.2Z</time>
      </trkpt>
      <trkpt lat="47.29282" lon="-1.70576">
        <ele>52</ele>
        <time>2011-12-04T12:09:52Z</time>
      </trkpt>
      <trkpt lat="47.29281" lon="-1.70579">
        <ele>52</ele>
        <time>2011-12-04T12:09:53.2Z</time>
      </trkpt>
      <trkpt lat="47.2928" lon="-1.70581">
        <ele>52</ele>
        <time>2011-12-04T12:09:54.2Z</time>
      </trkpt>
      <trkpt lat="47.29276" lon="-1.70586">
        <ele>52</ele>
        <time>2011-12-04T12:09:59.5Z</time>
      </trkpt>
      <trkpt lat="47.29265" lon="-1.70597">
        <ele>52</ele>
        <time>2011-12-04T12:10:00.5Z</time>
      </trkpt>
      <trkpt lat="47.2926" lon="-1.70604">
        <ele>52</ele>
        <time>2011-12-04T12:10:04.9Z</time>
      </trkpt>
      <trkpt lat="47.29254" lon="-1.70615">
        <ele>52</ele>
        <time>2011-12-04T12:10:05.1Z</time>
      </trkpt>
      <trkpt lat="47.29252" lon="-1.70618">
        <ele>52</ele>
        <time>2011-12-04T12:10:06Z</time>
      </trkpt>
      <trkpt lat="47.29248" lon="-1.70626">
        <ele>53</ele>
        <time>2011-12-04T12:10:11.2Z</time>
      </trkpt>
      <trkpt lat="47.29239" lon="-1.70642">
        <ele>54</ele>
        <time>2011-12-04T12:10:12Z</time>
      </trkpt>
      <trkpt lat="47.29236" lon="-1.70646">
        <ele>55</ele>
        <time>2011-12-04T12:10:13Z</time>
      </trkpt>
      <trkpt lat="47.29233" lon="-1.70655">
        <ele>56</ele>
        <time>2011-12-04T12:10:17.5Z</time>
      </trkpt>
      <trkpt lat="47.29227" lon="-1.70665">
        <ele>57</ele>
        <time>2011-12-04T12:10:18Z</time>
      </trkpt>
      <trkpt lat="47.29225" lon="-1.70669">
        <ele>58</ele>
        <time>2011-12-04T12:10:19Z</time>
      </trkpt>
      <trkpt lat="47.29221" lon="-1.70675">
        <ele>59</ele>
        <time>2011-12-04T12:10:23.7Z</time>
      </trkpt>
      <trkpt lat="47.29215" lon="-1.70684">
        <ele>59</ele>
        <time>2011-12-04T12:10:24Z</time>
      </trkpt>
      <trkpt lat="47.29213" lon="-1.70686">
        <ele>59</ele>
        <time>2011-12-04T12:10:25Z</time>
      </trkpt>
      <trkpt lat="47.2921" lon="-1.70688">
        <ele>60</ele>
        <time>2011-12-04T12:10:26.6Z</time>
      </trkpt>
      <trkpt lat="47.29199" lon="-1.70697">
        <ele>61</ele>
        <time>2011-12-04T12:10:31.1Z</time>
      </trkpt>
      <trkpt lat="47.29197" lon="-1.70699">
        <ele>62</ele>
        <time>2011-12-04T12:10:32Z</time>
      </trkpt>
      <trkpt lat="47.29196" lon="-1.707">
        <ele>62</ele>
        <time>2011-12-04T12:10:33Z</time>
      </trkpt>
      <trkpt lat="47.29192" lon="-1.70702">
        <ele>63</ele>
        <time>2011-12-04T12:10:37.5Z</time>
      </trkpt>
      <trkpt lat="47.29185" lon="-1.70705">
        <ele>63</ele>
        <time>2011-12-04T12:10:38Z</time>
      </trkpt>
      <trkpt lat="47.29182" lon="-1.70707">
        <ele>63</ele>
        <time>2011-12-04T12:10:39Z</time>
      </trkpt>
      <trkpt lat="47.29178" lon="-1.70709">
        <ele>63</ele>
        <time>2011-12-04T12:10:43.7Z</time>
      </trkpt>
      <trkpt lat="47.29171" lon="-1.70712">
        <ele>63</ele>
        <time>2011-12-04T12:10:44Z</time>
      </trkpt>
      <trkpt lat="47.29169" lon="-1.70713">
        <ele>63</ele>
        <time>2011-12-04T12:10:45.4Z</time>
      </trkpt>
      <trkpt lat="47.29154" lon="-1.70718">
        <ele>64</ele>
        <time>2011-12-04T12:10:50.1Z</time>
      </trkpt>
      <trkpt lat="47.29152" lon="-1.70719">
        <ele>64</ele>
        <time>2011-12-04T12:10:51.1Z</time>
      </trkpt>
      <trkpt lat="47.2915" lon="-1.70721">
        <ele>64</ele>
        <time>2011-12-04T12:10:52Z</time>
      </trkpt>
      <trkpt lat="47.29145" lon="-1.70723">
        <ele>64</ele>
        <time>2011-12-04T12:10:56.6Z</time>
      </trkpt>
      <trkpt lat="47.29137" lon="-1.70728">
        <ele>64</ele>
        <time>2011-12-04T12:10:57Z</time>
      </trkpt>
      <trkpt lat="47.29134" lon="-1.7073">
        <ele>64</ele>
        <time>2011-12-04T12:10:58Z</time>
      </trkpt>
      <trkpt lat="47.2913" lon="-1.70732">
        <ele>64</ele>
        <time>2011-12-04T12:11:02.8Z</time>
      </trkpt>
      <trkpt lat="47.29124" lon="-1.70734">
        <ele>64</ele>
        <time>2011-12-04T12:11:03Z</time>
      </trkpt>
      <trkpt lat="47.29122" lon="-1.70735">
        <ele>64</ele>
        <time>2011-12-04T12:11:04Z</time>
      </trkpt>
      <trkpt lat="47.29115" lon="-1.7074">
        <ele>64</ele>
        <time>2011-12-04T12:11:09.1Z</time>
      </trkpt>
      <trkpt lat="47.29113" lon="-1.70741">
        <ele>65</ele>
        <time>2011-12-04T12:11:10Z</time>
      </trkpt>
      <trkpt lat="47.29111" lon="-1.70742">
        <ele>65</ele>
        <time>2011-12-04T12:11:11.4Z</time>
      </trkpt>
      <trkpt lat="47.29109" lon="-1.70742">
        <ele>66</ele>
        <time>2011-12-04T12:11:12.4Z</time>
      </trkpt>
      <trkpt lat="47.29104" lon="-1.70744">
        <ele>66</ele>
        <time>2011-12-04T12:11:16.9Z</time>
      </trkpt>
      <trkpt lat="47.29099" lon="-1.70747">
        <ele>66</ele>
        <time>2011-12-04T12:11:17.1Z</time>
      </trkpt>
      <trkpt lat="47.29097" lon="-1.70749">
        <ele>66</ele>
        <time>2011-12-04T12:11:18.5Z</time>
      </trkpt>
      <trkpt lat="47.29095" lon="-1.70751">
        <ele>66</ele>
        <time>2011-12-04T12:11:19.2Z</time>
      </trkpt>
      <trkpt lat="47.29093" lon="-1.70755">
        <ele>66</ele>
        <time>2011-12-04T12:11:23.7Z</time>
      </trkpt>
      <trkpt lat="47.29089" lon="-1.70759">
        <ele>66</ele>
        <time>2011-12-04T12:11:24Z</time>
      </trkpt>
      <trkpt lat="47.29088" lon="-1.70761">
        <ele>66</ele>
        <time>2011-12-04T12:11:25Z</time>
      </trkpt>
      <trkpt lat="47.29077" lon="-1.70778">
        <ele>66</ele>
        <time>2011-12-04T12:11:30.1Z</time>
      </trkpt>
      <trkpt lat="47.29075" lon="-1.70781">
        <ele>66</ele>
        <time>2011-12-04T12:11:31Z</time>
      </trkpt>
      <trkpt lat="47.29071" lon="-1.70787">
        <ele>66</ele>
        <time>2011-12-04T12:11:36.2Z</time>
      </trkpt>
      <trkpt lat="47.29062" lon="-1.70801">
        <ele>66</ele>
        <time>2011-12-04T12:11:37Z</time>
      </trkpt>
      <trkpt lat="47.2906" lon="-1.70804">
        <ele>66</ele>
        <time>2011-12-04T12:11:38Z</time>
      </trkpt>
      <trkpt lat="47.29058" lon="-1.70812">
        <ele>66</ele>
        <time>2011-12-04T12:11:42.5Z</time>
      </trkpt>
      <trkpt lat="47.29052" lon="-1.7082">
        <ele>66</ele>
        <time>2011-12-04T12:11:43Z</time>
      </trkpt>
      <trkpt lat="47.29049" lon="-1.70822">
        <ele>66</ele>
        <time>2011-12-04T12:11:44.2Z</time>
      </trkpt>
      <trkpt lat="47.29047" lon="-1.70822">
        <ele>66</ele>
        <time>2011-12-04T12:11:45Z</time>
      </trkpt>
      <trkpt lat="47.2904" lon="-1.70826">
        <ele>66</ele>
        <time>2011-12-04T12:11:49.5Z</time>
      </trkpt>
      <trkpt lat="47.29029" lon="-1.70834">
        <ele>66</ele>
        <time>2011-12-04T12:11:50Z</time>
      </trkpt>
      <trkpt lat="47.29026" lon="-1.70836">
        <ele>66</ele>
        <time>2011-12-04T12:11:51.4Z</time>
      </trkpt>
      <trkpt lat="47.2902" lon="-1.70839">
        <ele>66</ele>
        <time>2011-12-04T12:11:56.1Z</time>
      </trkpt>
      <trkpt lat="47.29008" lon="-1.70844">
        <ele>66</ele>
        <time>2011-12-04T12:11:57Z</time>
      </trkpt>
      <trkpt lat="47.29005" lon="-1.70845">
        <ele>67</ele>
        <time>2011-12-04T12:11:58Z</time>
      </trkpt>
      <trkpt lat="47.28999" lon="-1.70845">
        <ele>67</ele>
        <time>2011-12-04T12:12:02.5Z</time>
      </trkpt>
      <trkpt lat="47.28991" lon="-1.70843">
        <ele>67</ele>
        <time>2011-12-04T12:12:03Z</time>
      </trkpt>
      <trkpt lat="47.28988" lon="-1.70842">
        <ele>68</ele>
        <time>2011-12-04T12:12:04.2Z</time>
      </trkpt>
      <trkpt lat="47.28984" lon="-1.70841">
        <ele>68</ele>
        <time>2011-12-04T12:12:05.8Z</time>
      </trkpt>
      <trkpt lat="47.28977" lon="-1.70838">
        <ele>68</ele>
        <time>2011-12-04T12:12:10.3Z</time>
      </trkpt>
      <trkpt lat="47.2896" lon="-1.70835">
        <ele>68</ele>
        <time>2011-12-04T12:12:11Z</time>
      </trkpt>
      <trkpt lat="47.28957" lon="-1.70833">
        <ele>68</ele>
        <time>2011-12-04T12:12:12Z</time>
      </trkpt>
      <trkpt lat="47.2895" lon="-1.7083">
        <ele>68</ele>
        <time>2011-12-04T12:12:16.5Z</time>
      </trkpt>
      <trkpt lat="47.28941" lon="-1.70825">
        <ele>68</ele>
        <time>2011-12-04T12:12:17Z</time>
      </trkpt>
      <trkpt lat="47.28938" lon="-1.70824">
        <ele>68</ele>
        <time>2011-12-04T12:12:18Z</time>
      </trkpt>
      <trkpt lat="47.28933" lon="-1.7082">
        <ele>68</ele>
        <time>2011-12-04T12:12:22.8Z</time>
      </trkpt>
      <trkpt lat="47.28928" lon="-1.70815">
        <ele>68</ele>
        <time>2011-12-04T12:12:23Z</time>
      </trkpt>
      <trkpt lat="47.28927" lon="-1.70816">
        <ele>68</ele>
        <time>2011-12-04T12:12:25.2Z</time>
      </trkpt>
      <trkpt lat="47.28925" lon="-1.70816">
        <ele>68</ele>
        <time>2011-12-04T12:12:30.9Z</time>
      </trkpt>
      <trkpt lat="47.2892" lon="-1.70809">
        <ele>68</ele>
        <time>2011-12-04T12:12:31.9Z</time>
      </trkpt>
      <trkpt lat="47.28918" lon="-1.70806">
        <ele>68</ele>
        <time>2011-12-04T12:12:32.9Z</time>
      </trkpt>
      <trkpt lat="47.28917" lon="-1.70803">
        <ele>68</ele>
        <time>2011-12-04T12:12:33.8Z</time>
      </trkpt>
      <trkpt lat="47.28915" lon="-1.70801">
        <ele>68</ele>
        <time>2011-12-04T12:12:34.1Z</time>
      </trkpt>
      <trkpt lat="47.28912" lon="-1.70796">
        <ele>68</ele>
        <time>2011-12-04T12:12:38.5Z</time>
      </trkpt>
      <trkpt lat="47.28906" lon="-1.70785">
        <ele>68</ele>
        <time>2011-12-04T12:12:39Z</time>
      </trkpt>
      <trkpt lat="47.28904" lon="-1.70782">
        <ele>68</ele>
        <time>2011-12-04T12:12:40Z</time>
      </trkpt>
      <trkpt lat="47.28901" lon="-1.70774">
        <ele>68</ele>
        <time>2011-12-04T12:12:44.8Z</time>
      </trkpt>
      <trkpt lat="47.28896" lon="-1.70761">
        <ele>68</ele>
        <time>2011-12-04T12:12:45Z</time>
      </trkpt>
      <trkpt lat="47.28895" lon="-1.70757">
        <ele>68</ele>
        <time>2011-12-04T12:12:46Z</time>
      </trkpt>
      <trkpt lat="47.28888" lon="-1.7073">
        <ele>68</ele>
        <time>2011-12-04T12:12:51.1Z</time>
      </trkpt>
      <trkpt lat="47.28886" lon="-1.70724">
        <ele>68</ele>
        <time>2011-12-04T12:12:52Z</time>
      </trkpt>
      <trkpt lat="47.28884" lon="-1.70712">
        <ele>68</ele>
        <time>2011-12-04T12:12:57.3Z</time>
      </trkpt>
      <trkpt lat="47.28877" lon="-1.70689">
        <ele>68</ele>
        <time>2011-12-04T12:12:58Z</time>
      </trkpt>
      <trkpt lat="47.28874" lon="-1.70683">
        <ele>68</ele>
        <time>2011-12-04T12:12:59Z</time>
      </trkpt>
      <trkpt lat="47.28871" lon="-1.70677">
        <ele>68</ele>
        <time>2011-12-04T12:13:00.4Z</time>
      </trkpt>
      <trkpt lat="47.28853" lon="-1.70651">
        <ele>68</ele>
        <time>2011-12-04T12:13:05Z</time>
      </trkpt>
      <trkpt lat="47.2885" lon="-1.70647">
        <ele>68</ele>
        <time>2011-12-04T12:13:06Z</time>
      </trkpt>
      <trkpt lat="47.28842" lon="-1.70639">
        <ele>68</ele>
        <time>2011-12-04T12:13:11.2Z</time>
      </trkpt>
      <trkpt lat="47.28828" lon="-1.70623">
        <ele>68</ele>
        <time>2011-12-04T12:13:12Z</time>
      </trkpt>
      <trkpt lat="47.28825" lon="-1.70619">
        <ele>68</ele>
        <time>2011-12-04T12:13:13Z</time>
      </trkpt>
      <trkpt lat="47.28819" lon="-1.70614">
        <ele>68</ele>
        <time>2011-12-04T12:13:17.7Z</time>
      </trkpt>
      <trkpt lat="47.28816" lon="-1.70608">
        <ele>68</ele>
        <time>2011-12-04T12:13:18Z</time>
      </trkpt>
      <trkpt lat="47.28814" lon="-1.70605">
        <ele>68</ele>
        <time>2011-12-04T12:13:24.1Z</time>
      </trkpt>
      <trkpt lat="47.28811" lon="-1.70605">
        <ele>68</ele>
        <time>2011-12-04T12:13:33Z</time>
      </trkpt>
      <trkpt lat="47.2881" lon="-1.70604">
        <ele>68</ele>
        <time>2011-12-04T12:13:34Z</time>
      </trkpt>
      <trkpt lat="47.28808" lon="-1.70603">
        <ele>68</ele>
        <time>2011-12-04T12:13:35Z</time>
      </trkpt>
      <trkpt lat="47.28803" lon="-1.706">
        <ele>68</ele>
        <time>2011-12-04T12:13:39.6Z</time>
      </trkpt>
      <trkpt lat="47.28794" lon="-1.70594">
        <ele>68</ele>
        <time>2011-12-04T12:13:40Z</time>
      </trkpt>
      <trkpt lat="47.28791" lon="-1.70591">
        <ele>68</ele>
        <time>2011-12-04T12:13:41Z</time>
      </trkpt>
      <trkpt lat="47.28784" lon="-1.70586">
        <ele>68</ele>
        <time>2011-12-04T12:13:45.8Z</time>
      </trkpt>
      <trkpt lat="47.28772" lon="-1.70579">
        <ele>67</ele>
        <time>2011-12-04T12:13:46Z</time>
      </trkpt>
      <trkpt lat="47.28767" lon="-1.70577">
        <ele>67</ele>
        <time>2011-12-04T12:13:47Z</time>
      </trkpt>
      <trkpt lat="47.28758" lon="-1.70573">
        <ele>66</ele>
        <time>2011-12-04T12:13:52.1Z</time>
      </trkpt>
      <trkpt lat="47.28739" lon="-1.70566">
        <ele>66</ele>
        <time>2011-12-04T12:13:53Z</time>
      </trkpt>
      <trkpt lat="47.28735" lon="-1.70565">
        <ele>66</ele>
        <time>2011-12-04T12:13:54Z</time>
      </trkpt>
      <trkpt lat="47.28726" lon="-1.70562">
        <ele>66</ele>
        <time>2011-12-04T12:13:58.6Z</time>
      </trkpt>
      <trkpt lat="47.28715" lon="-1.70558">
        <ele>66</ele>
        <time>2011-12-04T12:13:59Z</time>
      </trkpt>
      <trkpt lat="47.28712" lon="-1.70557">
        <ele>66</ele>
        <time>2011-12-04T12:14:00Z</time>
      </trkpt>
      <trkpt lat="47.28707" lon="-1.70555">
        <ele>66</ele>
        <time>2011-12-04T12:14:04.8Z</time>
      </trkpt>
      <trkpt lat="47.28699" lon="-1.70553">
        <ele>66</ele>
        <time>2011-12-04T12:14:05Z</time>
      </trkpt>
      <trkpt lat="47.28696" lon="-1.70552">
        <ele>66</ele>
        <time>2011-12-04T12:14:06Z</time>
      </trkpt>
      <trkpt lat="47.28687" lon="-1.70552">
        <ele>66</ele>
        <time>2011-12-04T12:14:11.1Z</time>
      </trkpt>
      <trkpt lat="47.28671" lon="-1.70553">
        <ele>66</ele>
        <time>2011-12-04T12:14:12Z</time>
      </trkpt>
      <trkpt lat="47.28667" lon="-1.70553">
        <ele>65</ele>
        <time>2011-12-04T12:14:13Z</time>
      </trkpt>
      <trkpt lat="47.28659" lon="-1.70553">
        <ele>64</ele>
        <time>2011-12-04T12:14:17.5Z</time>
      </trkpt>
      <trkpt lat="47.28646" lon="-1.70553">
        <ele>63</ele>
        <time>2011-12-04T12:14:18Z</time>
      </trkpt>
      <trkpt lat="47.28642" lon="-1.70553">
        <ele>62</ele>
        <time>2011-12-04T12:14:19Z</time>
      </trkpt>
      <trkpt lat="47.28634" lon="-1.70551">
        <ele>61</ele>
        <time>2011-12-04T12:14:23.8Z</time>
      </trkpt>
      <trkpt lat="47.28621" lon="-1.70549">
        <ele>61</ele>
        <time>2011-12-04T12:14:24Z</time>
      </trkpt>
      <trkpt lat="47.28617" lon="-1.70549">
        <ele>61</ele>
        <time>2011-12-04T12:14:25Z</time>
      </trkpt>
      <trkpt lat="47.28593" lon="-1.70545">
        <ele>61</ele>
        <time>2011-12-04T12:14:30.1Z</time>
      </trkpt>
      <trkpt lat="47.28588" lon="-1.70545">
        <ele>61</ele>
        <time>2011-12-04T12:14:31Z</time>
      </trkpt>
      <trkpt lat="47.28583" lon="-1.70544">
        <ele>61</ele>
        <time>2011-12-04T12:14:32Z</time>
      </trkpt>
      <trkpt lat="47.28573" lon="-1.70542">
        <ele>61</ele>
        <time>2011-12-04T12:14:36.6Z</time>
      </trkpt>
      <trkpt lat="47.28559" lon="-1.7054">
        <ele>61</ele>
        <time>2011-12-04T12:14:37Z</time>
      </trkpt>
      <trkpt lat="47.28554" lon="-1.70539">
        <ele>61</ele>
        <time>2011-12-04T12:14:38Z</time>
      </trkpt>
      <trkpt lat="47.28544" lon="-1.70537">
        <ele>61</ele>
        <time>2011-12-04T12:14:42.9Z</time>
      </trkpt>
      <trkpt lat="47.2853" lon="-1.70536">
        <ele>61</ele>
        <time>2011-12-04T12:14:43.1Z</time>
      </trkpt>
      <trkpt lat="47.28525" lon="-1.70535">
        <ele>61</ele>
        <time>2011-12-04T12:14:44Z</time>
      </trkpt>
      <trkpt lat="47.28515" lon="-1.70534">
        <ele>61</ele>
        <time>2011-12-04T12:14:49.2Z</time>
      </trkpt>
      <trkpt lat="47.28493" lon="-1.70531">
        <ele>61</ele>
        <time>2011-12-04T12:14:50Z</time>
      </trkpt>
      <trkpt lat="47.28488" lon="-1.70531">
        <ele>61</ele>
        <time>2011-12-04T12:14:51Z</time>
      </trkpt>
      <trkpt lat="47.28476" lon="-1.70529">
        <ele>62</ele>
        <time>2011-12-04T12:14:55.5Z</time>
      </trkpt>
      <trkpt lat="47.28458" lon="-1.70528">
        <ele>62</ele>
        <time>2011-12-04T12:14:56Z</time>
      </trkpt>
      <trkpt lat="47.28453" lon="-1.70527">
        <ele>62</ele>
        <time>2011-12-04T12:14:57Z</time>
      </trkpt>
      <trkpt lat="47.28441" lon="-1.70526">
        <ele>62</ele>
        <time>2011-12-04T12:15:01.9Z</time>
      </trkpt>
      <trkpt lat="47.28423" lon="-1.70525">
        <ele>62</ele>
        <time>2011-12-04T12:15:02Z</time>
      </trkpt>
      <trkpt lat="47.28418" lon="-1.70525">
        <ele>62</ele>
        <time>2011-12-04T12:15:03Z</time>
      </trkpt>
      <trkpt lat="47.28407" lon="-1.70525">
        <ele>62</ele>
        <time>2011-12-04T12:15:08.2Z</time>
      </trkpt>
      <trkpt lat="47.28386" lon="-1.70527">
        <ele>62</ele>
        <time>2011-12-04T12:15:09Z</time>
      </trkpt>
      <trkpt lat="47.28381" lon="-1.70528">
        <ele>62</ele>
        <time>2011-12-04T12:15:10Z</time>
      </trkpt>
      <trkpt lat="47.2837" lon="-1.7053">
        <ele>62</ele>
        <time>2011-12-04T12:15:14.5Z</time>
      </trkpt>
      <trkpt lat="47.28352" lon="-1.70535">
        <ele>62</ele>
        <time>2011-12-04T12:15:15Z</time>
      </trkpt>
      <trkpt lat="47.28346" lon="-1.70537">
        <ele>62</ele>
        <time>2011-12-04T12:15:16Z</time>
      </trkpt>
      <trkpt lat="47.28333" lon="-1.70542">
        <ele>62</ele>
        <time>2011-12-04T12:15:20.9Z</time>
      </trkpt>
      <trkpt lat="47.28315" lon="-1.70551">
        <ele>62</ele>
        <time>2011-12-04T12:15:21Z</time>
      </trkpt>
      <trkpt lat="47.2831" lon="-1.70553">
        <ele>62</ele>
        <time>2011-12-04T12:15:22Z</time>
      </trkpt>
      <trkpt lat="47.283" lon="-1.70558">
        <ele>62</ele>
        <time>2011-12-04T12:15:27.2Z</time>
      </trkpt>
      <trkpt lat="47.28287" lon="-1.70567">
        <ele>62</ele>
        <time>2011-12-04T12:15:28Z</time>
      </trkpt>
      <trkpt lat="47.28286" lon="-1.70565">
        <ele>62</ele>
        <time>2011-12-04T12:15:29.4Z</time>
      </trkpt>
      <trkpt lat="47.28286" lon="-1.70563">
        <ele>62</ele>
        <time>2011-12-04T12:15:30.2Z</time>
      </trkpt>
      <trkpt lat="47.28289" lon="-1.7056">
        <ele>62</ele>
        <time>2011-12-04T12:15:35.3Z</time>
      </trkpt>
      <trkpt lat="47.283" lon="-1.70554">
        <ele>62</ele>
        <time>2011-12-04T12:15:36.5Z</time>
      </trkpt>
      <trkpt lat="47.28303" lon="-1.70552">
        <ele>62</ele>
        <time>2011-12-04T12:15:37.3Z</time>
      </trkpt>
      <trkpt lat="47.2831" lon="-1.70548">
        <ele>62</ele>
        <time>2011-12-04T12:15:41.8Z</time>
      </trkpt>
      <trkpt lat="47.28316" lon="-1.70539">
        <ele>62</ele>
        <time>2011-12-04T12:15:42Z</time>
      </trkpt>
      <trkpt lat="47.28315" lon="-1.70535">
        <ele>62</ele>
        <time>2011-12-04T12:15:43.2Z</time>
      </trkpt>
      <trkpt lat="47.28313" lon="-1.70531">
        <ele>62</ele>
        <time>2011-12-04T12:15:44.6Z</time>
      </trkpt>
      <trkpt lat="47.28311" lon="-1.70526">
        <ele>62</ele>
        <time>2011-12-04T12:15:45.1Z</time>
      </trkpt>
      <trkpt lat="47.28308" lon="-1.70518">
        <ele>62</ele>
        <time>2011-12-04T12:15:49.7Z</time>
      </trkpt>
      <trkpt lat="47.28302" lon="-1.70507">
        <ele>62</ele>
        <time>2011-12-04T12:15:50Z</time>
      </trkpt>
      <trkpt lat="47.283" lon="-1.70503">
        <ele>62</ele>
        <time>2011-12-04T12:15:51Z</time>
      </trkpt>
      <trkpt lat="47.28287" lon="-1.70482">
        <ele>62</ele>
        <time>2011-12-04T12:15:56.1Z</time>
      </trkpt>
      <trkpt lat="47.28284" lon="-1.70478">
        <ele>62</ele>
        <time>2011-12-04T12:15:57Z</time>
      </trkpt>
      <trkpt lat="47.28278" lon="-1.70469">
        <ele>62</ele>
        <time>2011-12-04T12:16:02.4Z</time>
      </trkpt>
      <trkpt lat="47.28264" lon="-1.70447">
        <ele>62</ele>
        <time>2011-12-04T12:16:03Z</time>
      </trkpt>
      <trkpt lat="47.2826" lon="-1.70442">
        <ele>61</ele>
        <time>2011-12-04T12:16:04Z</time>
      </trkpt>
      <trkpt lat="47.28254" lon="-1.7043">
        <ele>60</ele>
        <time>2011-12-04T12:16:08.7Z</time>
      </trkpt>
      <trkpt lat="47.28243" lon="-1.70413">
        <ele>59</ele>
        <time>2011-12-04T12:16:09Z</time>
      </trkpt>
      <trkpt lat="47.28239" lon="-1.70407">
        <ele>58</ele>
        <time>2011-12-04T12:16:10Z</time>
      </trkpt>
      <trkpt lat="47.28222" lon="-1.7038">
        <ele>57</ele>
        <time>2011-12-04T12:16:15.1Z</time>
      </trkpt>
      <trkpt lat="47.28218" lon="-1.70374">
        <ele>56</ele>
        <time>2011-12-04T12:16:16Z</time>
      </trkpt>
      <trkpt lat="47.28214" lon="-1.70369">
        <ele>55</ele>
        <time>2011-12-04T12:16:17Z</time>
      </trkpt>
      <trkpt lat="47.28206" lon="-1.70357">
        <ele>54</ele>
        <time>2011-12-04T12:16:21.6Z</time>
      </trkpt>
      <trkpt lat="47.28195" lon="-1.70341">
        <ele>54</ele>
        <time>2011-12-04T12:16:22Z</time>
      </trkpt>
      <trkpt lat="47.28191" lon="-1.70335">
        <ele>54</ele>
        <time>2011-12-04T12:16:23Z</time>
      </trkpt>
      <trkpt lat="47.28171" lon="-1.70306">
        <ele>54</ele>
        <time>2011-12-04T12:16:28Z</time>
      </trkpt>
      <trkpt lat="47.28167" lon="-1.703">
        <ele>54</ele>
        <time>2011-12-04T12:16:29Z</time>
      </trkpt>
      <trkpt lat="47.28159" lon="-1.70289">
        <ele>54</ele>
        <time>2011-12-04T12:16:34.3Z</time>
      </trkpt>
      <trkpt lat="47.28144" lon="-1.70266">
        <ele>54</ele>
        <time>2011-12-04T12:16:35Z</time>
      </trkpt>
      <trkpt lat="47.2814" lon="-1.7026">
        <ele>54</ele>
        <time>2011-12-04T12:16:36Z</time>
      </trkpt>
      <trkpt lat="47.28133" lon="-1.70248">
        <ele>54</ele>
        <time>2011-12-04T12:16:40.6Z</time>
      </trkpt>
      <trkpt lat="47.28121" lon="-1.70233">
        <ele>53</ele>
        <time>2011-12-04T12:16:41Z</time>
      </trkpt>
      <trkpt lat="47.28117" lon="-1.70227">
        <ele>53</ele>
        <time>2011-12-04T12:16:42Z</time>
      </trkpt>
      <trkpt lat="47.28098" lon="-1.70199">
        <ele>53</ele>
        <time>2011-12-04T12:16:47Z</time>
      </trkpt>
      <trkpt lat="47.28094" lon="-1.70193">
        <ele>52</ele>
        <time>2011-12-04T12:16:48Z</time>
      </trkpt>
      <trkpt lat="47.28087" lon="-1.70182">
        <ele>52</ele>
        <time>2011-12-04T12:16:53.3Z</time>
      </trkpt>
      <trkpt lat="47.28071" lon="-1.70157">
        <ele>52</ele>
        <time>2011-12-04T12:16:54Z</time>
      </trkpt>
      <trkpt lat="47.28068" lon="-1.70152">
        <ele>52</ele>
        <time>2011-12-04T12:16:55Z</time>
      </trkpt>
      <trkpt lat="47.28062" lon="-1.70143">
        <ele>52</ele>
        <time>2011-12-04T12:16:59.7Z</time>
      </trkpt>
      <trkpt lat="47.28058" lon="-1.70136">
        <ele>52</ele>
        <time>2011-12-04T12:17:00Z</time>
      </trkpt>
      <trkpt lat="47.28057" lon="-1.70134">
        <ele>52</ele>
        <time>2011-12-04T12:17:01Z</time>
      </trkpt>
      <trkpt lat="47.28057" lon="-1.70131">
        <ele>52</ele>
        <time>2011-12-04T12:17:02Z</time>
      </trkpt>
      <trkpt lat="47.28068" lon="-1.70104">
        <ele>52</ele>
        <time>2011-12-04T12:17:08.1Z</time>
      </trkpt>
      <trkpt lat="47.28071" lon="-1.70098">
        <ele>52</ele>
        <time>2011-12-04T12:17:09.2Z</time>
      </trkpt>
      <trkpt lat="47.28073" lon="-1.70092">
        <ele>52</ele>
        <time>2011-12-04T12:17:10Z</time>
      </trkpt>
      <trkpt lat="47.28077" lon="-1.70081">
        <ele>52</ele>
        <time>2011-12-04T12:17:14.6Z</time>
      </trkpt>
      <trkpt lat="47.28084" lon="-1.70063">
        <ele>52</ele>
        <time>2011-12-04T12:17:15Z</time>
      </trkpt>
      <trkpt lat="47.28085" lon="-1.70056">
        <ele>53</ele>
        <time>2011-12-04T12:17:16Z</time>
      </trkpt>
      <trkpt lat="47.28085" lon="-1.70048">
        <ele>53</ele>
        <time>2011-12-04T12:17:17Z</time>
      </trkpt>
      <trkpt lat="47.28083" lon="-1.70033">
        <ele>53</ele>
        <time>2011-12-04T12:17:22.8Z</time>
      </trkpt>
      <trkpt lat="47.28076" lon="-1.69998">
        <ele>53</ele>
        <time>2011-12-04T12:17:23Z</time>
      </trkpt>
      <trkpt lat="47.28074" lon="-1.69988">
        <ele>53</ele>
        <time>2011-12-04T12:17:24Z</time>
      </trkpt>
      <trkpt lat="47.28069" lon="-1.69969">
        <ele>53</ele>
        <time>2011-12-04T12:17:28.6Z</time>
      </trkpt>
      <trkpt lat="47.28062" lon="-1.6994">
        <ele>53</ele>
        <time>2011-12-04T12:17:29Z</time>
      </trkpt>
      <trkpt lat="47.28059" lon="-1.69931">
        <ele>53</ele>
        <time>2011-12-04T12:17:30Z</time>
      </trkpt>
      <trkpt lat="47.28047" lon="-1.6988">
        <ele>53</ele>
        <time>2011-12-04T12:17:35Z</time>
      </trkpt>
      <trkpt lat="47.28044" lon="-1.69869">
        <ele>53</ele>
        <time>2011-12-04T12:17:36Z</time>
      </trkpt>
      <trkpt lat="47.28038" lon="-1.6985">
        <ele>53</ele>
        <time>2011-12-04T12:17:41.3Z</time>
      </trkpt>
      <trkpt lat="47.28029" lon="-1.69808">
        <ele>53</ele>
        <time>2011-12-04T12:17:42Z</time>
      </trkpt>
      <trkpt lat="47.28026" lon="-1.69799">
        <ele>53</ele>
        <time>2011-12-04T12:17:43Z</time>
      </trkpt>
      <trkpt lat="47.28021" lon="-1.69782">
        <ele>53</ele>
        <time>2011-12-04T12:17:47.7Z</time>
      </trkpt>
      <trkpt lat="47.28013" lon="-1.69756">
        <ele>53</ele>
        <time>2011-12-04T12:17:48Z</time>
      </trkpt>
      <trkpt lat="47.2801" lon="-1.69748">
        <ele>53</ele>
        <time>2011-12-04T12:17:49Z</time>
      </trkpt>
      <trkpt lat="47.27992" lon="-1.69722">
        <ele>53</ele>
        <time>2011-12-04T12:17:54.1Z</time>
      </trkpt>
      <trkpt lat="47.27986" lon="-1.69721">
        <ele>53</ele>
        <time>2011-12-04T12:17:55.5Z</time>
      </trkpt>
      <trkpt lat="47.27981" lon="-1.69721">
        <ele>53</ele>
        <time>2011-12-04T12:17:56Z</time>
      </trkpt>
      <trkpt lat="47.27954" lon="-1.6973">
        <ele>53</ele>
        <time>2011-12-04T12:18:01.1Z</time>
      </trkpt>
      <trkpt lat="47.27949" lon="-1.69733">
        <ele>53</ele>
        <time>2011-12-04T12:18:02.1Z</time>
      </trkpt>
      <trkpt lat="47.27945" lon="-1.69735">
        <ele>53</ele>
        <time>2011-12-04T12:18:03.2Z</time>
      </trkpt>
      <trkpt lat="47.27937" lon="-1.6974">
        <ele>53</ele>
        <time>2011-12-04T12:18:07.9Z</time>
      </trkpt>
      <trkpt lat="47.27926" lon="-1.69747">
        <ele>53</ele>
        <time>2011-12-04T12:18:08Z</time>
      </trkpt>
      <trkpt lat="47.27924" lon="-1.69748">
        <ele>53</ele>
        <time>2011-12-04T12:18:09Z</time>
      </trkpt>
      <trkpt lat="47.27922" lon="-1.69747">
        <ele>53</ele>
        <time>2011-12-04T12:18:14.3Z</time>
      </trkpt>
      <trkpt lat="47.27926" lon="-1.69743">
        <ele>53</ele>
        <time>2011-12-04T12:18:15Z</time>
      </trkpt>
      <trkpt lat="47.27928" lon="-1.69742">
        <ele>53</ele>
        <time>2011-12-04T12:18:16Z</time>
      </trkpt>
      <trkpt lat="47.2793" lon="-1.69741">
        <ele>53</ele>
        <time>2011-12-04T12:18:17.6Z</time>
      </trkpt>
      <trkpt lat="47.27932" lon="-1.69741">
        <ele>53</ele>
        <time>2011-12-04T12:18:18.6Z</time>
      </trkpt>
      <trkpt lat="47.27938" lon="-1.69739">
        <ele>53</ele>
        <time>2011-12-04T12:18:23.8Z</time>
      </trkpt>
      <trkpt lat="47.27947" lon="-1.69732">
        <ele>53</ele>
        <time>2011-12-04T12:18:24Z</time>
      </trkpt>
      <trkpt lat="47.2795" lon="-1.6973">
        <ele>53</ele>
        <time>2011-12-04T12:18:25Z</time>
      </trkpt>
      <trkpt lat="47.27953" lon="-1.69729">
        <ele>53</ele>
        <time>2011-12-04T12:18:26.4Z</time>
      </trkpt>
      <trkpt lat="47.27959" lon="-1.69709">
        <ele>53</ele>
        <time>2011-12-04T12:18:31.1Z</time>
      </trkpt>
      <trkpt lat="47.27958" lon="-1.69705">
        <ele>53</ele>
        <time>2011-12-04T12:18:32.1Z</time>
      </trkpt>
      <trkpt lat="47.27957" lon="-1.69701">
        <ele>53</ele>
        <time>2011-12-04T12:18:33.5Z</time>
      </trkpt>
      <trkpt lat="47.27954" lon="-1.69691">
        <ele>53</ele>
        <time>2011-12-04T12:18:38.1Z</time>
      </trkpt>
      <trkpt lat="47.27946" lon="-1.69669">
        <ele>53</ele>
        <time>2011-12-04T12:18:39Z</time>
      </trkpt>
      <trkpt lat="47.27943" lon="-1.69666">
        <ele>53</ele>
        <time>2011-12-04T12:18:40.4Z</time>
      </trkpt>
      <trkpt lat="47.2794" lon="-1.69664">
        <ele>53</ele>
        <time>2011-12-04T12:18:41Z</time>
      </trkpt>
      <trkpt lat="47.27935" lon="-1.69662">
        <ele>53</ele>
        <time>2011-12-04T12:18:46.4Z</time>
      </trkpt>
      <trkpt lat="47.27921" lon="-1.69669">
        <ele>53</ele>
        <time>2011-12-04T12:18:47.1Z</time>
      </trkpt>
      <trkpt lat="47.27917" lon="-1.69669">
        <ele>53</ele>
        <time>2011-12-04T12:18:48.1Z</time>
      </trkpt>
      <trkpt lat="47.27911" lon="-1.69671">
        <ele>53</ele>
        <time>2011-12-04T12:18:53.3Z</time>
      </trkpt>
      <trkpt lat="47.27896" lon="-1.69676">
        <ele>53</ele>
        <time>2011-12-04T12:18:54Z</time>
      </trkpt>
      <trkpt lat="47.27889" lon="-1.69679">
        <ele>53</ele>
        <time>2011-12-04T12:18:59.1Z</time>
      </trkpt>
      <trkpt lat="47.27875" lon="-1.69685">
        <ele>53</ele>
        <time>2011-12-04T12:19:00Z</time>
      </trkpt>
      <trkpt lat="47.27872" lon="-1.69685">
        <ele>53</ele>
        <time>2011-12-04T12:19:01Z</time>
      </trkpt>
      <trkpt lat="47.27866" lon="-1.69686">
        <ele>53</ele>
        <time>2011-12-04T12:19:05.6Z</time>
      </trkpt>
      <trkpt lat="47.27856" lon="-1.69678">
        <ele>53</ele>
        <time>2011-12-04T12:19:06Z</time>
      </trkpt>
      <trkpt lat="47.27853" lon="-1.69675">
        <ele>54</ele>
        <time>2011-12-04T12:19:07Z</time>
      </trkpt>
      <trkpt lat="47.27849" lon="-1.69674">
        <ele>54</ele>
        <time>2011-12-04T12:19:08Z</time>
      </trkpt>
      <trkpt lat="47.27842" lon="-1.69668">
        <ele>54</ele>
        <time>2011-12-04T12:19:13.6Z</time>
      </trkpt>
      <trkpt lat="47.27833" lon="-1.69648">
        <ele>54</ele>
        <time>2011-12-04T12:19:14Z</time>
      </trkpt>
      <trkpt lat="47.27829" lon="-1.69642">
        <ele>54</ele>
        <time>2011-12-04T12:19:15.6Z</time>
      </trkpt>
      <trkpt lat="47.27826" lon="-1.69638">
        <ele>54</ele>
        <time>2011-12-04T12:19:16.2Z</time>
      </trkpt>
      <trkpt lat="47.27817" lon="-1.69635">
        <ele>54</ele>
        <time>2011-12-04T12:19:21.4Z</time>
      </trkpt>
      <trkpt lat="47.27804" lon="-1.69639">
        <ele>54</ele>
        <time>2011-12-04T12:19:22.4Z</time>
      </trkpt>
      <trkpt lat="47.27802" lon="-1.69638">
        <ele>54</ele>
        <time>2011-12-04T12:19:23.3Z</time>
      </trkpt>
      <trkpt lat="47.27799" lon="-1.69636">
        <ele>54</ele>
        <time>2011-12-04T12:19:24.1Z</time>
      </trkpt>
      <trkpt lat="47.27796" lon="-1.69628">
        <ele>54</ele>
        <time>2011-12-04T12:19:30.1Z</time>
      </trkpt>
      <trkpt lat="47.27786" lon="-1.69597">
        <ele>54</ele>
        <time>2011-12-04T12:19:31.5Z</time>
      </trkpt>
      <trkpt lat="47.27784" lon="-1.6959">
        <ele>53</ele>
        <time>2011-12-04T12:19:32.1Z</time>
      </trkpt>
      <trkpt lat="47.27782" lon="-1.69576">
        <ele>53</ele>
        <time>2011-12-04T12:19:37.1Z</time>
      </trkpt>
      <trkpt lat="47.27778" lon="-1.69549">
        <ele>53</ele>
        <time>2011-12-04T12:19:38Z</time>
      </trkpt>
      <trkpt lat="47.27777" lon="-1.69539">
        <ele>53</ele>
        <time>2011-12-04T12:19:43.1Z</time>
      </trkpt>
      <trkpt lat="47.27776" lon="-1.69531">
        <ele>53</ele>
        <time>2011-12-04T12:19:44Z</time>
      </trkpt>
      <trkpt lat="47.27775" lon="-1.69533">
        <ele>53</ele>
        <time>2011-12-04T12:19:51.4Z</time>
      </trkpt>
      <trkpt lat="47.27774" lon="-1.69534">
        <ele>52</ele>
        <time>2011-12-04T12:19:54.3Z</time>
      </trkpt>
      <trkpt lat="47.27773" lon="-1.69535">
        <ele>50</ele>
        <time>2011-12-04T12:20:01Z</time>
      </trkpt>
      <trkpt lat="47.27772" lon="-1.69526">
        <ele>49</ele>
        <time>2011-12-04T12:20:24Z</time>
      </trkpt>
      <trkpt lat="47.27771" lon="-1.69523">
        <ele>49</ele>
        <time>2011-12-04T12:20:25Z</time>
      </trkpt>
      <trkpt lat="47.2777" lon="-1.69514">
        <ele>49</ele>
        <time>2011-12-04T12:20:29.7Z</time>
      </trkpt>
      <trkpt lat="47.27769" lon="-1.69503">
        <ele>49</ele>
        <time>2011-12-04T12:20:30Z</time>
      </trkpt>
      <trkpt lat="47.27769" lon="-1.695">
        <ele>49</ele>
        <time>2011-12-04T12:20:31Z</time>
      </trkpt>
      <trkpt lat="47.27768" lon="-1.69494">
        <ele>49</ele>
        <time>2011-12-04T12:20:36.1Z</time>
      </trkpt>
      <trkpt lat="47.27769" lon="-1.69492">
        <ele>49</ele>
        <time>2011-12-04T12:20:37Z</time>
      </trkpt>
      <trkpt lat="47.27769" lon="-1.69491">
        <ele>49</ele>
        <time>2011-12-04T12:20:45.2Z</time>
      </trkpt>
      <trkpt lat="47.2777" lon="-1.69489">
        <ele>49</ele>
        <time>2011-12-04T12:21:01.7Z</time>
      </trkpt>
      <trkpt lat="47.27771" lon="-1.6949">
        <ele>46</ele>
        <time>2011-12-04T12:21:18.5Z</time>
      </trkpt>
      <trkpt lat="47.27773" lon="-1.69489">
        <ele>44</ele>
        <time>2011-12-04T12:21:35.6Z</time>
      </trkpt>
      <trkpt lat="47.27772" lon="-1.69487">
        <ele>48</ele>
        <time>2011-12-04T12:21:52.4Z</time>
      </trkpt>
      <trkpt lat="47.27771" lon="-1.69484">
        <ele>48</ele>
        <time>2011-12-04T12:21:57.8Z</time>
      </trkpt>
      <trkpt lat="47.27771" lon="-1.6947">
        <ele>48</ele>
        <time>2011-12-04T12:21:58.4Z</time>
      </trkpt>
      <trkpt lat="47.27771" lon="-1.69466">
        <ele>48</ele>
        <time>2011-12-04T12:21:59Z</time>
      </trkpt>
      <trkpt lat="47.27771" lon="-1.69455">
        <ele>48</ele>
        <time>2011-12-04T12:22:03.6Z</time>
      </trkpt>
      <trkpt lat="47.27772" lon="-1.69438">
        <ele>48</ele>
        <time>2011-12-04T12:22:04Z</time>
      </trkpt>
      <trkpt lat="47.27773" lon="-1.69432">
        <ele>48</ele>
        <time>2011-12-04T12:22:05Z</time>
      </trkpt>
      <trkpt lat="47.27774" lon="-1.69419">
        <ele>48</ele>
        <time>2011-12-04T12:22:10.1Z</time>
      </trkpt>
      <trkpt lat="47.27776" lon="-1.69392">
        <ele>48</ele>
        <time>2011-12-04T12:22:11Z</time>
      </trkpt>
      <trkpt lat="47.27776" lon="-1.69385">
        <ele>48</ele>
        <time>2011-12-04T12:22:12Z</time>
      </trkpt>
      <trkpt lat="47.27776" lon="-1.69371">
        <ele>48</ele>
        <time>2011-12-04T12:22:16.7Z</time>
      </trkpt>
      <trkpt lat="47.27772" lon="-1.69351">
        <ele>48</ele>
        <time>2011-12-04T12:22:17Z</time>
      </trkpt>
      <trkpt lat="47.2777" lon="-1.69345">
        <ele>48</ele>
        <time>2011-12-04T12:22:18.4Z</time>
      </trkpt>
      <trkpt lat="47.27768" lon="-1.69338">
        <ele>48</ele>
        <time>2011-12-04T12:22:19.4Z</time>
      </trkpt>
      <trkpt lat="47.27755" lon="-1.69304">
        <ele>48</ele>
        <time>2011-12-04T12:22:24.1Z</time>
      </trkpt>
      <trkpt lat="47.27752" lon="-1.69297">
        <ele>48</ele>
        <time>2011-12-04T12:22:25.5Z</time>
      </trkpt>
      <trkpt lat="47.27749" lon="-1.69292">
        <ele>48</ele>
        <time>2011-12-04T12:22:26.2Z</time>
      </trkpt>
      <trkpt lat="47.27743" lon="-1.69283">
        <ele>47</ele>
        <time>2011-12-04T12:22:31.1Z</time>
      </trkpt>
      <trkpt lat="47.27727" lon="-1.69276">
        <ele>46</ele>
        <time>2011-12-04T12:22:32Z</time>
      </trkpt>
      <trkpt lat="47.27722" lon="-1.69276">
        <ele>45</ele>
        <time>2011-12-04T12:22:33Z</time>
      </trkpt>
      <trkpt lat="47.27717" lon="-1.69276">
        <ele>44</ele>
        <time>2011-12-04T12:22:34Z</time>
      </trkpt>
      <trkpt lat="47.27708" lon="-1.69278">
        <ele>43</ele>
        <time>2011-12-04T12:22:38.6Z</time>
      </trkpt>
      <trkpt lat="47.27696" lon="-1.69278">
        <ele>42</ele>
        <time>2011-12-04T12:22:39Z</time>
      </trkpt>
      <trkpt lat="47.27691" lon="-1.69277">
        <ele>41</ele>
        <time>2011-12-04T12:22:40.4Z</time>
      </trkpt>
      <trkpt lat="47.27687" lon="-1.69277">
        <ele>40</ele>
        <time>2011-12-04T12:22:41.4Z</time>
      </trkpt>
      <trkpt lat="47.27664" lon="-1.69265">
        <ele>40</ele>
        <time>2011-12-04T12:22:46.1Z</time>
      </trkpt>
      <trkpt lat="47.27659" lon="-1.69261">
        <ele>40</ele>
        <time>2011-12-04T12:22:47.5Z</time>
      </trkpt>
      <trkpt lat="47.27655" lon="-1.69257">
        <ele>40</ele>
        <time>2011-12-04T12:22:48.2Z</time>
      </trkpt>
      <trkpt lat="47.27646" lon="-1.69248">
        <ele>40</ele>
        <time>2011-12-04T12:22:53.1Z</time>
      </trkpt>
      <trkpt lat="47.27629" lon="-1.69229">
        <ele>40</ele>
        <time>2011-12-04T12:22:54Z</time>
      </trkpt>
      <trkpt lat="47.27624" lon="-1.69225">
        <ele>40</ele>
        <time>2011-12-04T12:22:55Z</time>
      </trkpt>
      <trkpt lat="47.27616" lon="-1.69217">
        <ele>40</ele>
        <time>2011-12-04T12:22:59.6Z</time>
      </trkpt>
      <trkpt lat="47.27606" lon="-1.69206">
        <ele>40</ele>
        <time>2011-12-04T12:23:00Z</time>
      </trkpt>
      <trkpt lat="47.27602" lon="-1.69202">
        <ele>39</ele>
        <time>2011-12-04T12:23:01Z</time>
      </trkpt>
      <trkpt lat="47.27595" lon="-1.69197">
        <ele>39</ele>
        <time>2011-12-04T12:23:06.1Z</time>
      </trkpt>
      <trkpt lat="47.2758" lon="-1.69187">
        <ele>39</ele>
        <time>2011-12-04T12:23:07Z</time>
      </trkpt>
      <trkpt lat="47.27576" lon="-1.69184">
        <ele>39</ele>
        <time>2011-12-04T12:23:08Z</time>
      </trkpt>
      <trkpt lat="47.27568" lon="-1.6918">
        <ele>39</ele>
        <time>2011-12-04T12:23:12.7Z</time>
      </trkpt>
      <trkpt lat="47.27557" lon="-1.69174">
        <ele>39</ele>
        <time>2011-12-04T12:23:13Z</time>
      </trkpt>
      <trkpt lat="47.27554" lon="-1.69172">
        <ele>39</ele>
        <time>2011-12-04T12:23:14Z</time>
      </trkpt>
      <trkpt lat="47.27548" lon="-1.69164">
        <ele>39</ele>
        <time>2011-12-04T12:23:19.1Z</time>
      </trkpt>
      <trkpt lat="47.27547" lon="-1.69144">
        <ele>39</ele>
        <time>2011-12-04T12:23:20.3Z</time>
      </trkpt>
      <trkpt lat="47.27547" lon="-1.69139">
        <ele>39</ele>
        <time>2011-12-04T12:23:21.5Z</time>
      </trkpt>
      <trkpt lat="47.27547" lon="-1.69133">
        <ele>40</ele>
        <time>2011-12-04T12:23:22.3Z</time>
      </trkpt>
      <trkpt lat="47.27535" lon="-1.69123">
        <ele>40</ele>
        <time>2011-12-04T12:23:27Z</time>
      </trkpt>
      <trkpt lat="47.27532" lon="-1.69122">
        <ele>41</ele>
        <time>2011-12-04T12:23:28Z</time>
      </trkpt>
      <trkpt lat="47.27528" lon="-1.69121">
        <ele>42</ele>
        <time>2011-12-04T12:23:29.6Z</time>
      </trkpt>
      <trkpt lat="47.27521" lon="-1.69117">
        <ele>43</ele>
        <time>2011-12-04T12:23:34.4Z</time>
      </trkpt>
      <trkpt lat="47.27509" lon="-1.69104">
        <ele>44</ele>
        <time>2011-12-04T12:23:35Z</time>
      </trkpt>
      <trkpt lat="47.27506" lon="-1.69099">
        <ele>45</ele>
        <time>2011-12-04T12:23:36.1Z</time>
      </trkpt>
      <trkpt lat="47.27502" lon="-1.69095">
        <ele>46</ele>
        <time>2011-12-04T12:23:37Z</time>
      </trkpt>
      <trkpt lat="47.27495" lon="-1.69088">
        <ele>47</ele>
        <time>2011-12-04T12:23:41.7Z</time>
      </trkpt>
      <trkpt lat="47.27486" lon="-1.69079">
        <ele>48</ele>
        <time>2011-12-04T12:23:42Z</time>
      </trkpt>
      <trkpt lat="47.27484" lon="-1.69077">
        <ele>49</ele>
        <time>2011-12-04T12:23:43Z</time>
      </trkpt>
      <trkpt lat="47.27481" lon="-1.69075">
        <ele>49</ele>
        <time>2011-12-04T12:23:44.1Z</time>
      </trkpt>
      <trkpt lat="47.27474" lon="-1.69068">
        <ele>50</ele>
        <time>2011-12-04T12:23:48.9Z</time>
      </trkpt>
      <trkpt lat="47.27464" lon="-1.69057">
        <ele>51</ele>
        <time>2011-12-04T12:23:49Z</time>
      </trkpt>
      <trkpt lat="47.2746" lon="-1.69053">
        <ele>52</ele>
        <time>2011-12-04T12:23:50.2Z</time>
      </trkpt>
      <trkpt lat="47.27457" lon="-1.6905">
        <ele>52</ele>
        <time>2011-12-04T12:23:51Z</time>
      </trkpt>
      <trkpt lat="47.27442" lon="-1.69031">
        <ele>53</ele>
        <time>2011-12-04T12:23:56Z</time>
      </trkpt>
      <trkpt lat="47.27439" lon="-1.69027">
        <ele>53</ele>
        <time>2011-12-04T12:23:57Z</time>
      </trkpt>
      <trkpt lat="47.27434" lon="-1.69021">
        <ele>53</ele>
        <time>2011-12-04T12:24:02.4Z</time>
      </trkpt>
      <trkpt lat="47.27442" lon="-1.69014">
        <ele>53</ele>
        <time>2011-12-04T12:24:03Z</time>
      </trkpt>
      <trkpt lat="47.27445" lon="-1.69014">
        <ele>53</ele>
        <time>2011-12-04T12:24:04Z</time>
      </trkpt>
      <trkpt lat="47.27449" lon="-1.69013">
        <ele>53</ele>
        <time>2011-12-04T12:24:05Z</time>
      </trkpt>
      <trkpt lat="47.27458" lon="-1.6901">
        <ele>53</ele>
        <time>2011-12-04T12:24:09.7Z</time>
      </trkpt>
      <trkpt lat="47.27471" lon="-1.69007">
        <ele>53</ele>
        <time>2011-12-04T12:24:10Z</time>
      </trkpt>
      <trkpt lat="47.27476" lon="-1.69007">
        <ele>53</ele>
        <time>2011-12-04T12:24:11Z</time>
      </trkpt>
      <trkpt lat="47.27485" lon="-1.69006">
        <ele>53</ele>
        <time>2011-12-04T12:24:16.2Z</time>
      </trkpt>
      <trkpt lat="47.27501" lon="-1.69001">
        <ele>53</ele>
        <time>2011-12-04T12:24:17Z</time>
      </trkpt>
      <trkpt lat="47.27505" lon="-1.69001">
        <ele>53</ele>
        <time>2011-12-04T12:24:18Z</time>
      </trkpt>
      <trkpt lat="47.27514" lon="-1.69">
        <ele>53</ele>
        <time>2011-12-04T12:24:22.7Z</time>
      </trkpt>
      <trkpt lat="47.27529" lon="-1.68997">
        <ele>53</ele>
        <time>2011-12-04T12:24:23Z</time>
      </trkpt>
      <trkpt lat="47.27533" lon="-1.68996">
        <ele>53</ele>
        <time>2011-12-04T12:24:24Z</time>
      </trkpt>
      <trkpt lat="47.27541" lon="-1.68994">
        <ele>53</ele>
        <time>2011-12-04T12:24:29.2Z</time>
      </trkpt>
      <trkpt lat="47.27551" lon="-1.68991">
        <ele>53</ele>
        <time>2011-12-04T12:24:30Z</time>
      </trkpt>
      <trkpt lat="47.27553" lon="-1.6899">
        <ele>53</ele>
        <time>2011-12-04T12:24:31Z</time>
      </trkpt>
      <trkpt lat="47.27553" lon="-1.68989">
        <ele>53</ele>
        <time>2011-12-04T12:24:40.2Z</time>
      </trkpt>
      <trkpt lat="47.27555" lon="-1.68987">
        <ele>53</ele>
        <time>2011-12-04T12:24:46Z</time>
      </trkpt>
      <trkpt lat="47.27556" lon="-1.68987">
        <ele>53</ele>
        <time>2011-12-04T12:24:47.4Z</time>
      </trkpt>
      <trkpt lat="47.27557" lon="-1.68987">
        <ele>53</ele>
        <time>2011-12-04T12:24:48.2Z</time>
      </trkpt>
      <trkpt lat="47.27562" lon="-1.68988">
        <ele>53</ele>
        <time>2011-12-04T12:24:53.7Z</time>
      </trkpt>
      <trkpt lat="47.27576" lon="-1.68991">
        <ele>53</ele>
        <time>2011-12-04T12:24:54Z</time>
      </trkpt>
      <trkpt lat="47.2758" lon="-1.68993">
        <ele>53</ele>
        <time>2011-12-04T12:24:55Z</time>
      </trkpt>
      <trkpt lat="47.27589" lon="-1.68995">
        <ele>53</ele>
        <time>2011-12-04T12:24:59.7Z</time>
      </trkpt>
      <trkpt lat="47.27603" lon="-1.68999">
        <ele>53</ele>
        <time>2011-12-04T12:25:00Z</time>
      </trkpt>
      <trkpt lat="47.27607" lon="-1.69001">
        <ele>53</ele>
        <time>2011-12-04T12:25:01Z</time>
      </trkpt>
      <trkpt lat="47.27617" lon="-1.69004">
        <ele>53</ele>
        <time>2011-12-04T12:25:06.2Z</time>
      </trkpt>
      <trkpt lat="47.27635" lon="-1.69002">
        <ele>53</ele>
        <time>2011-12-04T12:25:07Z</time>
      </trkpt>
      <trkpt lat="47.27639" lon="-1.68999">
        <ele>53</ele>
        <time>2011-12-04T12:25:08Z</time>
      </trkpt>
      <trkpt lat="47.27643" lon="-1.68995">
        <ele>53</ele>
        <time>2011-12-04T12:25:09Z</time>
      </trkpt>
      <trkpt lat="47.27651" lon="-1.68987">
        <ele>53</ele>
        <time>2011-12-04T12:25:13.7Z</time>
      </trkpt>
      <trkpt lat="47.27664" lon="-1.68977">
        <ele>53</ele>
        <time>2011-12-04T12:25:14Z</time>
      </trkpt>
      <trkpt lat="47.27668" lon="-1.68973">
        <ele>53</ele>
        <time>2011-12-04T12:25:15Z</time>
      </trkpt>
      <trkpt lat="47.27675" lon="-1.68966">
        <ele>53</ele>
        <time>2011-12-04T12:25:20.2Z</time>
      </trkpt>
      <trkpt lat="47.27697" lon="-1.68953">
        <ele>53</ele>
        <time>2011-12-04T12:25:21Z</time>
      </trkpt>
      <trkpt lat="47.27702" lon="-1.6895">
        <ele>53</ele>
        <time>2011-12-04T12:25:22.4Z</time>
      </trkpt>
      <trkpt lat="47.27707" lon="-1.68948">
        <ele>53</ele>
        <time>2011-12-04T12:25:23.1Z</time>
      </trkpt>
      <trkpt lat="47.27724" lon="-1.68941">
        <ele>53</ele>
        <time>2011-12-04T12:25:28Z</time>
      </trkpt>
      <trkpt lat="47.27725" lon="-1.68939">
        <ele>53</ele>
        <time>2011-12-04T12:25:30Z</time>
      </trkpt>
      <trkpt lat="47.27727" lon="-1.68935">
        <ele>53</ele>
        <time>2011-12-04T12:25:34.7Z</time>
      </trkpt>
      <trkpt lat="47.27733" lon="-1.68927">
        <ele>53</ele>
        <time>2011-12-04T12:25:35Z</time>
      </trkpt>
      <trkpt lat="47.27735" lon="-1.68924">
        <ele>53</ele>
        <time>2011-12-04T12:25:36Z</time>
      </trkpt>
      <trkpt lat="47.2774" lon="-1.68917">
        <ele>53</ele>
        <time>2011-12-04T12:25:41.2Z</time>
      </trkpt>
      <trkpt lat="47.27749" lon="-1.68898">
        <ele>53</ele>
        <time>2011-12-04T12:25:42Z</time>
      </trkpt>
      <trkpt lat="47.27751" lon="-1.68892">
        <ele>53</ele>
        <time>2011-12-04T12:25:43Z</time>
      </trkpt>
      <trkpt lat="47.27752" lon="-1.68887">
        <ele>53</ele>
        <time>2011-12-04T12:25:44.1Z</time>
      </trkpt>
      <trkpt lat="47.27765" lon="-1.6887">
        <ele>53</ele>
        <time>2011-12-04T12:25:49Z</time>
      </trkpt>
      <trkpt lat="47.27769" lon="-1.68867">
        <ele>53</ele>
        <time>2011-12-04T12:25:50.6Z</time>
      </trkpt>
      <trkpt lat="47.27773" lon="-1.68865">
        <ele>52</ele>
        <time>2011-12-04T12:25:51.6Z</time>
      </trkpt>
      <trkpt lat="47.2778" lon="-1.6886">
        <ele>52</ele>
        <time>2011-12-04T12:25:56.4Z</time>
      </trkpt>
      <trkpt lat="47.2779" lon="-1.6884">
        <ele>51</ele>
        <time>2011-12-04T12:25:57Z</time>
      </trkpt>
      <trkpt lat="47.27791" lon="-1.68835">
        <ele>50</ele>
        <time>2011-12-04T12:25:58.2Z</time>
      </trkpt>
      <trkpt lat="47.27791" lon="-1.68831">
        <ele>49</ele>
        <time>2011-12-04T12:25:59.1Z</time>
      </trkpt>
      <trkpt lat="47.2779" lon="-1.68821">
        <ele>48</ele>
        <time>2011-12-04T12:26:04.7Z</time>
      </trkpt>
      <trkpt lat="47.27782" lon="-1.68807">
        <ele>47</ele>
        <time>2011-12-04T12:26:05Z</time>
      </trkpt>
      <trkpt lat="47.27779" lon="-1.68804">
        <ele>46</ele>
        <time>2011-12-04T12:26:06Z</time>
      </trkpt>
      <trkpt lat="47.27777" lon="-1.68802">
        <ele>45</ele>
        <time>2011-12-04T12:26:07Z</time>
      </trkpt>
      <trkpt lat="47.27774" lon="-1.68799">
        <ele>44</ele>
        <time>2011-12-04T12:26:11.7Z</time>
      </trkpt>
      <trkpt lat="47.27768" lon="-1.68796">
        <ele>43</ele>
        <time>2011-12-04T12:26:12Z</time>
      </trkpt>
      <trkpt lat="47.27765" lon="-1.68795">
        <ele>42</ele>
        <time>2011-12-04T12:26:13Z</time>
      </trkpt>
      <trkpt lat="47.27758" lon="-1.68793">
        <ele>41</ele>
        <time>2011-12-04T12:26:18.2Z</time>
      </trkpt>
      <trkpt lat="47.27747" lon="-1.68785">
        <ele>40</ele>
        <time>2011-12-04T12:26:18.9Z</time>
      </trkpt>
      <trkpt lat="47.27744" lon="-1.68783">
        <ele>39</ele>
        <time>2011-12-04T12:26:20Z</time>
      </trkpt>
      <trkpt lat="47.27738" lon="-1.68781">
        <ele>38</ele>
        <time>2011-12-04T12:26:24.8Z</time>
      </trkpt>
      <trkpt lat="47.27728" lon="-1.68779">
        <ele>37</ele>
        <time>2011-12-04T12:26:25.8Z</time>
      </trkpt>
      <trkpt lat="47.27725" lon="-1.68779">
        <ele>37</ele>
        <time>2011-12-04T12:26:26.4Z</time>
      </trkpt>
      <trkpt lat="47.27722" lon="-1.68778">
        <ele>37</ele>
        <time>2011-12-04T12:26:27Z</time>
      </trkpt>
      <trkpt lat="47.27719" lon="-1.68778">
        <ele>37</ele>
        <time>2011-12-04T12:26:31.7Z</time>
      </trkpt>
      <trkpt lat="47.27714" lon="-1.68778">
        <ele>37</ele>
        <time>2011-12-04T12:26:32Z</time>
      </trkpt>
      <trkpt lat="47.27712" lon="-1.6878">
        <ele>37</ele>
        <time>2011-12-04T12:26:33.4Z</time>
      </trkpt>
      <trkpt lat="47.2771" lon="-1.68781">
        <ele>37</ele>
        <time>2011-12-04T12:26:34.1Z</time>
      </trkpt>
      <trkpt lat="47.27705" lon="-1.68784">
        <ele>37</ele>
        <time>2011-12-04T12:26:39.1Z</time>
      </trkpt>
      <trkpt lat="47.27692" lon="-1.68791">
        <ele>37</ele>
        <time>2011-12-04T12:26:40Z</time>
      </trkpt>
      <trkpt lat="47.27688" lon="-1.68794">
        <ele>37</ele>
        <time>2011-12-04T12:26:41Z</time>
      </trkpt>
      <trkpt lat="47.27682" lon="-1.68801">
        <ele>37</ele>
        <time>2011-12-04T12:26:45.7Z</time>
      </trkpt>
      <trkpt lat="47.27674" lon="-1.68807">
        <ele>38</ele>
        <time>2011-12-04T12:26:46.5Z</time>
      </trkpt>
      <trkpt lat="47.27671" lon="-1.6881">
        <ele>38</ele>
        <time>2011-12-04T12:26:47Z</time>
      </trkpt>
      <trkpt lat="47.27667" lon="-1.68813">
        <ele>38</ele>
        <time>2011-12-04T12:26:52.2Z</time>
      </trkpt>
      <trkpt lat="47.27658" lon="-1.68815">
        <ele>38</ele>
        <time>2011-12-04T12:26:53Z</time>
      </trkpt>
      <trkpt lat="47.27654" lon="-1.68813">
        <ele>38</ele>
        <time>2011-12-04T12:26:54.1Z</time>
      </trkpt>
      <trkpt lat="47.27651" lon="-1.68811">
        <ele>38</ele>
        <time>2011-12-04T12:26:55Z</time>
      </trkpt>
      <trkpt lat="47.27645" lon="-1.68808">
        <ele>39</ele>
        <time>2011-12-04T12:27:00.7Z</time>
      </trkpt>
      <trkpt lat="47.27633" lon="-1.68801">
        <ele>40</ele>
        <time>2011-12-04T12:27:01Z</time>
      </trkpt>
      <trkpt lat="47.27631" lon="-1.68801">
        <ele>41</ele>
        <time>2011-12-04T12:27:02Z</time>
      </trkpt>
      <trkpt lat="47.27627" lon="-1.688">
        <ele>42</ele>
        <time>2011-12-04T12:27:06.8Z</time>
      </trkpt>
      <trkpt lat="47.2762" lon="-1.688">
        <ele>43</ele>
        <time>2011-12-04T12:27:07.8Z</time>
      </trkpt>
      <trkpt lat="47.27617" lon="-1.688">
        <ele>44</ele>
        <time>2011-12-04T12:27:08.8Z</time>
      </trkpt>
      <trkpt lat="47.27614" lon="-1.68801">
        <ele>44</ele>
        <time>2011-12-04T12:27:09.6Z</time>
      </trkpt>
      <trkpt lat="47.27611" lon="-1.68801">
        <ele>44</ele>
        <time>2011-12-04T12:27:10.4Z</time>
      </trkpt>
      <trkpt lat="47.27605" lon="-1.688">
        <ele>44</ele>
        <time>2011-12-04T12:27:15.5Z</time>
      </trkpt>
      <trkpt lat="47.27596" lon="-1.68801">
        <ele>44</ele>
        <time>2011-12-04T12:27:16Z</time>
      </trkpt>
      <trkpt lat="47.27593" lon="-1.68801">
        <ele>44</ele>
        <time>2011-12-04T12:27:17Z</time>
      </trkpt>
      <trkpt lat="47.27589" lon="-1.688">
        <ele>44</ele>
        <time>2011-12-04T12:27:21.7Z</time>
      </trkpt>
      <trkpt lat="47.27582" lon="-1.68802">
        <ele>45</ele>
        <time>2011-12-04T12:27:22.7Z</time>
      </trkpt>
      <trkpt lat="47.27581" lon="-1.68803">
        <ele>46</ele>
        <time>2011-12-04T12:27:23.7Z</time>
      </trkpt>
      <trkpt lat="47.27579" lon="-1.68804">
        <ele>47</ele>
        <time>2011-12-04T12:27:24Z</time>
      </trkpt>
      <trkpt lat="47.27578" lon="-1.68806">
        <ele>48</ele>
        <time>2011-12-04T12:27:28.8Z</time>
      </trkpt>
      <trkpt lat="47.27576" lon="-1.68808">
        <ele>49</ele>
        <time>2011-12-04T12:27:29.5Z</time>
      </trkpt>
      <trkpt lat="47.27573" lon="-1.68808">
        <ele>49</ele>
        <time>2011-12-04T12:27:36.7Z</time>
      </trkpt>
      <trkpt lat="47.2757" lon="-1.68808">
        <ele>49</ele>
        <time>2011-12-04T12:27:37.4Z</time>
      </trkpt>
      <trkpt lat="47.27569" lon="-1.68808">
        <ele>49</ele>
        <time>2011-12-04T12:27:38.2Z</time>
      </trkpt>
      <trkpt lat="47.27568" lon="-1.68809">
        <ele>49</ele>
        <time>2011-12-04T12:27:39.4Z</time>
      </trkpt>
      <trkpt lat="47.27562" lon="-1.68812">
        <ele>49</ele>
        <time>2011-12-04T12:27:45Z</time>
      </trkpt>
      <trkpt lat="47.2756" lon="-1.68814">
        <ele>51</ele>
        <time>2011-12-04T12:27:51.8Z</time>
      </trkpt>
      <trkpt lat="47.27559" lon="-1.68817">
        <ele>52</ele>
        <time>2011-12-04T12:27:52.6Z</time>
      </trkpt>
      <trkpt lat="47.27556" lon="-1.68818">
        <ele>53</ele>
        <time>2011-12-04T12:27:54.7Z</time>
      </trkpt>
      <trkpt lat="47.27554" lon="-1.68819">
        <ele>53</ele>
        <time>2011-12-04T12:28:00.1Z</time>
      </trkpt>
      <trkpt lat="47.27548" lon="-1.68823">
        <ele>53</ele>
        <time>2011-12-04T12:28:01.5Z</time>
      </trkpt>
      <trkpt lat="47.27544" lon="-1.68825">
        <ele>53</ele>
        <time>2011-12-04T12:28:06.5Z</time>
      </trkpt>
      <trkpt lat="47.2753" lon="-1.68824">
        <ele>53</ele>
        <time>2011-12-04T12:28:06.9Z</time>
      </trkpt>
      <trkpt lat="47.27526" lon="-1.68825">
        <ele>53</ele>
        <time>2011-12-04T12:28:08.3Z</time>
      </trkpt>
      <trkpt lat="47.27522" lon="-1.68825">
        <ele>53</ele>
        <time>2011-12-04T12:28:09.3Z</time>
      </trkpt>
      <trkpt lat="47.27514" lon="-1.68823">
        <ele>53</ele>
        <time>2011-12-04T12:28:14.1Z</time>
      </trkpt>
      <trkpt lat="47.27497" lon="-1.68814">
        <ele>53</ele>
        <time>2011-12-04T12:28:15.1Z</time>
      </trkpt>
      <trkpt lat="47.27491" lon="-1.68812">
        <ele>53</ele>
        <time>2011-12-04T12:28:15.9Z</time>
      </trkpt>
      <trkpt lat="47.27464" lon="-1.68797">
        <ele>53</ele>
        <time>2011-12-04T12:28:21Z</time>
      </trkpt>
      <trkpt lat="47.27458" lon="-1.68794">
        <ele>53</ele>
        <time>2011-12-04T12:28:22Z</time>
      </trkpt>
      <trkpt lat="47.27449" lon="-1.68788">
        <ele>53</ele>
        <time>2011-12-04T12:28:27.4Z</time>
      </trkpt>
      <trkpt lat="47.27429" lon="-1.6878">
        <ele>53</ele>
        <time>2011-12-04T12:28:27.9Z</time>
      </trkpt>
      <trkpt lat="47.27424" lon="-1.68782">
        <ele>53</ele>
        <time>2011-12-04T12:28:29Z</time>
      </trkpt>
      <trkpt lat="47.27419" lon="-1.68785">
        <ele>53</ele>
        <time>2011-12-04T12:28:30.1Z</time>
      </trkpt>
      <trkpt lat="47.27412" lon="-1.68793">
        <ele>53</ele>
        <time>2011-12-04T12:28:36.1Z</time>
      </trkpt>
      <trkpt lat="47.27394" lon="-1.68816">
        <ele>53</ele>
        <time>2011-12-04T12:28:37.3Z</time>
      </trkpt>
      <trkpt lat="47.27388" lon="-1.68824">
        <ele>53</ele>
        <time>2011-12-04T12:28:42.3Z</time>
      </trkpt>
      <trkpt lat="47.27375" lon="-1.68839">
        <ele>53</ele>
        <time>2011-12-04T12:28:42.9Z</time>
      </trkpt>
      <trkpt lat="47.27372" lon="-1.68844">
        <ele>53</ele>
        <time>2011-12-04T12:28:43.9Z</time>
      </trkpt>
      <trkpt lat="47.27367" lon="-1.68851">
        <ele>53</ele>
        <time>2011-12-04T12:28:48.8Z</time>
      </trkpt>
      <trkpt lat="47.27359" lon="-1.6886">
        <ele>53</ele>
        <time>2011-12-04T12:28:49Z</time>
      </trkpt>
      <trkpt lat="47.27356" lon="-1.68864">
        <ele>53</ele>
        <time>2011-12-04T12:28:49.9Z</time>
      </trkpt>
      <trkpt lat="47.27351" lon="-1.68871">
        <ele>53</ele>
        <time>2011-12-04T12:28:55.4Z</time>
      </trkpt>
      <trkpt lat="47.2734" lon="-1.68886">
        <ele>53</ele>
        <time>2011-12-04T12:28:55.9Z</time>
      </trkpt>
      <trkpt lat="47.27337" lon="-1.68889">
        <ele>53</ele>
        <time>2011-12-04T12:28:56.9Z</time>
      </trkpt>
      <trkpt lat="47.27324" lon="-1.68906">
        <ele>53</ele>
        <time>2011-12-04T12:29:02Z</time>
      </trkpt>
      <trkpt lat="47.27322" lon="-1.6891">
        <ele>53</ele>
        <time>2011-12-04T12:29:02.9Z</time>
      </trkpt>
      <trkpt lat="47.27316" lon="-1.68916">
        <ele>53</ele>
        <time>2011-12-04T12:29:08.5Z</time>
      </trkpt>
      <trkpt lat="47.27306" lon="-1.6893">
        <ele>53</ele>
        <time>2011-12-04T12:29:08.9Z</time>
      </trkpt>
      <trkpt lat="47.27304" lon="-1.68933">
        <ele>53</ele>
        <time>2011-12-04T12:29:09.9Z</time>
      </trkpt>
      <trkpt lat="47.27299" lon="-1.68936">
        <ele>53</ele>
        <time>2011-12-04T12:29:15.1Z</time>
      </trkpt>
      <trkpt lat="47.27285" lon="-1.68935">
        <ele>53</ele>
        <time>2011-12-04T12:29:16.4Z</time>
      </trkpt>
      <trkpt lat="47.27282" lon="-1.68933">
        <ele>53</ele>
        <time>2011-12-04T12:29:17.2Z</time>
      </trkpt>
      <trkpt lat="47.27279" lon="-1.68931">
        <ele>53</ele>
        <time>2011-12-04T12:29:18.4Z</time>
      </trkpt>
      <trkpt lat="47.27272" lon="-1.68928">
        <ele>53</ele>
        <time>2011-12-04T12:29:23.2Z</time>
      </trkpt>
      <trkpt lat="47.27256" lon="-1.68919">
        <ele>53</ele>
        <time>2011-12-04T12:29:23.9Z</time>
      </trkpt>
      <trkpt lat="47.27252" lon="-1.68916">
        <ele>53</ele>
        <time>2011-12-04T12:29:24.9Z</time>
      </trkpt>
      <trkpt lat="47.27244" lon="-1.68911">
        <ele>53</ele>
        <time>2011-12-04T12:29:29.8Z</time>
      </trkpt>
      <trkpt lat="47.27232" lon="-1.68904">
        <ele>53</ele>
        <time>2011-12-04T12:29:30Z</time>
      </trkpt>
      <trkpt lat="47.27228" lon="-1.68902">
        <ele>53</ele>
        <time>2011-12-04T12:29:30.9Z</time>
      </trkpt>
      <trkpt lat="47.2722" lon="-1.68898">
        <ele>53</ele>
        <time>2011-12-04T12:29:36.3Z</time>
      </trkpt>
      <trkpt lat="47.27205" lon="-1.68889">
        <ele>53</ele>
        <time>2011-12-04T12:29:36.9Z</time>
      </trkpt>
      <trkpt lat="47.27202" lon="-1.68887">
        <ele>53</ele>
        <time>2011-12-04T12:29:37.9Z</time>
      </trkpt>
      <trkpt lat="47.27186" lon="-1.68877">
        <ele>53</ele>
        <time>2011-12-04T12:29:43Z</time>
      </trkpt>
      <trkpt lat="47.27183" lon="-1.68875">
        <ele>53</ele>
        <time>2011-12-04T12:29:44Z</time>
      </trkpt>
      <trkpt lat="47.27176" lon="-1.68872">
        <ele>53</ele>
        <time>2011-12-04T12:29:49.5Z</time>
      </trkpt>
      <trkpt lat="47.2716" lon="-1.68869">
        <ele>54</ele>
        <time>2011-12-04T12:29:49.9Z</time>
      </trkpt>
      <trkpt lat="47.27155" lon="-1.68868">
        <ele>54</ele>
        <time>2011-12-04T12:29:51.5Z</time>
      </trkpt>
      <trkpt lat="47.27147" lon="-1.68868">
        <ele>54</ele>
        <time>2011-12-04T12:29:56.4Z</time>
      </trkpt>
      <trkpt lat="47.27134" lon="-1.68868">
        <ele>55</ele>
        <time>2011-12-04T12:29:56.9Z</time>
      </trkpt>
      <trkpt lat="47.27132" lon="-1.68868">
        <ele>55</ele>
        <time>2011-12-04T12:29:57.9Z</time>
      </trkpt>
      <trkpt lat="47.2713" lon="-1.68868">
        <ele>55</ele>
        <time>2011-12-04T12:29:59.1Z</time>
      </trkpt>
      <trkpt lat="47.2713" lon="-1.68865">
        <ele>55</ele>
        <time>2011-12-04T12:30:04.5Z</time>
      </trkpt>
      <trkpt lat="47.27139" lon="-1.68865">
        <ele>55</ele>
        <time>2011-12-04T12:30:05.3Z</time>
      </trkpt>
      <trkpt lat="47.27142" lon="-1.68866">
        <ele>55</ele>
        <time>2011-12-04T12:30:06.3Z</time>
      </trkpt>
      <trkpt lat="47.27145" lon="-1.68866">
        <ele>55</ele>
        <time>2011-12-04T12:30:07.2Z</time>
      </trkpt>
      <trkpt lat="47.2715" lon="-1.68865">
        <ele>55</ele>
        <time>2011-12-04T12:30:12.1Z</time>
      </trkpt>
      <trkpt lat="47.27151" lon="-1.68853">
        <ele>56</ele>
        <time>2011-12-04T12:30:12.9Z</time>
      </trkpt>
      <trkpt lat="47.2715" lon="-1.6885">
        <ele>56</ele>
        <time>2011-12-04T12:30:14.1Z</time>
      </trkpt>
      <trkpt lat="47.27152" lon="-1.68847">
        <ele>56</ele>
        <time>2011-12-04T12:30:20Z</time>
      </trkpt>
      <trkpt lat="47.27154" lon="-1.6885">
        <ele>56</ele>
        <time>2011-12-04T12:30:20.9Z</time>
      </trkpt>
      <trkpt lat="47.27156" lon="-1.68853">
        <ele>56</ele>
        <time>2011-12-04T12:30:22Z</time>
      </trkpt>
      <trkpt lat="47.2716" lon="-1.68859">
        <ele>56</ele>
        <time>2011-12-04T12:30:26.8Z</time>
      </trkpt>
      <trkpt lat="47.27165" lon="-1.68864">
        <ele>56</ele>
        <time>2011-12-04T12:30:27Z</time>
      </trkpt>
      <trkpt lat="47.27167" lon="-1.68865">
        <ele>56</ele>
        <time>2011-12-04T12:30:28.6Z</time>
      </trkpt>
      <trkpt lat="47.27168" lon="-1.68866">
        <ele>56</ele>
        <time>2011-12-04T12:30:29.3Z</time>
      </trkpt>
      <trkpt lat="47.27172" lon="-1.68867">
        <ele>56</ele>
        <time>2011-12-04T12:30:34.2Z</time>
      </trkpt>
      <trkpt lat="47.27178" lon="-1.68858">
        <ele>56</ele>
        <time>2011-12-04T12:30:35.3Z</time>
      </trkpt>
      <trkpt lat="47.27179" lon="-1.68855">
        <ele>56</ele>
        <time>2011-12-04T12:30:36.3Z</time>
      </trkpt>
      <trkpt lat="47.2718" lon="-1.68851">
        <ele>56</ele>
        <time>2011-12-04T12:30:37.1Z</time>
      </trkpt>
      <trkpt lat="47.27191" lon="-1.68829">
        <ele>56</ele>
        <time>2011-12-04T12:30:42Z</time>
      </trkpt>
      <trkpt lat="47.27194" lon="-1.68825">
        <ele>56</ele>
        <time>2011-12-04T12:30:43Z</time>
      </trkpt>
      <trkpt lat="47.27198" lon="-1.68821">
        <ele>56</ele>
        <time>2011-12-04T12:30:44.4Z</time>
      </trkpt>
      <trkpt lat="47.27204" lon="-1.68812">
        <ele>56</ele>
        <time>2011-12-04T12:30:49.2Z</time>
      </trkpt>
      <trkpt lat="47.27218" lon="-1.68792">
        <ele>56</ele>
        <time>2011-12-04T12:30:49.9Z</time>
      </trkpt>
      <trkpt lat="47.27221" lon="-1.68786">
        <ele>56</ele>
        <time>2011-12-04T12:30:50.9Z</time>
      </trkpt>
      <trkpt lat="47.2724" lon="-1.68759">
        <ele>56</ele>
        <time>2011-12-04T12:30:56Z</time>
      </trkpt>
      <trkpt lat="47.27244" lon="-1.68754">
        <ele>56</ele>
        <time>2011-12-04T12:30:56.9Z</time>
      </trkpt>
      <trkpt lat="47.27253" lon="-1.68743">
        <ele>56</ele>
        <time>2011-12-04T12:31:02.5Z</time>
      </trkpt>
      <trkpt lat="47.27276" lon="-1.68724">
        <ele>56</ele>
        <time>2011-12-04T12:31:02.9Z</time>
      </trkpt>
      <trkpt lat="47.27282" lon="-1.68719">
        <ele>56</ele>
        <time>2011-12-04T12:31:04.5Z</time>
      </trkpt>
      <trkpt lat="47.27293" lon="-1.68712">
        <ele>56</ele>
        <time>2011-12-04T12:31:09.4Z</time>
      </trkpt>
      <trkpt lat="47.27315" lon="-1.68699">
        <ele>56</ele>
        <time>2011-12-04T12:31:09.9Z</time>
      </trkpt>
      <trkpt lat="47.2732" lon="-1.68694">
        <ele>55</ele>
        <time>2011-12-04T12:31:10.9Z</time>
      </trkpt>
      <trkpt lat="47.27325" lon="-1.68688">
        <ele>54</ele>
        <time>2011-12-04T12:31:12Z</time>
      </trkpt>
      <trkpt lat="47.27334" lon="-1.68675">
        <ele>54</ele>
        <time>2011-12-04T12:31:16.8Z</time>
      </trkpt>
      <trkpt lat="47.27348" lon="-1.68656">
        <ele>53</ele>
        <time>2011-12-04T12:31:17Z</time>
      </trkpt>
      <trkpt lat="47.27353" lon="-1.6865">
        <ele>53</ele>
        <time>2011-12-04T12:31:17.9Z</time>
      </trkpt>
      <trkpt lat="47.27364" lon="-1.68636">
        <ele>53</ele>
        <time>2011-12-04T12:31:23.4Z</time>
      </trkpt>
      <trkpt lat="47.27386" lon="-1.68607">
        <ele>52</ele>
        <time>2011-12-04T12:31:23.9Z</time>
      </trkpt>
      <trkpt lat="47.2739" lon="-1.68601">
        <ele>51</ele>
        <time>2011-12-04T12:31:24.9Z</time>
      </trkpt>
      <trkpt lat="47.27401" lon="-1.68579">
        <ele>50</ele>
        <time>2011-12-04T12:31:30Z</time>
      </trkpt>
      <trkpt lat="47.27404" lon="-1.68576">
        <ele>49</ele>
        <time>2011-12-04T12:31:30.9Z</time>
      </trkpt>
      <trkpt lat="47.27407" lon="-1.68575">
        <ele>48</ele>
        <time>2011-12-04T12:31:32Z</time>
      </trkpt>
      <trkpt lat="47.27415" lon="-1.68573">
        <ele>47</ele>
        <time>2011-12-04T12:31:37.8Z</time>
      </trkpt>
      <trkpt lat="47.27427" lon="-1.68557">
        <ele>46</ele>
        <time>2011-12-04T12:31:38Z</time>
      </trkpt>
      <trkpt lat="47.2743" lon="-1.68553">
        <ele>45</ele>
        <time>2011-12-04T12:31:39.1Z</time>
      </trkpt>
      <trkpt lat="47.27433" lon="-1.6855">
        <ele>44</ele>
        <time>2011-12-04T12:31:40.1Z</time>
      </trkpt>
      <trkpt lat="47.27438" lon="-1.68548">
        <ele>43</ele>
        <time>2011-12-04T12:31:45.5Z</time>
      </trkpt>
      <trkpt lat="47.27449" lon="-1.68545">
        <ele>42</ele>
        <time>2011-12-04T12:31:46.3Z</time>
      </trkpt>
      <trkpt lat="47.2745" lon="-1.68546">
        <ele>41</ele>
        <time>2011-12-04T12:31:47.3Z</time>
      </trkpt>
      <trkpt lat="47.27448" lon="-1.68545">
        <ele>38</ele>
        <time>2011-12-04T12:32:01.5Z</time>
      </trkpt>
      <trkpt lat="47.27448" lon="-1.68544">
        <ele>38</ele>
        <time>2011-12-04T12:32:03.1Z</time>
      </trkpt>
      <trkpt lat="47.27446" lon="-1.68542">
        <ele>38</ele>
        <time>2011-12-04T12:32:08.7Z</time>
      </trkpt>
      <trkpt lat="47.27444" lon="-1.6854">
        <ele>38</ele>
        <time>2011-12-04T12:32:09.5Z</time>
      </trkpt>
      <trkpt lat="47.27443" lon="-1.68538">
        <ele>38</ele>
        <time>2011-12-04T12:32:17.4Z</time>
      </trkpt>
      <trkpt lat="47.2744" lon="-1.68533">
        <ele>38</ele>
        <time>2011-12-04T12:32:18.1Z</time>
      </trkpt>
      <trkpt lat="47.27439" lon="-1.68526">
        <ele>38</ele>
        <time>2011-12-04T12:32:25Z</time>
      </trkpt>
      <trkpt lat="47.27441" lon="-1.68524">
        <ele>38</ele>
        <time>2011-12-04T12:32:27.2Z</time>
      </trkpt>
      <trkpt lat="47.27443" lon="-1.68518">
        <ele>38</ele>
        <time>2011-12-04T12:32:33Z</time>
      </trkpt>
      <trkpt lat="47.27445" lon="-1.68517">
        <ele>38</ele>
        <time>2011-12-04T12:32:34.9Z</time>
      </trkpt>
      <trkpt lat="47.27447" lon="-1.68513">
        <ele>38</ele>
        <time>2011-12-04T12:32:41.3Z</time>
      </trkpt>
      <trkpt lat="47.2745" lon="-1.68511">
        <ele>37</ele>
        <time>2011-12-04T12:32:48.2Z</time>
      </trkpt>
      <trkpt lat="47.27453" lon="-1.68509">
        <ele>37</ele>
        <time>2011-12-04T12:32:49Z</time>
      </trkpt>
      <trkpt lat="47.27457" lon="-1.68506">
        <ele>36</ele>
        <time>2011-12-04T12:32:56.3Z</time>
      </trkpt>
      <trkpt lat="47.27458" lon="-1.68504">
        <ele>36</ele>
        <time>2011-12-04T12:32:56.9Z</time>
      </trkpt>
      <trkpt lat="47.27461" lon="-1.68499">
        <ele>35</ele>
        <time>2011-12-04T12:33:02.8Z</time>
      </trkpt>
      <trkpt lat="47.27465" lon="-1.68492">
        <ele>35</ele>
        <time>2011-12-04T12:33:02.9Z</time>
      </trkpt>
      <trkpt lat="47.27466" lon="-1.68489">
        <ele>35</ele>
        <time>2011-12-04T12:33:04.9Z</time>
      </trkpt>
      <trkpt lat="47.27466" lon="-1.68478">
        <ele>35</ele>
        <time>2011-12-04T12:33:11Z</time>
      </trkpt>
      <trkpt lat="47.27467" lon="-1.68474">
        <ele>35</ele>
        <time>2011-12-04T12:33:12Z</time>
      </trkpt>
      <trkpt lat="47.27467" lon="-1.68471">
        <ele>35</ele>
        <time>2011-12-04T12:33:13.6Z</time>
      </trkpt>
      <trkpt lat="47.27468" lon="-1.68468">
        <ele>35</ele>
        <time>2011-12-04T12:33:18.5Z</time>
      </trkpt>
      <trkpt lat="47.27468" lon="-1.6846">
        <ele>35</ele>
        <time>2011-12-04T12:33:19.2Z</time>
      </trkpt>
      <trkpt lat="47.27467" lon="-1.68457">
        <ele>35</ele>
        <time>2011-12-04T12:33:20Z</time>
      </trkpt>
      <trkpt lat="47.27467" lon="-1.68455">
        <ele>35</ele>
        <time>2011-12-04T12:33:22.4Z</time>
      </trkpt>
      <trkpt lat="47.27466" lon="-1.68453">
        <ele>36</ele>
        <time>2011-12-04T12:33:27.6Z</time>
      </trkpt>
      <trkpt lat="47.27464" lon="-1.6845">
        <ele>36</ele>
        <time>2011-12-04T12:33:28.4Z</time>
      </trkpt>
      <trkpt lat="47.27464" lon="-1.68448">
        <ele>36</ele>
        <time>2011-12-04T12:33:29.4Z</time>
      </trkpt>
      <trkpt lat="47.27463" lon="-1.68446">
        <ele>36</ele>
        <time>2011-12-04T12:33:30.1Z</time>
      </trkpt>
      <trkpt lat="47.27464" lon="-1.68434">
        <ele>36</ele>
        <time>2011-12-04T12:33:35Z</time>
      </trkpt>
      <trkpt lat="47.27465" lon="-1.68432">
        <ele>37</ele>
        <time>2011-12-04T12:33:36Z</time>
      </trkpt>
      <trkpt lat="47.27465" lon="-1.68431">
        <ele>37</ele>
        <time>2011-12-04T12:33:37Z</time>
      </trkpt>
      <trkpt lat="47.27465" lon="-1.68423">
        <ele>37</ele>
        <time>2011-12-04T12:33:43.9Z</time>
      </trkpt>
      <trkpt lat="47.27467" lon="-1.68414">
        <ele>37</ele>
        <time>2011-12-04T12:33:52Z</time>
      </trkpt>
      <trkpt lat="47.27466" lon="-1.68411">
        <ele>37</ele>
        <time>2011-12-04T12:33:55.2Z</time>
      </trkpt>
      <trkpt lat="47.27466" lon="-1.68409">
        <ele>37</ele>
        <time>2011-12-04T12:34:00.6Z</time>
      </trkpt>
      <trkpt lat="47.27468" lon="-1.68404">
        <ele>37</ele>
        <time>2011-12-04T12:34:01.4Z</time>
      </trkpt>
      <trkpt lat="47.27469" lon="-1.68402">
        <ele>37</ele>
        <time>2011-12-04T12:34:03.2Z</time>
      </trkpt>
      <trkpt lat="47.27472" lon="-1.68399">
        <ele>37</ele>
        <time>2011-12-04T12:34:08Z</time>
      </trkpt>
      <trkpt lat="47.27474" lon="-1.68397">
        <ele>37</ele>
        <time>2011-12-04T12:34:17Z</time>
      </trkpt>
      <trkpt lat="47.27476" lon="-1.68395">
        <ele>38</ele>
        <time>2011-12-04T12:34:18.4Z</time>
      </trkpt>
      <trkpt lat="47.27478" lon="-1.68394">
        <ele>40</ele>
        <time>2011-12-04T12:34:24.8Z</time>
      </trkpt>
      <trkpt lat="47.27479" lon="-1.6839">
        <ele>41</ele>
        <time>2011-12-04T12:34:25.6Z</time>
      </trkpt>
      <trkpt lat="47.2748" lon="-1.68389">
        <ele>43</ele>
        <time>2011-12-04T12:34:27.1Z</time>
      </trkpt>
      <trkpt lat="47.27482" lon="-1.68385">
        <ele>44</ele>
        <time>2011-12-04T12:34:33.3Z</time>
      </trkpt>
      <trkpt lat="47.27482" lon="-1.68382">
        <ele>45</ele>
        <time>2011-12-04T12:34:40.8Z</time>
      </trkpt>
      <trkpt lat="47.27483" lon="-1.68378">
        <ele>46</ele>
        <time>2011-12-04T12:34:41.3Z</time>
      </trkpt>
      <trkpt lat="47.27483" lon="-1.68376">
        <ele>46</ele>
        <time>2011-12-04T12:34:42.1Z</time>
      </trkpt>
      <trkpt lat="47.27484" lon="-1.68374">
        <ele>46</ele>
        <time>2011-12-04T12:34:49.5Z</time>
      </trkpt>
      <trkpt lat="47.27487" lon="-1.68371">
        <ele>46</ele>
        <time>2011-12-04T12:34:50.5Z</time>
      </trkpt>
      <trkpt lat="47.27488" lon="-1.6837">
        <ele>46</ele>
        <time>2011-12-04T12:34:52.1Z</time>
      </trkpt>
      <trkpt lat="47.27491" lon="-1.68365">
        <ele>46</ele>
        <time>2011-12-04T12:34:58Z</time>
      </trkpt>
      <trkpt lat="47.27492" lon="-1.68364">
        <ele>46</ele>
        <time>2011-12-04T12:35:00.5Z</time>
      </trkpt>
      <trkpt lat="47.27494" lon="-1.68362">
        <ele>47</ele>
        <time>2011-12-04T12:35:06.2Z</time>
      </trkpt>
      <trkpt lat="47.27497" lon="-1.68358">
        <ele>47</ele>
        <time>2011-12-04T12:35:07.1Z</time>
      </trkpt>
      <trkpt lat="47.27503" lon="-1.68343">
        <ele>48</ele>
        <time>2011-12-04T12:35:14Z</time>
      </trkpt>
      <trkpt lat="47.27504" lon="-1.68338">
        <ele>48</ele>
        <time>2011-12-04T12:35:15.2Z</time>
      </trkpt>
      <trkpt lat="47.27504" lon="-1.68334">
        <ele>48</ele>
        <time>2011-12-04T12:35:15.9Z</time>
      </trkpt>
      <trkpt lat="47.27503" lon="-1.68328">
        <ele>48</ele>
        <time>2011-12-04T12:35:21.6Z</time>
      </trkpt>
      <trkpt lat="47.27503" lon="-1.68312">
        <ele>48</ele>
        <time>2011-12-04T12:35:22.3Z</time>
      </trkpt>
      <trkpt lat="47.27504" lon="-1.68308">
        <ele>48</ele>
        <time>2011-12-04T12:35:23.3Z</time>
      </trkpt>
      <trkpt lat="47.27504" lon="-1.68304">
        <ele>48</ele>
        <time>2011-12-04T12:35:24.3Z</time>
      </trkpt>
      <trkpt lat="47.27505" lon="-1.68296">
        <ele>48</ele>
        <time>2011-12-04T12:35:29.2Z</time>
      </trkpt>
      <trkpt lat="47.27505" lon="-1.68281">
        <ele>48</ele>
        <time>2011-12-04T12:35:29.9Z</time>
      </trkpt>
      <trkpt lat="47.27505" lon="-1.68278">
        <ele>48</ele>
        <time>2011-12-04T12:35:30.9Z</time>
      </trkpt>
      <trkpt lat="47.27505" lon="-1.6826">
        <ele>48</ele>
        <time>2011-12-04T12:35:35.9Z</time>
      </trkpt>
      <trkpt lat="47.27506" lon="-1.68255">
        <ele>49</ele>
        <time>2011-12-04T12:35:36.9Z</time>
      </trkpt>
      <trkpt lat="47.27507" lon="-1.68246">
        <ele>49</ele>
        <time>2011-12-04T12:35:42.5Z</time>
      </trkpt>
      <trkpt lat="47.27507" lon="-1.68229">
        <ele>49</ele>
        <time>2011-12-04T12:35:43Z</time>
      </trkpt>
      <trkpt lat="47.27508" lon="-1.68223">
        <ele>49</ele>
        <time>2011-12-04T12:35:43.9Z</time>
      </trkpt>
      <trkpt lat="47.27509" lon="-1.68213">
        <ele>49</ele>
        <time>2011-12-04T12:35:49.1Z</time>
      </trkpt>
      <trkpt lat="47.2751" lon="-1.68192">
        <ele>49</ele>
        <time>2011-12-04T12:35:49.9Z</time>
      </trkpt>
      <trkpt lat="47.27511" lon="-1.68187">
        <ele>49</ele>
        <time>2011-12-04T12:35:50.9Z</time>
      </trkpt>
      <trkpt lat="47.27512" lon="-1.68173">
        <ele>49</ele>
        <time>2011-12-04T12:35:55.8Z</time>
      </trkpt>
      <trkpt lat="47.27516" lon="-1.68151">
        <ele>49</ele>
        <time>2011-12-04T12:35:56Z</time>
      </trkpt>
      <trkpt lat="47.27517" lon="-1.68143">
        <ele>49</ele>
        <time>2011-12-04T12:35:56.9Z</time>
      </trkpt>
      <trkpt lat="47.2752" lon="-1.68129">
        <ele>49</ele>
        <time>2011-12-04T12:36:02.5Z</time>
      </trkpt>
      <trkpt lat="47.27525" lon="-1.68101">
        <ele>49</ele>
        <time>2011-12-04T12:36:02.9Z</time>
      </trkpt>
      <trkpt lat="47.27526" lon="-1.68096">
        <ele>49</ele>
        <time>2011-12-04T12:36:03.9Z</time>
      </trkpt>
      <trkpt lat="47.27528" lon="-1.68086">
        <ele>49</ele>
        <time>2011-12-04T12:36:09.1Z</time>
      </trkpt>
      <trkpt lat="47.27529" lon="-1.68066">
        <ele>49</ele>
        <time>2011-12-04T12:36:09.9Z</time>
      </trkpt>
      <trkpt lat="47.2753" lon="-1.68061">
        <ele>49</ele>
        <time>2011-12-04T12:36:10.9Z</time>
      </trkpt>
      <trkpt lat="47.27543" lon="-1.68048">
        <ele>50</ele>
        <time>2011-12-04T12:36:15.9Z</time>
      </trkpt>
      <trkpt lat="47.27546" lon="-1.68046">
        <ele>51</ele>
        <time>2011-12-04T12:36:17.3Z</time>
      </trkpt>
      <trkpt lat="47.2755" lon="-1.68044">
        <ele>52</ele>
        <time>2011-12-04T12:36:18.6Z</time>
      </trkpt>
      <trkpt lat="47.27553" lon="-1.6804">
        <ele>53</ele>
        <time>2011-12-04T12:36:18.9Z</time>
      </trkpt>
      <trkpt lat="47.27555" lon="-1.68035">
        <ele>54</ele>
        <time>2011-12-04T12:36:19.9Z</time>
      </trkpt>
      <trkpt lat="47.27557" lon="-1.6803">
        <ele>55</ele>
        <time>2011-12-04T12:36:20.9Z</time>
      </trkpt>
      <trkpt lat="47.27559" lon="-1.68025">
        <ele>56</ele>
        <time>2011-12-04T12:36:21.9Z</time>
      </trkpt>
      <trkpt lat="47.2756" lon="-1.68021">
        <ele>56</ele>
        <time>2011-12-04T12:36:22.9Z</time>
      </trkpt>
      <trkpt lat="47.27561" lon="-1.6802">
        <ele>56</ele>
        <time>2011-12-04T12:36:24.9Z</time>
      </trkpt>
      <trkpt lat="47.27563" lon="-1.68018">
        <ele>56</ele>
        <time>2011-12-04T12:36:30.5Z</time>
      </trkpt>
      <trkpt lat="47.27562" lon="-1.68016">
        <ele>56</ele>
        <time>2011-12-04T12:36:34.9Z</time>
      </trkpt>
      <trkpt lat="47.27561" lon="-1.68017">
        <ele>56</ele>
        <time>2011-12-04T12:36:38.9Z</time>
      </trkpt>
      <trkpt lat="47.27561" lon="-1.68019">
        <ele>57</ele>
        <time>2011-12-04T12:36:42.9Z</time>
      </trkpt>
      <trkpt lat="47.27565" lon="-1.68016">
        <ele>58</ele>
        <time>2011-12-04T12:36:56.5Z</time>
      </trkpt>
      <trkpt lat="47.27567" lon="-1.68015">
        <ele>58</ele>
        <time>2011-12-04T12:36:57Z</time>
      </trkpt>
      <trkpt lat="47.27569" lon="-1.68016">
        <ele>58</ele>
        <time>2011-12-04T12:36:58Z</time>
      </trkpt>
      <trkpt lat="47.27572" lon="-1.68017">
        <ele>58</ele>
        <time>2011-12-04T12:36:59Z</time>
      </trkpt>
      <trkpt lat="47.27588" lon="-1.68019">
        <ele>58</ele>
        <time>2011-12-04T12:37:02.9Z</time>
      </trkpt>
      <trkpt lat="47.27593" lon="-1.6802">
        <ele>58</ele>
        <time>2011-12-04T12:37:03.9Z</time>
      </trkpt>
      <trkpt lat="47.27603" lon="-1.6802">
        <ele>58</ele>
        <time>2011-12-04T12:37:08.5Z</time>
      </trkpt>
      <trkpt lat="47.27619" lon="-1.68016">
        <ele>58</ele>
        <time>2011-12-04T12:37:08.9Z</time>
      </trkpt>
      <trkpt lat="47.27624" lon="-1.68014">
        <ele>58</ele>
        <time>2011-12-04T12:37:10.3Z</time>
      </trkpt>
      <trkpt lat="47.27629" lon="-1.68011">
        <ele>58</ele>
        <time>2011-12-04T12:37:11.1Z</time>
      </trkpt>
      <trkpt lat="47.27646" lon="-1.67993">
        <ele>58</ele>
        <time>2011-12-04T12:37:15Z</time>
      </trkpt>
      <trkpt lat="47.27649" lon="-1.67988">
        <ele>58</ele>
        <time>2011-12-04T12:37:16.2Z</time>
      </trkpt>
      <trkpt lat="47.27653" lon="-1.67983">
        <ele>58</ele>
        <time>2011-12-04T12:37:16.9Z</time>
      </trkpt>
      <trkpt lat="47.2766" lon="-1.67972">
        <ele>58</ele>
        <time>2011-12-04T12:37:21Z</time>
      </trkpt>
      <trkpt lat="47.27671" lon="-1.67955">
        <ele>58</ele>
        <time>2011-12-04T12:37:21.9Z</time>
      </trkpt>
      <trkpt lat="47.27675" lon="-1.67951">
        <ele>58</ele>
        <time>2011-12-04T12:37:22.9Z</time>
      </trkpt>
      <trkpt lat="47.27683" lon="-1.6794">
        <ele>58</ele>
        <time>2011-12-04T12:37:26.8Z</time>
      </trkpt>
      <trkpt lat="47.27691" lon="-1.67929">
        <ele>58</ele>
        <time>2011-12-04T12:37:27Z</time>
      </trkpt>
      <trkpt lat="47.27695" lon="-1.67924">
        <ele>58</ele>
        <time>2011-12-04T12:37:27.9Z</time>
      </trkpt>
      <trkpt lat="47.27702" lon="-1.67911">
        <ele>58</ele>
        <time>2011-12-04T12:37:30.8Z</time>
      </trkpt>
      <trkpt lat="47.27716" lon="-1.67888">
        <ele>58</ele>
        <time>2011-12-04T12:37:35.2Z</time>
      </trkpt>
      <trkpt lat="47.2772" lon="-1.67884">
        <ele>58</ele>
        <time>2011-12-04T12:37:35.9Z</time>
      </trkpt>
      <trkpt lat="47.27727" lon="-1.67875">
        <ele>58</ele>
        <time>2011-12-04T12:37:40.4Z</time>
      </trkpt>
      <trkpt lat="47.27739" lon="-1.6786">
        <ele>58</ele>
        <time>2011-12-04T12:37:40.9Z</time>
      </trkpt>
      <trkpt lat="47.27743" lon="-1.67855">
        <ele>58</ele>
        <time>2011-12-04T12:37:41.9Z</time>
      </trkpt>
      <trkpt lat="47.27752" lon="-1.67846">
        <ele>58</ele>
        <time>2011-12-04T12:37:46Z</time>
      </trkpt>
      <trkpt lat="47.27764" lon="-1.67831">
        <ele>58</ele>
        <time>2011-12-04T12:37:46.9Z</time>
      </trkpt>
      <trkpt lat="47.27769" lon="-1.67826">
        <ele>58</ele>
        <time>2011-12-04T12:37:47.9Z</time>
      </trkpt>
      <trkpt lat="47.27773" lon="-1.67822">
        <ele>58</ele>
        <time>2011-12-04T12:37:49.5Z</time>
      </trkpt>
      <trkpt lat="47.2778" lon="-1.67813">
        <ele>58</ele>
        <time>2011-12-04T12:37:53.4Z</time>
      </trkpt>
      <trkpt lat="47.27789" lon="-1.67803">
        <ele>58</ele>
        <time>2011-12-04T12:37:53.9Z</time>
      </trkpt>
      <trkpt lat="47.27792" lon="-1.678">
        <ele>58</ele>
        <time>2011-12-04T12:37:54.9Z</time>
      </trkpt>
      <trkpt lat="47.27794" lon="-1.67797">
        <ele>58</ele>
        <time>2011-12-04T12:37:56.3Z</time>
      </trkpt>
      <trkpt lat="47.27798" lon="-1.67793">
        <ele>58</ele>
        <time>2011-12-04T12:38:00.1Z</time>
      </trkpt>
      <trkpt lat="47.27803" lon="-1.67789">
        <ele>58</ele>
        <time>2011-12-04T12:38:00.9Z</time>
      </trkpt>
      <trkpt lat="47.27798" lon="-1.67792">
        <ele>58</ele>
        <time>2011-12-04T12:38:07Z</time>
      </trkpt>
      <trkpt lat="47.27794" lon="-1.67796">
        <ele>58</ele>
        <time>2011-12-04T12:38:09Z</time>
      </trkpt>
      <trkpt lat="47.27789" lon="-1.67801">
        <ele>58</ele>
        <time>2011-12-04T12:38:13.2Z</time>
      </trkpt>
      <trkpt lat="47.2778" lon="-1.67811">
        <ele>58</ele>
        <time>2011-12-04T12:38:13.9Z</time>
      </trkpt>
      <trkpt lat="47.27772" lon="-1.67819">
        <ele>58</ele>
        <time>2011-12-04T12:38:18.5Z</time>
      </trkpt>
      <trkpt lat="47.2776" lon="-1.67833">
        <ele>58</ele>
        <time>2011-12-04T12:38:18.9Z</time>
      </trkpt>
      <trkpt lat="47.27755" lon="-1.67838">
        <ele>57</ele>
        <time>2011-12-04T12:38:19.9Z</time>
      </trkpt>
      <trkpt lat="47.27747" lon="-1.67847">
        <ele>56</ele>
        <time>2011-12-04T12:38:24.1Z</time>
      </trkpt>
      <trkpt lat="47.27734" lon="-1.67864">
        <ele>56</ele>
        <time>2011-12-04T12:38:24.9Z</time>
      </trkpt>
      <trkpt lat="47.27729" lon="-1.67869">
        <ele>55</ele>
        <time>2011-12-04T12:38:25.9Z</time>
      </trkpt>
      <trkpt lat="47.2772" lon="-1.67881">
        <ele>55</ele>
        <time>2011-12-04T12:38:29.8Z</time>
      </trkpt>
      <trkpt lat="47.27713" lon="-1.67892">
        <ele>55</ele>
        <time>2011-12-04T12:38:30Z</time>
      </trkpt>
      <trkpt lat="47.27709" lon="-1.67898">
        <ele>55</ele>
        <time>2011-12-04T12:38:30.9Z</time>
      </trkpt>
      <trkpt lat="47.27701" lon="-1.67909">
        <ele>55</ele>
        <time>2011-12-04T12:38:35.4Z</time>
      </trkpt>
      <trkpt lat="47.2769" lon="-1.67925">
        <ele>55</ele>
        <time>2011-12-04T12:38:35.9Z</time>
      </trkpt>
      <trkpt lat="47.27686" lon="-1.6793">
        <ele>55</ele>
        <time>2011-12-04T12:38:36.9Z</time>
      </trkpt>
      <trkpt lat="47.27678" lon="-1.67941">
        <ele>55</ele>
        <time>2011-12-04T12:38:41.1Z</time>
      </trkpt>
      <trkpt lat="47.27668" lon="-1.67958">
        <ele>55</ele>
        <time>2011-12-04T12:38:41.9Z</time>
      </trkpt>
      <trkpt lat="47.27665" lon="-1.67964">
        <ele>55</ele>
        <time>2011-12-04T12:38:42.9Z</time>
      </trkpt>
      <trkpt lat="47.27652" lon="-1.67984">
        <ele>54</ele>
        <time>2011-12-04T12:38:46.9Z</time>
      </trkpt>
      <trkpt lat="47.27649" lon="-1.67989">
        <ele>54</ele>
        <time>2011-12-04T12:38:47.9Z</time>
      </trkpt>
      <trkpt lat="47.27639" lon="-1.68">
        <ele>54</ele>
        <time>2011-12-04T12:38:52.5Z</time>
      </trkpt>
      <trkpt lat="47.27621" lon="-1.68014">
        <ele>54</ele>
        <time>2011-12-04T12:38:52.9Z</time>
      </trkpt>
      <trkpt lat="47.27615" lon="-1.68016">
        <ele>54</ele>
        <time>2011-12-04T12:38:54.1Z</time>
      </trkpt>
      <trkpt lat="47.27609" lon="-1.68017">
        <ele>54</ele>
        <time>2011-12-04T12:38:55.3Z</time>
      </trkpt>
      <trkpt lat="47.27599" lon="-1.68018">
        <ele>54</ele>
        <time>2011-12-04T12:38:59.2Z</time>
      </trkpt>
      <trkpt lat="47.27584" lon="-1.68018">
        <ele>54</ele>
        <time>2011-12-04T12:38:59.9Z</time>
      </trkpt>
      <trkpt lat="47.27579" lon="-1.68018">
        <ele>54</ele>
        <time>2011-12-04T12:39:00.9Z</time>
      </trkpt>
      <trkpt lat="47.27575" lon="-1.68017">
        <ele>54</ele>
        <time>2011-12-04T12:39:02.3Z</time>
      </trkpt>
      <trkpt lat="47.27566" lon="-1.68013">
        <ele>54</ele>
        <time>2011-12-04T12:39:06.2Z</time>
      </trkpt>
      <trkpt lat="47.27554" lon="-1.68001">
        <ele>54</ele>
        <time>2011-12-04T12:39:06.9Z</time>
      </trkpt>
      <trkpt lat="47.27551" lon="-1.67996">
        <ele>54</ele>
        <time>2011-12-04T12:39:07.9Z</time>
      </trkpt>
      <trkpt lat="47.27548" lon="-1.6799">
        <ele>54</ele>
        <time>2011-12-04T12:39:08.9Z</time>
      </trkpt>
      <trkpt lat="47.27546" lon="-1.67984">
        <ele>54</ele>
        <time>2011-12-04T12:39:10.3Z</time>
      </trkpt>
      <trkpt lat="47.2754" lon="-1.67971">
        <ele>54</ele>
        <time>2011-12-04T12:39:14.2Z</time>
      </trkpt>
      <trkpt lat="47.27532" lon="-1.67955">
        <ele>54</ele>
        <time>2011-12-04T12:39:14.9Z</time>
      </trkpt>
      <trkpt lat="47.27529" lon="-1.67949">
        <ele>54</ele>
        <time>2011-12-04T12:39:15.9Z</time>
      </trkpt>
      <trkpt lat="47.27516" lon="-1.67925">
        <ele>54</ele>
        <time>2011-12-04T12:39:19.9Z</time>
      </trkpt>
      <trkpt lat="47.27514" lon="-1.67919">
        <ele>54</ele>
        <time>2011-12-04T12:39:20.9Z</time>
      </trkpt>
      <trkpt lat="47.27508" lon="-1.67906">
        <ele>54</ele>
        <time>2011-12-04T12:39:25.6Z</time>
      </trkpt>
      <trkpt lat="47.27503" lon="-1.67883">
        <ele>54</ele>
        <time>2011-12-04T12:39:25.9Z</time>
      </trkpt>
      <trkpt lat="47.27503" lon="-1.67876">
        <ele>54</ele>
        <time>2011-12-04T12:39:26.9Z</time>
      </trkpt>
      <trkpt lat="47.27502" lon="-1.67869">
        <ele>54</ele>
        <time>2011-12-04T12:39:28.3Z</time>
      </trkpt>
      <trkpt lat="47.27501" lon="-1.67854">
        <ele>54</ele>
        <time>2011-12-04T12:39:32.2Z</time>
      </trkpt>
      <trkpt lat="47.27498" lon="-1.67832">
        <ele>54</ele>
        <time>2011-12-04T12:39:32.9Z</time>
      </trkpt>
      <trkpt lat="47.27498" lon="-1.67824">
        <ele>54</ele>
        <time>2011-12-04T12:39:33.9Z</time>
      </trkpt>
      <trkpt lat="47.27495" lon="-1.67793">
        <ele>54</ele>
        <time>2011-12-04T12:39:38Z</time>
      </trkpt>
      <trkpt lat="47.27494" lon="-1.67785">
        <ele>55</ele>
        <time>2011-12-04T12:39:38.9Z</time>
      </trkpt>
      <trkpt lat="47.27491" lon="-1.67768">
        <ele>56</ele>
        <time>2011-12-04T12:39:43.6Z</time>
      </trkpt>
      <trkpt lat="47.27481" lon="-1.67749">
        <ele>56</ele>
        <time>2011-12-04T12:39:43.9Z</time>
      </trkpt>
      <trkpt lat="47.27477" lon="-1.67743">
        <ele>56</ele>
        <time>2011-12-04T12:39:45.1Z</time>
      </trkpt>
      <trkpt lat="47.27472" lon="-1.67738">
        <ele>56</ele>
        <time>2011-12-04T12:39:45.9Z</time>
      </trkpt>
      <trkpt lat="47.27455" lon="-1.67717">
        <ele>56</ele>
        <time>2011-12-04T12:39:49.9Z</time>
      </trkpt>
      <trkpt lat="47.27451" lon="-1.67712">
        <ele>56</ele>
        <time>2011-12-04T12:39:50.9Z</time>
      </trkpt>
      <trkpt lat="47.27445" lon="-1.67699">
        <ele>56</ele>
        <time>2011-12-04T12:39:55.6Z</time>
      </trkpt>
      <trkpt lat="47.27441" lon="-1.67677">
        <ele>56</ele>
        <time>2011-12-04T12:39:55.9Z</time>
      </trkpt>
      <trkpt lat="47.2744" lon="-1.6767">
        <ele>55</ele>
        <time>2011-12-04T12:39:56.9Z</time>
      </trkpt>
      <trkpt lat="47.27441" lon="-1.67662">
        <ele>54</ele>
        <time>2011-12-04T12:39:58.5Z</time>
      </trkpt>
      <trkpt lat="47.27441" lon="-1.67645">
        <ele>53</ele>
        <time>2011-12-04T12:40:02.5Z</time>
      </trkpt>
      <trkpt lat="47.27437" lon="-1.67622">
        <ele>53</ele>
        <time>2011-12-04T12:40:02.9Z</time>
      </trkpt>
      <trkpt lat="47.27436" lon="-1.67615">
        <ele>53</ele>
        <time>2011-12-04T12:40:03.9Z</time>
      </trkpt>
      <trkpt lat="47.27434" lon="-1.67608">
        <ele>53</ele>
        <time>2011-12-04T12:40:05.5Z</time>
      </trkpt>
      <trkpt lat="47.27431" lon="-1.67595">
        <ele>53</ele>
        <time>2011-12-04T12:40:09.5Z</time>
      </trkpt>
      <trkpt lat="47.27426" lon="-1.67579">
        <ele>52</ele>
        <time>2011-12-04T12:40:09.9Z</time>
      </trkpt>
      <trkpt lat="47.27425" lon="-1.67574">
        <ele>52</ele>
        <time>2011-12-04T12:40:10.9Z</time>
      </trkpt>
      <trkpt lat="47.27425" lon="-1.6757">
        <ele>52</ele>
        <time>2011-12-04T12:40:11.9Z</time>
      </trkpt>
      <trkpt lat="47.27427" lon="-1.67566">
        <ele>52</ele>
        <time>2011-12-04T12:40:12.9Z</time>
      </trkpt>
      <trkpt lat="47.27431" lon="-1.6756">
        <ele>52</ele>
        <time>2011-12-04T12:40:17.6Z</time>
      </trkpt>
      <trkpt lat="47.27439" lon="-1.67551">
        <ele>52</ele>
        <time>2011-12-04T12:40:18.4Z</time>
      </trkpt>
      <trkpt lat="47.27442" lon="-1.67548">
        <ele>52</ele>
        <time>2011-12-04T12:40:19Z</time>
      </trkpt>
      <trkpt lat="47.27457" lon="-1.67534">
        <ele>52</ele>
        <time>2011-12-04T12:40:23Z</time>
      </trkpt>
      <trkpt lat="47.27461" lon="-1.67529">
        <ele>52</ele>
        <time>2011-12-04T12:40:23.9Z</time>
      </trkpt>
      <trkpt lat="47.27465" lon="-1.67525">
        <ele>52</ele>
        <time>2011-12-04T12:40:24.9Z</time>
      </trkpt>
      <trkpt lat="47.2748" lon="-1.67508">
        <ele>52</ele>
        <time>2011-12-04T12:40:29Z</time>
      </trkpt>
      <trkpt lat="47.27484" lon="-1.67503">
        <ele>53</ele>
        <time>2011-12-04T12:40:29.9Z</time>
      </trkpt>
      <trkpt lat="47.27492" lon="-1.67494">
        <ele>54</ele>
        <time>2011-12-04T12:40:34.6Z</time>
      </trkpt>
      <trkpt lat="47.27504" lon="-1.67484">
        <ele>55</ele>
        <time>2011-12-04T12:40:34.9Z</time>
      </trkpt>
      <trkpt lat="47.27509" lon="-1.6748">
        <ele>55</ele>
        <time>2011-12-04T12:40:35.9Z</time>
      </trkpt>
      <trkpt lat="47.27517" lon="-1.67472">
        <ele>56</ele>
        <time>2011-12-04T12:40:40.4Z</time>
      </trkpt>
      <trkpt lat="47.2753" lon="-1.6746">
        <ele>56</ele>
        <time>2011-12-04T12:40:40.9Z</time>
      </trkpt>
      <trkpt lat="47.27535" lon="-1.67456">
        <ele>56</ele>
        <time>2011-12-04T12:40:41.9Z</time>
      </trkpt>
      <trkpt lat="47.27544" lon="-1.67447">
        <ele>56</ele>
        <time>2011-12-04T12:40:46.1Z</time>
      </trkpt>
      <trkpt lat="47.27557" lon="-1.67434">
        <ele>57</ele>
        <time>2011-12-04T12:40:46.9Z</time>
      </trkpt>
      <trkpt lat="47.27561" lon="-1.6743">
        <ele>58</ele>
        <time>2011-12-04T12:40:47.9Z</time>
      </trkpt>
      <trkpt lat="47.2758" lon="-1.67416">
        <ele>58</ele>
        <time>2011-12-04T12:40:51.9Z</time>
      </trkpt>
      <trkpt lat="47.27585" lon="-1.67412">
        <ele>59</ele>
        <time>2011-12-04T12:40:52.9Z</time>
      </trkpt>
      <trkpt lat="47.27595" lon="-1.67406">
        <ele>59</ele>
        <time>2011-12-04T12:40:57.6Z</time>
      </trkpt>
      <trkpt lat="47.27608" lon="-1.67399">
        <ele>59</ele>
        <time>2011-12-04T12:40:57.9Z</time>
      </trkpt>
      <trkpt lat="47.27612" lon="-1.67397">
        <ele>60</ele>
        <time>2011-12-04T12:40:58.9Z</time>
      </trkpt>
      <trkpt lat="47.27619" lon="-1.67391">
        <ele>60</ele>
        <time>2011-12-04T12:41:03.4Z</time>
      </trkpt>
      <trkpt lat="47.27625" lon="-1.67381">
        <ele>60</ele>
        <time>2011-12-04T12:41:03.9Z</time>
      </trkpt>
      <trkpt lat="47.27626" lon="-1.67378">
        <ele>60</ele>
        <time>2011-12-04T12:41:05.5Z</time>
      </trkpt>
      <trkpt lat="47.27625" lon="-1.67374">
        <ele>60</ele>
        <time>2011-12-04T12:41:06.3Z</time>
      </trkpt>
      <trkpt lat="47.27621" lon="-1.67367">
        <ele>60</ele>
        <time>2011-12-04T12:41:11.2Z</time>
      </trkpt>
      <trkpt lat="47.27609" lon="-1.67348">
        <ele>60</ele>
        <time>2011-12-04T12:41:12Z</time>
      </trkpt>
      <trkpt lat="47.27606" lon="-1.67343">
        <ele>59</ele>
        <time>2011-12-04T12:41:12.9Z</time>
      </trkpt>
      <trkpt lat="47.27592" lon="-1.67322">
        <ele>58</ele>
        <time>2011-12-04T12:41:17Z</time>
      </trkpt>
      <trkpt lat="47.27589" lon="-1.67316">
        <ele>58</ele>
        <time>2011-12-04T12:41:17.9Z</time>
      </trkpt>
      <trkpt lat="47.27585" lon="-1.67311">
        <ele>58</ele>
        <time>2011-12-04T12:41:18.9Z</time>
      </trkpt>
      <trkpt lat="47.27573" lon="-1.67289">
        <ele>58</ele>
        <time>2011-12-04T12:41:23Z</time>
      </trkpt>
      <trkpt lat="47.2757" lon="-1.67282">
        <ele>58</ele>
        <time>2011-12-04T12:41:23.9Z</time>
      </trkpt>
      <trkpt lat="47.27567" lon="-1.67275">
        <ele>58</ele>
        <time>2011-12-04T12:41:24.9Z</time>
      </trkpt>
      <trkpt lat="47.27559" lon="-1.67248">
        <ele>58</ele>
        <time>2011-12-04T12:41:28.9Z</time>
      </trkpt>
      <trkpt lat="47.27557" lon="-1.67241">
        <ele>58</ele>
        <time>2011-12-04T12:41:29.9Z</time>
      </trkpt>
      <trkpt lat="47.27554" lon="-1.67226">
        <ele>58</ele>
        <time>2011-12-04T12:41:34.6Z</time>
      </trkpt>
      <trkpt lat="47.2755" lon="-1.67203">
        <ele>57</ele>
        <time>2011-12-04T12:41:34.9Z</time>
      </trkpt>
      <trkpt lat="47.27549" lon="-1.67195">
        <ele>56</ele>
        <time>2011-12-04T12:41:35.9Z</time>
      </trkpt>
      <trkpt lat="47.27547" lon="-1.67179">
        <ele>55</ele>
        <time>2011-12-04T12:41:40.4Z</time>
      </trkpt>
      <trkpt lat="47.27542" lon="-1.67155">
        <ele>54</ele>
        <time>2011-12-04T12:41:40.9Z</time>
      </trkpt>
      <trkpt lat="47.27541" lon="-1.67146">
        <ele>54</ele>
        <time>2011-12-04T12:41:41.9Z</time>
      </trkpt>
      <trkpt lat="47.27538" lon="-1.6713">
        <ele>53</ele>
        <time>2011-12-04T12:41:46.1Z</time>
      </trkpt>
      <trkpt lat="47.27533" lon="-1.67106">
        <ele>53</ele>
        <time>2011-12-04T12:41:46.9Z</time>
      </trkpt>
      <trkpt lat="47.27532" lon="-1.67098">
        <ele>53</ele>
        <time>2011-12-04T12:41:47.9Z</time>
      </trkpt>
      <trkpt lat="47.27525" lon="-1.67072">
        <ele>53</ele>
        <time>2011-12-04T12:41:51.9Z</time>
      </trkpt>
      <trkpt lat="47.27524" lon="-1.67069">
        <ele>53</ele>
        <time>2011-12-04T12:41:52.9Z</time>
      </trkpt>
      <trkpt lat="47.27523" lon="-1.67067">
        <ele>53</ele>
        <time>2011-12-04T12:41:53.9Z</time>
      </trkpt>
      <trkpt lat="47.27518" lon="-1.67047">
        <ele>53</ele>
        <time>2011-12-04T12:41:58Z</time>
      </trkpt>
      <trkpt lat="47.27516" lon="-1.6704">
        <ele>53</ele>
        <time>2011-12-04T12:41:58.9Z</time>
      </trkpt>
      <trkpt lat="47.27512" lon="-1.67026">
        <ele>53</ele>
        <time>2011-12-04T12:42:03.6Z</time>
      </trkpt>
      <trkpt lat="47.27504" lon="-1.67002">
        <ele>53</ele>
        <time>2011-12-04T12:42:03.9Z</time>
      </trkpt>
      <trkpt lat="47.27502" lon="-1.66994">
        <ele>53</ele>
        <time>2011-12-04T12:42:04.9Z</time>
      </trkpt>
      <trkpt lat="47.27496" lon="-1.66977">
        <ele>52</ele>
        <time>2011-12-04T12:42:09.4Z</time>
      </trkpt>
      <trkpt lat="47.27487" lon="-1.66951">
        <ele>51</ele>
        <time>2011-12-04T12:42:09.9Z</time>
      </trkpt>
      <trkpt lat="47.27484" lon="-1.66942">
        <ele>50</ele>
        <time>2011-12-04T12:42:10.9Z</time>
      </trkpt>
      <trkpt lat="47.27477" lon="-1.66924">
        <ele>50</ele>
        <time>2011-12-04T12:42:15.2Z</time>
      </trkpt>
      <trkpt lat="47.27464" lon="-1.66901">
        <ele>49</ele>
        <time>2011-12-04T12:42:15.9Z</time>
      </trkpt>
      <trkpt lat="47.27461" lon="-1.66893">
        <ele>48</ele>
        <time>2011-12-04T12:42:17.1Z</time>
      </trkpt>
      <trkpt lat="47.27455" lon="-1.66879">
        <ele>47</ele>
        <time>2011-12-04T12:42:21.5Z</time>
      </trkpt>
      <trkpt lat="47.27446" lon="-1.66856">
        <ele>47</ele>
        <time>2011-12-04T12:42:21.9Z</time>
      </trkpt>
      <trkpt lat="47.27442" lon="-1.66849">
        <ele>46</ele>
        <time>2011-12-04T12:42:22.9Z</time>
      </trkpt>
      <trkpt lat="47.27435" lon="-1.66833">
        <ele>46</ele>
        <time>2011-12-04T12:42:27.3Z</time>
      </trkpt>
      <trkpt lat="47.27422" lon="-1.6681">
        <ele>45</ele>
        <time>2011-12-04T12:42:27.9Z</time>
      </trkpt>
      <trkpt lat="47.27416" lon="-1.66802">
        <ele>45</ele>
        <time>2011-12-04T12:42:28.9Z</time>
      </trkpt>
      <trkpt lat="47.27405" lon="-1.66785">
        <ele>44</ele>
        <time>2011-12-04T12:42:33.1Z</time>
      </trkpt>
      <trkpt lat="47.2739" lon="-1.66764">
        <ele>44</ele>
        <time>2011-12-04T12:42:33.9Z</time>
      </trkpt>
      <trkpt lat="47.27386" lon="-1.66756">
        <ele>44</ele>
        <time>2011-12-04T12:42:34.9Z</time>
      </trkpt>
      <trkpt lat="47.27365" lon="-1.66727">
        <ele>44</ele>
        <time>2011-12-04T12:42:39Z</time>
      </trkpt>
      <trkpt lat="47.2736" lon="-1.66719">
        <ele>44</ele>
        <time>2011-12-04T12:42:39.9Z</time>
      </trkpt>
      <trkpt lat="47.27355" lon="-1.66712">
        <ele>44</ele>
        <time>2011-12-04T12:42:40.9Z</time>
      </trkpt>
      <trkpt lat="47.27335" lon="-1.66685">
        <ele>44</ele>
        <time>2011-12-04T12:42:45Z</time>
      </trkpt>
      <trkpt lat="47.27331" lon="-1.66678">
        <ele>44</ele>
        <time>2011-12-04T12:42:45.9Z</time>
      </trkpt>
      <trkpt lat="47.27327" lon="-1.66671">
        <ele>44</ele>
        <time>2011-12-04T12:42:46.9Z</time>
      </trkpt>
      <trkpt lat="47.27313" lon="-1.66643">
        <ele>45</ele>
        <time>2011-12-04T12:42:51Z</time>
      </trkpt>
      <trkpt lat="47.27312" lon="-1.66637">
        <ele>46</ele>
        <time>2011-12-04T12:42:52.4Z</time>
      </trkpt>
      <trkpt lat="47.2731" lon="-1.6663">
        <ele>47</ele>
        <time>2011-12-04T12:42:53.1Z</time>
      </trkpt>
      <trkpt lat="47.27309" lon="-1.66615">
        <ele>48</ele>
        <time>2011-12-04T12:42:57.4Z</time>
      </trkpt>
      <trkpt lat="47.27311" lon="-1.66591">
        <ele>48</ele>
        <time>2011-12-04T12:42:57.9Z</time>
      </trkpt>
      <trkpt lat="47.27311" lon="-1.66583">
        <ele>49</ele>
        <time>2011-12-04T12:42:59.2Z</time>
      </trkpt>
      <trkpt lat="47.27312" lon="-1.66574">
        <ele>49</ele>
        <time>2011-12-04T12:43:00Z</time>
      </trkpt>
      <trkpt lat="47.27314" lon="-1.66558">
        <ele>49</ele>
        <time>2011-12-04T12:43:04Z</time>
      </trkpt>
      <trkpt lat="47.27315" lon="-1.66534">
        <ele>50</ele>
        <time>2011-12-04T12:43:04.9Z</time>
      </trkpt>
      <trkpt lat="47.27316" lon="-1.66527">
        <ele>50</ele>
        <time>2011-12-04T12:43:05.9Z</time>
      </trkpt>
      <trkpt lat="47.27318" lon="-1.66498">
        <ele>50</ele>
        <time>2011-12-04T12:43:10Z</time>
      </trkpt>
      <trkpt lat="47.27318" lon="-1.66491">
        <ele>51</ele>
        <time>2011-12-04T12:43:10.9Z</time>
      </trkpt>
      <trkpt lat="47.27319" lon="-1.66484">
        <ele>51</ele>
        <time>2011-12-04T12:43:11.9Z</time>
      </trkpt>
      <trkpt lat="47.27321" lon="-1.66456">
        <ele>51</ele>
        <time>2011-12-04T12:43:16Z</time>
      </trkpt>
      <trkpt lat="47.27321" lon="-1.66449">
        <ele>52</ele>
        <time>2011-12-04T12:43:16.9Z</time>
      </trkpt>
      <trkpt lat="47.27322" lon="-1.66442">
        <ele>52</ele>
        <time>2011-12-04T12:43:17.9Z</time>
      </trkpt>
      <trkpt lat="47.27325" lon="-1.66413">
        <ele>52</ele>
        <time>2011-12-04T12:43:22Z</time>
      </trkpt>
      <trkpt lat="47.27325" lon="-1.66406">
        <ele>53</ele>
        <time>2011-12-04T12:43:22.9Z</time>
      </trkpt>
      <trkpt lat="47.27326" lon="-1.66398">
        <ele>54</ele>
        <time>2011-12-04T12:43:23.9Z</time>
      </trkpt>
      <trkpt lat="47.27329" lon="-1.66367">
        <ele>54</ele>
        <time>2011-12-04T12:43:28Z</time>
      </trkpt>
      <trkpt lat="47.2733" lon="-1.66359">
        <ele>55</ele>
        <time>2011-12-04T12:43:28.9Z</time>
      </trkpt>
      <trkpt lat="47.2733" lon="-1.66352">
        <ele>55</ele>
        <time>2011-12-04T12:43:29.9Z</time>
      </trkpt>
      <trkpt lat="47.27334" lon="-1.66321">
        <ele>55</ele>
        <time>2011-12-04T12:43:34Z</time>
      </trkpt>
      <trkpt lat="47.27334" lon="-1.66313">
        <ele>55</ele>
        <time>2011-12-04T12:43:34.9Z</time>
      </trkpt>
      <trkpt lat="47.27335" lon="-1.66305">
        <ele>55</ele>
        <time>2011-12-04T12:43:35.9Z</time>
      </trkpt>
      <trkpt lat="47.2734" lon="-1.66272">
        <ele>55</ele>
        <time>2011-12-04T12:43:40Z</time>
      </trkpt>
      <trkpt lat="47.27341" lon="-1.66263">
        <ele>55</ele>
        <time>2011-12-04T12:43:40.9Z</time>
      </trkpt>
      <trkpt lat="47.27343" lon="-1.66254">
        <ele>55</ele>
        <time>2011-12-04T12:43:41.9Z</time>
      </trkpt>
      <trkpt lat="47.27351" lon="-1.66218">
        <ele>55</ele>
        <time>2011-12-04T12:43:46Z</time>
      </trkpt>
      <trkpt lat="47.27353" lon="-1.66209">
        <ele>55</ele>
        <time>2011-12-04T12:43:46.9Z</time>
      </trkpt>
      <trkpt lat="47.27355" lon="-1.662">
        <ele>55</ele>
        <time>2011-12-04T12:43:47.9Z</time>
      </trkpt>
      <trkpt lat="47.27367" lon="-1.66164">
        <ele>55</ele>
        <time>2011-12-04T12:43:52Z</time>
      </trkpt>
      <trkpt lat="47.2737" lon="-1.66154">
        <ele>54</ele>
        <time>2011-12-04T12:43:52.9Z</time>
      </trkpt>
      <trkpt lat="47.27373" lon="-1.66145">
        <ele>53</ele>
        <time>2011-12-04T12:43:53.9Z</time>
      </trkpt>
      <trkpt lat="47.27385" lon="-1.66109">
        <ele>52</ele>
        <time>2011-12-04T12:43:58Z</time>
      </trkpt>
      <trkpt lat="47.27387" lon="-1.661">
        <ele>51</ele>
        <time>2011-12-04T12:43:58.9Z</time>
      </trkpt>
      <trkpt lat="47.2739" lon="-1.66091">
        <ele>50</ele>
        <time>2011-12-04T12:43:59.9Z</time>
      </trkpt>
      <trkpt lat="47.27402" lon="-1.66056">
        <ele>49</ele>
        <time>2011-12-04T12:44:04Z</time>
      </trkpt>
      <trkpt lat="47.27405" lon="-1.66047">
        <ele>48</ele>
        <time>2011-12-04T12:44:04.9Z</time>
      </trkpt>
      <trkpt lat="47.27408" lon="-1.66039">
        <ele>47</ele>
        <time>2011-12-04T12:44:05.9Z</time>
      </trkpt>
      <trkpt lat="47.27415" lon="-1.66022">
        <ele>47</ele>
        <time>2011-12-04T12:44:10Z</time>
      </trkpt>
      <trkpt lat="47.27423" lon="-1.65998">
        <ele>47</ele>
        <time>2011-12-04T12:44:10.9Z</time>
      </trkpt>
      <trkpt lat="47.27426" lon="-1.6599">
        <ele>47</ele>
        <time>2011-12-04T12:44:11.9Z</time>
      </trkpt>
      <trkpt lat="47.27431" lon="-1.65977">
        <ele>47</ele>
        <time>2011-12-04T12:44:16Z</time>
      </trkpt>
      <trkpt lat="47.2744" lon="-1.65958">
        <ele>47</ele>
        <time>2011-12-04T12:44:16.9Z</time>
      </trkpt>
      <trkpt lat="47.27444" lon="-1.65953">
        <ele>47</ele>
        <time>2011-12-04T12:44:18.2Z</time>
      </trkpt>
      <trkpt lat="47.27449" lon="-1.65941">
        <ele>47</ele>
        <time>2011-12-04T12:44:22.3Z</time>
      </trkpt>
      <trkpt lat="47.27459" lon="-1.65926">
        <ele>47</ele>
        <time>2011-12-04T12:44:22.9Z</time>
      </trkpt>
      <trkpt lat="47.27462" lon="-1.65923">
        <ele>47</ele>
        <time>2011-12-04T12:44:23.9Z</time>
      </trkpt>
      <trkpt lat="47.27466" lon="-1.65919">
        <ele>47</ele>
        <time>2011-12-04T12:44:25.3Z</time>
      </trkpt>
      <trkpt lat="47.27474" lon="-1.65913">
        <ele>47</ele>
        <time>2011-12-04T12:44:29.3Z</time>
      </trkpt>
      <trkpt lat="47.27487" lon="-1.65905">
        <ele>48</ele>
        <time>2011-12-04T12:44:29.9Z</time>
      </trkpt>
      <trkpt lat="47.27493" lon="-1.65902">
        <ele>49</ele>
        <time>2011-12-04T12:44:30.9Z</time>
      </trkpt>
      <trkpt lat="47.27504" lon="-1.65897">
        <ele>50</ele>
        <time>2011-12-04T12:44:35.2Z</time>
      </trkpt>
      <trkpt lat="47.27521" lon="-1.65891">
        <ele>51</ele>
        <time>2011-12-04T12:44:35.9Z</time>
      </trkpt>
      <trkpt lat="47.27526" lon="-1.65889">
        <ele>52</ele>
        <time>2011-12-04T12:44:36.9Z</time>
      </trkpt>
      <trkpt lat="47.27535" lon="-1.65885">
        <ele>53</ele>
        <time>2011-12-04T12:44:41Z</time>
      </trkpt>
      <trkpt lat="47.27549" lon="-1.65879">
        <ele>54</ele>
        <time>2011-12-04T12:44:41.9Z</time>
      </trkpt>
      <trkpt lat="47.27554" lon="-1.65877">
        <ele>55</ele>
        <time>2011-12-04T12:44:42.9Z</time>
      </trkpt>
      <trkpt lat="47.27564" lon="-1.65872">
        <ele>56</ele>
        <time>2011-12-04T12:44:47Z</time>
      </trkpt>
      <trkpt lat="47.27583" lon="-1.65863">
        <ele>57</ele>
        <time>2011-12-04T12:44:47.9Z</time>
      </trkpt>
      <trkpt lat="47.27589" lon="-1.65859">
        <ele>58</ele>
        <time>2011-12-04T12:44:48.9Z</time>
      </trkpt>
      <trkpt lat="47.27601" lon="-1.65849">
        <ele>59</ele>
        <time>2011-12-04T12:44:53Z</time>
      </trkpt>
      <trkpt lat="47.27614" lon="-1.65822">
        <ele>60</ele>
        <time>2011-12-04T12:44:53.9Z</time>
      </trkpt>
      <trkpt lat="47.27617" lon="-1.65811">
        <ele>60</ele>
        <time>2011-12-04T12:44:54.9Z</time>
      </trkpt>
      <trkpt lat="47.2762" lon="-1.65788">
        <ele>60</ele>
        <time>2011-12-04T12:45:00.1Z</time>
      </trkpt>
      <trkpt lat="47.27622" lon="-1.65742">
        <ele>60</ele>
        <time>2011-12-04T12:45:00.9Z</time>
      </trkpt>
      <trkpt lat="47.27622" lon="-1.65731">
        <ele>59</ele>
        <time>2011-12-04T12:45:01.9Z</time>
      </trkpt>
      <trkpt lat="47.27621" lon="-1.65709">
        <ele>58</ele>
        <time>2011-12-04T12:45:06Z</time>
      </trkpt>
      <trkpt lat="47.27615" lon="-1.65676">
        <ele>57</ele>
        <time>2011-12-04T12:45:06.9Z</time>
      </trkpt>
      <trkpt lat="47.27612" lon="-1.65665">
        <ele>56</ele>
        <time>2011-12-04T12:45:08.2Z</time>
      </trkpt>
      <trkpt lat="47.27608" lon="-1.65655">
        <ele>55</ele>
        <time>2011-12-04T12:45:09Z</time>
      </trkpt>
      <trkpt lat="47.27601" lon="-1.65635">
        <ele>54</ele>
        <time>2011-12-04T12:45:13.1Z</time>
      </trkpt>
      <trkpt lat="47.2759" lon="-1.65604">
        <ele>53</ele>
        <time>2011-12-04T12:45:13.9Z</time>
      </trkpt>
      <trkpt lat="47.27587" lon="-1.65594">
        <ele>52</ele>
        <time>2011-12-04T12:45:14.9Z</time>
      </trkpt>
      <trkpt lat="47.27582" lon="-1.65573">
        <ele>51</ele>
        <time>2011-12-04T12:45:19Z</time>
      </trkpt>
      <trkpt lat="47.27575" lon="-1.65541">
        <ele>51</ele>
        <time>2011-12-04T12:45:19.9Z</time>
      </trkpt>
      <trkpt lat="47.27574" lon="-1.6553">
        <ele>51</ele>
        <time>2011-12-04T12:45:20.9Z</time>
      </trkpt>
      <trkpt lat="47.27571" lon="-1.6551">
        <ele>51</ele>
        <time>2011-12-04T12:45:25Z</time>
      </trkpt>
      <trkpt lat="47.27568" lon="-1.65483">
        <ele>51</ele>
        <time>2011-12-04T12:45:25.9Z</time>
      </trkpt>
      <trkpt lat="47.27567" lon="-1.65473">
        <ele>50</ele>
        <time>2011-12-04T12:45:26.9Z</time>
      </trkpt>
      <trkpt lat="47.27564" lon="-1.65454">
        <ele>49</ele>
        <time>2011-12-04T12:45:31Z</time>
      </trkpt>
      <trkpt lat="47.27551" lon="-1.65423">
        <ele>48</ele>
        <time>2011-12-04T12:45:31.8Z</time>
      </trkpt>
      <trkpt lat="47.27546" lon="-1.65412">
        <ele>47</ele>
        <time>2011-12-04T12:45:33.2Z</time>
      </trkpt>
      <trkpt lat="47.27541" lon="-1.65402">
        <ele>46</ele>
        <time>2011-12-04T12:45:34.5Z</time>
      </trkpt>
      <trkpt lat="47.27531" lon="-1.65386">
        <ele>45</ele>
        <time>2011-12-04T12:45:38.5Z</time>
      </trkpt>
      <trkpt lat="47.27519" lon="-1.65365">
        <ele>44</ele>
        <time>2011-12-04T12:45:38.8Z</time>
      </trkpt>
      <trkpt lat="47.27517" lon="-1.65358">
        <ele>43</ele>
        <time>2011-12-04T12:45:39.8Z</time>
      </trkpt>
      <trkpt lat="47.27512" lon="-1.65341">
        <ele>42</ele>
        <time>2011-12-04T12:45:44.5Z</time>
      </trkpt>
      <trkpt lat="47.27508" lon="-1.65312">
        <ele>41</ele>
        <time>2011-12-04T12:45:44.9Z</time>
      </trkpt>
      <trkpt lat="47.27507" lon="-1.65302">
        <ele>41</ele>
        <time>2011-12-04T12:45:46.2Z</time>
      </trkpt>
      <trkpt lat="47.27508" lon="-1.65292">
        <ele>41</ele>
        <time>2011-12-04T12:45:47Z</time>
      </trkpt>
      <trkpt lat="47.2751" lon="-1.65273">
        <ele>41</ele>
        <time>2011-12-04T12:45:51.1Z</time>
      </trkpt>
      <trkpt lat="47.27515" lon="-1.65247">
        <ele>41</ele>
        <time>2011-12-04T12:45:51.9Z</time>
      </trkpt>
      <trkpt lat="47.27517" lon="-1.65239">
        <ele>41</ele>
        <time>2011-12-04T12:45:52.9Z</time>
      </trkpt>
      <trkpt lat="47.2752" lon="-1.65231">
        <ele>41</ele>
        <time>2011-12-04T12:45:53.9Z</time>
      </trkpt>
      <trkpt lat="47.27525" lon="-1.65214">
        <ele>41</ele>
        <time>2011-12-04T12:45:58Z</time>
      </trkpt>
      <trkpt lat="47.27535" lon="-1.6519">
        <ele>41</ele>
        <time>2011-12-04T12:45:58.8Z</time>
      </trkpt>
      <trkpt lat="47.27538" lon="-1.65183">
        <ele>41</ele>
        <time>2011-12-04T12:45:59.9Z</time>
      </trkpt>
      <trkpt lat="47.27543" lon="-1.65167">
        <ele>41</ele>
        <time>2011-12-04T12:46:04Z</time>
      </trkpt>
      <trkpt lat="47.2755" lon="-1.65144">
        <ele>41</ele>
        <time>2011-12-04T12:46:04.8Z</time>
      </trkpt>
      <trkpt lat="47.27552" lon="-1.65138">
        <ele>42</ele>
        <time>2011-12-04T12:46:05.9Z</time>
      </trkpt>
      <trkpt lat="47.27554" lon="-1.65125">
        <ele>42</ele>
        <time>2011-12-04T12:46:10Z</time>
      </trkpt>
      <trkpt lat="47.27555" lon="-1.65109">
        <ele>43</ele>
        <time>2011-12-04T12:46:10.8Z</time>
      </trkpt>
      <trkpt lat="47.27555" lon="-1.65103">
        <ele>44</ele>
        <time>2011-12-04T12:46:11.9Z</time>
      </trkpt>
      <trkpt lat="47.27554" lon="-1.65092">
        <ele>45</ele>
        <time>2011-12-04T12:46:17.4Z</time>
      </trkpt>
      <trkpt lat="47.2755" lon="-1.65067">
        <ele>46</ele>
        <time>2011-12-04T12:46:17.9Z</time>
      </trkpt>
      <trkpt lat="47.27547" lon="-1.65055">
        <ele>47</ele>
        <time>2011-12-04T12:46:22.5Z</time>
      </trkpt>
      <trkpt lat="47.27541" lon="-1.65027">
        <ele>48</ele>
        <time>2011-12-04T12:46:24.9Z</time>
      </trkpt>
      <trkpt lat="47.27539" lon="-1.65018">
        <ele>48</ele>
        <time>2011-12-04T12:46:28.2Z</time>
      </trkpt>
      <trkpt lat="47.27536" lon="-1.65005">
        <ele>49</ele>
        <time>2011-12-04T12:46:31Z</time>
      </trkpt>
      <trkpt lat="47.27533" lon="-1.64992">
        <ele>49</ele>
        <time>2011-12-04T12:46:33.4Z</time>
      </trkpt>
      <trkpt lat="47.27531" lon="-1.64982">
        <ele>49</ele>
        <time>2011-12-04T12:46:38.1Z</time>
      </trkpt>
      <trkpt lat="47.2753" lon="-1.64961">
        <ele>49</ele>
        <time>2011-12-04T12:46:38.9Z</time>
      </trkpt>
      <trkpt lat="47.2753" lon="-1.64957">
        <ele>49</ele>
        <time>2011-12-04T12:46:39.9Z</time>
      </trkpt>
      <trkpt lat="47.2753" lon="-1.64948">
        <ele>49</ele>
        <time>2011-12-04T12:46:44Z</time>
      </trkpt>
      <trkpt lat="47.27532" lon="-1.64934">
        <ele>49</ele>
        <time>2011-12-04T12:46:44.9Z</time>
      </trkpt>
      <trkpt lat="47.27532" lon="-1.64929">
        <ele>49</ele>
        <time>2011-12-04T12:46:46.3Z</time>
      </trkpt>
      <trkpt lat="47.27531" lon="-1.64925">
        <ele>49</ele>
        <time>2011-12-04T12:46:47.7Z</time>
      </trkpt>
      <trkpt lat="47.2753" lon="-1.6491">
        <ele>49</ele>
        <time>2011-12-04T12:46:50Z</time>
      </trkpt>
      <trkpt lat="47.27529" lon="-1.64901">
        <ele>49</ele>
        <time>2011-12-04T12:46:54.2Z</time>
      </trkpt>
      <trkpt lat="47.27527" lon="-1.64887">
        <ele>49</ele>
        <time>2011-12-04T12:46:54.8Z</time>
      </trkpt>
      <trkpt lat="47.27526" lon="-1.64881">
        <ele>49</ele>
        <time>2011-12-04T12:46:55.9Z</time>
      </trkpt>
      <trkpt lat="47.27524" lon="-1.64868">
        <ele>49</ele>
        <time>2011-12-04T12:47:00.1Z</time>
      </trkpt>
      <trkpt lat="47.27523" lon="-1.64851">
        <ele>49</ele>
        <time>2011-12-04T12:47:00.9Z</time>
      </trkpt>
      <trkpt lat="47.27523" lon="-1.64846">
        <ele>49</ele>
        <time>2011-12-04T12:47:01.9Z</time>
      </trkpt>
      <trkpt lat="47.27522" lon="-1.64838">
        <ele>49</ele>
        <time>2011-12-04T12:47:06Z</time>
      </trkpt>
      <trkpt lat="47.27523" lon="-1.64824">
        <ele>49</ele>
        <time>2011-12-04T12:47:07.2Z</time>
      </trkpt>
      <trkpt lat="47.27523" lon="-1.64819">
        <ele>49</ele>
        <time>2011-12-04T12:47:08Z</time>
      </trkpt>
      <trkpt lat="47.27525" lon="-1.64814">
        <ele>49</ele>
        <time>2011-12-04T12:47:09.4Z</time>
      </trkpt>
      <trkpt lat="47.27527" lon="-1.64804">
        <ele>49</ele>
        <time>2011-12-04T12:47:12.5Z</time>
      </trkpt>
      <trkpt lat="47.27531" lon="-1.64789">
        <ele>49</ele>
        <time>2011-12-04T12:47:16.7Z</time>
      </trkpt>
      <trkpt lat="47.27535" lon="-1.64776">
        <ele>49</ele>
        <time>2011-12-04T12:47:16.9Z</time>
      </trkpt>
      <trkpt lat="47.27536" lon="-1.64771">
        <ele>49</ele>
        <time>2011-12-04T12:47:17.9Z</time>
      </trkpt>
      <trkpt lat="47.27539" lon="-1.64761">
        <ele>49</ele>
        <time>2011-12-04T12:47:22.6Z</time>
      </trkpt>
      <trkpt lat="47.27543" lon="-1.64745">
        <ele>49</ele>
        <time>2011-12-04T12:47:22.9Z</time>
      </trkpt>
      <trkpt lat="47.27545" lon="-1.6474">
        <ele>48</ele>
        <time>2011-12-04T12:47:23.8Z</time>
      </trkpt>
      <trkpt lat="47.27546" lon="-1.64728">
        <ele>48</ele>
        <time>2011-12-04T12:47:28.6Z</time>
      </trkpt>
      <trkpt lat="47.27546" lon="-1.64709">
        <ele>48</ele>
        <time>2011-12-04T12:47:28.8Z</time>
      </trkpt>
      <trkpt lat="47.27546" lon="-1.64702">
        <ele>48</ele>
        <time>2011-12-04T12:47:29.8Z</time>
      </trkpt>
      <trkpt lat="47.27547" lon="-1.64686">
        <ele>48</ele>
        <time>2011-12-04T12:47:34.5Z</time>
      </trkpt>
      <trkpt lat="47.27548" lon="-1.64661">
        <ele>47</ele>
        <time>2011-12-04T12:47:34.8Z</time>
      </trkpt>
      <trkpt lat="47.27549" lon="-1.64652">
        <ele>47</ele>
        <time>2011-12-04T12:47:35.8Z</time>
      </trkpt>
      <trkpt lat="47.27552" lon="-1.64632">
        <ele>47</ele>
        <time>2011-12-04T12:47:40.4Z</time>
      </trkpt>
      <trkpt lat="47.27558" lon="-1.64602">
        <ele>46</ele>
        <time>2011-12-04T12:47:40.8Z</time>
      </trkpt>
      <trkpt lat="47.2756" lon="-1.64592">
        <ele>46</ele>
        <time>2011-12-04T12:47:41.9Z</time>
      </trkpt>
      <trkpt lat="47.27563" lon="-1.64572">
        <ele>45</ele>
        <time>2011-12-04T12:47:46.4Z</time>
      </trkpt>
      <trkpt lat="47.27565" lon="-1.64543">
        <ele>45</ele>
        <time>2011-12-04T12:47:46.8Z</time>
      </trkpt>
      <trkpt lat="47.27565" lon="-1.64534">
        <ele>45</ele>
        <time>2011-12-04T12:47:47.9Z</time>
      </trkpt>
      <trkpt lat="47.27564" lon="-1.64517">
        <ele>44</ele>
        <time>2011-12-04T12:47:52.4Z</time>
      </trkpt>
      <trkpt lat="47.27562" lon="-1.64494">
        <ele>44</ele>
        <time>2011-12-04T12:47:52.8Z</time>
      </trkpt>
      <trkpt lat="47.27561" lon="-1.64487">
        <ele>44</ele>
        <time>2011-12-04T12:47:53.9Z</time>
      </trkpt>
      <trkpt lat="47.27559" lon="-1.64474">
        <ele>44</ele>
        <time>2011-12-04T12:47:58.3Z</time>
      </trkpt>
      <trkpt lat="47.27556" lon="-1.64457">
        <ele>44</ele>
        <time>2011-12-04T12:47:58.8Z</time>
      </trkpt>
      <trkpt lat="47.27555" lon="-1.64453">
        <ele>44</ele>
        <time>2011-12-04T12:47:59.8Z</time>
      </trkpt>
      <trkpt lat="47.27554" lon="-1.6445">
        <ele>44</ele>
        <time>2011-12-04T12:48:00.9Z</time>
      </trkpt>
      <trkpt lat="47.27552" lon="-1.64449">
        <ele>44</ele>
        <time>2011-12-04T12:48:01.9Z</time>
      </trkpt>
      <trkpt lat="47.27542" lon="-1.64454">
        <ele>44</ele>
        <time>2011-12-04T12:48:06.9Z</time>
      </trkpt>
      <trkpt lat="47.27539" lon="-1.64455">
        <ele>44</ele>
        <time>2011-12-04T12:48:07.9Z</time>
      </trkpt>
      <trkpt lat="47.27536" lon="-1.64456">
        <ele>44</ele>
        <time>2011-12-04T12:48:08.9Z</time>
      </trkpt>
      <trkpt lat="47.27528" lon="-1.64459">
        <ele>44</ele>
        <time>2011-12-04T12:48:13.5Z</time>
      </trkpt>
      <trkpt lat="47.27519" lon="-1.64464">
        <ele>44</ele>
        <time>2011-12-04T12:48:13.8Z</time>
      </trkpt>
      <trkpt lat="47.27516" lon="-1.64466">
        <ele>44</ele>
        <time>2011-12-04T12:48:14.9Z</time>
      </trkpt>
      <trkpt lat="47.27513" lon="-1.64468">
        <ele>44</ele>
        <time>2011-12-04T12:48:15.9Z</time>
      </trkpt>
      <trkpt lat="47.27506" lon="-1.64473">
        <ele>44</ele>
        <time>2011-12-04T12:48:20.1Z</time>
      </trkpt>
      <trkpt lat="47.27493" lon="-1.6448">
        <ele>44</ele>
        <time>2011-12-04T12:48:20.8Z</time>
      </trkpt>
      <trkpt lat="47.27488" lon="-1.64482">
        <ele>44</ele>
        <time>2011-12-04T12:48:21.8Z</time>
      </trkpt>
      <trkpt lat="47.27478" lon="-1.64484">
        <ele>44</ele>
        <time>2011-12-04T12:48:26.1Z</time>
      </trkpt>
      <trkpt lat="47.27463" lon="-1.64488">
        <ele>44</ele>
        <time>2011-12-04T12:48:26.8Z</time>
      </trkpt>
      <trkpt lat="47.27458" lon="-1.64489">
        <ele>44</ele>
        <time>2011-12-04T12:48:27.8Z</time>
      </trkpt>
      <trkpt lat="47.27448" lon="-1.6449">
        <ele>44</ele>
        <time>2011-12-04T12:48:32.1Z</time>
      </trkpt>
      <trkpt lat="47.27432" lon="-1.64491">
        <ele>44</ele>
        <time>2011-12-04T12:48:32.8Z</time>
      </trkpt>
      <trkpt lat="47.27427" lon="-1.64491">
        <ele>45</ele>
        <time>2011-12-04T12:48:33.8Z</time>
      </trkpt>
      <trkpt lat="47.2742" lon="-1.64491">
        <ele>45</ele>
        <time>2011-12-04T12:48:38.1Z</time>
      </trkpt>
      <trkpt lat="47.27414" lon="-1.6449">
        <ele>45</ele>
        <time>2011-12-04T12:48:38.8Z</time>
      </trkpt>
      <trkpt lat="47.27412" lon="-1.64488">
        <ele>45</ele>
        <time>2011-12-04T12:48:40.4Z</time>
      </trkpt>
      <trkpt lat="47.27409" lon="-1.64485">
        <ele>45</ele>
        <time>2011-12-04T12:48:41.2Z</time>
      </trkpt>
      <trkpt lat="47.27402" lon="-1.6448">
        <ele>45</ele>
        <time>2011-12-04T12:48:45.4Z</time>
      </trkpt>
      <trkpt lat="47.27391" lon="-1.64469">
        <ele>45</ele>
        <time>2011-12-04T12:48:45.8Z</time>
      </trkpt>
      <trkpt lat="47.27388" lon="-1.64464">
        <ele>45</ele>
        <time>2011-12-04T12:48:46.8Z</time>
      </trkpt>
      <trkpt lat="47.2738" lon="-1.64455">
        <ele>45</ele>
        <time>2011-12-04T12:48:51.4Z</time>
      </trkpt>
      <trkpt lat="47.27372" lon="-1.64445">
        <ele>45</ele>
        <time>2011-12-04T12:48:51.8Z</time>
      </trkpt>
      <trkpt lat="47.27369" lon="-1.64441">
        <ele>45</ele>
        <time>2011-12-04T12:48:52.8Z</time>
      </trkpt>
      <trkpt lat="47.27363" lon="-1.64434">
        <ele>45</ele>
        <time>2011-12-04T12:48:57.4Z</time>
      </trkpt>
      <trkpt lat="47.27353" lon="-1.64424">
        <ele>45</ele>
        <time>2011-12-04T12:48:57.8Z</time>
      </trkpt>
      <trkpt lat="47.2735" lon="-1.6442">
        <ele>44</ele>
        <time>2011-12-04T12:48:58.8Z</time>
      </trkpt>
      <trkpt lat="47.27334" lon="-1.64403">
        <ele>44</ele>
        <time>2011-12-04T12:49:04.3Z</time>
      </trkpt>
      <trkpt lat="47.27329" lon="-1.64397">
        <ele>44</ele>
        <time>2011-12-04T12:49:04.8Z</time>
      </trkpt>
      <trkpt lat="47.27326" lon="-1.6439">
        <ele>44</ele>
        <time>2011-12-04T12:49:06.4Z</time>
      </trkpt>
      <trkpt lat="47.27317" lon="-1.64376">
        <ele>44</ele>
        <time>2011-12-04T12:49:11Z</time>
      </trkpt>
      <trkpt lat="47.27301" lon="-1.64349">
        <ele>44</ele>
        <time>2011-12-04T12:49:11.8Z</time>
      </trkpt>
      <trkpt lat="47.27297" lon="-1.64342">
        <ele>44</ele>
        <time>2011-12-04T12:49:12.9Z</time>
      </trkpt>
      <trkpt lat="47.27289" lon="-1.64328">
        <ele>44</ele>
        <time>2011-12-04T12:49:17.1Z</time>
      </trkpt>
      <trkpt lat="47.27278" lon="-1.64306">
        <ele>44</ele>
        <time>2011-12-04T12:49:17.8Z</time>
      </trkpt>
      <trkpt lat="47.27275" lon="-1.64299">
        <ele>44</ele>
        <time>2011-12-04T12:49:18.8Z</time>
      </trkpt>
      <trkpt lat="47.27268" lon="-1.64285">
        <ele>43</ele>
        <time>2011-12-04T12:49:23.1Z</time>
      </trkpt>
      <trkpt lat="47.27258" lon="-1.64267">
        <ele>43</ele>
        <time>2011-12-04T12:49:23.8Z</time>
      </trkpt>
      <trkpt lat="47.27255" lon="-1.64262">
        <ele>43</ele>
        <time>2011-12-04T12:49:24.8Z</time>
      </trkpt>
      <trkpt lat="47.27248" lon="-1.64252">
        <ele>43</ele>
        <time>2011-12-04T12:49:29.1Z</time>
      </trkpt>
      <trkpt lat="47.27238" lon="-1.64234">
        <ele>43</ele>
        <time>2011-12-04T12:49:29.8Z</time>
      </trkpt>
      <trkpt lat="47.27234" lon="-1.64228">
        <ele>43</ele>
        <time>2011-12-04T12:49:30.8Z</time>
      </trkpt>
      <trkpt lat="47.27229" lon="-1.64213">
        <ele>42</ele>
        <time>2011-12-04T12:49:35Z</time>
      </trkpt>
      <trkpt lat="47.27221" lon="-1.64192">
        <ele>42</ele>
        <time>2011-12-04T12:49:35.8Z</time>
      </trkpt>
      <trkpt lat="47.27219" lon="-1.64185">
        <ele>41</ele>
        <time>2011-12-04T12:49:36.8Z</time>
      </trkpt>
      <trkpt lat="47.27214" lon="-1.64171">
        <ele>40</ele>
        <time>2011-12-04T12:49:41.1Z</time>
      </trkpt>
      <trkpt lat="47.27207" lon="-1.64152">
        <ele>39</ele>
        <time>2011-12-04T12:49:41.8Z</time>
      </trkpt>
      <trkpt lat="47.27204" lon="-1.64146">
        <ele>39</ele>
        <time>2011-12-04T12:49:42.8Z</time>
      </trkpt>
      <trkpt lat="47.272" lon="-1.64133">
        <ele>39</ele>
        <time>2011-12-04T12:49:47Z</time>
      </trkpt>
      <trkpt lat="47.27195" lon="-1.64115">
        <ele>39</ele>
        <time>2011-12-04T12:49:47.8Z</time>
      </trkpt>
      <trkpt lat="47.27193" lon="-1.64109">
        <ele>39</ele>
        <time>2011-12-04T12:49:49Z</time>
      </trkpt>
      <trkpt lat="47.27187" lon="-1.641">
        <ele>39</ele>
        <time>2011-12-04T12:49:53.3Z</time>
      </trkpt>
      <trkpt lat="47.27179" lon="-1.64085">
        <ele>39</ele>
        <time>2011-12-04T12:49:54.3Z</time>
      </trkpt>
      <trkpt lat="47.27176" lon="-1.6408">
        <ele>39</ele>
        <time>2011-12-04T12:49:54.8Z</time>
      </trkpt>
      <trkpt lat="47.27171" lon="-1.64069">
        <ele>39</ele>
        <time>2011-12-04T12:49:59.5Z</time>
      </trkpt>
      <trkpt lat="47.27163" lon="-1.64055">
        <ele>39</ele>
        <time>2011-12-04T12:49:59.8Z</time>
      </trkpt>
      <trkpt lat="47.2716" lon="-1.64049">
        <ele>39</ele>
        <time>2011-12-04T12:50:00.8Z</time>
      </trkpt>
      <trkpt lat="47.27154" lon="-1.64037">
        <ele>39</ele>
        <time>2011-12-04T12:50:05.5Z</time>
      </trkpt>
      <trkpt lat="47.27146" lon="-1.6402">
        <ele>39</ele>
        <time>2011-12-04T12:50:05.8Z</time>
      </trkpt>
      <trkpt lat="47.27143" lon="-1.64014">
        <ele>39</ele>
        <time>2011-12-04T12:50:06.8Z</time>
      </trkpt>
      <trkpt lat="47.27136" lon="-1.64004">
        <ele>39</ele>
        <time>2011-12-04T12:50:11.5Z</time>
      </trkpt>
      <trkpt lat="47.27127" lon="-1.6399">
        <ele>39</ele>
        <time>2011-12-04T12:50:11.8Z</time>
      </trkpt>
      <trkpt lat="47.27124" lon="-1.63984">
        <ele>39</ele>
        <time>2011-12-04T12:50:12.8Z</time>
      </trkpt>
      <trkpt lat="47.27117" lon="-1.63972">
        <ele>39</ele>
        <time>2011-12-04T12:50:17.5Z</time>
      </trkpt>
      <trkpt lat="47.27108" lon="-1.63955">
        <ele>39</ele>
        <time>2011-12-04T12:50:17.8Z</time>
      </trkpt>
      <trkpt lat="47.27105" lon="-1.63949">
        <ele>39</ele>
        <time>2011-12-04T12:50:18.8Z</time>
      </trkpt>
      <trkpt lat="47.27097" lon="-1.63936">
        <ele>39</ele>
        <time>2011-12-04T12:50:23.5Z</time>
      </trkpt>
      <trkpt lat="47.27089" lon="-1.63918">
        <ele>39</ele>
        <time>2011-12-04T12:50:23.8Z</time>
      </trkpt>
      <trkpt lat="47.27086" lon="-1.63912">
        <ele>39</ele>
        <time>2011-12-04T12:50:24.8Z</time>
      </trkpt>
      <trkpt lat="47.27081" lon="-1.63904">
        <ele>39</ele>
        <time>2011-12-04T12:50:29.5Z</time>
      </trkpt>
      <trkpt lat="47.27074" lon="-1.63898">
        <ele>39</ele>
        <time>2011-12-04T12:50:29.8Z</time>
      </trkpt>
      <trkpt lat="47.27072" lon="-1.63896">
        <ele>39</ele>
        <time>2011-12-04T12:50:30.8Z</time>
      </trkpt>
      <trkpt lat="47.2707" lon="-1.63895">
        <ele>39</ele>
        <time>2011-12-04T12:50:35.5Z</time>
      </trkpt>
      <trkpt lat="47.27069" lon="-1.63891">
        <ele>39</ele>
        <time>2011-12-04T12:50:36.3Z</time>
      </trkpt>
      <trkpt lat="47.2707" lon="-1.63889">
        <ele>39</ele>
        <time>2011-12-04T12:50:37.1Z</time>
      </trkpt>
      <trkpt lat="47.2707" lon="-1.63886">
        <ele>39</ele>
        <time>2011-12-04T12:50:38.1Z</time>
      </trkpt>
      <trkpt lat="47.27069" lon="-1.63881">
        <ele>39</ele>
        <time>2011-12-04T12:50:42.3Z</time>
      </trkpt>
      <trkpt lat="47.27068" lon="-1.63869">
        <ele>40</ele>
        <time>2011-12-04T12:50:42.9Z</time>
      </trkpt>
      <trkpt lat="47.27067" lon="-1.63865">
        <ele>40</ele>
        <time>2011-12-04T12:50:43.9Z</time>
      </trkpt>
      <trkpt lat="47.27066" lon="-1.63861">
        <ele>40</ele>
        <time>2011-12-04T12:50:44.8Z</time>
      </trkpt>
      <trkpt lat="47.27065" lon="-1.63851">
        <ele>40</ele>
        <time>2011-12-04T12:50:49.1Z</time>
      </trkpt>
      <trkpt lat="47.27063" lon="-1.63835">
        <ele>41</ele>
        <time>2011-12-04T12:50:49.8Z</time>
      </trkpt>
      <trkpt lat="47.27063" lon="-1.63829">
        <ele>41</ele>
        <time>2011-12-04T12:50:50.8Z</time>
      </trkpt>
      <trkpt lat="47.27062" lon="-1.63816">
        <ele>41</ele>
        <time>2011-12-04T12:50:55.4Z</time>
      </trkpt>
      <trkpt lat="47.2706" lon="-1.63796">
        <ele>41</ele>
        <time>2011-12-04T12:50:55.8Z</time>
      </trkpt>
      <trkpt lat="47.27059" lon="-1.63789">
        <ele>42</ele>
        <time>2011-12-04T12:50:56.8Z</time>
      </trkpt>
      <trkpt lat="47.27059" lon="-1.63769">
        <ele>42</ele>
        <time>2011-12-04T12:50:59.8Z</time>
      </trkpt>
      <trkpt lat="47.27059" lon="-1.63762">
        <ele>42</ele>
        <time>2011-12-04T12:51:00.8Z</time>
      </trkpt>
      <trkpt lat="47.2706" lon="-1.63747">
        <ele>42</ele>
        <time>2011-12-04T12:51:04.4Z</time>
      </trkpt>
      <trkpt lat="47.27062" lon="-1.63731">
        <ele>42</ele>
        <time>2011-12-04T12:51:04.8Z</time>
      </trkpt>
      <trkpt lat="47.27063" lon="-1.63723">
        <ele>42</ele>
        <time>2011-12-04T12:51:05.8Z</time>
      </trkpt>
      <trkpt lat="47.27066" lon="-1.63705">
        <ele>42</ele>
        <time>2011-12-04T12:51:09Z</time>
      </trkpt>
      <trkpt lat="47.27069" lon="-1.63684">
        <ele>42</ele>
        <time>2011-12-04T12:51:09.8Z</time>
      </trkpt>
      <trkpt lat="47.2707" lon="-1.63674">
        <ele>42</ele>
        <time>2011-12-04T12:51:10.8Z</time>
      </trkpt>
      <trkpt lat="47.27074" lon="-1.63647">
        <ele>42</ele>
        <time>2011-12-04T12:51:13.8Z</time>
      </trkpt>
      <trkpt lat="47.27075" lon="-1.63639">
        <ele>42</ele>
        <time>2011-12-04T12:51:14.8Z</time>
      </trkpt>
      <trkpt lat="47.27078" lon="-1.63625">
        <ele>42</ele>
        <time>2011-12-04T12:51:18.4Z</time>
      </trkpt>
      <trkpt lat="47.27081" lon="-1.63611">
        <ele>42</ele>
        <time>2011-12-04T12:51:18.8Z</time>
      </trkpt>
      <trkpt lat="47.27083" lon="-1.63604">
        <ele>42</ele>
        <time>2011-12-04T12:51:19.8Z</time>
      </trkpt>
      <trkpt lat="47.27086" lon="-1.6359">
        <ele>42</ele>
        <time>2011-12-04T12:51:23.1Z</time>
      </trkpt>
      <trkpt lat="47.2709" lon="-1.63576">
        <ele>42</ele>
        <time>2011-12-04T12:51:23.8Z</time>
      </trkpt>
      <trkpt lat="47.27092" lon="-1.63569">
        <ele>42</ele>
        <time>2011-12-04T12:51:24.8Z</time>
      </trkpt>
      <trkpt lat="47.27093" lon="-1.63548">
        <ele>42</ele>
        <time>2011-12-04T12:51:27.8Z</time>
      </trkpt>
      <trkpt lat="47.27093" lon="-1.63542">
        <ele>42</ele>
        <time>2011-12-04T12:51:29.2Z</time>
      </trkpt>
      <trkpt lat="47.27093" lon="-1.63534">
        <ele>42</ele>
        <time>2011-12-04T12:51:30Z</time>
      </trkpt>
      <trkpt lat="47.27092" lon="-1.63517">
        <ele>42</ele>
        <time>2011-12-04T12:51:33.1Z</time>
      </trkpt>
      <trkpt lat="47.27091" lon="-1.63498">
        <ele>42</ele>
        <time>2011-12-04T12:51:33.8Z</time>
      </trkpt>
      <trkpt lat="47.2709" lon="-1.63488">
        <ele>42</ele>
        <time>2011-12-04T12:51:34.8Z</time>
      </trkpt>
      <trkpt lat="47.27089" lon="-1.63462">
        <ele>42</ele>
        <time>2011-12-04T12:51:37.9Z</time>
      </trkpt>
      <trkpt lat="47.27088" lon="-1.63454">
        <ele>42</ele>
        <time>2011-12-04T12:51:38.8Z</time>
      </trkpt>
      <trkpt lat="47.27083" lon="-1.63439">
        <ele>41</ele>
        <time>2011-12-04T12:51:42.5Z</time>
      </trkpt>
      <trkpt lat="47.27079" lon="-1.63431">
        <ele>40</ele>
        <time>2011-12-04T12:51:43.5Z</time>
      </trkpt>
      <trkpt lat="47.27077" lon="-1.63428">
        <ele>39</ele>
        <time>2011-12-04T12:51:44.3Z</time>
      </trkpt>
      <trkpt lat="47.27076" lon="-1.63428">
        <ele>38</ele>
        <time>2011-12-04T12:51:44.8Z</time>
      </trkpt>
      <trkpt lat="47.27067" lon="-1.63425">
        <ele>37</ele>
        <time>2011-12-04T12:51:48.8Z</time>
      </trkpt>
      <trkpt lat="47.27065" lon="-1.63424">
        <ele>36</ele>
        <time>2011-12-04T12:51:49.8Z</time>
      </trkpt>
      <trkpt lat="47.27055" lon="-1.63419">
        <ele>36</ele>
        <time>2011-12-04T12:51:52.9Z</time>
      </trkpt>
      <trkpt lat="47.27052" lon="-1.63416">
        <ele>35</ele>
        <time>2011-12-04T12:51:53.8Z</time>
      </trkpt>
      <trkpt lat="47.27049" lon="-1.63411">
        <ele>35</ele>
        <time>2011-12-04T12:51:55Z</time>
      </trkpt>
      <trkpt lat="47.27048" lon="-1.63405">
        <ele>34</ele>
        <time>2011-12-04T12:51:56Z</time>
      </trkpt>
      <trkpt lat="47.27045" lon="-1.63392">
        <ele>34</ele>
        <time>2011-12-04T12:51:59.3Z</time>
      </trkpt>
      <trkpt lat="47.27045" lon="-1.63379">
        <ele>34</ele>
        <time>2011-12-04T12:52:00Z</time>
      </trkpt>
      <trkpt lat="47.27044" lon="-1.63371">
        <ele>34</ele>
        <time>2011-12-04T12:52:00.8Z</time>
      </trkpt>
      <trkpt lat="47.27043" lon="-1.63357">
        <ele>34</ele>
        <time>2011-12-04T12:52:03.9Z</time>
      </trkpt>
      <trkpt lat="47.27043" lon="-1.63346">
        <ele>34</ele>
        <time>2011-12-04T12:52:04.8Z</time>
      </trkpt>
      <trkpt lat="47.27044" lon="-1.63341">
        <ele>34</ele>
        <time>2011-12-04T12:52:05.8Z</time>
      </trkpt>
      <trkpt lat="47.27044" lon="-1.63336">
        <ele>33</ele>
        <time>2011-12-04T12:52:07.2Z</time>
      </trkpt>
      <trkpt lat="47.27042" lon="-1.63325">
        <ele>33</ele>
        <time>2011-12-04T12:52:10.1Z</time>
      </trkpt>
      <trkpt lat="47.27042" lon="-1.63313">
        <ele>32</ele>
        <time>2011-12-04T12:52:11.5Z</time>
      </trkpt>
      <trkpt lat="47.27043" lon="-1.63306">
        <ele>32</ele>
        <time>2011-12-04T12:52:12.5Z</time>
      </trkpt>
      <trkpt lat="47.27043" lon="-1.63294">
        <ele>32</ele>
        <time>2011-12-04T12:52:15.4Z</time>
      </trkpt>
      <trkpt lat="47.27041" lon="-1.63286">
        <ele>31</ele>
        <time>2011-12-04T12:52:15.8Z</time>
      </trkpt>
      <trkpt lat="47.27039" lon="-1.63282">
        <ele>31</ele>
        <time>2011-12-04T12:52:17.2Z</time>
      </trkpt>
      <trkpt lat="47.27037" lon="-1.63278">
        <ele>31</ele>
        <time>2011-12-04T12:52:18.4Z</time>
      </trkpt>
      <trkpt lat="47.27034" lon="-1.63268">
        <ele>31</ele>
        <time>2011-12-04T12:52:21.3Z</time>
      </trkpt>
      <trkpt lat="47.27035" lon="-1.63256">
        <ele>31</ele>
        <time>2011-12-04T12:52:21.8Z</time>
      </trkpt>
      <trkpt lat="47.27036" lon="-1.6325">
        <ele>31</ele>
        <time>2011-12-04T12:52:23.4Z</time>
      </trkpt>
      <trkpt lat="47.27038" lon="-1.63243">
        <ele>31</ele>
        <time>2011-12-04T12:52:24.4Z</time>
      </trkpt>
      <trkpt lat="47.27041" lon="-1.6323">
        <ele>31</ele>
        <time>2011-12-04T12:52:27.3Z</time>
      </trkpt>
      <trkpt lat="47.27046" lon="-1.63216">
        <ele>31</ele>
        <time>2011-12-04T12:52:27.8Z</time>
      </trkpt>
      <trkpt lat="47.27048" lon="-1.63209">
        <ele>31</ele>
        <time>2011-12-04T12:52:28.8Z</time>
      </trkpt>
      <trkpt lat="47.27052" lon="-1.63195">
        <ele>30</ele>
        <time>2011-12-04T12:52:32Z</time>
      </trkpt>
      <trkpt lat="47.27055" lon="-1.63182">
        <ele>30</ele>
        <time>2011-12-04T12:52:32.8Z</time>
      </trkpt>
      <trkpt lat="47.27057" lon="-1.63175">
        <ele>29</ele>
        <time>2011-12-04T12:52:33.8Z</time>
      </trkpt>
      <trkpt lat="47.2706" lon="-1.63155">
        <ele>29</ele>
        <time>2011-12-04T12:52:36.8Z</time>
      </trkpt>
      <trkpt lat="47.27064" lon="-1.63133">
        <ele>29</ele>
        <time>2011-12-04T12:52:39.8Z</time>
      </trkpt>
      <trkpt lat="47.27065" lon="-1.63126">
        <ele>29</ele>
        <time>2011-12-04T12:52:40.8Z</time>
      </trkpt>
      <trkpt lat="47.27066" lon="-1.63113">
        <ele>29</ele>
        <time>2011-12-04T12:52:44.4Z</time>
      </trkpt>
      <trkpt lat="47.27068" lon="-1.63102">
        <ele>29</ele>
        <time>2011-12-04T12:52:44.8Z</time>
      </trkpt>
      <trkpt lat="47.27069" lon="-1.63098">
        <ele>29</ele>
        <time>2011-12-04T12:52:45.8Z</time>
      </trkpt>
      <trkpt lat="47.27071" lon="-1.6309">
        <ele>29</ele>
        <time>2011-12-04T12:52:49.1Z</time>
      </trkpt>
      <trkpt lat="47.27073" lon="-1.63083">
        <ele>29</ele>
        <time>2011-12-04T12:52:49.8Z</time>
      </trkpt>
      <trkpt lat="47.27075" lon="-1.6308">
        <ele>29</ele>
        <time>2011-12-04T12:52:50.8Z</time>
      </trkpt>
      <trkpt lat="47.27078" lon="-1.63072">
        <ele>29</ele>
        <time>2011-12-04T12:52:53.8Z</time>
      </trkpt>
      <trkpt lat="47.2708" lon="-1.6307">
        <ele>30</ele>
        <time>2011-12-04T12:52:55.2Z</time>
      </trkpt>
      <trkpt lat="47.27081" lon="-1.63067">
        <ele>31</ele>
        <time>2011-12-04T12:52:56Z</time>
      </trkpt>
      <trkpt lat="47.27082" lon="-1.63062">
        <ele>32</ele>
        <time>2011-12-04T12:52:59.1Z</time>
      </trkpt>
      <trkpt lat="47.27083" lon="-1.63058">
        <ele>33</ele>
        <time>2011-12-04T12:52:59.9Z</time>
      </trkpt>
      <trkpt lat="47.27083" lon="-1.63056">
        <ele>34</ele>
        <time>2011-12-04T12:53:00.9Z</time>
      </trkpt>
      <trkpt lat="47.27083" lon="-1.63054">
        <ele>35</ele>
        <time>2011-12-04T12:53:02.1Z</time>
      </trkpt>
      <trkpt lat="47.27083" lon="-1.6305">
        <ele>36</ele>
        <time>2011-12-04T12:53:05Z</time>
      </trkpt>
      <trkpt lat="47.27084" lon="-1.63046">
        <ele>37</ele>
        <time>2011-12-04T12:53:05.8Z</time>
      </trkpt>
      <trkpt lat="47.27084" lon="-1.63044">
        <ele>38</ele>
        <time>2011-12-04T12:53:06.8Z</time>
      </trkpt>
      <trkpt lat="47.27084" lon="-1.63043">
        <ele>39</ele>
        <time>2011-12-04T12:53:07.8Z</time>
      </trkpt>
      <trkpt lat="47.27084" lon="-1.63038">
        <ele>40</ele>
        <time>2011-12-04T12:53:10.8Z</time>
      </trkpt>
      <trkpt lat="47.27084" lon="-1.63037">
        <ele>41</ele>
        <time>2011-12-04T12:53:11.8Z</time>
      </trkpt>
      <trkpt lat="47.27085" lon="-1.63033">
        <ele>42</ele>
        <time>2011-12-04T12:53:15.5Z</time>
      </trkpt>
      <trkpt lat="47.27085" lon="-1.63027">
        <ele>43</ele>
        <time>2011-12-04T12:53:15.8Z</time>
      </trkpt>
      <trkpt lat="47.27085" lon="-1.63025">
        <ele>44</ele>
        <time>2011-12-04T12:53:16.8Z</time>
      </trkpt>
      <trkpt lat="47.27086" lon="-1.63021">
        <ele>44</ele>
        <time>2011-12-04T12:53:20.2Z</time>
      </trkpt>
      <trkpt lat="47.27086" lon="-1.63016">
        <ele>44</ele>
        <time>2011-12-04T12:53:20.8Z</time>
      </trkpt>
      <trkpt lat="47.27085" lon="-1.63014">
        <ele>44</ele>
        <time>2011-12-04T12:53:21.8Z</time>
      </trkpt>
      <trkpt lat="47.27085" lon="-1.63012">
        <ele>45</ele>
        <time>2011-12-04T12:53:23.2Z</time>
      </trkpt>
      <trkpt lat="47.27085" lon="-1.63008">
        <ele>45</ele>
        <time>2011-12-04T12:53:26.2Z</time>
      </trkpt>
      <trkpt lat="47.27085" lon="-1.63005">
        <ele>45</ele>
        <time>2011-12-04T12:53:26.8Z</time>
      </trkpt>
      <trkpt lat="47.27085" lon="-1.63003">
        <ele>46</ele>
        <time>2011-12-04T12:53:27.8Z</time>
      </trkpt>
      <trkpt lat="47.27086" lon="-1.62995">
        <ele>46</ele>
        <time>2011-12-04T12:53:30.9Z</time>
      </trkpt>
      <trkpt lat="47.27086" lon="-1.62993">
        <ele>46</ele>
        <time>2011-12-04T12:53:31.8Z</time>
      </trkpt>
      <trkpt lat="47.27085" lon="-1.62985">
        <ele>46</ele>
        <time>2011-12-04T12:53:35.8Z</time>
      </trkpt>
      <trkpt lat="47.27084" lon="-1.62983">
        <ele>46</ele>
        <time>2011-12-04T12:53:37Z</time>
      </trkpt>
      <trkpt lat="47.27084" lon="-1.62981">
        <ele>46</ele>
        <time>2011-12-04T12:53:37.8Z</time>
      </trkpt>
      <trkpt lat="47.27083" lon="-1.62976">
        <ele>46</ele>
        <time>2011-12-04T12:53:40.9Z</time>
      </trkpt>
      <trkpt lat="47.27082" lon="-1.62969">
        <ele>46</ele>
        <time>2011-12-04T12:53:42.3Z</time>
      </trkpt>
      <trkpt lat="47.27082" lon="-1.62965">
        <ele>46</ele>
        <time>2011-12-04T12:53:42.8Z</time>
      </trkpt>
      <trkpt lat="47.27082" lon="-1.62957">
        <ele>46</ele>
        <time>2011-12-04T12:53:46.2Z</time>
      </trkpt>
      <trkpt lat="47.2708" lon="-1.62947">
        <ele>46</ele>
        <time>2011-12-04T12:53:46.8Z</time>
      </trkpt>
      <trkpt lat="47.2708" lon="-1.62942">
        <ele>46</ele>
        <time>2011-12-04T12:53:47.8Z</time>
      </trkpt>
      <trkpt lat="47.27077" lon="-1.62932">
        <ele>46</ele>
        <time>2011-12-04T12:53:51Z</time>
      </trkpt>
      <trkpt lat="47.27075" lon="-1.62921">
        <ele>46</ele>
        <time>2011-12-04T12:53:51.8Z</time>
      </trkpt>
      <trkpt lat="47.27074" lon="-1.62916">
        <ele>46</ele>
        <time>2011-12-04T12:53:52.8Z</time>
      </trkpt>
      <trkpt lat="47.27071" lon="-1.62899">
        <ele>46</ele>
        <time>2011-12-04T12:53:55.8Z</time>
      </trkpt>
      <trkpt lat="47.27069" lon="-1.62894">
        <ele>46</ele>
        <time>2011-12-04T12:53:56.8Z</time>
      </trkpt>
      <trkpt lat="47.27067" lon="-1.62884">
        <ele>46</ele>
        <time>2011-12-04T12:54:00.5Z</time>
      </trkpt>
      <trkpt lat="47.27065" lon="-1.62874">
        <ele>46</ele>
        <time>2011-12-04T12:54:00.8Z</time>
      </trkpt>
      <trkpt lat="47.27064" lon="-1.6287">
        <ele>46</ele>
        <time>2011-12-04T12:54:01.8Z</time>
      </trkpt>
      <trkpt lat="47.27061" lon="-1.62859">
        <ele>46</ele>
        <time>2011-12-04T12:54:05.2Z</time>
      </trkpt>
      <trkpt lat="47.27059" lon="-1.62849">
        <ele>46</ele>
        <time>2011-12-04T12:54:05.8Z</time>
      </trkpt>
      <trkpt lat="47.27058" lon="-1.62843">
        <ele>46</ele>
        <time>2011-12-04T12:54:06.8Z</time>
      </trkpt>
      <trkpt lat="47.27056" lon="-1.62832">
        <ele>46</ele>
        <time>2011-12-04T12:54:09.9Z</time>
      </trkpt>
      <trkpt lat="47.27053" lon="-1.62821">
        <ele>46</ele>
        <time>2011-12-04T12:54:10.8Z</time>
      </trkpt>
      <trkpt lat="47.27052" lon="-1.62815">
        <ele>46</ele>
        <time>2011-12-04T12:54:11.8Z</time>
      </trkpt>
      <trkpt lat="47.27048" lon="-1.62798">
        <ele>46</ele>
        <time>2011-12-04T12:54:14.8Z</time>
      </trkpt>
      <trkpt lat="47.27046" lon="-1.62791">
        <ele>46</ele>
        <time>2011-12-04T12:54:15.8Z</time>
      </trkpt>
      <trkpt lat="47.27045" lon="-1.62779">
        <ele>46</ele>
        <time>2011-12-04T12:54:19.4Z</time>
      </trkpt>
      <trkpt lat="47.27042" lon="-1.62765">
        <ele>46</ele>
        <time>2011-12-04T12:54:19.8Z</time>
      </trkpt>
      <trkpt lat="47.27042" lon="-1.62757">
        <ele>46</ele>
        <time>2011-12-04T12:54:20.8Z</time>
      </trkpt>
      <trkpt lat="47.27039" lon="-1.62739">
        <ele>46</ele>
        <time>2011-12-04T12:54:24.1Z</time>
      </trkpt>
      <trkpt lat="47.27036" lon="-1.62721">
        <ele>46</ele>
        <time>2011-12-04T12:54:24.9Z</time>
      </trkpt>
      <trkpt lat="47.27035" lon="-1.62712">
        <ele>46</ele>
        <time>2011-12-04T12:54:25.8Z</time>
      </trkpt>
      <trkpt lat="47.2703" lon="-1.62686">
        <ele>46</ele>
        <time>2011-12-04T12:54:28.9Z</time>
      </trkpt>
      <trkpt lat="47.27028" lon="-1.62678">
        <ele>46</ele>
        <time>2011-12-04T12:54:29.8Z</time>
      </trkpt>
      <trkpt lat="47.27026" lon="-1.62671">
        <ele>46</ele>
        <time>2011-12-04T12:54:30.8Z</time>
      </trkpt>
      <trkpt lat="47.27022" lon="-1.62649">
        <ele>46</ele>
        <time>2011-12-04T12:54:33.8Z</time>
      </trkpt>
      <trkpt lat="47.27023" lon="-1.62641">
        <ele>46</ele>
        <time>2011-12-04T12:54:35.2Z</time>
      </trkpt>
      <trkpt lat="47.27024" lon="-1.62634">
        <ele>46</ele>
        <time>2011-12-04T12:54:36.2Z</time>
      </trkpt>
      <trkpt lat="47.27025" lon="-1.6262">
        <ele>46</ele>
        <time>2011-12-04T12:54:39.1Z</time>
      </trkpt>
      <trkpt lat="47.27025" lon="-1.62607">
        <ele>46</ele>
        <time>2011-12-04T12:54:39.8Z</time>
      </trkpt>
      <trkpt lat="47.27025" lon="-1.62601">
        <ele>46</ele>
        <time>2011-12-04T12:54:41Z</time>
      </trkpt>
      <trkpt lat="47.27024" lon="-1.62595">
        <ele>46</ele>
        <time>2011-12-04T12:54:42Z</time>
      </trkpt>
      <trkpt lat="47.27021" lon="-1.62581">
        <ele>46</ele>
        <time>2011-12-04T12:54:44.9Z</time>
      </trkpt>
      <trkpt lat="47.27018" lon="-1.62567">
        <ele>46</ele>
        <time>2011-12-04T12:54:45.8Z</time>
      </trkpt>
      <trkpt lat="47.27017" lon="-1.6256">
        <ele>46</ele>
        <time>2011-12-04T12:54:46.8Z</time>
      </trkpt>
      <trkpt lat="47.27012" lon="-1.62535">
        <ele>46</ele>
        <time>2011-12-04T12:54:49.8Z</time>
      </trkpt>
      <trkpt lat="47.27012" lon="-1.62527">
        <ele>46</ele>
        <time>2011-12-04T12:54:50.8Z</time>
      </trkpt>
      <trkpt lat="47.27013" lon="-1.62519">
        <ele>46</ele>
        <time>2011-12-04T12:54:52.2Z</time>
      </trkpt>
      <trkpt lat="47.2702" lon="-1.62501">
        <ele>46</ele>
        <time>2011-12-04T12:54:55.2Z</time>
      </trkpt>
      <trkpt lat="47.27027" lon="-1.62486">
        <ele>46</ele>
        <time>2011-12-04T12:54:55.9Z</time>
      </trkpt>
      <trkpt lat="47.27031" lon="-1.6248">
        <ele>45</ele>
        <time>2011-12-04T12:54:57.3Z</time>
      </trkpt>
      <trkpt lat="47.27035" lon="-1.62474">
        <ele>45</ele>
        <time>2011-12-04T12:54:57.9Z</time>
      </trkpt>
      <trkpt lat="47.27046" lon="-1.62457">
        <ele>44</ele>
        <time>2011-12-04T12:55:00.9Z</time>
      </trkpt>
      <trkpt lat="47.27047" lon="-1.62453">
        <ele>43</ele>
        <time>2011-12-04T12:55:01.8Z</time>
      </trkpt>
      <trkpt lat="47.27048" lon="-1.6245">
        <ele>43</ele>
        <time>2011-12-04T12:55:02.8Z</time>
      </trkpt>
      <trkpt lat="47.27048" lon="-1.62447">
        <ele>42</ele>
        <time>2011-12-04T12:55:03.8Z</time>
      </trkpt>
      <trkpt lat="47.27053" lon="-1.6244">
        <ele>42</ele>
        <time>2011-12-04T12:55:06.8Z</time>
      </trkpt>
      <trkpt lat="47.27055" lon="-1.62436">
        <ele>41</ele>
        <time>2011-12-04T12:55:07.8Z</time>
      </trkpt>
      <trkpt lat="47.27058" lon="-1.62433">
        <ele>41</ele>
        <time>2011-12-04T12:55:08.8Z</time>
      </trkpt>
      <trkpt lat="47.27067" lon="-1.62418">
        <ele>41</ele>
        <time>2011-12-04T12:55:11.8Z</time>
      </trkpt>
      <trkpt lat="47.27071" lon="-1.62413">
        <ele>41</ele>
        <time>2011-12-04T12:55:12.8Z</time>
      </trkpt>
      <trkpt lat="47.27079" lon="-1.62402">
        <ele>40</ele>
        <time>2011-12-04T12:55:16.5Z</time>
      </trkpt>
      <trkpt lat="47.27087" lon="-1.6239">
        <ele>40</ele>
        <time>2011-12-04T12:55:16.8Z</time>
      </trkpt>
      <trkpt lat="47.2709" lon="-1.62384">
        <ele>40</ele>
        <time>2011-12-04T12:55:17.8Z</time>
      </trkpt>
      <trkpt lat="47.27097" lon="-1.62371">
        <ele>40</ele>
        <time>2011-12-04T12:55:21.2Z</time>
      </trkpt>
      <trkpt lat="47.27102" lon="-1.62361">
        <ele>39</ele>
        <time>2011-12-04T12:55:21.8Z</time>
      </trkpt>
      <trkpt lat="47.27103" lon="-1.62356">
        <ele>39</ele>
        <time>2011-12-04T12:55:22.8Z</time>
      </trkpt>
      <trkpt lat="47.27103" lon="-1.62352">
        <ele>38</ele>
        <time>2011-12-04T12:55:23.8Z</time>
      </trkpt>
      <trkpt lat="47.27093" lon="-1.62336">
        <ele>37</ele>
        <time>2011-12-04T12:55:27.8Z</time>
      </trkpt>
      <trkpt lat="47.27092" lon="-1.62333">
        <ele>37</ele>
        <time>2011-12-04T12:55:28.8Z</time>
      </trkpt>
      <trkpt lat="47.27089" lon="-1.62331">
        <ele>37</ele>
        <time>2011-12-04T12:55:30Z</time>
      </trkpt>
      <trkpt lat="47.27074" lon="-1.62334">
        <ele>36</ele>
        <time>2011-12-04T12:55:33.8Z</time>
      </trkpt>
      <trkpt lat="47.27071" lon="-1.62337">
        <ele>35</ele>
        <time>2011-12-04T12:55:35Z</time>
      </trkpt>
      <trkpt lat="47.27068" lon="-1.6234">
        <ele>34</ele>
        <time>2011-12-04T12:55:35.8Z</time>
      </trkpt>
      <trkpt lat="47.27061" lon="-1.62348">
        <ele>34</ele>
        <time>2011-12-04T12:55:38.8Z</time>
      </trkpt>
      <trkpt lat="47.27059" lon="-1.6235">
        <ele>33</ele>
        <time>2011-12-04T12:55:39.8Z</time>
      </trkpt>
      <trkpt lat="47.27054" lon="-1.62355">
        <ele>33</ele>
        <time>2011-12-04T12:55:43.4Z</time>
      </trkpt>
      <trkpt lat="47.27051" lon="-1.62358">
        <ele>33</ele>
        <time>2011-12-04T12:55:43.8Z</time>
      </trkpt>
      <trkpt lat="47.27051" lon="-1.62361">
        <ele>33</ele>
        <time>2011-12-04T12:55:44.8Z</time>
      </trkpt>
      <trkpt lat="47.27049" lon="-1.62363">
        <ele>33</ele>
        <time>2011-12-04T12:55:51.2Z</time>
      </trkpt>
      <trkpt lat="47.2705" lon="-1.62365">
        <ele>33</ele>
        <time>2011-12-04T12:55:56.1Z</time>
      </trkpt>
      <trkpt lat="47.2705" lon="-1.62367">
        <ele>33</ele>
        <time>2011-12-04T12:55:56.9Z</time>
      </trkpt>
      <trkpt lat="47.27048" lon="-1.62368">
        <ele>33</ele>
        <time>2011-12-04T12:55:59.3Z</time>
      </trkpt>
      <trkpt lat="47.27045" lon="-1.62372">
        <ele>33</ele>
        <time>2011-12-04T12:56:03Z</time>
      </trkpt>
      <trkpt lat="47.27042" lon="-1.62377">
        <ele>33</ele>
        <time>2011-12-04T12:56:03.8Z</time>
      </trkpt>
      <trkpt lat="47.2704" lon="-1.6238">
        <ele>33</ele>
        <time>2011-12-04T12:56:07Z</time>
      </trkpt>
      <trkpt lat="47.27038" lon="-1.62384">
        <ele>33</ele>
        <time>2011-12-04T12:56:07.8Z</time>
      </trkpt>
      <trkpt lat="47.27036" lon="-1.62386">
        <ele>33</ele>
        <time>2011-12-04T12:56:08.8Z</time>
      </trkpt>
      <trkpt lat="47.2703" lon="-1.62393">
        <ele>33</ele>
        <time>2011-12-04T12:56:11.8Z</time>
      </trkpt>
      <trkpt lat="47.27028" lon="-1.62396">
        <ele>33</ele>
        <time>2011-12-04T12:56:12.8Z</time>
      </trkpt>
      <trkpt lat="47.27024" lon="-1.62402">
        <ele>33</ele>
        <time>2011-12-04T12:56:16.5Z</time>
      </trkpt>
      <trkpt lat="47.27019" lon="-1.62408">
        <ele>33</ele>
        <time>2011-12-04T12:56:16.8Z</time>
      </trkpt>
      <trkpt lat="47.27016" lon="-1.62411">
        <ele>33</ele>
        <time>2011-12-04T12:56:17.8Z</time>
      </trkpt>
      <trkpt lat="47.27011" lon="-1.62416">
        <ele>33</ele>
        <time>2011-12-04T12:56:21.2Z</time>
      </trkpt>
      <trkpt lat="47.27005" lon="-1.62421">
        <ele>33</ele>
        <time>2011-12-04T12:56:21.8Z</time>
      </trkpt>
      <trkpt lat="47.27001" lon="-1.62424">
        <ele>33</ele>
        <time>2011-12-04T12:56:22.8Z</time>
      </trkpt>
      <trkpt lat="47.26995" lon="-1.62427">
        <ele>33</ele>
        <time>2011-12-04T12:56:26Z</time>
      </trkpt>
      <trkpt lat="47.26989" lon="-1.62427">
        <ele>33</ele>
        <time>2011-12-04T12:56:26.8Z</time>
      </trkpt>
      <trkpt lat="47.26986" lon="-1.62427">
        <ele>33</ele>
        <time>2011-12-04T12:56:28Z</time>
      </trkpt>
      <trkpt lat="47.26985" lon="-1.62425">
        <ele>33</ele>
        <time>2011-12-04T12:56:28.8Z</time>
      </trkpt>
      <trkpt lat="47.26983" lon="-1.62418">
        <ele>33</ele>
        <time>2011-12-04T12:56:32.3Z</time>
      </trkpt>
      <trkpt lat="47.26986" lon="-1.6241">
        <ele>33</ele>
        <time>2011-12-04T12:56:32.9Z</time>
      </trkpt>
      <trkpt lat="47.26988" lon="-1.62407">
        <ele>33</ele>
        <time>2011-12-04T12:56:34.3Z</time>
      </trkpt>
      <trkpt lat="47.26989" lon="-1.62405">
        <ele>33</ele>
        <time>2011-12-04T12:56:35.1Z</time>
      </trkpt>
      <trkpt lat="47.26992" lon="-1.62402">
        <ele>33</ele>
        <time>2011-12-04T12:56:38Z</time>
      </trkpt>
      <trkpt lat="47.26992" lon="-1.624">
        <ele>33</ele>
        <time>2011-12-04T12:56:40.9Z</time>
      </trkpt>
      <trkpt lat="47.26992" lon="-1.62401">
        <ele>33</ele>
        <time>2011-12-04T12:56:46.4Z</time>
      </trkpt>
    </trkseg>
  </trk>
</gpx>